<?xml version="1.0" encoding="UTF-8" standalone="no" ?>
<gpx xmlns="http://www.topografix.com/GPX/1/1" xmlns:xsi="http://www.w3.org/2001/XMLSchema-instance" xsi:schemaLocation="http://www.topografix.com/GPX/1/1 http://www.topografix.com/GPX/1/1/gpx.xsd" version="1.1" creator="VisuGPX - https://www.visugpx.com">
  <metadata>
    <name>Raid des Rapaces 2013</name>
    <desc><![CDATA[Parcours du Raid des Rapaces organisé par le 1er RCP de Pamiers. Raid très convivial et parfaitement organisé.]]></desc>
  </metadata>
  <trk>
    <name><![CDATA[Raid des Rapaces 2013_1]]></name>
    <trkseg>
      <trkpt lat="43.08389" lon="1.8805">
        <ele>312</ele>
        <time>2013-09-29T06:40:03Z</time>
      </trkpt>
      <trkpt lat="43.08385" lon="1.88111">
        <ele>311</ele>
        <time>2013-09-29T06:40:08Z</time>
      </trkpt>
      <trkpt lat="43.08383" lon="1.8816">
        <ele>311</ele>
        <time>2013-09-29T06:40:13Z</time>
      </trkpt>
      <trkpt lat="43.08379" lon="1.88209">
        <ele>311</ele>
        <time>2013-09-29T06:40:19Z</time>
      </trkpt>
      <trkpt lat="43.08375" lon="1.88271">
        <ele>311</ele>
        <time>2013-09-29T06:40:24Z</time>
      </trkpt>
      <trkpt lat="43.08373" lon="1.88325">
        <ele>311</ele>
        <time>2013-09-29T06:40:29Z</time>
      </trkpt>
      <trkpt lat="43.08371" lon="1.8838">
        <ele>311</ele>
        <time>2013-09-29T06:40:34Z</time>
      </trkpt>
      <trkpt lat="43.08368" lon="1.88433">
        <ele>311</ele>
        <time>2013-09-29T06:40:39Z</time>
      </trkpt>
      <trkpt lat="43.08364" lon="1.88485">
        <ele>311</ele>
        <time>2013-09-29T06:40:44Z</time>
      </trkpt>
      <trkpt lat="43.08361" lon="1.88535">
        <ele>311</ele>
        <time>2013-09-29T06:40:49Z</time>
      </trkpt>
      <trkpt lat="43.08358" lon="1.88588">
        <ele>311</ele>
        <time>2013-09-29T06:40:55Z</time>
      </trkpt>
      <trkpt lat="43.08354" lon="1.88652">
        <ele>311</ele>
        <time>2013-09-29T06:41:00Z</time>
      </trkpt>
      <trkpt lat="43.08351" lon="1.88705">
        <ele>311</ele>
        <time>2013-09-29T06:41:05Z</time>
      </trkpt>
      <trkpt lat="43.08348" lon="1.88758">
        <ele>311</ele>
        <time>2013-09-29T06:41:10Z</time>
      </trkpt>
      <trkpt lat="43.08345" lon="1.88811">
        <ele>311</ele>
        <time>2013-09-29T06:41:15Z</time>
      </trkpt>
      <trkpt lat="43.08342" lon="1.88863">
        <ele>311</ele>
        <time>2013-09-29T06:41:21Z</time>
      </trkpt>
      <trkpt lat="43.08338" lon="1.88923">
        <ele>311</ele>
        <time>2013-09-29T06:41:26Z</time>
      </trkpt>
      <trkpt lat="43.08334" lon="1.88969">
        <ele>311</ele>
        <time>2013-09-29T06:41:32Z</time>
      </trkpt>
      <trkpt lat="43.08334" lon="1.88981">
        <ele>311</ele>
        <time>2013-09-29T06:41:37Z</time>
      </trkpt>
      <trkpt lat="43.0833" lon="1.88998">
        <ele>311</ele>
        <time>2013-09-29T06:41:43Z</time>
      </trkpt>
      <trkpt lat="43.08331" lon="1.89025">
        <ele>311</ele>
        <time>2013-09-29T06:41:48Z</time>
      </trkpt>
      <trkpt lat="43.08328" lon="1.89083">
        <ele>311</ele>
        <time>2013-09-29T06:41:54Z</time>
      </trkpt>
      <trkpt lat="43.08324" lon="1.8915">
        <ele>311</ele>
        <time>2013-09-29T06:41:59Z</time>
      </trkpt>
      <trkpt lat="43.0832" lon="1.89208">
        <ele>311</ele>
        <time>2013-09-29T06:42:05Z</time>
      </trkpt>
      <trkpt lat="43.08315" lon="1.89277">
        <ele>311</ele>
        <time>2013-09-29T06:42:11Z</time>
      </trkpt>
      <trkpt lat="43.08311" lon="1.89343">
        <ele>311</ele>
        <time>2013-09-29T06:42:16Z</time>
      </trkpt>
      <trkpt lat="43.08308" lon="1.89395">
        <ele>311</ele>
        <time>2013-09-29T06:42:21Z</time>
      </trkpt>
      <trkpt lat="43.08305" lon="1.89446">
        <ele>311</ele>
        <time>2013-09-29T06:42:26Z</time>
      </trkpt>
      <trkpt lat="43.08302" lon="1.89499">
        <ele>311</ele>
        <time>2013-09-29T06:42:31Z</time>
      </trkpt>
      <trkpt lat="43.08298" lon="1.89555">
        <ele>311</ele>
        <time>2013-09-29T06:42:36Z</time>
      </trkpt>
      <trkpt lat="43.08295" lon="1.89609">
        <ele>311</ele>
        <time>2013-09-29T06:42:41Z</time>
      </trkpt>
      <trkpt lat="43.0829" lon="1.89662">
        <ele>311</ele>
        <time>2013-09-29T06:42:46Z</time>
      </trkpt>
      <trkpt lat="43.08286" lon="1.89717">
        <ele>311</ele>
        <time>2013-09-29T06:42:51Z</time>
      </trkpt>
      <trkpt lat="43.08283" lon="1.89774">
        <ele>311</ele>
        <time>2013-09-29T06:42:56Z</time>
      </trkpt>
      <trkpt lat="43.08279" lon="1.89832">
        <ele>311</ele>
        <time>2013-09-29T06:43:01Z</time>
      </trkpt>
      <trkpt lat="43.08276" lon="1.8989">
        <ele>311</ele>
        <time>2013-09-29T06:43:06Z</time>
      </trkpt>
      <trkpt lat="43.08272" lon="1.89944">
        <ele>311</ele>
        <time>2013-09-29T06:43:12Z</time>
      </trkpt>
      <trkpt lat="43.08272" lon="1.8999">
        <ele>311</ele>
        <time>2013-09-29T06:43:17Z</time>
      </trkpt>
      <trkpt lat="43.08255" lon="1.90009">
        <ele>312</ele>
        <time>2013-09-29T06:43:23Z</time>
      </trkpt>
      <trkpt lat="43.08224" lon="1.90026">
        <ele>312</ele>
        <time>2013-09-29T06:43:28Z</time>
      </trkpt>
      <trkpt lat="43.08194" lon="1.90045">
        <ele>313</ele>
        <time>2013-09-29T06:43:34Z</time>
      </trkpt>
      <trkpt lat="43.08159" lon="1.90067">
        <ele>313</ele>
        <time>2013-09-29T06:43:39Z</time>
      </trkpt>
      <trkpt lat="43.08131" lon="1.90084">
        <ele>313</ele>
        <time>2013-09-29T06:43:44Z</time>
      </trkpt>
      <trkpt lat="43.08101" lon="1.90098">
        <ele>314</ele>
        <time>2013-09-29T06:43:49Z</time>
      </trkpt>
      <trkpt lat="43.08071" lon="1.90107">
        <ele>315</ele>
        <time>2013-09-29T06:43:54Z</time>
      </trkpt>
      <trkpt lat="43.08038" lon="1.90117">
        <ele>316</ele>
        <time>2013-09-29T06:43:59Z</time>
      </trkpt>
      <trkpt lat="43.08003" lon="1.90128">
        <ele>316</ele>
        <time>2013-09-29T06:44:04Z</time>
      </trkpt>
      <trkpt lat="43.07982" lon="1.90167">
        <ele>316</ele>
        <time>2013-09-29T06:44:10Z</time>
      </trkpt>
      <trkpt lat="43.07962" lon="1.90228">
        <ele>316</ele>
        <time>2013-09-29T06:44:15Z</time>
      </trkpt>
      <trkpt lat="43.07927" lon="1.90266">
        <ele>316</ele>
        <time>2013-09-29T06:44:20Z</time>
      </trkpt>
      <trkpt lat="43.0789" lon="1.90305">
        <ele>316</ele>
        <time>2013-09-29T06:44:26Z</time>
      </trkpt>
      <trkpt lat="43.07859" lon="1.90367">
        <ele>316</ele>
        <time>2013-09-29T06:44:31Z</time>
      </trkpt>
      <trkpt lat="43.07835" lon="1.90411">
        <ele>316</ele>
        <time>2013-09-29T06:44:37Z</time>
      </trkpt>
      <trkpt lat="43.07812" lon="1.90456">
        <ele>319</ele>
        <time>2013-09-29T06:44:42Z</time>
      </trkpt>
      <trkpt lat="43.07794" lon="1.90495">
        <ele>321</ele>
        <time>2013-09-29T06:44:47Z</time>
      </trkpt>
      <trkpt lat="43.07776" lon="1.90528">
        <ele>324</ele>
        <time>2013-09-29T06:44:52Z</time>
      </trkpt>
      <trkpt lat="43.07753" lon="1.90557">
        <ele>325</ele>
        <time>2013-09-29T06:44:57Z</time>
      </trkpt>
      <trkpt lat="43.07726" lon="1.90582">
        <ele>326</ele>
        <time>2013-09-29T06:45:02Z</time>
      </trkpt>
      <trkpt lat="43.07697" lon="1.90608">
        <ele>326</ele>
        <time>2013-09-29T06:45:07Z</time>
      </trkpt>
      <trkpt lat="43.07664" lon="1.90636">
        <ele>326</ele>
        <time>2013-09-29T06:45:12Z</time>
      </trkpt>
      <trkpt lat="43.0763" lon="1.90664">
        <ele>326</ele>
        <time>2013-09-29T06:45:17Z</time>
      </trkpt>
      <trkpt lat="43.07598" lon="1.90692">
        <ele>326</ele>
        <time>2013-09-29T06:45:22Z</time>
      </trkpt>
      <trkpt lat="43.07567" lon="1.90719">
        <ele>326</ele>
        <time>2013-09-29T06:45:27Z</time>
      </trkpt>
      <trkpt lat="43.07539" lon="1.90742">
        <ele>325</ele>
        <time>2013-09-29T06:45:32Z</time>
      </trkpt>
      <trkpt lat="43.07521" lon="1.90759">
        <ele>325</ele>
        <time>2013-09-29T06:45:37Z</time>
      </trkpt>
      <trkpt lat="43.07503" lon="1.90768">
        <ele>325</ele>
        <time>2013-09-29T06:45:42Z</time>
      </trkpt>
      <trkpt lat="43.07479" lon="1.90782">
        <ele>325</ele>
        <time>2013-09-29T06:45:47Z</time>
      </trkpt>
      <trkpt lat="43.07454" lon="1.90796">
        <ele>325</ele>
        <time>2013-09-29T06:45:52Z</time>
      </trkpt>
      <trkpt lat="43.07431" lon="1.90806">
        <ele>325</ele>
        <time>2013-09-29T06:45:58Z</time>
      </trkpt>
      <trkpt lat="43.07409" lon="1.9082">
        <ele>325</ele>
        <time>2013-09-29T06:46:03Z</time>
      </trkpt>
      <trkpt lat="43.07372" lon="1.90826">
        <ele>325</ele>
        <time>2013-09-29T06:46:08Z</time>
      </trkpt>
      <trkpt lat="43.07342" lon="1.90832">
        <ele>325</ele>
        <time>2013-09-29T06:46:13Z</time>
      </trkpt>
      <trkpt lat="43.07314" lon="1.90837">
        <ele>327</ele>
        <time>2013-09-29T06:46:18Z</time>
      </trkpt>
      <trkpt lat="43.07287" lon="1.90835">
        <ele>327</ele>
        <time>2013-09-29T06:46:23Z</time>
      </trkpt>
      <trkpt lat="43.0727" lon="1.90829">
        <ele>326</ele>
        <time>2013-09-29T06:46:28Z</time>
      </trkpt>
      <trkpt lat="43.07255" lon="1.90824">
        <ele>322</ele>
        <time>2013-09-29T06:46:34Z</time>
      </trkpt>
      <trkpt lat="43.07238" lon="1.90816">
        <ele>318</ele>
        <time>2013-09-29T06:46:39Z</time>
      </trkpt>
      <trkpt lat="43.07226" lon="1.90808">
        <ele>315</ele>
        <time>2013-09-29T06:46:44Z</time>
      </trkpt>
      <trkpt lat="43.07216" lon="1.90803">
        <ele>314</ele>
        <time>2013-09-29T06:46:49Z</time>
      </trkpt>
      <trkpt lat="43.07204" lon="1.90801">
        <ele>314</ele>
        <time>2013-09-29T06:46:54Z</time>
      </trkpt>
      <trkpt lat="43.07191" lon="1.90802">
        <ele>314</ele>
        <time>2013-09-29T06:46:59Z</time>
      </trkpt>
      <trkpt lat="43.0718" lon="1.90808">
        <ele>314</ele>
        <time>2013-09-29T06:47:04Z</time>
      </trkpt>
      <trkpt lat="43.0717" lon="1.90815">
        <ele>314</ele>
        <time>2013-09-29T06:47:10Z</time>
      </trkpt>
      <trkpt lat="43.07158" lon="1.90823">
        <ele>314</ele>
        <time>2013-09-29T06:47:16Z</time>
      </trkpt>
      <trkpt lat="43.07146" lon="1.90831">
        <ele>314</ele>
        <time>2013-09-29T06:47:21Z</time>
      </trkpt>
      <trkpt lat="43.07133" lon="1.90838">
        <ele>314</ele>
        <time>2013-09-29T06:47:26Z</time>
      </trkpt>
      <trkpt lat="43.07116" lon="1.90846">
        <ele>314</ele>
        <time>2013-09-29T06:47:31Z</time>
      </trkpt>
      <trkpt lat="43.07097" lon="1.90854">
        <ele>314</ele>
        <time>2013-09-29T06:47:36Z</time>
      </trkpt>
      <trkpt lat="43.07077" lon="1.90858">
        <ele>314</ele>
        <time>2013-09-29T06:47:41Z</time>
      </trkpt>
      <trkpt lat="43.07059" lon="1.90868">
        <ele>318</ele>
        <time>2013-09-29T06:47:47Z</time>
      </trkpt>
      <trkpt lat="43.07042" lon="1.90891">
        <ele>322</ele>
        <time>2013-09-29T06:47:53Z</time>
      </trkpt>
      <trkpt lat="43.07024" lon="1.90911">
        <ele>328</ele>
        <time>2013-09-29T06:47:59Z</time>
      </trkpt>
      <trkpt lat="43.07005" lon="1.90931">
        <ele>334</ele>
        <time>2013-09-29T06:48:04Z</time>
      </trkpt>
      <trkpt lat="43.06989" lon="1.90949">
        <ele>339</ele>
        <time>2013-09-29T06:48:09Z</time>
      </trkpt>
      <trkpt lat="43.06974" lon="1.90966">
        <ele>344</ele>
        <time>2013-09-29T06:48:14Z</time>
      </trkpt>
      <trkpt lat="43.06952" lon="1.9098">
        <ele>349</ele>
        <time>2013-09-29T06:48:19Z</time>
      </trkpt>
      <trkpt lat="43.06927" lon="1.90999">
        <ele>354</ele>
        <time>2013-09-29T06:48:25Z</time>
      </trkpt>
      <trkpt lat="43.06899" lon="1.91019">
        <ele>355</ele>
        <time>2013-09-29T06:48:30Z</time>
      </trkpt>
      <trkpt lat="43.06877" lon="1.91035">
        <ele>356</ele>
        <time>2013-09-29T06:48:35Z</time>
      </trkpt>
      <trkpt lat="43.06847" lon="1.91053">
        <ele>356</ele>
        <time>2013-09-29T06:48:41Z</time>
      </trkpt>
      <trkpt lat="43.06816" lon="1.91049">
        <ele>358</ele>
        <time>2013-09-29T06:48:46Z</time>
      </trkpt>
      <trkpt lat="43.06782" lon="1.91038">
        <ele>359</ele>
        <time>2013-09-29T06:48:51Z</time>
      </trkpt>
      <trkpt lat="43.06769" lon="1.91028">
        <ele>359</ele>
        <time>2013-09-29T06:48:56Z</time>
      </trkpt>
      <trkpt lat="43.06758" lon="1.91021">
        <ele>359</ele>
        <time>2013-09-29T06:49:01Z</time>
      </trkpt>
      <trkpt lat="43.06746" lon="1.91032">
        <ele>359</ele>
        <time>2013-09-29T06:49:06Z</time>
      </trkpt>
      <trkpt lat="43.06734" lon="1.91048">
        <ele>359</ele>
        <time>2013-09-29T06:49:11Z</time>
      </trkpt>
      <trkpt lat="43.06721" lon="1.91064">
        <ele>360</ele>
        <time>2013-09-29T06:49:16Z</time>
      </trkpt>
      <trkpt lat="43.06709" lon="1.9108">
        <ele>361</ele>
        <time>2013-09-29T06:49:21Z</time>
      </trkpt>
      <trkpt lat="43.06696" lon="1.91095">
        <ele>362</ele>
        <time>2013-09-29T06:49:26Z</time>
      </trkpt>
      <trkpt lat="43.06689" lon="1.911">
        <ele>365</ele>
        <time>2013-09-29T06:49:32Z</time>
      </trkpt>
      <trkpt lat="43.06684" lon="1.91103">
        <ele>366</ele>
        <time>2013-09-29T06:49:37Z</time>
      </trkpt>
      <trkpt lat="43.06684" lon="1.91106">
        <ele>367</ele>
        <time>2013-09-29T06:49:43Z</time>
      </trkpt>
      <trkpt lat="43.06683" lon="1.91107">
        <ele>371</ele>
        <time>2013-09-29T06:49:48Z</time>
      </trkpt>
      <trkpt lat="43.06681" lon="1.91108">
        <ele>374</ele>
        <time>2013-09-29T06:49:54Z</time>
      </trkpt>
      <trkpt lat="43.06682" lon="1.91107">
        <ele>376</ele>
        <time>2013-09-29T06:50:03Z</time>
      </trkpt>
      <trkpt lat="43.06681" lon="1.91107">
        <ele>381</ele>
        <time>2013-09-29T06:50:22Z</time>
      </trkpt>
      <trkpt lat="43.0668" lon="1.91109">
        <ele>381</ele>
        <time>2013-09-29T06:50:35Z</time>
      </trkpt>
      <trkpt lat="43.06679" lon="1.91109">
        <ele>381</ele>
        <time>2013-09-29T06:50:52Z</time>
      </trkpt>
      <trkpt lat="43.06678" lon="1.91109">
        <ele>381</ele>
        <time>2013-09-29T06:51:00Z</time>
      </trkpt>
      <trkpt lat="43.06677" lon="1.91109">
        <ele>379</ele>
        <time>2013-09-29T06:51:11Z</time>
      </trkpt>
      <trkpt lat="43.06678" lon="1.91108">
        <ele>378</ele>
        <time>2013-09-29T06:51:19Z</time>
      </trkpt>
      <trkpt lat="43.06677" lon="1.91109">
        <ele>378</ele>
        <time>2013-09-29T06:51:29Z</time>
      </trkpt>
      <trkpt lat="43.06666" lon="1.9112">
        <ele>378</ele>
        <time>2013-09-29T06:51:34Z</time>
      </trkpt>
      <trkpt lat="43.06649" lon="1.91131">
        <ele>378</ele>
        <time>2013-09-29T06:51:39Z</time>
      </trkpt>
      <trkpt lat="43.06628" lon="1.91137">
        <ele>378</ele>
        <time>2013-09-29T06:51:44Z</time>
      </trkpt>
      <trkpt lat="43.06611" lon="1.91146">
        <ele>378</ele>
        <time>2013-09-29T06:51:49Z</time>
      </trkpt>
      <trkpt lat="43.06596" lon="1.91151">
        <ele>378</ele>
        <time>2013-09-29T06:51:55Z</time>
      </trkpt>
      <trkpt lat="43.06584" lon="1.91159">
        <ele>378</ele>
        <time>2013-09-29T06:52:00Z</time>
      </trkpt>
      <trkpt lat="43.06569" lon="1.91167">
        <ele>378</ele>
        <time>2013-09-29T06:52:06Z</time>
      </trkpt>
      <trkpt lat="43.06547" lon="1.91174">
        <ele>378</ele>
        <time>2013-09-29T06:52:11Z</time>
      </trkpt>
      <trkpt lat="43.06532" lon="1.91175">
        <ele>378</ele>
        <time>2013-09-29T06:52:16Z</time>
      </trkpt>
      <trkpt lat="43.06517" lon="1.91175">
        <ele>379</ele>
        <time>2013-09-29T06:52:21Z</time>
      </trkpt>
      <trkpt lat="43.06502" lon="1.91175">
        <ele>379</ele>
        <time>2013-09-29T06:52:26Z</time>
      </trkpt>
      <trkpt lat="43.06488" lon="1.91175">
        <ele>380</ele>
        <time>2013-09-29T06:52:31Z</time>
      </trkpt>
      <trkpt lat="43.06475" lon="1.91174">
        <ele>383</ele>
        <time>2013-09-29T06:52:36Z</time>
      </trkpt>
      <trkpt lat="43.06462" lon="1.91169">
        <ele>386</ele>
        <time>2013-09-29T06:52:41Z</time>
      </trkpt>
      <trkpt lat="43.06452" lon="1.9116">
        <ele>387</ele>
        <time>2013-09-29T06:52:46Z</time>
      </trkpt>
      <trkpt lat="43.06433" lon="1.9114">
        <ele>387</ele>
        <time>2013-09-29T06:52:51Z</time>
      </trkpt>
      <trkpt lat="43.06401" lon="1.91133">
        <ele>387</ele>
        <time>2013-09-29T06:52:56Z</time>
      </trkpt>
      <trkpt lat="43.06367" lon="1.91142">
        <ele>387</ele>
        <time>2013-09-29T06:53:01Z</time>
      </trkpt>
      <trkpt lat="43.0633" lon="1.91138">
        <ele>384</ele>
        <time>2013-09-29T06:53:06Z</time>
      </trkpt>
      <trkpt lat="43.06294" lon="1.9112">
        <ele>381</ele>
        <time>2013-09-29T06:53:11Z</time>
      </trkpt>
      <trkpt lat="43.0626" lon="1.91102">
        <ele>381</ele>
        <time>2013-09-29T06:53:17Z</time>
      </trkpt>
      <trkpt lat="43.06218" lon="1.91074">
        <ele>381</ele>
        <time>2013-09-29T06:53:22Z</time>
      </trkpt>
      <trkpt lat="43.06177" lon="1.91061">
        <ele>381</ele>
        <time>2013-09-29T06:53:27Z</time>
      </trkpt>
      <trkpt lat="43.06137" lon="1.9107">
        <ele>381</ele>
        <time>2013-09-29T06:53:32Z</time>
      </trkpt>
      <trkpt lat="43.0611" lon="1.91087">
        <ele>378</ele>
        <time>2013-09-29T06:53:37Z</time>
      </trkpt>
      <trkpt lat="43.06081" lon="1.91056">
        <ele>376</ele>
        <time>2013-09-29T06:53:42Z</time>
      </trkpt>
      <trkpt lat="43.06035" lon="1.91086">
        <ele>372</ele>
        <time>2013-09-29T06:53:47Z</time>
      </trkpt>
      <trkpt lat="43.05995" lon="1.91147">
        <ele>369</ele>
        <time>2013-09-29T06:53:52Z</time>
      </trkpt>
      <trkpt lat="43.05945" lon="1.91128">
        <ele>365</ele>
        <time>2013-09-29T06:53:57Z</time>
      </trkpt>
      <trkpt lat="43.05892" lon="1.9109">
        <ele>360</ele>
        <time>2013-09-29T06:54:02Z</time>
      </trkpt>
      <trkpt lat="43.05833" lon="1.91068">
        <ele>355</ele>
        <time>2013-09-29T06:54:07Z</time>
      </trkpt>
      <trkpt lat="43.05778" lon="1.91036">
        <ele>350</ele>
        <time>2013-09-29T06:54:13Z</time>
      </trkpt>
      <trkpt lat="43.05714" lon="1.91049">
        <ele>346</ele>
        <time>2013-09-29T06:54:18Z</time>
      </trkpt>
      <trkpt lat="43.05659" lon="1.91054">
        <ele>343</ele>
        <time>2013-09-29T06:54:23Z</time>
      </trkpt>
      <trkpt lat="43.05622" lon="1.91054">
        <ele>343</ele>
        <time>2013-09-29T06:54:28Z</time>
      </trkpt>
      <trkpt lat="43.05611" lon="1.91058">
        <ele>343</ele>
        <time>2013-09-29T06:54:33Z</time>
      </trkpt>
      <trkpt lat="43.05589" lon="1.91057">
        <ele>343</ele>
        <time>2013-09-29T06:54:38Z</time>
      </trkpt>
      <trkpt lat="43.05566" lon="1.91053">
        <ele>343</ele>
        <time>2013-09-29T06:54:43Z</time>
      </trkpt>
      <trkpt lat="43.05554" lon="1.9105">
        <ele>343</ele>
        <time>2013-09-29T06:54:48Z</time>
      </trkpt>
      <trkpt lat="43.05542" lon="1.91047">
        <ele>342</ele>
        <time>2013-09-29T06:54:53Z</time>
      </trkpt>
      <trkpt lat="43.05529" lon="1.91045">
        <ele>341</ele>
        <time>2013-09-29T06:54:58Z</time>
      </trkpt>
      <trkpt lat="43.05515" lon="1.91042">
        <ele>341</ele>
        <time>2013-09-29T06:55:03Z</time>
      </trkpt>
      <trkpt lat="43.055" lon="1.91046">
        <ele>340</ele>
        <time>2013-09-29T06:55:08Z</time>
      </trkpt>
      <trkpt lat="43.05488" lon="1.91066">
        <ele>339</ele>
        <time>2013-09-29T06:55:13Z</time>
      </trkpt>
      <trkpt lat="43.05468" lon="1.9108">
        <ele>339</ele>
        <time>2013-09-29T06:55:19Z</time>
      </trkpt>
      <trkpt lat="43.05439" lon="1.91086">
        <ele>339</ele>
        <time>2013-09-29T06:55:24Z</time>
      </trkpt>
      <trkpt lat="43.05419" lon="1.9109">
        <ele>339</ele>
        <time>2013-09-29T06:55:29Z</time>
      </trkpt>
      <trkpt lat="43.05397" lon="1.91096">
        <ele>336</ele>
        <time>2013-09-29T06:55:34Z</time>
      </trkpt>
      <trkpt lat="43.05379" lon="1.91101">
        <ele>336</ele>
        <time>2013-09-29T06:55:39Z</time>
      </trkpt>
      <trkpt lat="43.05362" lon="1.91104">
        <ele>334</ele>
        <time>2013-09-29T06:55:44Z</time>
      </trkpt>
      <trkpt lat="43.05343" lon="1.91109">
        <ele>333</ele>
        <time>2013-09-29T06:55:50Z</time>
      </trkpt>
      <trkpt lat="43.0532" lon="1.9112">
        <ele>332</ele>
        <time>2013-09-29T06:55:55Z</time>
      </trkpt>
      <trkpt lat="43.05294" lon="1.91126">
        <ele>329</ele>
        <time>2013-09-29T06:56:00Z</time>
      </trkpt>
      <trkpt lat="43.05269" lon="1.9113">
        <ele>325</ele>
        <time>2013-09-29T06:56:05Z</time>
      </trkpt>
      <trkpt lat="43.05248" lon="1.91134">
        <ele>322</ele>
        <time>2013-09-29T06:56:10Z</time>
      </trkpt>
      <trkpt lat="43.05225" lon="1.91136">
        <ele>319</ele>
        <time>2013-09-29T06:56:15Z</time>
      </trkpt>
      <trkpt lat="43.05204" lon="1.91139">
        <ele>318</ele>
        <time>2013-09-29T06:56:20Z</time>
      </trkpt>
      <trkpt lat="43.05176" lon="1.91142">
        <ele>318</ele>
        <time>2013-09-29T06:56:25Z</time>
      </trkpt>
      <trkpt lat="43.0515" lon="1.9115">
        <ele>318</ele>
        <time>2013-09-29T06:56:30Z</time>
      </trkpt>
      <trkpt lat="43.05126" lon="1.91145">
        <ele>318</ele>
        <time>2013-09-29T06:56:35Z</time>
      </trkpt>
      <trkpt lat="43.05102" lon="1.9114">
        <ele>320</ele>
        <time>2013-09-29T06:56:40Z</time>
      </trkpt>
      <trkpt lat="43.05083" lon="1.91139">
        <ele>322</ele>
        <time>2013-09-29T06:56:45Z</time>
      </trkpt>
      <trkpt lat="43.05067" lon="1.91139">
        <ele>324</ele>
        <time>2013-09-29T06:56:50Z</time>
      </trkpt>
      <trkpt lat="43.05055" lon="1.9115">
        <ele>325</ele>
        <time>2013-09-29T06:56:56Z</time>
      </trkpt>
      <trkpt lat="43.05035" lon="1.91161">
        <ele>325</ele>
        <time>2013-09-29T06:57:01Z</time>
      </trkpt>
      <trkpt lat="43.05018" lon="1.9117">
        <ele>325</ele>
        <time>2013-09-29T06:57:06Z</time>
      </trkpt>
      <trkpt lat="43.05001" lon="1.9118">
        <ele>324</ele>
        <time>2013-09-29T06:57:11Z</time>
      </trkpt>
      <trkpt lat="43.04987" lon="1.91189">
        <ele>323</ele>
        <time>2013-09-29T06:57:16Z</time>
      </trkpt>
      <trkpt lat="43.04972" lon="1.91192">
        <ele>322</ele>
        <time>2013-09-29T06:57:21Z</time>
      </trkpt>
      <trkpt lat="43.04962" lon="1.91202">
        <ele>326</ele>
        <time>2013-09-29T06:57:26Z</time>
      </trkpt>
      <trkpt lat="43.0495" lon="1.91209">
        <ele>331</ele>
        <time>2013-09-29T06:57:31Z</time>
      </trkpt>
      <trkpt lat="43.04936" lon="1.9122">
        <ele>336</ele>
        <time>2013-09-29T06:57:36Z</time>
      </trkpt>
      <trkpt lat="43.04924" lon="1.91234">
        <ele>341</ele>
        <time>2013-09-29T06:57:41Z</time>
      </trkpt>
      <trkpt lat="43.04917" lon="1.91256">
        <ele>346</ele>
        <time>2013-09-29T06:57:46Z</time>
      </trkpt>
      <trkpt lat="43.04912" lon="1.91275">
        <ele>352</ele>
        <time>2013-09-29T06:57:51Z</time>
      </trkpt>
      <trkpt lat="43.04905" lon="1.91295">
        <ele>358</ele>
        <time>2013-09-29T06:57:56Z</time>
      </trkpt>
      <trkpt lat="43.04894" lon="1.91311">
        <ele>363</ele>
        <time>2013-09-29T06:58:01Z</time>
      </trkpt>
      <trkpt lat="43.04879" lon="1.91322">
        <ele>364</ele>
        <time>2013-09-29T06:58:06Z</time>
      </trkpt>
      <trkpt lat="43.04861" lon="1.91329">
        <ele>364</ele>
        <time>2013-09-29T06:58:11Z</time>
      </trkpt>
      <trkpt lat="43.04845" lon="1.91336">
        <ele>364</ele>
        <time>2013-09-29T06:58:16Z</time>
      </trkpt>
      <trkpt lat="43.04847" lon="1.91341">
        <ele>363</ele>
        <time>2013-09-29T06:58:22Z</time>
      </trkpt>
      <trkpt lat="43.0486" lon="1.91349">
        <ele>363</ele>
        <time>2013-09-29T06:58:28Z</time>
      </trkpt>
      <trkpt lat="43.04877" lon="1.91365">
        <ele>362</ele>
        <time>2013-09-29T06:58:33Z</time>
      </trkpt>
      <trkpt lat="43.04886" lon="1.91383">
        <ele>362</ele>
        <time>2013-09-29T06:58:38Z</time>
      </trkpt>
      <trkpt lat="43.04882" lon="1.91403">
        <ele>362</ele>
        <time>2013-09-29T06:58:43Z</time>
      </trkpt>
      <trkpt lat="43.0488" lon="1.9143">
        <ele>362</ele>
        <time>2013-09-29T06:58:49Z</time>
      </trkpt>
      <trkpt lat="43.04877" lon="1.91471">
        <ele>362</ele>
        <time>2013-09-29T06:58:54Z</time>
      </trkpt>
      <trkpt lat="43.04874" lon="1.9151">
        <ele>362</ele>
        <time>2013-09-29T06:59:00Z</time>
      </trkpt>
      <trkpt lat="43.04869" lon="1.91561">
        <ele>362</ele>
        <time>2013-09-29T06:59:05Z</time>
      </trkpt>
      <trkpt lat="43.04866" lon="1.916">
        <ele>362</ele>
        <time>2013-09-29T06:59:10Z</time>
      </trkpt>
      <trkpt lat="43.0486" lon="1.91638">
        <ele>363</ele>
        <time>2013-09-29T06:59:16Z</time>
      </trkpt>
      <trkpt lat="43.04857" lon="1.91691">
        <ele>363</ele>
        <time>2013-09-29T06:59:21Z</time>
      </trkpt>
      <trkpt lat="43.04854" lon="1.91736">
        <ele>363</ele>
        <time>2013-09-29T06:59:26Z</time>
      </trkpt>
      <trkpt lat="43.0485" lon="1.91782">
        <ele>363</ele>
        <time>2013-09-29T06:59:31Z</time>
      </trkpt>
      <trkpt lat="43.04846" lon="1.91831">
        <ele>361</ele>
        <time>2013-09-29T06:59:37Z</time>
      </trkpt>
      <trkpt lat="43.04835" lon="1.91886">
        <ele>358</ele>
        <time>2013-09-29T06:59:42Z</time>
      </trkpt>
      <trkpt lat="43.0483" lon="1.91922">
        <ele>357</ele>
        <time>2013-09-29T06:59:47Z</time>
      </trkpt>
      <trkpt lat="43.04825" lon="1.91962">
        <ele>357</ele>
        <time>2013-09-29T06:59:53Z</time>
      </trkpt>
      <trkpt lat="43.04805" lon="1.92008">
        <ele>357</ele>
        <time>2013-09-29T06:59:58Z</time>
      </trkpt>
      <trkpt lat="43.04798" lon="1.92048">
        <ele>357</ele>
        <time>2013-09-29T07:00:03Z</time>
      </trkpt>
      <trkpt lat="43.04801" lon="1.92089">
        <ele>357</ele>
        <time>2013-09-29T07:00:09Z</time>
      </trkpt>
      <trkpt lat="43.04798" lon="1.92147">
        <ele>357</ele>
        <time>2013-09-29T07:00:14Z</time>
      </trkpt>
      <trkpt lat="43.04798" lon="1.92195">
        <ele>358</ele>
        <time>2013-09-29T07:00:19Z</time>
      </trkpt>
      <trkpt lat="43.04795" lon="1.92244">
        <ele>358</ele>
        <time>2013-09-29T07:00:24Z</time>
      </trkpt>
      <trkpt lat="43.04799" lon="1.92291">
        <ele>358</ele>
        <time>2013-09-29T07:00:30Z</time>
      </trkpt>
      <trkpt lat="43.04815" lon="1.92338">
        <ele>355</ele>
        <time>2013-09-29T07:00:35Z</time>
      </trkpt>
      <trkpt lat="43.04845" lon="1.92357">
        <ele>351</ele>
        <time>2013-09-29T07:00:40Z</time>
      </trkpt>
      <trkpt lat="43.04865" lon="1.92388">
        <ele>351</ele>
        <time>2013-09-29T07:00:45Z</time>
      </trkpt>
      <trkpt lat="43.04868" lon="1.92419">
        <ele>351</ele>
        <time>2013-09-29T07:00:51Z</time>
      </trkpt>
      <trkpt lat="43.04855" lon="1.92456">
        <ele>351</ele>
        <time>2013-09-29T07:00:56Z</time>
      </trkpt>
      <trkpt lat="43.04842" lon="1.92481">
        <ele>351</ele>
        <time>2013-09-29T07:01:01Z</time>
      </trkpt>
      <trkpt lat="43.04821" lon="1.92501">
        <ele>351</ele>
        <time>2013-09-29T07:01:06Z</time>
      </trkpt>
      <trkpt lat="43.04799" lon="1.9253">
        <ele>351</ele>
        <time>2013-09-29T07:01:11Z</time>
      </trkpt>
      <trkpt lat="43.04773" lon="1.92564">
        <ele>351</ele>
        <time>2013-09-29T07:01:16Z</time>
      </trkpt>
      <trkpt lat="43.04741" lon="1.92583">
        <ele>350</ele>
        <time>2013-09-29T07:01:21Z</time>
      </trkpt>
      <trkpt lat="43.04718" lon="1.92589">
        <ele>347</ele>
        <time>2013-09-29T07:01:26Z</time>
      </trkpt>
      <trkpt lat="43.04707" lon="1.92585">
        <ele>346</ele>
        <time>2013-09-29T07:01:31Z</time>
      </trkpt>
      <trkpt lat="43.04685" lon="1.92575">
        <ele>341</ele>
        <time>2013-09-29T07:01:36Z</time>
      </trkpt>
      <trkpt lat="43.04657" lon="1.92565">
        <ele>335</ele>
        <time>2013-09-29T07:01:42Z</time>
      </trkpt>
      <trkpt lat="43.04619" lon="1.92548">
        <ele>327</ele>
        <time>2013-09-29T07:01:47Z</time>
      </trkpt>
      <trkpt lat="43.04592" lon="1.92534">
        <ele>322</ele>
        <time>2013-09-29T07:01:52Z</time>
      </trkpt>
      <trkpt lat="43.04564" lon="1.92526">
        <ele>322</ele>
        <time>2013-09-29T07:01:57Z</time>
      </trkpt>
      <trkpt lat="43.04535" lon="1.92514">
        <ele>325</ele>
        <time>2013-09-29T07:02:02Z</time>
      </trkpt>
      <trkpt lat="43.04507" lon="1.92503">
        <ele>328</ele>
        <time>2013-09-29T07:02:07Z</time>
      </trkpt>
      <trkpt lat="43.0448" lon="1.92493">
        <ele>331</ele>
        <time>2013-09-29T07:02:12Z</time>
      </trkpt>
      <trkpt lat="43.04455" lon="1.92483">
        <ele>334</ele>
        <time>2013-09-29T07:02:17Z</time>
      </trkpt>
      <trkpt lat="43.0443" lon="1.92474">
        <ele>336</ele>
        <time>2013-09-29T07:02:22Z</time>
      </trkpt>
      <trkpt lat="43.04406" lon="1.92464">
        <ele>337</ele>
        <time>2013-09-29T07:02:28Z</time>
      </trkpt>
      <trkpt lat="43.04393" lon="1.92435">
        <ele>339</ele>
        <time>2013-09-29T07:02:34Z</time>
      </trkpt>
      <trkpt lat="43.04395" lon="1.9239">
        <ele>339</ele>
        <time>2013-09-29T07:02:39Z</time>
      </trkpt>
      <trkpt lat="43.04398" lon="1.92349">
        <ele>339</ele>
        <time>2013-09-29T07:02:44Z</time>
      </trkpt>
      <trkpt lat="43.04398" lon="1.92309">
        <ele>339</ele>
        <time>2013-09-29T07:02:49Z</time>
      </trkpt>
      <trkpt lat="43.0439" lon="1.92272">
        <ele>340</ele>
        <time>2013-09-29T07:02:54Z</time>
      </trkpt>
      <trkpt lat="43.04378" lon="1.9223">
        <ele>340</ele>
        <time>2013-09-29T07:02:59Z</time>
      </trkpt>
      <trkpt lat="43.04367" lon="1.92189">
        <ele>340</ele>
        <time>2013-09-29T07:03:04Z</time>
      </trkpt>
      <trkpt lat="43.04356" lon="1.92146">
        <ele>340</ele>
        <time>2013-09-29T07:03:10Z</time>
      </trkpt>
      <trkpt lat="43.04343" lon="1.92097">
        <ele>340</ele>
        <time>2013-09-29T07:03:15Z</time>
      </trkpt>
      <trkpt lat="43.0433" lon="1.92067">
        <ele>340</ele>
        <time>2013-09-29T07:03:20Z</time>
      </trkpt>
      <trkpt lat="43.04327" lon="1.92062">
        <ele>340</ele>
        <time>2013-09-29T07:03:29Z</time>
      </trkpt>
      <trkpt lat="43.04314" lon="1.92058">
        <ele>340</ele>
        <time>2013-09-29T07:03:34Z</time>
      </trkpt>
      <trkpt lat="43.04296" lon="1.9205">
        <ele>340</ele>
        <time>2013-09-29T07:03:39Z</time>
      </trkpt>
      <trkpt lat="43.04279" lon="1.92042">
        <ele>340</ele>
        <time>2013-09-29T07:03:44Z</time>
      </trkpt>
      <trkpt lat="43.04262" lon="1.92036">
        <ele>340</ele>
        <time>2013-09-29T07:03:49Z</time>
      </trkpt>
      <trkpt lat="43.04248" lon="1.92032">
        <ele>340</ele>
        <time>2013-09-29T07:03:54Z</time>
      </trkpt>
      <trkpt lat="43.04243" lon="1.92029">
        <ele>342</ele>
        <time>2013-09-29T07:04:00Z</time>
      </trkpt>
      <trkpt lat="43.04225" lon="1.92021">
        <ele>343</ele>
        <time>2013-09-29T07:04:05Z</time>
      </trkpt>
      <trkpt lat="43.04204" lon="1.9201">
        <ele>343</ele>
        <time>2013-09-29T07:04:10Z</time>
      </trkpt>
      <trkpt lat="43.04166" lon="1.9199">
        <ele>343</ele>
        <time>2013-09-29T07:04:15Z</time>
      </trkpt>
      <trkpt lat="43.04125" lon="1.91966">
        <ele>340</ele>
        <time>2013-09-29T07:04:21Z</time>
      </trkpt>
      <trkpt lat="43.04095" lon="1.91957">
        <ele>340</ele>
        <time>2013-09-29T07:04:26Z</time>
      </trkpt>
      <trkpt lat="43.04091" lon="1.91967">
        <ele>340</ele>
        <time>2013-09-29T07:04:32Z</time>
      </trkpt>
      <trkpt lat="43.04093" lon="1.91966">
        <ele>340</ele>
        <time>2013-09-29T07:04:39Z</time>
      </trkpt>
      <trkpt lat="43.04094" lon="1.91965">
        <ele>340</ele>
        <time>2013-09-29T07:04:45Z</time>
      </trkpt>
      <trkpt lat="43.04095" lon="1.91962">
        <ele>340</ele>
        <time>2013-09-29T07:04:50Z</time>
      </trkpt>
      <trkpt lat="43.041" lon="1.9195">
        <ele>340</ele>
        <time>2013-09-29T07:04:55Z</time>
      </trkpt>
      <trkpt lat="43.04103" lon="1.91941">
        <ele>343</ele>
        <time>2013-09-29T07:05:08Z</time>
      </trkpt>
      <trkpt lat="43.04105" lon="1.91948">
        <ele>343</ele>
        <time>2013-09-29T07:05:13Z</time>
      </trkpt>
      <trkpt lat="43.04099" lon="1.91956">
        <ele>343</ele>
        <time>2013-09-29T07:05:18Z</time>
      </trkpt>
      <trkpt lat="43.0409" lon="1.91972">
        <ele>343</ele>
        <time>2013-09-29T07:05:24Z</time>
      </trkpt>
      <trkpt lat="43.04067" lon="1.9201">
        <ele>343</ele>
        <time>2013-09-29T07:05:29Z</time>
      </trkpt>
      <trkpt lat="43.04044" lon="1.92047">
        <ele>342</ele>
        <time>2013-09-29T07:05:34Z</time>
      </trkpt>
      <trkpt lat="43.04024" lon="1.92083">
        <ele>340</ele>
        <time>2013-09-29T07:05:39Z</time>
      </trkpt>
      <trkpt lat="43.04012" lon="1.92104">
        <ele>339</ele>
        <time>2013-09-29T07:05:44Z</time>
      </trkpt>
      <trkpt lat="43.03996" lon="1.92132">
        <ele>338</ele>
        <time>2013-09-29T07:05:49Z</time>
      </trkpt>
      <trkpt lat="43.03975" lon="1.92168">
        <ele>336</ele>
        <time>2013-09-29T07:05:54Z</time>
      </trkpt>
      <trkpt lat="43.03955" lon="1.92199">
        <ele>335</ele>
        <time>2013-09-29T07:05:59Z</time>
      </trkpt>
      <trkpt lat="43.03946" lon="1.92198">
        <ele>333</ele>
        <time>2013-09-29T07:06:04Z</time>
      </trkpt>
      <trkpt lat="43.03939" lon="1.92191">
        <ele>329</ele>
        <time>2013-09-29T07:06:12Z</time>
      </trkpt>
      <trkpt lat="43.03923" lon="1.92184">
        <ele>328</ele>
        <time>2013-09-29T07:06:17Z</time>
      </trkpt>
      <trkpt lat="43.03895" lon="1.92177">
        <ele>327</ele>
        <time>2013-09-29T07:06:22Z</time>
      </trkpt>
      <trkpt lat="43.03866" lon="1.92168">
        <ele>327</ele>
        <time>2013-09-29T07:06:27Z</time>
      </trkpt>
      <trkpt lat="43.03838" lon="1.92166">
        <ele>327</ele>
        <time>2013-09-29T07:06:32Z</time>
      </trkpt>
      <trkpt lat="43.03813" lon="1.92173">
        <ele>327</ele>
        <time>2013-09-29T07:06:37Z</time>
      </trkpt>
      <trkpt lat="43.0379" lon="1.92163">
        <ele>327</ele>
        <time>2013-09-29T07:06:42Z</time>
      </trkpt>
      <trkpt lat="43.03778" lon="1.92147">
        <ele>331</ele>
        <time>2013-09-29T07:06:47Z</time>
      </trkpt>
      <trkpt lat="43.03774" lon="1.9213">
        <ele>336</ele>
        <time>2013-09-29T07:06:52Z</time>
      </trkpt>
      <trkpt lat="43.03765" lon="1.9211">
        <ele>338</ele>
        <time>2013-09-29T07:06:57Z</time>
      </trkpt>
      <trkpt lat="43.03758" lon="1.92088">
        <ele>342</ele>
        <time>2013-09-29T07:07:02Z</time>
      </trkpt>
      <trkpt lat="43.03744" lon="1.92072">
        <ele>344</ele>
        <time>2013-09-29T07:07:07Z</time>
      </trkpt>
      <trkpt lat="43.03737" lon="1.92051">
        <ele>346</ele>
        <time>2013-09-29T07:07:12Z</time>
      </trkpt>
      <trkpt lat="43.03738" lon="1.9204">
        <ele>351</ele>
        <time>2013-09-29T07:07:17Z</time>
      </trkpt>
      <trkpt lat="43.03742" lon="1.92031">
        <ele>357</ele>
        <time>2013-09-29T07:07:23Z</time>
      </trkpt>
      <trkpt lat="43.03746" lon="1.92026">
        <ele>362</ele>
        <time>2013-09-29T07:07:28Z</time>
      </trkpt>
      <trkpt lat="43.03749" lon="1.92016">
        <ele>367</ele>
        <time>2013-09-29T07:07:33Z</time>
      </trkpt>
      <trkpt lat="43.03752" lon="1.92006">
        <ele>372</ele>
        <time>2013-09-29T07:07:38Z</time>
      </trkpt>
      <trkpt lat="43.03754" lon="1.91995">
        <ele>373</ele>
        <time>2013-09-29T07:07:43Z</time>
      </trkpt>
      <trkpt lat="43.03754" lon="1.91986">
        <ele>373</ele>
        <time>2013-09-29T07:07:48Z</time>
      </trkpt>
      <trkpt lat="43.03752" lon="1.9198">
        <ele>373</ele>
        <time>2013-09-29T07:07:54Z</time>
      </trkpt>
      <trkpt lat="43.03755" lon="1.91969">
        <ele>373</ele>
        <time>2013-09-29T07:07:59Z</time>
      </trkpt>
      <trkpt lat="43.03761" lon="1.9196">
        <ele>373</ele>
        <time>2013-09-29T07:08:05Z</time>
      </trkpt>
      <trkpt lat="43.03766" lon="1.91953">
        <ele>373</ele>
        <time>2013-09-29T07:08:10Z</time>
      </trkpt>
      <trkpt lat="43.0377" lon="1.91942">
        <ele>374</ele>
        <time>2013-09-29T07:08:15Z</time>
      </trkpt>
      <trkpt lat="43.03774" lon="1.91934">
        <ele>375</ele>
        <time>2013-09-29T07:08:20Z</time>
      </trkpt>
      <trkpt lat="43.03778" lon="1.91924">
        <ele>376</ele>
        <time>2013-09-29T07:08:25Z</time>
      </trkpt>
      <trkpt lat="43.03772" lon="1.9192">
        <ele>378</ele>
        <time>2013-09-29T07:08:30Z</time>
      </trkpt>
      <trkpt lat="43.03761" lon="1.91919">
        <ele>378</ele>
        <time>2013-09-29T07:08:35Z</time>
      </trkpt>
      <trkpt lat="43.03748" lon="1.91916">
        <ele>373</ele>
        <time>2013-09-29T07:08:40Z</time>
      </trkpt>
      <trkpt lat="43.03735" lon="1.91917">
        <ele>369</ele>
        <time>2013-09-29T07:08:45Z</time>
      </trkpt>
      <trkpt lat="43.03725" lon="1.91916">
        <ele>369</ele>
        <time>2013-09-29T07:08:50Z</time>
      </trkpt>
      <trkpt lat="43.03716" lon="1.91915">
        <ele>368</ele>
        <time>2013-09-29T07:08:55Z</time>
      </trkpt>
      <trkpt lat="43.03706" lon="1.91915">
        <ele>368</ele>
        <time>2013-09-29T07:09:00Z</time>
      </trkpt>
      <trkpt lat="43.03698" lon="1.91911">
        <ele>368</ele>
        <time>2013-09-29T07:09:05Z</time>
      </trkpt>
      <trkpt lat="43.03688" lon="1.91909">
        <ele>368</ele>
        <time>2013-09-29T07:09:10Z</time>
      </trkpt>
      <trkpt lat="43.03669" lon="1.91905">
        <ele>368</ele>
        <time>2013-09-29T07:09:15Z</time>
      </trkpt>
      <trkpt lat="43.03656" lon="1.91894">
        <ele>370</ele>
        <time>2013-09-29T07:09:20Z</time>
      </trkpt>
      <trkpt lat="43.03648" lon="1.91879">
        <ele>373</ele>
        <time>2013-09-29T07:09:25Z</time>
      </trkpt>
      <trkpt lat="43.03637" lon="1.91855">
        <ele>373</ele>
        <time>2013-09-29T07:09:30Z</time>
      </trkpt>
      <trkpt lat="43.03627" lon="1.91834">
        <ele>374</ele>
        <time>2013-09-29T07:09:35Z</time>
      </trkpt>
      <trkpt lat="43.03615" lon="1.91808">
        <ele>375</ele>
        <time>2013-09-29T07:09:40Z</time>
      </trkpt>
      <trkpt lat="43.03597" lon="1.91771">
        <ele>374</ele>
        <time>2013-09-29T07:09:45Z</time>
      </trkpt>
      <trkpt lat="43.03585" lon="1.91738">
        <ele>373</ele>
        <time>2013-09-29T07:09:50Z</time>
      </trkpt>
      <trkpt lat="43.03576" lon="1.91711">
        <ele>373</ele>
        <time>2013-09-29T07:09:55Z</time>
      </trkpt>
      <trkpt lat="43.0357" lon="1.91701">
        <ele>374</ele>
        <time>2013-09-29T07:10:02Z</time>
      </trkpt>
      <trkpt lat="43.03568" lon="1.91698">
        <ele>378</ele>
        <time>2013-09-29T07:10:07Z</time>
      </trkpt>
      <trkpt lat="43.03555" lon="1.91689">
        <ele>378</ele>
        <time>2013-09-29T07:10:12Z</time>
      </trkpt>
      <trkpt lat="43.03539" lon="1.9168">
        <ele>378</ele>
        <time>2013-09-29T07:10:17Z</time>
      </trkpt>
      <trkpt lat="43.03519" lon="1.91666">
        <ele>378</ele>
        <time>2013-09-29T07:10:22Z</time>
      </trkpt>
      <trkpt lat="43.03499" lon="1.9165">
        <ele>378</ele>
        <time>2013-09-29T07:10:28Z</time>
      </trkpt>
      <trkpt lat="43.03474" lon="1.91631">
        <ele>378</ele>
        <time>2013-09-29T07:10:33Z</time>
      </trkpt>
      <trkpt lat="43.03453" lon="1.91618">
        <ele>378</ele>
        <time>2013-09-29T07:10:38Z</time>
      </trkpt>
      <trkpt lat="43.03434" lon="1.91607">
        <ele>378</ele>
        <time>2013-09-29T07:10:43Z</time>
      </trkpt>
      <trkpt lat="43.03426" lon="1.9159">
        <ele>378</ele>
        <time>2013-09-29T07:10:48Z</time>
      </trkpt>
      <trkpt lat="43.03427" lon="1.91567">
        <ele>378</ele>
        <time>2013-09-29T07:10:54Z</time>
      </trkpt>
      <trkpt lat="43.03422" lon="1.91541">
        <ele>378</ele>
        <time>2013-09-29T07:10:59Z</time>
      </trkpt>
      <trkpt lat="43.03415" lon="1.9152">
        <ele>378</ele>
        <time>2013-09-29T07:11:04Z</time>
      </trkpt>
      <trkpt lat="43.03406" lon="1.91501">
        <ele>380</ele>
        <time>2013-09-29T07:11:09Z</time>
      </trkpt>
      <trkpt lat="43.03398" lon="1.91478">
        <ele>383</ele>
        <time>2013-09-29T07:11:14Z</time>
      </trkpt>
      <trkpt lat="43.03389" lon="1.91453">
        <ele>384</ele>
        <time>2013-09-29T07:11:19Z</time>
      </trkpt>
      <trkpt lat="43.03373" lon="1.91426">
        <ele>385</ele>
        <time>2013-09-29T07:11:24Z</time>
      </trkpt>
      <trkpt lat="43.03359" lon="1.91397">
        <ele>387</ele>
        <time>2013-09-29T07:11:29Z</time>
      </trkpt>
      <trkpt lat="43.03347" lon="1.91371">
        <ele>388</ele>
        <time>2013-09-29T07:11:34Z</time>
      </trkpt>
      <trkpt lat="43.03338" lon="1.91346">
        <ele>390</ele>
        <time>2013-09-29T07:11:39Z</time>
      </trkpt>
      <trkpt lat="43.03335" lon="1.91323">
        <ele>391</ele>
        <time>2013-09-29T07:11:44Z</time>
      </trkpt>
      <trkpt lat="43.03335" lon="1.91299">
        <ele>392</ele>
        <time>2013-09-29T07:11:49Z</time>
      </trkpt>
      <trkpt lat="43.03334" lon="1.91273">
        <ele>392</ele>
        <time>2013-09-29T07:11:54Z</time>
      </trkpt>
      <trkpt lat="43.03333" lon="1.91243">
        <ele>394</ele>
        <time>2013-09-29T07:11:59Z</time>
      </trkpt>
      <trkpt lat="43.03334" lon="1.91208">
        <ele>394</ele>
        <time>2013-09-29T07:12:04Z</time>
      </trkpt>
      <trkpt lat="43.03328" lon="1.91162">
        <ele>394</ele>
        <time>2013-09-29T07:12:09Z</time>
      </trkpt>
      <trkpt lat="43.0332" lon="1.91106">
        <ele>394</ele>
        <time>2013-09-29T07:12:14Z</time>
      </trkpt>
      <trkpt lat="43.03313" lon="1.91046">
        <ele>394</ele>
        <time>2013-09-29T07:12:19Z</time>
      </trkpt>
      <trkpt lat="43.03313" lon="1.90985">
        <ele>394</ele>
        <time>2013-09-29T07:12:24Z</time>
      </trkpt>
      <trkpt lat="43.03314" lon="1.90926">
        <ele>394</ele>
        <time>2013-09-29T07:12:30Z</time>
      </trkpt>
      <trkpt lat="43.03326" lon="1.9086">
        <ele>393</ele>
        <time>2013-09-29T07:12:35Z</time>
      </trkpt>
      <trkpt lat="43.03336" lon="1.90808">
        <ele>392</ele>
        <time>2013-09-29T07:12:40Z</time>
      </trkpt>
      <trkpt lat="43.03325" lon="1.90762">
        <ele>391</ele>
        <time>2013-09-29T07:12:46Z</time>
      </trkpt>
      <trkpt lat="43.03276" lon="1.9073">
        <ele>388</ele>
        <time>2013-09-29T07:12:51Z</time>
      </trkpt>
      <trkpt lat="43.03232" lon="1.9068">
        <ele>383</ele>
        <time>2013-09-29T07:12:56Z</time>
      </trkpt>
      <trkpt lat="43.03215" lon="1.9066">
        <ele>380</ele>
        <time>2013-09-29T07:13:01Z</time>
      </trkpt>
      <trkpt lat="43.03197" lon="1.90676">
        <ele>380</ele>
        <time>2013-09-29T07:13:06Z</time>
      </trkpt>
      <trkpt lat="43.03173" lon="1.90697">
        <ele>380</ele>
        <time>2013-09-29T07:13:11Z</time>
      </trkpt>
      <trkpt lat="43.03148" lon="1.90716">
        <ele>380</ele>
        <time>2013-09-29T07:13:17Z</time>
      </trkpt>
      <trkpt lat="43.03117" lon="1.90739">
        <ele>380</ele>
        <time>2013-09-29T07:13:22Z</time>
      </trkpt>
      <trkpt lat="43.03091" lon="1.90761">
        <ele>383</ele>
        <time>2013-09-29T07:13:27Z</time>
      </trkpt>
      <trkpt lat="43.03066" lon="1.90785">
        <ele>385</ele>
        <time>2013-09-29T07:13:33Z</time>
      </trkpt>
      <trkpt lat="43.0304" lon="1.90822">
        <ele>387</ele>
        <time>2013-09-29T07:13:38Z</time>
      </trkpt>
      <trkpt lat="43.03021" lon="1.90867">
        <ele>387</ele>
        <time>2013-09-29T07:13:43Z</time>
      </trkpt>
      <trkpt lat="43.03008" lon="1.9092">
        <ele>387</ele>
        <time>2013-09-29T07:13:48Z</time>
      </trkpt>
      <trkpt lat="43.02991" lon="1.90972">
        <ele>387</ele>
        <time>2013-09-29T07:13:53Z</time>
      </trkpt>
      <trkpt lat="43.02974" lon="1.91022">
        <ele>388</ele>
        <time>2013-09-29T07:13:58Z</time>
      </trkpt>
      <trkpt lat="43.02958" lon="1.91068">
        <ele>389</ele>
        <time>2013-09-29T07:14:04Z</time>
      </trkpt>
      <trkpt lat="43.02933" lon="1.91106">
        <ele>391</ele>
        <time>2013-09-29T07:14:09Z</time>
      </trkpt>
      <trkpt lat="43.02913" lon="1.91127">
        <ele>393</ele>
        <time>2013-09-29T07:14:14Z</time>
      </trkpt>
      <trkpt lat="43.02899" lon="1.91151">
        <ele>395</ele>
        <time>2013-09-29T07:14:19Z</time>
      </trkpt>
      <trkpt lat="43.0289" lon="1.91181">
        <ele>396</ele>
        <time>2013-09-29T07:14:24Z</time>
      </trkpt>
      <trkpt lat="43.02881" lon="1.91214">
        <ele>396</ele>
        <time>2013-09-29T07:14:29Z</time>
      </trkpt>
      <trkpt lat="43.02869" lon="1.91244">
        <ele>396</ele>
        <time>2013-09-29T07:14:34Z</time>
      </trkpt>
      <trkpt lat="43.02854" lon="1.91272">
        <ele>396</ele>
        <time>2013-09-29T07:14:39Z</time>
      </trkpt>
      <trkpt lat="43.02842" lon="1.91296">
        <ele>397</ele>
        <time>2013-09-29T07:14:44Z</time>
      </trkpt>
      <trkpt lat="43.02835" lon="1.91315">
        <ele>398</ele>
        <time>2013-09-29T07:14:49Z</time>
      </trkpt>
      <trkpt lat="43.02828" lon="1.91338">
        <ele>398</ele>
        <time>2013-09-29T07:14:54Z</time>
      </trkpt>
      <trkpt lat="43.02816" lon="1.91368">
        <ele>398</ele>
        <time>2013-09-29T07:14:59Z</time>
      </trkpt>
      <trkpt lat="43.02811" lon="1.9142">
        <ele>398</ele>
        <time>2013-09-29T07:15:04Z</time>
      </trkpt>
      <trkpt lat="43.02829" lon="1.91474">
        <ele>398</ele>
        <time>2013-09-29T07:15:09Z</time>
      </trkpt>
      <trkpt lat="43.02858" lon="1.91509">
        <ele>395</ele>
        <time>2013-09-29T07:15:14Z</time>
      </trkpt>
      <trkpt lat="43.02822" lon="1.91538">
        <ele>393</ele>
        <time>2013-09-29T07:15:19Z</time>
      </trkpt>
      <trkpt lat="43.02783" lon="1.91517">
        <ele>390</ele>
        <time>2013-09-29T07:15:24Z</time>
      </trkpt>
      <trkpt lat="43.0274" lon="1.91484">
        <ele>386</ele>
        <time>2013-09-29T07:15:30Z</time>
      </trkpt>
      <trkpt lat="43.02697" lon="1.91543">
        <ele>380</ele>
        <time>2013-09-29T07:15:35Z</time>
      </trkpt>
      <trkpt lat="43.02659" lon="1.91583">
        <ele>377</ele>
        <time>2013-09-29T07:15:40Z</time>
      </trkpt>
      <trkpt lat="43.02619" lon="1.9156">
        <ele>372</ele>
        <time>2013-09-29T07:15:45Z</time>
      </trkpt>
      <trkpt lat="43.02584" lon="1.91599">
        <ele>367</ele>
        <time>2013-09-29T07:15:50Z</time>
      </trkpt>
      <trkpt lat="43.02546" lon="1.91634">
        <ele>364</ele>
        <time>2013-09-29T07:15:55Z</time>
      </trkpt>
      <trkpt lat="43.02525" lon="1.91685">
        <ele>362</ele>
        <time>2013-09-29T07:16:00Z</time>
      </trkpt>
      <trkpt lat="43.02519" lon="1.91737">
        <ele>362</ele>
        <time>2013-09-29T07:16:05Z</time>
      </trkpt>
      <trkpt lat="43.02506" lon="1.91777">
        <ele>362</ele>
        <time>2013-09-29T07:16:10Z</time>
      </trkpt>
      <trkpt lat="43.02493" lon="1.91814">
        <ele>362</ele>
        <time>2013-09-29T07:16:16Z</time>
      </trkpt>
      <trkpt lat="43.0248" lon="1.91852">
        <ele>362</ele>
        <time>2013-09-29T07:16:21Z</time>
      </trkpt>
      <trkpt lat="43.02472" lon="1.91882">
        <ele>362</ele>
        <time>2013-09-29T07:16:26Z</time>
      </trkpt>
      <trkpt lat="43.02456" lon="1.9191">
        <ele>361</ele>
        <time>2013-09-29T07:16:31Z</time>
      </trkpt>
      <trkpt lat="43.02423" lon="1.9192">
        <ele>359</ele>
        <time>2013-09-29T07:16:36Z</time>
      </trkpt>
      <trkpt lat="43.02383" lon="1.91927">
        <ele>354</ele>
        <time>2013-09-29T07:16:41Z</time>
      </trkpt>
      <trkpt lat="43.02346" lon="1.91937">
        <ele>349</ele>
        <time>2013-09-29T07:16:46Z</time>
      </trkpt>
      <trkpt lat="43.02338" lon="1.91951">
        <ele>342</ele>
        <time>2013-09-29T07:17:01Z</time>
      </trkpt>
      <trkpt lat="43.02337" lon="1.91954">
        <ele>342</ele>
        <time>2013-09-29T07:17:16Z</time>
      </trkpt>
      <trkpt lat="43.02339" lon="1.91957">
        <ele>342</ele>
        <time>2013-09-29T07:17:22Z</time>
      </trkpt>
      <trkpt lat="43.02332" lon="1.91968">
        <ele>342</ele>
        <time>2013-09-29T07:17:27Z</time>
      </trkpt>
      <trkpt lat="43.02314" lon="1.91989">
        <ele>342</ele>
        <time>2013-09-29T07:17:32Z</time>
      </trkpt>
      <trkpt lat="43.02295" lon="1.91973">
        <ele>342</ele>
        <time>2013-09-29T07:17:37Z</time>
      </trkpt>
      <trkpt lat="43.02278" lon="1.91957">
        <ele>342</ele>
        <time>2013-09-29T07:17:42Z</time>
      </trkpt>
      <trkpt lat="43.02258" lon="1.91944">
        <ele>342</ele>
        <time>2013-09-29T07:17:47Z</time>
      </trkpt>
      <trkpt lat="43.0225" lon="1.9194">
        <ele>341</ele>
        <time>2013-09-29T07:17:52Z</time>
      </trkpt>
      <trkpt lat="43.02243" lon="1.91942">
        <ele>341</ele>
        <time>2013-09-29T07:17:57Z</time>
      </trkpt>
      <trkpt lat="43.02242" lon="1.91939">
        <ele>343</ele>
        <time>2013-09-29T07:18:02Z</time>
      </trkpt>
      <trkpt lat="43.02235" lon="1.91929">
        <ele>347</ele>
        <time>2013-09-29T07:18:08Z</time>
      </trkpt>
      <trkpt lat="43.02225" lon="1.91911">
        <ele>348</ele>
        <time>2013-09-29T07:18:13Z</time>
      </trkpt>
      <trkpt lat="43.02214" lon="1.91893">
        <ele>348</ele>
        <time>2013-09-29T07:18:18Z</time>
      </trkpt>
      <trkpt lat="43.02203" lon="1.91869">
        <ele>348</ele>
        <time>2013-09-29T07:18:23Z</time>
      </trkpt>
      <trkpt lat="43.0219" lon="1.91845">
        <ele>348</ele>
        <time>2013-09-29T07:18:28Z</time>
      </trkpt>
      <trkpt lat="43.02172" lon="1.91822">
        <ele>348</ele>
        <time>2013-09-29T07:18:33Z</time>
      </trkpt>
      <trkpt lat="43.02158" lon="1.918">
        <ele>348</ele>
        <time>2013-09-29T07:18:38Z</time>
      </trkpt>
      <trkpt lat="43.02148" lon="1.91787">
        <ele>348</ele>
        <time>2013-09-29T07:18:43Z</time>
      </trkpt>
      <trkpt lat="43.02133" lon="1.91768">
        <ele>348</ele>
        <time>2013-09-29T07:18:48Z</time>
      </trkpt>
      <trkpt lat="43.02124" lon="1.91756">
        <ele>348</ele>
        <time>2013-09-29T07:18:53Z</time>
      </trkpt>
      <trkpt lat="43.02117" lon="1.91744">
        <ele>348</ele>
        <time>2013-09-29T07:18:58Z</time>
      </trkpt>
      <trkpt lat="43.02113" lon="1.91738">
        <ele>348</ele>
        <time>2013-09-29T07:19:04Z</time>
      </trkpt>
      <trkpt lat="43.02105" lon="1.91732">
        <ele>348</ele>
        <time>2013-09-29T07:19:09Z</time>
      </trkpt>
      <trkpt lat="43.02095" lon="1.91722">
        <ele>344</ele>
        <time>2013-09-29T07:19:14Z</time>
      </trkpt>
      <trkpt lat="43.02078" lon="1.91706">
        <ele>341</ele>
        <time>2013-09-29T07:19:19Z</time>
      </trkpt>
      <trkpt lat="43.02059" lon="1.91692">
        <ele>338</ele>
        <time>2013-09-29T07:19:24Z</time>
      </trkpt>
      <trkpt lat="43.02046" lon="1.91676">
        <ele>338</ele>
        <time>2013-09-29T07:19:29Z</time>
      </trkpt>
      <trkpt lat="43.02032" lon="1.91666">
        <ele>339</ele>
        <time>2013-09-29T07:19:34Z</time>
      </trkpt>
      <trkpt lat="43.02019" lon="1.91654">
        <ele>341</ele>
        <time>2013-09-29T07:19:39Z</time>
      </trkpt>
      <trkpt lat="43.02007" lon="1.91647">
        <ele>343</ele>
        <time>2013-09-29T07:19:44Z</time>
      </trkpt>
      <trkpt lat="43.01994" lon="1.91637">
        <ele>343</ele>
        <time>2013-09-29T07:19:49Z</time>
      </trkpt>
      <trkpt lat="43.01981" lon="1.91629">
        <ele>343</ele>
        <time>2013-09-29T07:19:54Z</time>
      </trkpt>
      <trkpt lat="43.01973" lon="1.91622">
        <ele>343</ele>
        <time>2013-09-29T07:19:59Z</time>
      </trkpt>
      <trkpt lat="43.01962" lon="1.91618">
        <ele>343</ele>
        <time>2013-09-29T07:20:04Z</time>
      </trkpt>
      <trkpt lat="43.01959" lon="1.91618">
        <ele>343</ele>
        <time>2013-09-29T07:20:09Z</time>
      </trkpt>
      <trkpt lat="43.01954" lon="1.91618">
        <ele>343</ele>
        <time>2013-09-29T07:20:14Z</time>
      </trkpt>
      <trkpt lat="43.01949" lon="1.91616">
        <ele>343</ele>
        <time>2013-09-29T07:20:19Z</time>
      </trkpt>
      <trkpt lat="43.01944" lon="1.91612">
        <ele>343</ele>
        <time>2013-09-29T07:20:25Z</time>
      </trkpt>
      <trkpt lat="43.01939" lon="1.91612">
        <ele>343</ele>
        <time>2013-09-29T07:20:31Z</time>
      </trkpt>
      <trkpt lat="43.01929" lon="1.91617">
        <ele>343</ele>
        <time>2013-09-29T07:20:36Z</time>
      </trkpt>
      <trkpt lat="43.01909" lon="1.91623">
        <ele>343</ele>
        <time>2013-09-29T07:20:41Z</time>
      </trkpt>
      <trkpt lat="43.01885" lon="1.91626">
        <ele>343</ele>
        <time>2013-09-29T07:20:46Z</time>
      </trkpt>
      <trkpt lat="43.01865" lon="1.91624">
        <ele>346</ele>
        <time>2013-09-29T07:20:51Z</time>
      </trkpt>
      <trkpt lat="43.01844" lon="1.9162">
        <ele>346</ele>
        <time>2013-09-29T07:20:56Z</time>
      </trkpt>
      <trkpt lat="43.01823" lon="1.91629">
        <ele>346</ele>
        <time>2013-09-29T07:21:01Z</time>
      </trkpt>
      <trkpt lat="43.01801" lon="1.91626">
        <ele>346</ele>
        <time>2013-09-29T07:21:06Z</time>
      </trkpt>
      <trkpt lat="43.01782" lon="1.91627">
        <ele>346</ele>
        <time>2013-09-29T07:21:11Z</time>
      </trkpt>
      <trkpt lat="43.01765" lon="1.9163">
        <ele>346</ele>
        <time>2013-09-29T07:21:16Z</time>
      </trkpt>
      <trkpt lat="43.01747" lon="1.91633">
        <ele>348</ele>
        <time>2013-09-29T07:21:21Z</time>
      </trkpt>
      <trkpt lat="43.01727" lon="1.91631">
        <ele>350</ele>
        <time>2013-09-29T07:21:26Z</time>
      </trkpt>
      <trkpt lat="43.01707" lon="1.91622">
        <ele>355</ele>
        <time>2013-09-29T07:21:31Z</time>
      </trkpt>
      <trkpt lat="43.01688" lon="1.91609">
        <ele>356</ele>
        <time>2013-09-29T07:21:36Z</time>
      </trkpt>
      <trkpt lat="43.01674" lon="1.91598">
        <ele>356</ele>
        <time>2013-09-29T07:21:41Z</time>
      </trkpt>
      <trkpt lat="43.01666" lon="1.91595">
        <ele>356</ele>
        <time>2013-09-29T07:21:46Z</time>
      </trkpt>
      <trkpt lat="43.0166" lon="1.91595">
        <ele>356</ele>
        <time>2013-09-29T07:21:52Z</time>
      </trkpt>
      <trkpt lat="43.01657" lon="1.91594">
        <ele>355</ele>
        <time>2013-09-29T07:21:58Z</time>
      </trkpt>
      <trkpt lat="43.01652" lon="1.91591">
        <ele>353</ele>
        <time>2013-09-29T07:22:04Z</time>
      </trkpt>
      <trkpt lat="43.01645" lon="1.91587">
        <ele>353</ele>
        <time>2013-09-29T07:22:09Z</time>
      </trkpt>
      <trkpt lat="43.01633" lon="1.91581">
        <ele>354</ele>
        <time>2013-09-29T07:22:14Z</time>
      </trkpt>
      <trkpt lat="43.01622" lon="1.91567">
        <ele>354</ele>
        <time>2013-09-29T07:22:19Z</time>
      </trkpt>
      <trkpt lat="43.01613" lon="1.91549">
        <ele>354</ele>
        <time>2013-09-29T07:22:24Z</time>
      </trkpt>
      <trkpt lat="43.01607" lon="1.91536">
        <ele>358</ele>
        <time>2013-09-29T07:22:29Z</time>
      </trkpt>
      <trkpt lat="43.01605" lon="1.91533">
        <ele>362</ele>
        <time>2013-09-29T07:22:35Z</time>
      </trkpt>
      <trkpt lat="43.01601" lon="1.91525">
        <ele>359</ele>
        <time>2013-09-29T07:22:41Z</time>
      </trkpt>
      <trkpt lat="43.01601" lon="1.91524">
        <ele>358</ele>
        <time>2013-09-29T07:22:48Z</time>
      </trkpt>
      <trkpt lat="43.01598" lon="1.91512">
        <ele>359</ele>
        <time>2013-09-29T07:22:54Z</time>
      </trkpt>
      <trkpt lat="43.01596" lon="1.91507">
        <ele>364</ele>
        <time>2013-09-29T07:22:59Z</time>
      </trkpt>
      <trkpt lat="43.01591" lon="1.91504">
        <ele>369</ele>
        <time>2013-09-29T07:23:04Z</time>
      </trkpt>
      <trkpt lat="43.01587" lon="1.91497">
        <ele>369</ele>
        <time>2013-09-29T07:23:09Z</time>
      </trkpt>
      <trkpt lat="43.01577" lon="1.9149">
        <ele>366</ele>
        <time>2013-09-29T07:23:14Z</time>
      </trkpt>
      <trkpt lat="43.01563" lon="1.91478">
        <ele>366</ele>
        <time>2013-09-29T07:23:19Z</time>
      </trkpt>
      <trkpt lat="43.01557" lon="1.91476">
        <ele>365</ele>
        <time>2013-09-29T07:23:24Z</time>
      </trkpt>
      <trkpt lat="43.01545" lon="1.91467">
        <ele>363</ele>
        <time>2013-09-29T07:23:29Z</time>
      </trkpt>
      <trkpt lat="43.01535" lon="1.91462">
        <ele>362</ele>
        <time>2013-09-29T07:23:34Z</time>
      </trkpt>
      <trkpt lat="43.01529" lon="1.91459">
        <ele>362</ele>
        <time>2013-09-29T07:23:41Z</time>
      </trkpt>
      <trkpt lat="43.0152" lon="1.9145">
        <ele>362</ele>
        <time>2013-09-29T07:23:46Z</time>
      </trkpt>
      <trkpt lat="43.01511" lon="1.9144">
        <ele>362</ele>
        <time>2013-09-29T07:23:51Z</time>
      </trkpt>
      <trkpt lat="43.01502" lon="1.91433">
        <ele>366</ele>
        <time>2013-09-29T07:23:57Z</time>
      </trkpt>
      <trkpt lat="43.01495" lon="1.9143">
        <ele>366</ele>
        <time>2013-09-29T07:24:02Z</time>
      </trkpt>
      <trkpt lat="43.01489" lon="1.91428">
        <ele>366</ele>
        <time>2013-09-29T07:24:09Z</time>
      </trkpt>
      <trkpt lat="43.0148" lon="1.9143">
        <ele>366</ele>
        <time>2013-09-29T07:24:15Z</time>
      </trkpt>
      <trkpt lat="43.01474" lon="1.91432">
        <ele>366</ele>
        <time>2013-09-29T07:24:20Z</time>
      </trkpt>
      <trkpt lat="43.01463" lon="1.91442">
        <ele>368</ele>
        <time>2013-09-29T07:24:25Z</time>
      </trkpt>
      <trkpt lat="43.0145" lon="1.91451">
        <ele>368</ele>
        <time>2013-09-29T07:24:31Z</time>
      </trkpt>
      <trkpt lat="43.01443" lon="1.91457">
        <ele>369</ele>
        <time>2013-09-29T07:24:36Z</time>
      </trkpt>
      <trkpt lat="43.01438" lon="1.9146">
        <ele>371</ele>
        <time>2013-09-29T07:24:41Z</time>
      </trkpt>
      <trkpt lat="43.01435" lon="1.91463">
        <ele>371</ele>
        <time>2013-09-29T07:24:48Z</time>
      </trkpt>
      <trkpt lat="43.01437" lon="1.91463">
        <ele>366</ele>
        <time>2013-09-29T07:24:54Z</time>
      </trkpt>
      <trkpt lat="43.01438" lon="1.9147">
        <ele>366</ele>
        <time>2013-09-29T07:24:59Z</time>
      </trkpt>
      <trkpt lat="43.01436" lon="1.91475">
        <ele>366</ele>
        <time>2013-09-29T07:25:04Z</time>
      </trkpt>
      <trkpt lat="43.01431" lon="1.9148">
        <ele>368</ele>
        <time>2013-09-29T07:25:09Z</time>
      </trkpt>
      <trkpt lat="43.01422" lon="1.9149">
        <ele>368</ele>
        <time>2013-09-29T07:25:14Z</time>
      </trkpt>
      <trkpt lat="43.01412" lon="1.91503">
        <ele>368</ele>
        <time>2013-09-29T07:25:19Z</time>
      </trkpt>
      <trkpt lat="43.01398" lon="1.91517">
        <ele>368</ele>
        <time>2013-09-29T07:25:24Z</time>
      </trkpt>
      <trkpt lat="43.01391" lon="1.9152">
        <ele>368</ele>
        <time>2013-09-29T07:25:30Z</time>
      </trkpt>
      <trkpt lat="43.01384" lon="1.9153">
        <ele>368</ele>
        <time>2013-09-29T07:25:35Z</time>
      </trkpt>
      <trkpt lat="43.0138" lon="1.91535">
        <ele>372</ele>
        <time>2013-09-29T07:25:41Z</time>
      </trkpt>
      <trkpt lat="43.01373" lon="1.91541">
        <ele>372</ele>
        <time>2013-09-29T07:25:46Z</time>
      </trkpt>
      <trkpt lat="43.01367" lon="1.91547">
        <ele>372</ele>
        <time>2013-09-29T07:25:52Z</time>
      </trkpt>
      <trkpt lat="43.0136" lon="1.91554">
        <ele>372</ele>
        <time>2013-09-29T07:25:58Z</time>
      </trkpt>
      <trkpt lat="43.01351" lon="1.91564">
        <ele>372</ele>
        <time>2013-09-29T07:26:04Z</time>
      </trkpt>
      <trkpt lat="43.01345" lon="1.9157">
        <ele>369</ele>
        <time>2013-09-29T07:26:10Z</time>
      </trkpt>
      <trkpt lat="43.01341" lon="1.91577">
        <ele>367</ele>
        <time>2013-09-29T07:26:16Z</time>
      </trkpt>
      <trkpt lat="43.01332" lon="1.9158">
        <ele>367</ele>
        <time>2013-09-29T07:26:22Z</time>
      </trkpt>
      <trkpt lat="43.01328" lon="1.91586">
        <ele>368</ele>
        <time>2013-09-29T07:26:27Z</time>
      </trkpt>
      <trkpt lat="43.01316" lon="1.91594">
        <ele>374</ele>
        <time>2013-09-29T07:26:32Z</time>
      </trkpt>
      <trkpt lat="43.01307" lon="1.91595">
        <ele>379</ele>
        <time>2013-09-29T07:26:37Z</time>
      </trkpt>
      <trkpt lat="43.01302" lon="1.91599">
        <ele>381</ele>
        <time>2013-09-29T07:26:42Z</time>
      </trkpt>
      <trkpt lat="43.01299" lon="1.91599">
        <ele>382</ele>
        <time>2013-09-29T07:26:47Z</time>
      </trkpt>
      <trkpt lat="43.01294" lon="1.91597">
        <ele>382</ele>
        <time>2013-09-29T07:26:52Z</time>
      </trkpt>
      <trkpt lat="43.01289" lon="1.91598">
        <ele>382</ele>
        <time>2013-09-29T07:26:57Z</time>
      </trkpt>
      <trkpt lat="43.01286" lon="1.91599">
        <ele>384</ele>
        <time>2013-09-29T07:27:02Z</time>
      </trkpt>
      <trkpt lat="43.01281" lon="1.916">
        <ele>389</ele>
        <time>2013-09-29T07:27:11Z</time>
      </trkpt>
      <trkpt lat="43.01278" lon="1.91598">
        <ele>391</ele>
        <time>2013-09-29T07:27:18Z</time>
      </trkpt>
      <trkpt lat="43.01276" lon="1.91601">
        <ele>398</ele>
        <time>2013-09-29T07:27:26Z</time>
      </trkpt>
      <trkpt lat="43.0127" lon="1.91601">
        <ele>399</ele>
        <time>2013-09-29T07:27:32Z</time>
      </trkpt>
      <trkpt lat="43.01263" lon="1.91601">
        <ele>399</ele>
        <time>2013-09-29T07:27:38Z</time>
      </trkpt>
      <trkpt lat="43.01262" lon="1.91597">
        <ele>399</ele>
        <time>2013-09-29T07:27:47Z</time>
      </trkpt>
      <trkpt lat="43.01261" lon="1.91591">
        <ele>396</ele>
        <time>2013-09-29T07:27:55Z</time>
      </trkpt>
      <trkpt lat="43.01259" lon="1.91584">
        <ele>392</ele>
        <time>2013-09-29T07:28:01Z</time>
      </trkpt>
      <trkpt lat="43.01257" lon="1.91584">
        <ele>386</ele>
        <time>2013-09-29T07:28:07Z</time>
      </trkpt>
      <trkpt lat="43.01255" lon="1.91583">
        <ele>386</ele>
        <time>2013-09-29T07:28:12Z</time>
      </trkpt>
      <trkpt lat="43.01252" lon="1.91579">
        <ele>386</ele>
        <time>2013-09-29T07:28:19Z</time>
      </trkpt>
      <trkpt lat="43.01256" lon="1.91579">
        <ele>386</ele>
        <time>2013-09-29T07:28:24Z</time>
      </trkpt>
      <trkpt lat="43.0126" lon="1.91581">
        <ele>386</ele>
        <time>2013-09-29T07:28:29Z</time>
      </trkpt>
      <trkpt lat="43.01265" lon="1.91576">
        <ele>384</ele>
        <time>2013-09-29T07:28:35Z</time>
      </trkpt>
      <trkpt lat="43.0127" lon="1.91576">
        <ele>383</ele>
        <time>2013-09-29T07:28:42Z</time>
      </trkpt>
      <trkpt lat="43.01271" lon="1.91578">
        <ele>383</ele>
        <time>2013-09-29T07:28:48Z</time>
      </trkpt>
      <trkpt lat="43.01273" lon="1.91577">
        <ele>387</ele>
        <time>2013-09-29T07:28:58Z</time>
      </trkpt>
      <trkpt lat="43.01278" lon="1.91573">
        <ele>387</ele>
        <time>2013-09-29T07:29:04Z</time>
      </trkpt>
      <trkpt lat="43.01281" lon="1.91566">
        <ele>385</ele>
        <time>2013-09-29T07:29:11Z</time>
      </trkpt>
      <trkpt lat="43.01283" lon="1.91565">
        <ele>382</ele>
        <time>2013-09-29T07:29:16Z</time>
      </trkpt>
      <trkpt lat="43.01282" lon="1.91561">
        <ele>381</ele>
        <time>2013-09-29T07:29:22Z</time>
      </trkpt>
      <trkpt lat="43.01279" lon="1.91556">
        <ele>381</ele>
        <time>2013-09-29T07:29:27Z</time>
      </trkpt>
      <trkpt lat="43.01273" lon="1.91557">
        <ele>381</ele>
        <time>2013-09-29T07:29:32Z</time>
      </trkpt>
      <trkpt lat="43.01267" lon="1.91554">
        <ele>381</ele>
        <time>2013-09-29T07:29:37Z</time>
      </trkpt>
      <trkpt lat="43.01264" lon="1.91551">
        <ele>381</ele>
        <time>2013-09-29T07:29:42Z</time>
      </trkpt>
      <trkpt lat="43.01261" lon="1.91549">
        <ele>380</ele>
        <time>2013-09-29T07:29:47Z</time>
      </trkpt>
      <trkpt lat="43.01253" lon="1.91546">
        <ele>380</ele>
        <time>2013-09-29T07:29:52Z</time>
      </trkpt>
      <trkpt lat="43.01239" lon="1.91543">
        <ele>380</ele>
        <time>2013-09-29T07:29:58Z</time>
      </trkpt>
      <trkpt lat="43.01228" lon="1.91542">
        <ele>380</ele>
        <time>2013-09-29T07:30:03Z</time>
      </trkpt>
      <trkpt lat="43.01221" lon="1.91543">
        <ele>380</ele>
        <time>2013-09-29T07:30:09Z</time>
      </trkpt>
      <trkpt lat="43.01212" lon="1.91544">
        <ele>380</ele>
        <time>2013-09-29T07:30:14Z</time>
      </trkpt>
      <trkpt lat="43.012" lon="1.91541">
        <ele>380</ele>
        <time>2013-09-29T07:30:19Z</time>
      </trkpt>
      <trkpt lat="43.01189" lon="1.91533">
        <ele>380</ele>
        <time>2013-09-29T07:30:24Z</time>
      </trkpt>
      <trkpt lat="43.01175" lon="1.9153">
        <ele>380</ele>
        <time>2013-09-29T07:30:29Z</time>
      </trkpt>
      <trkpt lat="43.01162" lon="1.91527">
        <ele>380</ele>
        <time>2013-09-29T07:30:34Z</time>
      </trkpt>
      <trkpt lat="43.01148" lon="1.9153">
        <ele>380</ele>
        <time>2013-09-29T07:30:40Z</time>
      </trkpt>
      <trkpt lat="43.01133" lon="1.91528">
        <ele>380</ele>
        <time>2013-09-29T07:30:46Z</time>
      </trkpt>
      <trkpt lat="43.0112" lon="1.91516">
        <ele>380</ele>
        <time>2013-09-29T07:30:51Z</time>
      </trkpt>
      <trkpt lat="43.01109" lon="1.91509">
        <ele>381</ele>
        <time>2013-09-29T07:30:56Z</time>
      </trkpt>
      <trkpt lat="43.01098" lon="1.91503">
        <ele>382</ele>
        <time>2013-09-29T07:31:01Z</time>
      </trkpt>
      <trkpt lat="43.01086" lon="1.91499">
        <ele>383</ele>
        <time>2013-09-29T07:31:06Z</time>
      </trkpt>
      <trkpt lat="43.01076" lon="1.91494">
        <ele>384</ele>
        <time>2013-09-29T07:31:11Z</time>
      </trkpt>
      <trkpt lat="43.01065" lon="1.91488">
        <ele>385</ele>
        <time>2013-09-29T07:31:16Z</time>
      </trkpt>
      <trkpt lat="43.01055" lon="1.91482">
        <ele>388</ele>
        <time>2013-09-29T07:31:21Z</time>
      </trkpt>
      <trkpt lat="43.01046" lon="1.91474">
        <ele>391</ele>
        <time>2013-09-29T07:31:27Z</time>
      </trkpt>
      <trkpt lat="43.01036" lon="1.91463">
        <ele>392</ele>
        <time>2013-09-29T07:31:32Z</time>
      </trkpt>
      <trkpt lat="43.01029" lon="1.91457">
        <ele>395</ele>
        <time>2013-09-29T07:31:37Z</time>
      </trkpt>
      <trkpt lat="43.01019" lon="1.91449">
        <ele>395</ele>
        <time>2013-09-29T07:31:43Z</time>
      </trkpt>
      <trkpt lat="43.01009" lon="1.9144">
        <ele>397</ele>
        <time>2013-09-29T07:31:48Z</time>
      </trkpt>
      <trkpt lat="43.01001" lon="1.91435">
        <ele>399</ele>
        <time>2013-09-29T07:31:53Z</time>
      </trkpt>
      <trkpt lat="43.00994" lon="1.91436">
        <ele>401</ele>
        <time>2013-09-29T07:31:58Z</time>
      </trkpt>
      <trkpt lat="43.00979" lon="1.91443">
        <ele>402</ele>
        <time>2013-09-29T07:32:03Z</time>
      </trkpt>
      <trkpt lat="43.00959" lon="1.91448">
        <ele>402</ele>
        <time>2013-09-29T07:32:08Z</time>
      </trkpt>
      <trkpt lat="43.00926" lon="1.91452">
        <ele>402</ele>
        <time>2013-09-29T07:32:13Z</time>
      </trkpt>
      <trkpt lat="43.0089" lon="1.91449">
        <ele>401</ele>
        <time>2013-09-29T07:32:18Z</time>
      </trkpt>
      <trkpt lat="43.00869" lon="1.91445">
        <ele>398</ele>
        <time>2013-09-29T07:32:23Z</time>
      </trkpt>
      <trkpt lat="43.00843" lon="1.9144">
        <ele>398</ele>
        <time>2013-09-29T07:32:28Z</time>
      </trkpt>
      <trkpt lat="43.00819" lon="1.91433">
        <ele>398</ele>
        <time>2013-09-29T07:32:33Z</time>
      </trkpt>
      <trkpt lat="43.00814" lon="1.91429">
        <ele>398</ele>
        <time>2013-09-29T07:32:39Z</time>
      </trkpt>
      <trkpt lat="43.00809" lon="1.91422">
        <ele>398</ele>
        <time>2013-09-29T07:32:45Z</time>
      </trkpt>
      <trkpt lat="43.00792" lon="1.91415">
        <ele>396</ele>
        <time>2013-09-29T07:32:50Z</time>
      </trkpt>
      <trkpt lat="43.00764" lon="1.91413">
        <ele>394</ele>
        <time>2013-09-29T07:32:55Z</time>
      </trkpt>
      <trkpt lat="43.00737" lon="1.91407">
        <ele>393</ele>
        <time>2013-09-29T07:33:01Z</time>
      </trkpt>
      <trkpt lat="43.00714" lon="1.91395">
        <ele>393</ele>
        <time>2013-09-29T07:33:06Z</time>
      </trkpt>
      <trkpt lat="43.00688" lon="1.91387">
        <ele>393</ele>
        <time>2013-09-29T07:33:11Z</time>
      </trkpt>
      <trkpt lat="43.00663" lon="1.91381">
        <ele>393</ele>
        <time>2013-09-29T07:33:16Z</time>
      </trkpt>
      <trkpt lat="43.00635" lon="1.91363">
        <ele>393</ele>
        <time>2013-09-29T07:33:21Z</time>
      </trkpt>
      <trkpt lat="43.00597" lon="1.91358">
        <ele>392</ele>
        <time>2013-09-29T07:33:26Z</time>
      </trkpt>
      <trkpt lat="43.00551" lon="1.91346">
        <ele>391</ele>
        <time>2013-09-29T07:33:31Z</time>
      </trkpt>
      <trkpt lat="43.00526" lon="1.91325">
        <ele>388</ele>
        <time>2013-09-29T07:33:36Z</time>
      </trkpt>
      <trkpt lat="43.00513" lon="1.9131">
        <ele>387</ele>
        <time>2013-09-29T07:33:41Z</time>
      </trkpt>
      <trkpt lat="43.00502" lon="1.91298">
        <ele>387</ele>
        <time>2013-09-29T07:33:46Z</time>
      </trkpt>
      <trkpt lat="43.00492" lon="1.91283">
        <ele>387</ele>
        <time>2013-09-29T07:33:52Z</time>
      </trkpt>
      <trkpt lat="43.00475" lon="1.91267">
        <ele>384</ele>
        <time>2013-09-29T07:33:57Z</time>
      </trkpt>
      <trkpt lat="43.00459" lon="1.91263">
        <ele>383</ele>
        <time>2013-09-29T07:34:02Z</time>
      </trkpt>
      <trkpt lat="43.00452" lon="1.91272">
        <ele>383</ele>
        <time>2013-09-29T07:34:08Z</time>
      </trkpt>
      <trkpt lat="43.0045" lon="1.91276">
        <ele>383</ele>
        <time>2013-09-29T07:34:13Z</time>
      </trkpt>
      <trkpt lat="43.00447" lon="1.91284">
        <ele>383</ele>
        <time>2013-09-29T07:34:18Z</time>
      </trkpt>
      <trkpt lat="43.00448" lon="1.9129">
        <ele>383</ele>
        <time>2013-09-29T07:34:23Z</time>
      </trkpt>
      <trkpt lat="43.00442" lon="1.91301">
        <ele>383</ele>
        <time>2013-09-29T07:34:28Z</time>
      </trkpt>
      <trkpt lat="43.00439" lon="1.91323">
        <ele>384</ele>
        <time>2013-09-29T07:34:33Z</time>
      </trkpt>
      <trkpt lat="43.00442" lon="1.91341">
        <ele>385</ele>
        <time>2013-09-29T07:34:38Z</time>
      </trkpt>
      <trkpt lat="43.00438" lon="1.91356">
        <ele>386</ele>
        <time>2013-09-29T07:34:43Z</time>
      </trkpt>
      <trkpt lat="43.00422" lon="1.91367">
        <ele>386</ele>
        <time>2013-09-29T07:34:48Z</time>
      </trkpt>
      <trkpt lat="43.00396" lon="1.91373">
        <ele>386</ele>
        <time>2013-09-29T07:34:53Z</time>
      </trkpt>
      <trkpt lat="43.00377" lon="1.91396">
        <ele>386</ele>
        <time>2013-09-29T07:34:58Z</time>
      </trkpt>
      <trkpt lat="43.00359" lon="1.91415">
        <ele>386</ele>
        <time>2013-09-29T07:35:03Z</time>
      </trkpt>
      <trkpt lat="43.00337" lon="1.91416">
        <ele>386</ele>
        <time>2013-09-29T07:35:08Z</time>
      </trkpt>
      <trkpt lat="43.00316" lon="1.91417">
        <ele>386</ele>
        <time>2013-09-29T07:35:13Z</time>
      </trkpt>
      <trkpt lat="43.00297" lon="1.91418">
        <ele>386</ele>
        <time>2013-09-29T07:35:18Z</time>
      </trkpt>
      <trkpt lat="43.00281" lon="1.91416">
        <ele>386</ele>
        <time>2013-09-29T07:35:23Z</time>
      </trkpt>
      <trkpt lat="43.00265" lon="1.91414">
        <ele>386</ele>
        <time>2013-09-29T07:35:28Z</time>
      </trkpt>
      <trkpt lat="43.00251" lon="1.91412">
        <ele>386</ele>
        <time>2013-09-29T07:35:33Z</time>
      </trkpt>
      <trkpt lat="43.00236" lon="1.91415">
        <ele>386</ele>
        <time>2013-09-29T07:35:38Z</time>
      </trkpt>
      <trkpt lat="43.0022" lon="1.91417">
        <ele>389</ele>
        <time>2013-09-29T07:35:43Z</time>
      </trkpt>
      <trkpt lat="43.00207" lon="1.91414">
        <ele>391</ele>
        <time>2013-09-29T07:35:48Z</time>
      </trkpt>
      <trkpt lat="43.00194" lon="1.91413">
        <ele>393</ele>
        <time>2013-09-29T07:35:53Z</time>
      </trkpt>
      <trkpt lat="43.00183" lon="1.91413">
        <ele>393</ele>
        <time>2013-09-29T07:35:58Z</time>
      </trkpt>
      <trkpt lat="43.00171" lon="1.91413">
        <ele>394</ele>
        <time>2013-09-29T07:36:03Z</time>
      </trkpt>
      <trkpt lat="43.00159" lon="1.91413">
        <ele>397</ele>
        <time>2013-09-29T07:36:08Z</time>
      </trkpt>
      <trkpt lat="43.00149" lon="1.91413">
        <ele>399</ele>
        <time>2013-09-29T07:36:13Z</time>
      </trkpt>
      <trkpt lat="43.0014" lon="1.91419">
        <ele>399</ele>
        <time>2013-09-29T07:36:19Z</time>
      </trkpt>
      <trkpt lat="43.00141" lon="1.9144">
        <ele>400</ele>
        <time>2013-09-29T07:36:24Z</time>
      </trkpt>
      <trkpt lat="43.0015" lon="1.91474">
        <ele>400</ele>
        <time>2013-09-29T07:36:30Z</time>
      </trkpt>
      <trkpt lat="43.00172" lon="1.91532">
        <ele>400</ele>
        <time>2013-09-29T07:36:35Z</time>
      </trkpt>
      <trkpt lat="43.00184" lon="1.91598">
        <ele>399</ele>
        <time>2013-09-29T07:36:40Z</time>
      </trkpt>
      <trkpt lat="43.00184" lon="1.91654">
        <ele>394</ele>
        <time>2013-09-29T07:36:45Z</time>
      </trkpt>
      <trkpt lat="43.00154" lon="1.91684">
        <ele>389</ele>
        <time>2013-09-29T07:36:50Z</time>
      </trkpt>
      <trkpt lat="43.00114" lon="1.91711">
        <ele>384</ele>
        <time>2013-09-29T07:36:55Z</time>
      </trkpt>
      <trkpt lat="43.00068" lon="1.9172">
        <ele>379</ele>
        <time>2013-09-29T07:37:00Z</time>
      </trkpt>
      <trkpt lat="43.00022" lon="1.91714">
        <ele>375</ele>
        <time>2013-09-29T07:37:05Z</time>
      </trkpt>
      <trkpt lat="42.99981" lon="1.91709">
        <ele>375</ele>
        <time>2013-09-29T07:37:10Z</time>
      </trkpt>
      <trkpt lat="42.99942" lon="1.91704">
        <ele>375</ele>
        <time>2013-09-29T07:37:15Z</time>
      </trkpt>
      <trkpt lat="42.99907" lon="1.91698">
        <ele>375</ele>
        <time>2013-09-29T07:37:20Z</time>
      </trkpt>
      <trkpt lat="42.99878" lon="1.9169">
        <ele>375</ele>
        <time>2013-09-29T07:37:25Z</time>
      </trkpt>
      <trkpt lat="42.99863" lon="1.91664">
        <ele>376</ele>
        <time>2013-09-29T07:37:30Z</time>
      </trkpt>
      <trkpt lat="42.9985" lon="1.91644">
        <ele>378</ele>
        <time>2013-09-29T07:37:35Z</time>
      </trkpt>
      <trkpt lat="42.99837" lon="1.91628">
        <ele>379</ele>
        <time>2013-09-29T07:37:40Z</time>
      </trkpt>
      <trkpt lat="42.99824" lon="1.91605">
        <ele>380</ele>
        <time>2013-09-29T07:37:45Z</time>
      </trkpt>
      <trkpt lat="42.99802" lon="1.91587">
        <ele>381</ele>
        <time>2013-09-29T07:37:50Z</time>
      </trkpt>
      <trkpt lat="42.99771" lon="1.91579">
        <ele>381</ele>
        <time>2013-09-29T07:37:55Z</time>
      </trkpt>
      <trkpt lat="42.99743" lon="1.91567">
        <ele>381</ele>
        <time>2013-09-29T07:38:00Z</time>
      </trkpt>
      <trkpt lat="42.99716" lon="1.91551">
        <ele>381</ele>
        <time>2013-09-29T07:38:05Z</time>
      </trkpt>
      <trkpt lat="42.99691" lon="1.91537">
        <ele>383</ele>
        <time>2013-09-29T07:38:10Z</time>
      </trkpt>
      <trkpt lat="42.99665" lon="1.91526">
        <ele>385</ele>
        <time>2013-09-29T07:38:15Z</time>
      </trkpt>
      <trkpt lat="42.99636" lon="1.91513">
        <ele>385</ele>
        <time>2013-09-29T07:38:20Z</time>
      </trkpt>
      <trkpt lat="42.99603" lon="1.91497">
        <ele>385</ele>
        <time>2013-09-29T07:38:25Z</time>
      </trkpt>
      <trkpt lat="42.99568" lon="1.91481">
        <ele>385</ele>
        <time>2013-09-29T07:38:30Z</time>
      </trkpt>
      <trkpt lat="42.99534" lon="1.91463">
        <ele>385</ele>
        <time>2013-09-29T07:38:35Z</time>
      </trkpt>
      <trkpt lat="42.99499" lon="1.91447">
        <ele>385</ele>
        <time>2013-09-29T07:38:40Z</time>
      </trkpt>
      <trkpt lat="42.99464" lon="1.91432">
        <ele>385</ele>
        <time>2013-09-29T07:38:45Z</time>
      </trkpt>
      <trkpt lat="42.99433" lon="1.91417">
        <ele>385</ele>
        <time>2013-09-29T07:38:50Z</time>
      </trkpt>
      <trkpt lat="42.99399" lon="1.91402">
        <ele>385</ele>
        <time>2013-09-29T07:38:56Z</time>
      </trkpt>
      <trkpt lat="42.99356" lon="1.91381">
        <ele>386</ele>
        <time>2013-09-29T07:39:01Z</time>
      </trkpt>
      <trkpt lat="42.99318" lon="1.91364">
        <ele>386</ele>
        <time>2013-09-29T07:39:06Z</time>
      </trkpt>
      <trkpt lat="42.99279" lon="1.91346">
        <ele>386</ele>
        <time>2013-09-29T07:39:11Z</time>
      </trkpt>
      <trkpt lat="42.9924" lon="1.91328">
        <ele>386</ele>
        <time>2013-09-29T07:39:16Z</time>
      </trkpt>
      <trkpt lat="42.992" lon="1.91307">
        <ele>386</ele>
        <time>2013-09-29T07:39:21Z</time>
      </trkpt>
      <trkpt lat="42.99161" lon="1.91288">
        <ele>386</ele>
        <time>2013-09-29T07:39:26Z</time>
      </trkpt>
      <trkpt lat="42.99123" lon="1.91271">
        <ele>386</ele>
        <time>2013-09-29T07:39:31Z</time>
      </trkpt>
      <trkpt lat="42.99085" lon="1.91253">
        <ele>386</ele>
        <time>2013-09-29T07:39:36Z</time>
      </trkpt>
      <trkpt lat="42.99046" lon="1.91235">
        <ele>386</ele>
        <time>2013-09-29T07:39:41Z</time>
      </trkpt>
      <trkpt lat="42.99007" lon="1.91218">
        <ele>386</ele>
        <time>2013-09-29T07:39:46Z</time>
      </trkpt>
      <trkpt lat="42.98968" lon="1.91202">
        <ele>386</ele>
        <time>2013-09-29T07:39:51Z</time>
      </trkpt>
      <trkpt lat="42.98929" lon="1.91187">
        <ele>386</ele>
        <time>2013-09-29T07:39:56Z</time>
      </trkpt>
      <trkpt lat="42.98893" lon="1.91171">
        <ele>386</ele>
        <time>2013-09-29T07:40:01Z</time>
      </trkpt>
      <trkpt lat="42.98863" lon="1.91165">
        <ele>386</ele>
        <time>2013-09-29T07:40:06Z</time>
      </trkpt>
      <trkpt lat="42.98856" lon="1.91211">
        <ele>389</ele>
        <time>2013-09-29T07:40:11Z</time>
      </trkpt>
      <trkpt lat="42.98846" lon="1.91261">
        <ele>389</ele>
        <time>2013-09-29T07:40:16Z</time>
      </trkpt>
      <trkpt lat="42.98841" lon="1.91311">
        <ele>389</ele>
        <time>2013-09-29T07:40:21Z</time>
      </trkpt>
      <trkpt lat="42.98841" lon="1.91363">
        <ele>389</ele>
        <time>2013-09-29T07:40:26Z</time>
      </trkpt>
      <trkpt lat="42.98846" lon="1.91413">
        <ele>389</ele>
        <time>2013-09-29T07:40:31Z</time>
      </trkpt>
      <trkpt lat="42.98856" lon="1.9146">
        <ele>389</ele>
        <time>2013-09-29T07:40:37Z</time>
      </trkpt>
      <trkpt lat="42.98859" lon="1.91518">
        <ele>389</ele>
        <time>2013-09-29T07:40:42Z</time>
      </trkpt>
      <trkpt lat="42.98854" lon="1.91565">
        <ele>389</ele>
        <time>2013-09-29T07:40:47Z</time>
      </trkpt>
      <trkpt lat="42.98845" lon="1.91613">
        <ele>389</ele>
        <time>2013-09-29T07:40:52Z</time>
      </trkpt>
      <trkpt lat="42.98833" lon="1.9166">
        <ele>389</ele>
        <time>2013-09-29T07:40:57Z</time>
      </trkpt>
      <trkpt lat="42.98822" lon="1.91708">
        <ele>389</ele>
        <time>2013-09-29T07:41:02Z</time>
      </trkpt>
      <trkpt lat="42.98811" lon="1.91757">
        <ele>389</ele>
        <time>2013-09-29T07:41:07Z</time>
      </trkpt>
      <trkpt lat="42.98798" lon="1.91805">
        <ele>389</ele>
        <time>2013-09-29T07:41:12Z</time>
      </trkpt>
      <trkpt lat="42.98776" lon="1.91847">
        <ele>389</ele>
        <time>2013-09-29T07:41:17Z</time>
      </trkpt>
      <trkpt lat="42.98746" lon="1.91883">
        <ele>389</ele>
        <time>2013-09-29T07:41:23Z</time>
      </trkpt>
      <trkpt lat="42.98709" lon="1.91924">
        <ele>389</ele>
        <time>2013-09-29T07:41:29Z</time>
      </trkpt>
      <trkpt lat="42.98695" lon="1.91971">
        <ele>389</ele>
        <time>2013-09-29T07:41:34Z</time>
      </trkpt>
      <trkpt lat="42.98688" lon="1.92037">
        <ele>389</ele>
        <time>2013-09-29T07:41:39Z</time>
      </trkpt>
      <trkpt lat="42.98679" lon="1.92098">
        <ele>389</ele>
        <time>2013-09-29T07:41:45Z</time>
      </trkpt>
      <trkpt lat="42.98669" lon="1.92174">
        <ele>389</ele>
        <time>2013-09-29T07:41:50Z</time>
      </trkpt>
      <trkpt lat="42.98662" lon="1.9224">
        <ele>389</ele>
        <time>2013-09-29T07:41:55Z</time>
      </trkpt>
      <trkpt lat="42.98652" lon="1.92321">
        <ele>389</ele>
        <time>2013-09-29T07:42:02Z</time>
      </trkpt>
      <trkpt lat="42.98645" lon="1.9239">
        <ele>389</ele>
        <time>2013-09-29T07:42:07Z</time>
      </trkpt>
      <trkpt lat="42.98637" lon="1.92455">
        <ele>389</ele>
        <time>2013-09-29T07:42:12Z</time>
      </trkpt>
      <trkpt lat="42.98623" lon="1.92527">
        <ele>389</ele>
        <time>2013-09-29T07:42:18Z</time>
      </trkpt>
      <trkpt lat="42.98603" lon="1.92593">
        <ele>388</ele>
        <time>2013-09-29T07:42:23Z</time>
      </trkpt>
      <trkpt lat="42.98584" lon="1.92646">
        <ele>388</ele>
        <time>2013-09-29T07:42:28Z</time>
      </trkpt>
      <trkpt lat="42.98566" lon="1.92692">
        <ele>388</ele>
        <time>2013-09-29T07:42:33Z</time>
      </trkpt>
      <trkpt lat="42.98549" lon="1.92735">
        <ele>388</ele>
        <time>2013-09-29T07:42:38Z</time>
      </trkpt>
      <trkpt lat="42.98531" lon="1.9278">
        <ele>388</ele>
        <time>2013-09-29T07:42:43Z</time>
      </trkpt>
      <trkpt lat="42.98515" lon="1.9282">
        <ele>388</ele>
        <time>2013-09-29T07:42:48Z</time>
      </trkpt>
      <trkpt lat="42.98499" lon="1.9286">
        <ele>389</ele>
        <time>2013-09-29T07:42:53Z</time>
      </trkpt>
      <trkpt lat="42.98485" lon="1.92902">
        <ele>391</ele>
        <time>2013-09-29T07:42:59Z</time>
      </trkpt>
      <trkpt lat="42.98472" lon="1.92954">
        <ele>392</ele>
        <time>2013-09-29T07:43:04Z</time>
      </trkpt>
      <trkpt lat="42.98463" lon="1.92999">
        <ele>392</ele>
        <time>2013-09-29T07:43:09Z</time>
      </trkpt>
      <trkpt lat="42.98452" lon="1.9304">
        <ele>393</ele>
        <time>2013-09-29T07:43:14Z</time>
      </trkpt>
      <trkpt lat="42.98434" lon="1.93079">
        <ele>393</ele>
        <time>2013-09-29T07:43:19Z</time>
      </trkpt>
      <trkpt lat="42.9841" lon="1.93111">
        <ele>394</ele>
        <time>2013-09-29T07:43:24Z</time>
      </trkpt>
      <trkpt lat="42.98389" lon="1.93142">
        <ele>394</ele>
        <time>2013-09-29T07:43:29Z</time>
      </trkpt>
      <trkpt lat="42.98387" lon="1.93197">
        <ele>394</ele>
        <time>2013-09-29T07:43:34Z</time>
      </trkpt>
      <trkpt lat="42.98392" lon="1.93251">
        <ele>394</ele>
        <time>2013-09-29T07:43:39Z</time>
      </trkpt>
      <trkpt lat="42.98396" lon="1.93298">
        <ele>394</ele>
        <time>2013-09-29T07:43:44Z</time>
      </trkpt>
      <trkpt lat="42.98397" lon="1.93335">
        <ele>394</ele>
        <time>2013-09-29T07:43:50Z</time>
      </trkpt>
      <trkpt lat="42.98392" lon="1.93365">
        <ele>396</ele>
        <time>2013-09-29T07:43:55Z</time>
      </trkpt>
      <trkpt lat="42.98371" lon="1.93377">
        <ele>399</ele>
        <time>2013-09-29T07:44:01Z</time>
      </trkpt>
      <trkpt lat="42.98353" lon="1.93388">
        <ele>401</ele>
        <time>2013-09-29T07:44:06Z</time>
      </trkpt>
      <trkpt lat="42.98346" lon="1.9339">
        <ele>402</ele>
        <time>2013-09-29T07:44:11Z</time>
      </trkpt>
      <trkpt lat="42.98341" lon="1.93388">
        <ele>402</ele>
        <time>2013-09-29T07:44:17Z</time>
      </trkpt>
      <trkpt lat="42.98347" lon="1.93394">
        <ele>402</ele>
        <time>2013-09-29T07:44:22Z</time>
      </trkpt>
      <trkpt lat="42.98347" lon="1.93414">
        <ele>403</ele>
        <time>2013-09-29T07:44:27Z</time>
      </trkpt>
      <trkpt lat="42.98343" lon="1.93438">
        <ele>405</ele>
        <time>2013-09-29T07:44:32Z</time>
      </trkpt>
      <trkpt lat="42.98342" lon="1.93462">
        <ele>407</ele>
        <time>2013-09-29T07:44:37Z</time>
      </trkpt>
      <trkpt lat="42.9835" lon="1.93489">
        <ele>408</ele>
        <time>2013-09-29T07:44:42Z</time>
      </trkpt>
      <trkpt lat="42.98361" lon="1.93515">
        <ele>409</ele>
        <time>2013-09-29T07:44:48Z</time>
      </trkpt>
      <trkpt lat="42.98365" lon="1.93551">
        <ele>409</ele>
        <time>2013-09-29T07:44:53Z</time>
      </trkpt>
      <trkpt lat="42.98359" lon="1.93582">
        <ele>410</ele>
        <time>2013-09-29T07:44:59Z</time>
      </trkpt>
      <trkpt lat="42.98351" lon="1.93623">
        <ele>410</ele>
        <time>2013-09-29T07:45:04Z</time>
      </trkpt>
      <trkpt lat="42.98341" lon="1.9365">
        <ele>410</ele>
        <time>2013-09-29T07:45:10Z</time>
      </trkpt>
      <trkpt lat="42.98336" lon="1.93682">
        <ele>410</ele>
        <time>2013-09-29T07:45:15Z</time>
      </trkpt>
      <trkpt lat="42.98331" lon="1.93697">
        <ele>410</ele>
        <time>2013-09-29T07:45:20Z</time>
      </trkpt>
      <trkpt lat="42.98331" lon="1.93696">
        <ele>413</ele>
        <time>2013-09-29T07:45:38Z</time>
      </trkpt>
      <trkpt lat="42.9833" lon="1.93696">
        <ele>414</ele>
        <time>2013-09-29T07:45:49Z</time>
      </trkpt>
      <trkpt lat="42.98331" lon="1.93694">
        <ele>412</ele>
        <time>2013-09-29T07:46:13Z</time>
      </trkpt>
      <trkpt lat="42.98331" lon="1.93696">
        <ele>411</ele>
        <time>2013-09-29T07:46:20Z</time>
      </trkpt>
      <trkpt lat="42.98329" lon="1.93698">
        <ele>411</ele>
        <time>2013-09-29T07:46:25Z</time>
      </trkpt>
      <trkpt lat="42.98329" lon="1.93695">
        <ele>411</ele>
        <time>2013-09-29T07:46:33Z</time>
      </trkpt>
      <trkpt lat="42.98329" lon="1.93691">
        <ele>412</ele>
        <time>2013-09-29T07:46:39Z</time>
      </trkpt>
      <trkpt lat="42.98325" lon="1.93691">
        <ele>412</ele>
        <time>2013-09-29T07:46:44Z</time>
      </trkpt>
      <trkpt lat="42.98319" lon="1.9369">
        <ele>412</ele>
        <time>2013-09-29T07:46:49Z</time>
      </trkpt>
      <trkpt lat="42.9832" lon="1.93688">
        <ele>409</ele>
        <time>2013-09-29T07:46:58Z</time>
      </trkpt>
      <trkpt lat="42.98322" lon="1.93686">
        <ele>408</ele>
        <time>2013-09-29T07:47:03Z</time>
      </trkpt>
      <trkpt lat="42.98328" lon="1.93675">
        <ele>408</ele>
        <time>2013-09-29T07:47:08Z</time>
      </trkpt>
      <trkpt lat="42.98333" lon="1.93667">
        <ele>408</ele>
        <time>2013-09-29T07:47:14Z</time>
      </trkpt>
      <trkpt lat="42.98338" lon="1.93653">
        <ele>408</ele>
        <time>2013-09-29T07:47:19Z</time>
      </trkpt>
      <trkpt lat="42.98343" lon="1.93637">
        <ele>408</ele>
        <time>2013-09-29T07:47:24Z</time>
      </trkpt>
      <trkpt lat="42.98349" lon="1.93619">
        <ele>408</ele>
        <time>2013-09-29T07:47:29Z</time>
      </trkpt>
      <trkpt lat="42.98353" lon="1.93599">
        <ele>408</ele>
        <time>2013-09-29T07:47:34Z</time>
      </trkpt>
      <trkpt lat="42.98357" lon="1.93577">
        <ele>408</ele>
        <time>2013-09-29T07:47:39Z</time>
      </trkpt>
      <trkpt lat="42.98361" lon="1.93557">
        <ele>408</ele>
        <time>2013-09-29T07:47:44Z</time>
      </trkpt>
      <trkpt lat="42.98362" lon="1.93534">
        <ele>408</ele>
        <time>2013-09-29T07:47:49Z</time>
      </trkpt>
      <trkpt lat="42.98355" lon="1.93509">
        <ele>408</ele>
        <time>2013-09-29T07:47:54Z</time>
      </trkpt>
      <trkpt lat="42.98343" lon="1.93488">
        <ele>408</ele>
        <time>2013-09-29T07:47:59Z</time>
      </trkpt>
      <trkpt lat="42.98338" lon="1.93464">
        <ele>408</ele>
        <time>2013-09-29T07:48:04Z</time>
      </trkpt>
      <trkpt lat="42.98339" lon="1.93437">
        <ele>408</ele>
        <time>2013-09-29T07:48:10Z</time>
      </trkpt>
      <trkpt lat="42.98343" lon="1.93407">
        <ele>408</ele>
        <time>2013-09-29T07:48:15Z</time>
      </trkpt>
      <trkpt lat="42.98341" lon="1.93381">
        <ele>408</ele>
        <time>2013-09-29T07:48:20Z</time>
      </trkpt>
      <trkpt lat="42.98337" lon="1.93357">
        <ele>407</ele>
        <time>2013-09-29T07:48:25Z</time>
      </trkpt>
      <trkpt lat="42.98343" lon="1.93333">
        <ele>406</ele>
        <time>2013-09-29T07:48:30Z</time>
      </trkpt>
      <trkpt lat="42.98344" lon="1.9331">
        <ele>405</ele>
        <time>2013-09-29T07:48:35Z</time>
      </trkpt>
      <trkpt lat="42.98341" lon="1.93288">
        <ele>404</ele>
        <time>2013-09-29T07:48:41Z</time>
      </trkpt>
      <trkpt lat="42.98338" lon="1.93265">
        <ele>404</ele>
        <time>2013-09-29T07:48:46Z</time>
      </trkpt>
      <trkpt lat="42.98335" lon="1.93242">
        <ele>404</ele>
        <time>2013-09-29T07:48:51Z</time>
      </trkpt>
      <trkpt lat="42.98331" lon="1.93216">
        <ele>404</ele>
        <time>2013-09-29T07:48:57Z</time>
      </trkpt>
      <trkpt lat="42.98326" lon="1.9319">
        <ele>404</ele>
        <time>2013-09-29T07:49:02Z</time>
      </trkpt>
      <trkpt lat="42.98323" lon="1.93167">
        <ele>404</ele>
        <time>2013-09-29T07:49:07Z</time>
      </trkpt>
      <trkpt lat="42.98319" lon="1.93145">
        <ele>404</ele>
        <time>2013-09-29T07:49:12Z</time>
      </trkpt>
      <trkpt lat="42.98315" lon="1.93124">
        <ele>404</ele>
        <time>2013-09-29T07:49:18Z</time>
      </trkpt>
      <trkpt lat="42.98306" lon="1.931">
        <ele>404</ele>
        <time>2013-09-29T07:49:23Z</time>
      </trkpt>
      <trkpt lat="42.98299" lon="1.93081">
        <ele>404</ele>
        <time>2013-09-29T07:49:29Z</time>
      </trkpt>
      <trkpt lat="42.98288" lon="1.93061">
        <ele>404</ele>
        <time>2013-09-29T07:49:34Z</time>
      </trkpt>
      <trkpt lat="42.98277" lon="1.93046">
        <ele>404</ele>
        <time>2013-09-29T07:49:39Z</time>
      </trkpt>
      <trkpt lat="42.98265" lon="1.93033">
        <ele>404</ele>
        <time>2013-09-29T07:49:44Z</time>
      </trkpt>
      <trkpt lat="42.98253" lon="1.93019">
        <ele>404</ele>
        <time>2013-09-29T07:49:49Z</time>
      </trkpt>
      <trkpt lat="42.9824" lon="1.93016">
        <ele>404</ele>
        <time>2013-09-29T07:49:54Z</time>
      </trkpt>
      <trkpt lat="42.98238" lon="1.93041">
        <ele>405</ele>
        <time>2013-09-29T07:49:59Z</time>
      </trkpt>
      <trkpt lat="42.9823" lon="1.9306">
        <ele>406</ele>
        <time>2013-09-29T07:50:04Z</time>
      </trkpt>
      <trkpt lat="42.98222" lon="1.93079">
        <ele>406</ele>
        <time>2013-09-29T07:50:09Z</time>
      </trkpt>
      <trkpt lat="42.98209" lon="1.93093">
        <ele>406</ele>
        <time>2013-09-29T07:50:14Z</time>
      </trkpt>
      <trkpt lat="42.98197" lon="1.93105">
        <ele>408</ele>
        <time>2013-09-29T07:50:19Z</time>
      </trkpt>
      <trkpt lat="42.98191" lon="1.93118">
        <ele>410</ele>
        <time>2013-09-29T07:50:24Z</time>
      </trkpt>
      <trkpt lat="42.98181" lon="1.93131">
        <ele>410</ele>
        <time>2013-09-29T07:50:29Z</time>
      </trkpt>
      <trkpt lat="42.9817" lon="1.93147">
        <ele>410</ele>
        <time>2013-09-29T07:50:34Z</time>
      </trkpt>
      <trkpt lat="42.98158" lon="1.93164">
        <ele>410</ele>
        <time>2013-09-29T07:50:39Z</time>
      </trkpt>
      <trkpt lat="42.98148" lon="1.93181">
        <ele>410</ele>
        <time>2013-09-29T07:50:44Z</time>
      </trkpt>
      <trkpt lat="42.98137" lon="1.93195">
        <ele>410</ele>
        <time>2013-09-29T07:50:49Z</time>
      </trkpt>
      <trkpt lat="42.98125" lon="1.93211">
        <ele>410</ele>
        <time>2013-09-29T07:50:54Z</time>
      </trkpt>
      <trkpt lat="42.98114" lon="1.93225">
        <ele>410</ele>
        <time>2013-09-29T07:50:59Z</time>
      </trkpt>
      <trkpt lat="42.98102" lon="1.93237">
        <ele>409</ele>
        <time>2013-09-29T07:51:04Z</time>
      </trkpt>
      <trkpt lat="42.98086" lon="1.93247">
        <ele>409</ele>
        <time>2013-09-29T07:51:09Z</time>
      </trkpt>
      <trkpt lat="42.98072" lon="1.93252">
        <ele>409</ele>
        <time>2013-09-29T07:51:14Z</time>
      </trkpt>
      <trkpt lat="42.98058" lon="1.93255">
        <ele>408</ele>
        <time>2013-09-29T07:51:19Z</time>
      </trkpt>
      <trkpt lat="42.98043" lon="1.9325">
        <ele>405</ele>
        <time>2013-09-29T07:51:24Z</time>
      </trkpt>
      <trkpt lat="42.98035" lon="1.9323">
        <ele>402</ele>
        <time>2013-09-29T07:51:29Z</time>
      </trkpt>
      <trkpt lat="42.98036" lon="1.93213">
        <ele>401</ele>
        <time>2013-09-29T07:51:34Z</time>
      </trkpt>
      <trkpt lat="42.98032" lon="1.93195">
        <ele>399</ele>
        <time>2013-09-29T07:51:39Z</time>
      </trkpt>
      <trkpt lat="42.98024" lon="1.93173">
        <ele>399</ele>
        <time>2013-09-29T07:51:44Z</time>
      </trkpt>
      <trkpt lat="42.98017" lon="1.93156">
        <ele>398</ele>
        <time>2013-09-29T07:51:49Z</time>
      </trkpt>
      <trkpt lat="42.98009" lon="1.93136">
        <ele>398</ele>
        <time>2013-09-29T07:51:55Z</time>
      </trkpt>
      <trkpt lat="42.97995" lon="1.93122">
        <ele>398</ele>
        <time>2013-09-29T07:52:00Z</time>
      </trkpt>
      <trkpt lat="42.97985" lon="1.93125">
        <ele>401</ele>
        <time>2013-09-29T07:52:05Z</time>
      </trkpt>
      <trkpt lat="42.97971" lon="1.93135">
        <ele>404</ele>
        <time>2013-09-29T07:52:10Z</time>
      </trkpt>
      <trkpt lat="42.97954" lon="1.93125">
        <ele>405</ele>
        <time>2013-09-29T07:52:15Z</time>
      </trkpt>
      <trkpt lat="42.97956" lon="1.93106">
        <ele>405</ele>
        <time>2013-09-29T07:52:20Z</time>
      </trkpt>
      <trkpt lat="42.9796" lon="1.93088">
        <ele>403</ele>
        <time>2013-09-29T07:52:25Z</time>
      </trkpt>
      <trkpt lat="42.97957" lon="1.93066">
        <ele>400</ele>
        <time>2013-09-29T07:52:30Z</time>
      </trkpt>
      <trkpt lat="42.97956" lon="1.93043">
        <ele>399</ele>
        <time>2013-09-29T07:52:35Z</time>
      </trkpt>
      <trkpt lat="42.97955" lon="1.93021">
        <ele>399</ele>
        <time>2013-09-29T07:52:40Z</time>
      </trkpt>
      <trkpt lat="42.97951" lon="1.93005">
        <ele>398</ele>
        <time>2013-09-29T07:52:45Z</time>
      </trkpt>
      <trkpt lat="42.97937" lon="1.9299">
        <ele>398</ele>
        <time>2013-09-29T07:52:50Z</time>
      </trkpt>
      <trkpt lat="42.97932" lon="1.92972">
        <ele>398</ele>
        <time>2013-09-29T07:52:55Z</time>
      </trkpt>
      <trkpt lat="42.97928" lon="1.92953">
        <ele>398</ele>
        <time>2013-09-29T07:53:00Z</time>
      </trkpt>
      <trkpt lat="42.97915" lon="1.92943">
        <ele>398</ele>
        <time>2013-09-29T07:53:05Z</time>
      </trkpt>
      <trkpt lat="42.97899" lon="1.92938">
        <ele>399</ele>
        <time>2013-09-29T07:53:10Z</time>
      </trkpt>
      <trkpt lat="42.97887" lon="1.92944">
        <ele>403</ele>
        <time>2013-09-29T07:53:15Z</time>
      </trkpt>
      <trkpt lat="42.97874" lon="1.92947">
        <ele>407</ele>
        <time>2013-09-29T07:53:20Z</time>
      </trkpt>
      <trkpt lat="42.97877" lon="1.92926">
        <ele>407</ele>
        <time>2013-09-29T07:53:25Z</time>
      </trkpt>
      <trkpt lat="42.97882" lon="1.92909">
        <ele>404</ele>
        <time>2013-09-29T07:53:31Z</time>
      </trkpt>
      <trkpt lat="42.97882" lon="1.92889">
        <ele>403</ele>
        <time>2013-09-29T07:53:36Z</time>
      </trkpt>
      <trkpt lat="42.97883" lon="1.92873">
        <ele>403</ele>
        <time>2013-09-29T07:53:42Z</time>
      </trkpt>
      <trkpt lat="42.97886" lon="1.92853">
        <ele>399</ele>
        <time>2013-09-29T07:53:47Z</time>
      </trkpt>
      <trkpt lat="42.97891" lon="1.92836">
        <ele>398</ele>
        <time>2013-09-29T07:53:52Z</time>
      </trkpt>
      <trkpt lat="42.97894" lon="1.92818">
        <ele>398</ele>
        <time>2013-09-29T07:53:57Z</time>
      </trkpt>
      <trkpt lat="42.97892" lon="1.92799">
        <ele>401</ele>
        <time>2013-09-29T07:54:03Z</time>
      </trkpt>
      <trkpt lat="42.97897" lon="1.92773">
        <ele>401</ele>
        <time>2013-09-29T07:54:08Z</time>
      </trkpt>
      <trkpt lat="42.97902" lon="1.92755">
        <ele>401</ele>
        <time>2013-09-29T07:54:13Z</time>
      </trkpt>
      <trkpt lat="42.97908" lon="1.92738">
        <ele>399</ele>
        <time>2013-09-29T07:54:18Z</time>
      </trkpt>
      <trkpt lat="42.97919" lon="1.9272">
        <ele>395</ele>
        <time>2013-09-29T07:54:23Z</time>
      </trkpt>
      <trkpt lat="42.97926" lon="1.92696">
        <ele>395</ele>
        <time>2013-09-29T07:54:28Z</time>
      </trkpt>
      <trkpt lat="42.97932" lon="1.92678">
        <ele>395</ele>
        <time>2013-09-29T07:54:33Z</time>
      </trkpt>
      <trkpt lat="42.97938" lon="1.9267">
        <ele>395</ele>
        <time>2013-09-29T07:54:39Z</time>
      </trkpt>
      <trkpt lat="42.9794" lon="1.92669">
        <ele>400</ele>
        <time>2013-09-29T07:54:45Z</time>
      </trkpt>
      <trkpt lat="42.97942" lon="1.92671">
        <ele>401</ele>
        <time>2013-09-29T07:54:54Z</time>
      </trkpt>
      <trkpt lat="42.9794" lon="1.92669">
        <ele>401</ele>
        <time>2013-09-29T07:55:00Z</time>
      </trkpt>
      <trkpt lat="42.9794" lon="1.92665">
        <ele>402</ele>
        <time>2013-09-29T07:55:07Z</time>
      </trkpt>
      <trkpt lat="42.97941" lon="1.92659">
        <ele>403</ele>
        <time>2013-09-29T07:55:13Z</time>
      </trkpt>
      <trkpt lat="42.97943" lon="1.92656">
        <ele>405</ele>
        <time>2013-09-29T07:55:40Z</time>
      </trkpt>
      <trkpt lat="42.97945" lon="1.92656">
        <ele>405</ele>
        <time>2013-09-29T07:56:06Z</time>
      </trkpt>
      <trkpt lat="42.97945" lon="1.92652">
        <ele>405</ele>
        <time>2013-09-29T07:56:11Z</time>
      </trkpt>
      <trkpt lat="42.97946" lon="1.92643">
        <ele>405</ele>
        <time>2013-09-29T07:56:17Z</time>
      </trkpt>
      <trkpt lat="42.97948" lon="1.92636">
        <ele>405</ele>
        <time>2013-09-29T07:56:22Z</time>
      </trkpt>
      <trkpt lat="42.9795" lon="1.92628">
        <ele>405</ele>
        <time>2013-09-29T07:56:28Z</time>
      </trkpt>
      <trkpt lat="42.97952" lon="1.92622">
        <ele>405</ele>
        <time>2013-09-29T07:56:34Z</time>
      </trkpt>
      <trkpt lat="42.97955" lon="1.92612">
        <ele>405</ele>
        <time>2013-09-29T07:56:40Z</time>
      </trkpt>
      <trkpt lat="42.97956" lon="1.92607">
        <ele>405</ele>
        <time>2013-09-29T07:56:46Z</time>
      </trkpt>
      <trkpt lat="42.97958" lon="1.92601">
        <ele>405</ele>
        <time>2013-09-29T07:56:51Z</time>
      </trkpt>
      <trkpt lat="42.97961" lon="1.92595">
        <ele>405</ele>
        <time>2013-09-29T07:56:58Z</time>
      </trkpt>
      <trkpt lat="42.9796" lon="1.92596">
        <ele>405</ele>
        <time>2013-09-29T07:57:07Z</time>
      </trkpt>
      <trkpt lat="42.97959" lon="1.926">
        <ele>405</ele>
        <time>2013-09-29T07:57:13Z</time>
      </trkpt>
      <trkpt lat="42.97958" lon="1.92605">
        <ele>405</ele>
        <time>2013-09-29T07:57:19Z</time>
      </trkpt>
      <trkpt lat="42.97957" lon="1.92611">
        <ele>404</ele>
        <time>2013-09-29T07:57:26Z</time>
      </trkpt>
      <trkpt lat="42.97958" lon="1.92613">
        <ele>404</ele>
        <time>2013-09-29T07:57:39Z</time>
      </trkpt>
      <trkpt lat="42.97957" lon="1.92616">
        <ele>404</ele>
        <time>2013-09-29T07:57:44Z</time>
      </trkpt>
      <trkpt lat="42.97951" lon="1.92635">
        <ele>404</ele>
        <time>2013-09-29T07:57:49Z</time>
      </trkpt>
      <trkpt lat="42.97946" lon="1.92652">
        <ele>404</ele>
        <time>2013-09-29T07:57:54Z</time>
      </trkpt>
      <trkpt lat="42.97942" lon="1.92666">
        <ele>404</ele>
        <time>2013-09-29T07:57:59Z</time>
      </trkpt>
      <trkpt lat="42.97939" lon="1.92667">
        <ele>404</ele>
        <time>2013-09-29T07:58:05Z</time>
      </trkpt>
      <trkpt lat="42.97936" lon="1.92674">
        <ele>405</ele>
        <time>2013-09-29T07:58:12Z</time>
      </trkpt>
      <trkpt lat="42.97937" lon="1.92676">
        <ele>406</ele>
        <time>2013-09-29T07:58:18Z</time>
      </trkpt>
      <trkpt lat="42.97935" lon="1.92673">
        <ele>411</ele>
        <time>2013-09-29T07:58:29Z</time>
      </trkpt>
      <trkpt lat="42.97932" lon="1.92674">
        <ele>411</ele>
        <time>2013-09-29T07:58:35Z</time>
      </trkpt>
      <trkpt lat="42.97931" lon="1.92672">
        <ele>411</ele>
        <time>2013-09-29T07:58:40Z</time>
      </trkpt>
      <trkpt lat="42.97932" lon="1.92671">
        <ele>411</ele>
        <time>2013-09-29T07:58:46Z</time>
      </trkpt>
      <trkpt lat="42.97932" lon="1.92679">
        <ele>411</ele>
        <time>2013-09-29T07:58:51Z</time>
      </trkpt>
      <trkpt lat="42.97928" lon="1.92697">
        <ele>411</ele>
        <time>2013-09-29T07:58:56Z</time>
      </trkpt>
      <trkpt lat="42.97926" lon="1.92719">
        <ele>411</ele>
        <time>2013-09-29T07:59:01Z</time>
      </trkpt>
      <trkpt lat="42.9792" lon="1.92742">
        <ele>412</ele>
        <time>2013-09-29T07:59:06Z</time>
      </trkpt>
      <trkpt lat="42.97916" lon="1.92762">
        <ele>417</ele>
        <time>2013-09-29T07:59:12Z</time>
      </trkpt>
      <trkpt lat="42.97911" lon="1.9279">
        <ele>421</ele>
        <time>2013-09-29T07:59:17Z</time>
      </trkpt>
      <trkpt lat="42.9791" lon="1.92812">
        <ele>422</ele>
        <time>2013-09-29T07:59:22Z</time>
      </trkpt>
      <trkpt lat="42.97906" lon="1.92837">
        <ele>422</ele>
        <time>2013-09-29T07:59:28Z</time>
      </trkpt>
      <trkpt lat="42.97901" lon="1.92858">
        <ele>424</ele>
        <time>2013-09-29T07:59:33Z</time>
      </trkpt>
      <trkpt lat="42.97897" lon="1.92886">
        <ele>425</ele>
        <time>2013-09-29T07:59:38Z</time>
      </trkpt>
      <trkpt lat="42.97895" lon="1.92911">
        <ele>424</ele>
        <time>2013-09-29T07:59:43Z</time>
      </trkpt>
      <trkpt lat="42.97887" lon="1.9293">
        <ele>421</ele>
        <time>2013-09-29T07:59:49Z</time>
      </trkpt>
      <trkpt lat="42.97885" lon="1.92951">
        <ele>421</ele>
        <time>2013-09-29T07:59:54Z</time>
      </trkpt>
      <trkpt lat="42.97868" lon="1.9296">
        <ele>419</ele>
        <time>2013-09-29T07:59:59Z</time>
      </trkpt>
      <trkpt lat="42.9785" lon="1.92972">
        <ele>416</ele>
        <time>2013-09-29T08:00:04Z</time>
      </trkpt>
      <trkpt lat="42.97836" lon="1.92992">
        <ele>416</ele>
        <time>2013-09-29T08:00:09Z</time>
      </trkpt>
      <trkpt lat="42.97828" lon="1.93015">
        <ele>416</ele>
        <time>2013-09-29T08:00:14Z</time>
      </trkpt>
      <trkpt lat="42.97823" lon="1.93038">
        <ele>416</ele>
        <time>2013-09-29T08:00:19Z</time>
      </trkpt>
      <trkpt lat="42.97815" lon="1.93057">
        <ele>416</ele>
        <time>2013-09-29T08:00:24Z</time>
      </trkpt>
      <trkpt lat="42.97802" lon="1.93072">
        <ele>416</ele>
        <time>2013-09-29T08:00:29Z</time>
      </trkpt>
      <trkpt lat="42.97787" lon="1.93089">
        <ele>416</ele>
        <time>2013-09-29T08:00:34Z</time>
      </trkpt>
      <trkpt lat="42.97775" lon="1.93103">
        <ele>416</ele>
        <time>2013-09-29T08:00:39Z</time>
      </trkpt>
      <trkpt lat="42.97764" lon="1.93113">
        <ele>416</ele>
        <time>2013-09-29T08:00:44Z</time>
      </trkpt>
      <trkpt lat="42.97756" lon="1.93131">
        <ele>416</ele>
        <time>2013-09-29T08:00:49Z</time>
      </trkpt>
      <trkpt lat="42.97751" lon="1.93154">
        <ele>416</ele>
        <time>2013-09-29T08:00:54Z</time>
      </trkpt>
      <trkpt lat="42.97746" lon="1.93175">
        <ele>416</ele>
        <time>2013-09-29T08:00:59Z</time>
      </trkpt>
      <trkpt lat="42.97746" lon="1.93194">
        <ele>416</ele>
        <time>2013-09-29T08:01:04Z</time>
      </trkpt>
      <trkpt lat="42.9774" lon="1.93209">
        <ele>416</ele>
        <time>2013-09-29T08:01:10Z</time>
      </trkpt>
      <trkpt lat="42.97731" lon="1.93233">
        <ele>416</ele>
        <time>2013-09-29T08:01:15Z</time>
      </trkpt>
      <trkpt lat="42.97724" lon="1.93251">
        <ele>416</ele>
        <time>2013-09-29T08:01:20Z</time>
      </trkpt>
      <trkpt lat="42.97718" lon="1.93272">
        <ele>416</ele>
        <time>2013-09-29T08:01:26Z</time>
      </trkpt>
      <trkpt lat="42.97711" lon="1.93295">
        <ele>416</ele>
        <time>2013-09-29T08:01:31Z</time>
      </trkpt>
      <trkpt lat="42.97705" lon="1.93324">
        <ele>416</ele>
        <time>2013-09-29T08:01:36Z</time>
      </trkpt>
      <trkpt lat="42.97695" lon="1.93343">
        <ele>416</ele>
        <time>2013-09-29T08:01:41Z</time>
      </trkpt>
      <trkpt lat="42.97686" lon="1.9336">
        <ele>416</ele>
        <time>2013-09-29T08:01:46Z</time>
      </trkpt>
      <trkpt lat="42.97681" lon="1.93379">
        <ele>416</ele>
        <time>2013-09-29T08:01:51Z</time>
      </trkpt>
      <trkpt lat="42.97679" lon="1.93399">
        <ele>416</ele>
        <time>2013-09-29T08:01:56Z</time>
      </trkpt>
      <trkpt lat="42.97671" lon="1.93418">
        <ele>416</ele>
        <time>2013-09-29T08:02:02Z</time>
      </trkpt>
      <trkpt lat="42.9765" lon="1.93424">
        <ele>416</ele>
        <time>2013-09-29T08:02:07Z</time>
      </trkpt>
      <trkpt lat="42.97643" lon="1.93406">
        <ele>413</ele>
        <time>2013-09-29T08:02:13Z</time>
      </trkpt>
      <trkpt lat="42.97639" lon="1.93378">
        <ele>405</ele>
        <time>2013-09-29T08:02:18Z</time>
      </trkpt>
      <trkpt lat="42.97635" lon="1.93354">
        <ele>400</ele>
        <time>2013-09-29T08:02:23Z</time>
      </trkpt>
      <trkpt lat="42.97628" lon="1.93334">
        <ele>400</ele>
        <time>2013-09-29T08:02:29Z</time>
      </trkpt>
      <trkpt lat="42.97619" lon="1.93319">
        <ele>400</ele>
        <time>2013-09-29T08:02:34Z</time>
      </trkpt>
      <trkpt lat="42.97605" lon="1.93305">
        <ele>400</ele>
        <time>2013-09-29T08:02:39Z</time>
      </trkpt>
      <trkpt lat="42.97592" lon="1.93294">
        <ele>401</ele>
        <time>2013-09-29T08:02:44Z</time>
      </trkpt>
      <trkpt lat="42.97583" lon="1.93281">
        <ele>406</ele>
        <time>2013-09-29T08:02:50Z</time>
      </trkpt>
      <trkpt lat="42.97562" lon="1.93275">
        <ele>408</ele>
        <time>2013-09-29T08:02:55Z</time>
      </trkpt>
      <trkpt lat="42.97549" lon="1.9327">
        <ele>408</ele>
        <time>2013-09-29T08:03:00Z</time>
      </trkpt>
      <trkpt lat="42.97538" lon="1.93262">
        <ele>408</ele>
        <time>2013-09-29T08:03:05Z</time>
      </trkpt>
      <trkpt lat="42.97534" lon="1.93259">
        <ele>408</ele>
        <time>2013-09-29T08:03:11Z</time>
      </trkpt>
      <trkpt lat="42.9753" lon="1.93254">
        <ele>408</ele>
        <time>2013-09-29T08:03:17Z</time>
      </trkpt>
      <trkpt lat="42.97525" lon="1.93248">
        <ele>408</ele>
        <time>2013-09-29T08:03:22Z</time>
      </trkpt>
      <trkpt lat="42.97522" lon="1.93243">
        <ele>408</ele>
        <time>2013-09-29T08:03:27Z</time>
      </trkpt>
      <trkpt lat="42.97516" lon="1.93237">
        <ele>409</ele>
        <time>2013-09-29T08:03:32Z</time>
      </trkpt>
      <trkpt lat="42.97515" lon="1.93231">
        <ele>410</ele>
        <time>2013-09-29T08:03:37Z</time>
      </trkpt>
      <trkpt lat="42.97512" lon="1.93227">
        <ele>413</ele>
        <time>2013-09-29T08:03:43Z</time>
      </trkpt>
      <trkpt lat="42.97509" lon="1.93222">
        <ele>414</ele>
        <time>2013-09-29T08:03:48Z</time>
      </trkpt>
      <trkpt lat="42.97508" lon="1.93218">
        <ele>414</ele>
        <time>2013-09-29T08:03:54Z</time>
      </trkpt>
      <trkpt lat="42.97515" lon="1.93207">
        <ele>414</ele>
        <time>2013-09-29T08:04:00Z</time>
      </trkpt>
      <trkpt lat="42.97521" lon="1.93191">
        <ele>414</ele>
        <time>2013-09-29T08:04:05Z</time>
      </trkpt>
      <trkpt lat="42.97522" lon="1.93182">
        <ele>415</ele>
        <time>2013-09-29T08:04:11Z</time>
      </trkpt>
      <trkpt lat="42.97519" lon="1.93176">
        <ele>415</ele>
        <time>2013-09-29T08:04:16Z</time>
      </trkpt>
      <trkpt lat="42.97514" lon="1.93172">
        <ele>415</ele>
        <time>2013-09-29T08:04:24Z</time>
      </trkpt>
      <trkpt lat="42.97508" lon="1.93166">
        <ele>415</ele>
        <time>2013-09-29T08:04:29Z</time>
      </trkpt>
      <trkpt lat="42.97505" lon="1.93158">
        <ele>415</ele>
        <time>2013-09-29T08:04:34Z</time>
      </trkpt>
      <trkpt lat="42.97503" lon="1.93151">
        <ele>415</ele>
        <time>2013-09-29T08:04:39Z</time>
      </trkpt>
      <trkpt lat="42.97496" lon="1.93139">
        <ele>415</ele>
        <time>2013-09-29T08:04:44Z</time>
      </trkpt>
      <trkpt lat="42.97486" lon="1.93128">
        <ele>415</ele>
        <time>2013-09-29T08:04:49Z</time>
      </trkpt>
      <trkpt lat="42.9748" lon="1.93122">
        <ele>420</ele>
        <time>2013-09-29T08:04:55Z</time>
      </trkpt>
      <trkpt lat="42.9748" lon="1.93115">
        <ele>423</ele>
        <time>2013-09-29T08:05:00Z</time>
      </trkpt>
      <trkpt lat="42.97477" lon="1.93105">
        <ele>426</ele>
        <time>2013-09-29T08:05:05Z</time>
      </trkpt>
      <trkpt lat="42.97473" lon="1.93096">
        <ele>426</ele>
        <time>2013-09-29T08:05:10Z</time>
      </trkpt>
      <trkpt lat="42.97467" lon="1.93091">
        <ele>425</ele>
        <time>2013-09-29T08:05:17Z</time>
      </trkpt>
      <trkpt lat="42.97458" lon="1.93089">
        <ele>425</ele>
        <time>2013-09-29T08:05:22Z</time>
      </trkpt>
      <trkpt lat="42.97449" lon="1.93088">
        <ele>425</ele>
        <time>2013-09-29T08:05:27Z</time>
      </trkpt>
      <trkpt lat="42.97443" lon="1.93081">
        <ele>425</ele>
        <time>2013-09-29T08:05:33Z</time>
      </trkpt>
      <trkpt lat="42.97435" lon="1.93081">
        <ele>425</ele>
        <time>2013-09-29T08:05:38Z</time>
      </trkpt>
      <trkpt lat="42.97424" lon="1.93079">
        <ele>425</ele>
        <time>2013-09-29T08:05:43Z</time>
      </trkpt>
      <trkpt lat="42.97414" lon="1.93072">
        <ele>425</ele>
        <time>2013-09-29T08:05:48Z</time>
      </trkpt>
      <trkpt lat="42.97394" lon="1.93067">
        <ele>426</ele>
        <time>2013-09-29T08:05:53Z</time>
      </trkpt>
      <trkpt lat="42.97389" lon="1.9306">
        <ele>426</ele>
        <time>2013-09-29T08:05:58Z</time>
      </trkpt>
      <trkpt lat="42.97397" lon="1.93055">
        <ele>426</ele>
        <time>2013-09-29T08:06:03Z</time>
      </trkpt>
      <trkpt lat="42.97405" lon="1.93058">
        <ele>426</ele>
        <time>2013-09-29T08:06:09Z</time>
      </trkpt>
      <trkpt lat="42.97411" lon="1.93062">
        <ele>426</ele>
        <time>2013-09-29T08:06:14Z</time>
      </trkpt>
      <trkpt lat="42.97421" lon="1.93068">
        <ele>426</ele>
        <time>2013-09-29T08:06:19Z</time>
      </trkpt>
      <trkpt lat="42.97435" lon="1.93073">
        <ele>426</ele>
        <time>2013-09-29T08:06:24Z</time>
      </trkpt>
      <trkpt lat="42.97451" lon="1.93076">
        <ele>426</ele>
        <time>2013-09-29T08:06:29Z</time>
      </trkpt>
      <trkpt lat="42.97465" lon="1.93082">
        <ele>427</ele>
        <time>2013-09-29T08:06:34Z</time>
      </trkpt>
      <trkpt lat="42.97477" lon="1.93098">
        <ele>428</ele>
        <time>2013-09-29T08:06:39Z</time>
      </trkpt>
      <trkpt lat="42.9749" lon="1.93114">
        <ele>428</ele>
        <time>2013-09-29T08:06:44Z</time>
      </trkpt>
      <trkpt lat="42.97504" lon="1.93135">
        <ele>428</ele>
        <time>2013-09-29T08:06:49Z</time>
      </trkpt>
      <trkpt lat="42.97514" lon="1.93152">
        <ele>425</ele>
        <time>2013-09-29T08:06:54Z</time>
      </trkpt>
      <trkpt lat="42.97528" lon="1.93157">
        <ele>424</ele>
        <time>2013-09-29T08:06:59Z</time>
      </trkpt>
      <trkpt lat="42.97541" lon="1.93179">
        <ele>422</ele>
        <time>2013-09-29T08:07:04Z</time>
      </trkpt>
      <trkpt lat="42.97551" lon="1.93206">
        <ele>419</ele>
        <time>2013-09-29T08:07:09Z</time>
      </trkpt>
      <trkpt lat="42.97557" lon="1.93228">
        <ele>416</ele>
        <time>2013-09-29T08:07:14Z</time>
      </trkpt>
      <trkpt lat="42.97565" lon="1.93249">
        <ele>413</ele>
        <time>2013-09-29T08:07:19Z</time>
      </trkpt>
      <trkpt lat="42.97573" lon="1.93266">
        <ele>413</ele>
        <time>2013-09-29T08:07:24Z</time>
      </trkpt>
      <trkpt lat="42.97558" lon="1.93267">
        <ele>412</ele>
        <time>2013-09-29T08:07:29Z</time>
      </trkpt>
      <trkpt lat="42.9754" lon="1.93271">
        <ele>412</ele>
        <time>2013-09-29T08:07:34Z</time>
      </trkpt>
      <trkpt lat="42.97535" lon="1.93276">
        <ele>412</ele>
        <time>2013-09-29T08:07:40Z</time>
      </trkpt>
      <trkpt lat="42.97535" lon="1.9329">
        <ele>415</ele>
        <time>2013-09-29T08:07:45Z</time>
      </trkpt>
      <trkpt lat="42.97538" lon="1.93293">
        <ele>417</ele>
        <time>2013-09-29T08:07:50Z</time>
      </trkpt>
      <trkpt lat="42.97551" lon="1.93298">
        <ele>417</ele>
        <time>2013-09-29T08:07:55Z</time>
      </trkpt>
      <trkpt lat="42.97562" lon="1.93308">
        <ele>416</ele>
        <time>2013-09-29T08:08:00Z</time>
      </trkpt>
      <trkpt lat="42.97567" lon="1.93333">
        <ele>414</ele>
        <time>2013-09-29T08:08:05Z</time>
      </trkpt>
      <trkpt lat="42.97569" lon="1.93358">
        <ele>413</ele>
        <time>2013-09-29T08:08:10Z</time>
      </trkpt>
      <trkpt lat="42.9757" lon="1.9338">
        <ele>413</ele>
        <time>2013-09-29T08:08:15Z</time>
      </trkpt>
      <trkpt lat="42.97566" lon="1.93402">
        <ele>413</ele>
        <time>2013-09-29T08:08:20Z</time>
      </trkpt>
      <trkpt lat="42.97562" lon="1.9342">
        <ele>413</ele>
        <time>2013-09-29T08:08:25Z</time>
      </trkpt>
      <trkpt lat="42.97559" lon="1.93441">
        <ele>413</ele>
        <time>2013-09-29T08:08:30Z</time>
      </trkpt>
      <trkpt lat="42.97552" lon="1.93457">
        <ele>413</ele>
        <time>2013-09-29T08:08:35Z</time>
      </trkpt>
      <trkpt lat="42.97546" lon="1.93479">
        <ele>413</ele>
        <time>2013-09-29T08:08:40Z</time>
      </trkpt>
      <trkpt lat="42.97546" lon="1.93501">
        <ele>413</ele>
        <time>2013-09-29T08:08:45Z</time>
      </trkpt>
      <trkpt lat="42.97539" lon="1.93523">
        <ele>413</ele>
        <time>2013-09-29T08:08:50Z</time>
      </trkpt>
      <trkpt lat="42.97534" lon="1.93543">
        <ele>413</ele>
        <time>2013-09-29T08:08:55Z</time>
      </trkpt>
      <trkpt lat="42.97533" lon="1.93563">
        <ele>413</ele>
        <time>2013-09-29T08:09:00Z</time>
      </trkpt>
      <trkpt lat="42.97531" lon="1.93585">
        <ele>413</ele>
        <time>2013-09-29T08:09:06Z</time>
      </trkpt>
      <trkpt lat="42.97521" lon="1.93604">
        <ele>413</ele>
        <time>2013-09-29T08:09:11Z</time>
      </trkpt>
      <trkpt lat="42.97518" lon="1.9363">
        <ele>413</ele>
        <time>2013-09-29T08:09:16Z</time>
      </trkpt>
      <trkpt lat="42.97513" lon="1.93649">
        <ele>413</ele>
        <time>2013-09-29T08:09:21Z</time>
      </trkpt>
      <trkpt lat="42.97508" lon="1.93677">
        <ele>412</ele>
        <time>2013-09-29T08:09:27Z</time>
      </trkpt>
      <trkpt lat="42.97503" lon="1.93701">
        <ele>408</ele>
        <time>2013-09-29T08:09:32Z</time>
      </trkpt>
      <trkpt lat="42.97497" lon="1.9372">
        <ele>407</ele>
        <time>2013-09-29T08:09:37Z</time>
      </trkpt>
      <trkpt lat="42.97495" lon="1.93745">
        <ele>406</ele>
        <time>2013-09-29T08:09:42Z</time>
      </trkpt>
      <trkpt lat="42.97492" lon="1.93765">
        <ele>405</ele>
        <time>2013-09-29T08:09:47Z</time>
      </trkpt>
      <trkpt lat="42.97483" lon="1.9378">
        <ele>405</ele>
        <time>2013-09-29T08:09:52Z</time>
      </trkpt>
      <trkpt lat="42.97481" lon="1.938">
        <ele>405</ele>
        <time>2013-09-29T08:09:57Z</time>
      </trkpt>
      <trkpt lat="42.97484" lon="1.93824">
        <ele>405</ele>
        <time>2013-09-29T08:10:03Z</time>
      </trkpt>
      <trkpt lat="42.97479" lon="1.93849">
        <ele>405</ele>
        <time>2013-09-29T08:10:08Z</time>
      </trkpt>
      <trkpt lat="42.9747" lon="1.93873">
        <ele>405</ele>
        <time>2013-09-29T08:10:13Z</time>
      </trkpt>
      <trkpt lat="42.97467" lon="1.93896">
        <ele>406</ele>
        <time>2013-09-29T08:10:18Z</time>
      </trkpt>
      <trkpt lat="42.97462" lon="1.93915">
        <ele>408</ele>
        <time>2013-09-29T08:10:23Z</time>
      </trkpt>
      <trkpt lat="42.97459" lon="1.93933">
        <ele>409</ele>
        <time>2013-09-29T08:10:28Z</time>
      </trkpt>
      <trkpt lat="42.97455" lon="1.93955">
        <ele>409</ele>
        <time>2013-09-29T08:10:33Z</time>
      </trkpt>
      <trkpt lat="42.97453" lon="1.93975">
        <ele>409</ele>
        <time>2013-09-29T08:10:38Z</time>
      </trkpt>
      <trkpt lat="42.97447" lon="1.93996">
        <ele>409</ele>
        <time>2013-09-29T08:10:43Z</time>
      </trkpt>
      <trkpt lat="42.97442" lon="1.94016">
        <ele>409</ele>
        <time>2013-09-29T08:10:48Z</time>
      </trkpt>
      <trkpt lat="42.97435" lon="1.94037">
        <ele>409</ele>
        <time>2013-09-29T08:10:53Z</time>
      </trkpt>
      <trkpt lat="42.97434" lon="1.94058">
        <ele>409</ele>
        <time>2013-09-29T08:10:59Z</time>
      </trkpt>
      <trkpt lat="42.97432" lon="1.94082">
        <ele>406</ele>
        <time>2013-09-29T08:11:05Z</time>
      </trkpt>
      <trkpt lat="42.97428" lon="1.94103">
        <ele>406</ele>
        <time>2013-09-29T08:11:10Z</time>
      </trkpt>
      <trkpt lat="42.97422" lon="1.94122">
        <ele>407</ele>
        <time>2013-09-29T08:11:15Z</time>
      </trkpt>
      <trkpt lat="42.97417" lon="1.94142">
        <ele>407</ele>
        <time>2013-09-29T08:11:20Z</time>
      </trkpt>
      <trkpt lat="42.97411" lon="1.94158">
        <ele>407</ele>
        <time>2013-09-29T08:11:25Z</time>
      </trkpt>
      <trkpt lat="42.97401" lon="1.94176">
        <ele>407</ele>
        <time>2013-09-29T08:11:30Z</time>
      </trkpt>
      <trkpt lat="42.97393" lon="1.94196">
        <ele>407</ele>
        <time>2013-09-29T08:11:35Z</time>
      </trkpt>
      <trkpt lat="42.97387" lon="1.94217">
        <ele>407</ele>
        <time>2013-09-29T08:11:40Z</time>
      </trkpt>
      <trkpt lat="42.97381" lon="1.94237">
        <ele>407</ele>
        <time>2013-09-29T08:11:45Z</time>
      </trkpt>
      <trkpt lat="42.97376" lon="1.94256">
        <ele>407</ele>
        <time>2013-09-29T08:11:50Z</time>
      </trkpt>
      <trkpt lat="42.9737" lon="1.94274">
        <ele>407</ele>
        <time>2013-09-29T08:11:55Z</time>
      </trkpt>
      <trkpt lat="42.97361" lon="1.94289">
        <ele>407</ele>
        <time>2013-09-29T08:12:00Z</time>
      </trkpt>
      <trkpt lat="42.97355" lon="1.94307">
        <ele>407</ele>
        <time>2013-09-29T08:12:06Z</time>
      </trkpt>
      <trkpt lat="42.97349" lon="1.94332">
        <ele>407</ele>
        <time>2013-09-29T08:12:11Z</time>
      </trkpt>
      <trkpt lat="42.97343" lon="1.94353">
        <ele>406</ele>
        <time>2013-09-29T08:12:16Z</time>
      </trkpt>
      <trkpt lat="42.97333" lon="1.94371">
        <ele>405</ele>
        <time>2013-09-29T08:12:21Z</time>
      </trkpt>
      <trkpt lat="42.97331" lon="1.94394">
        <ele>404</ele>
        <time>2013-09-29T08:12:26Z</time>
      </trkpt>
      <trkpt lat="42.97318" lon="1.94409">
        <ele>404</ele>
        <time>2013-09-29T08:12:31Z</time>
      </trkpt>
      <trkpt lat="42.97307" lon="1.94422">
        <ele>404</ele>
        <time>2013-09-29T08:12:36Z</time>
      </trkpt>
      <trkpt lat="42.97301" lon="1.94442">
        <ele>404</ele>
        <time>2013-09-29T08:12:41Z</time>
      </trkpt>
      <trkpt lat="42.97303" lon="1.94464">
        <ele>404</ele>
        <time>2013-09-29T08:12:46Z</time>
      </trkpt>
      <trkpt lat="42.97303" lon="1.94483">
        <ele>404</ele>
        <time>2013-09-29T08:12:51Z</time>
      </trkpt>
      <trkpt lat="42.97297" lon="1.94501">
        <ele>405</ele>
        <time>2013-09-29T08:12:56Z</time>
      </trkpt>
      <trkpt lat="42.97292" lon="1.94522">
        <ele>405</ele>
        <time>2013-09-29T08:13:02Z</time>
      </trkpt>
      <trkpt lat="42.97287" lon="1.94546">
        <ele>405</ele>
        <time>2013-09-29T08:13:07Z</time>
      </trkpt>
      <trkpt lat="42.97285" lon="1.94565">
        <ele>408</ele>
        <time>2013-09-29T08:13:12Z</time>
      </trkpt>
      <trkpt lat="42.97282" lon="1.94589">
        <ele>411</ele>
        <time>2013-09-29T08:13:17Z</time>
      </trkpt>
      <trkpt lat="42.9728" lon="1.9461">
        <ele>415</ele>
        <time>2013-09-29T08:13:22Z</time>
      </trkpt>
      <trkpt lat="42.97281" lon="1.94627">
        <ele>417</ele>
        <time>2013-09-29T08:13:27Z</time>
      </trkpt>
      <trkpt lat="42.97274" lon="1.94642">
        <ele>417</ele>
        <time>2013-09-29T08:13:32Z</time>
      </trkpt>
      <trkpt lat="42.97269" lon="1.94656">
        <ele>417</ele>
        <time>2013-09-29T08:13:37Z</time>
      </trkpt>
      <trkpt lat="42.97268" lon="1.94663">
        <ele>417</ele>
        <time>2013-09-29T08:13:47Z</time>
      </trkpt>
      <trkpt lat="42.9727" lon="1.9467">
        <ele>414</ele>
        <time>2013-09-29T08:13:52Z</time>
      </trkpt>
      <trkpt lat="42.9727" lon="1.94689">
        <ele>414</ele>
        <time>2013-09-29T08:13:57Z</time>
      </trkpt>
      <trkpt lat="42.97267" lon="1.94705">
        <ele>414</ele>
        <time>2013-09-29T08:14:02Z</time>
      </trkpt>
      <trkpt lat="42.97264" lon="1.9472">
        <ele>413</ele>
        <time>2013-09-29T08:14:07Z</time>
      </trkpt>
      <trkpt lat="42.97263" lon="1.94737">
        <ele>413</ele>
        <time>2013-09-29T08:14:12Z</time>
      </trkpt>
      <trkpt lat="42.97263" lon="1.94752">
        <ele>413</ele>
        <time>2013-09-29T08:14:17Z</time>
      </trkpt>
      <trkpt lat="42.97261" lon="1.94767">
        <ele>413</ele>
        <time>2013-09-29T08:14:22Z</time>
      </trkpt>
      <trkpt lat="42.97255" lon="1.94774">
        <ele>413</ele>
        <time>2013-09-29T08:14:27Z</time>
      </trkpt>
      <trkpt lat="42.9725" lon="1.94781">
        <ele>413</ele>
        <time>2013-09-29T08:14:32Z</time>
      </trkpt>
      <trkpt lat="42.97247" lon="1.94786">
        <ele>415</ele>
        <time>2013-09-29T08:14:38Z</time>
      </trkpt>
      <trkpt lat="42.97241" lon="1.94786">
        <ele>416</ele>
        <time>2013-09-29T08:14:43Z</time>
      </trkpt>
      <trkpt lat="42.97232" lon="1.94788">
        <ele>416</ele>
        <time>2013-09-29T08:14:48Z</time>
      </trkpt>
      <trkpt lat="42.97234" lon="1.94797">
        <ele>416</ele>
        <time>2013-09-29T08:14:53Z</time>
      </trkpt>
      <trkpt lat="42.97232" lon="1.94808">
        <ele>416</ele>
        <time>2013-09-29T08:14:59Z</time>
      </trkpt>
      <trkpt lat="42.97226" lon="1.94814">
        <ele>416</ele>
        <time>2013-09-29T08:15:04Z</time>
      </trkpt>
      <trkpt lat="42.97224" lon="1.94821">
        <ele>415</ele>
        <time>2013-09-29T08:15:09Z</time>
      </trkpt>
      <trkpt lat="42.97223" lon="1.94837">
        <ele>415</ele>
        <time>2013-09-29T08:15:14Z</time>
      </trkpt>
      <trkpt lat="42.97224" lon="1.94853">
        <ele>416</ele>
        <time>2013-09-29T08:15:19Z</time>
      </trkpt>
      <trkpt lat="42.97217" lon="1.94867">
        <ele>416</ele>
        <time>2013-09-29T08:15:24Z</time>
      </trkpt>
      <trkpt lat="42.97213" lon="1.94881">
        <ele>419</ele>
        <time>2013-09-29T08:15:29Z</time>
      </trkpt>
      <trkpt lat="42.97204" lon="1.94893">
        <ele>420</ele>
        <time>2013-09-29T08:15:34Z</time>
      </trkpt>
      <trkpt lat="42.97191" lon="1.94908">
        <ele>420</ele>
        <time>2013-09-29T08:15:40Z</time>
      </trkpt>
      <trkpt lat="42.97181" lon="1.94923">
        <ele>420</ele>
        <time>2013-09-29T08:15:45Z</time>
      </trkpt>
      <trkpt lat="42.97174" lon="1.94936">
        <ele>420</ele>
        <time>2013-09-29T08:15:50Z</time>
      </trkpt>
      <trkpt lat="42.97167" lon="1.94946">
        <ele>420</ele>
        <time>2013-09-29T08:15:55Z</time>
      </trkpt>
      <trkpt lat="42.97155" lon="1.94947">
        <ele>418</ele>
        <time>2013-09-29T08:16:00Z</time>
      </trkpt>
      <trkpt lat="42.97145" lon="1.94949">
        <ele>416</ele>
        <time>2013-09-29T08:16:05Z</time>
      </trkpt>
      <trkpt lat="42.97138" lon="1.94955">
        <ele>412</ele>
        <time>2013-09-29T08:16:10Z</time>
      </trkpt>
      <trkpt lat="42.97137" lon="1.94965">
        <ele>410</ele>
        <time>2013-09-29T08:16:15Z</time>
      </trkpt>
      <trkpt lat="42.97135" lon="1.94966">
        <ele>408</ele>
        <time>2013-09-29T08:16:25Z</time>
      </trkpt>
      <trkpt lat="42.97115" lon="1.94959">
        <ele>408</ele>
        <time>2013-09-29T08:16:30Z</time>
      </trkpt>
      <trkpt lat="42.97105" lon="1.94953">
        <ele>407</ele>
        <time>2013-09-29T08:16:35Z</time>
      </trkpt>
      <trkpt lat="42.97105" lon="1.94949">
        <ele>405</ele>
        <time>2013-09-29T08:16:41Z</time>
      </trkpt>
      <trkpt lat="42.9711" lon="1.94953">
        <ele>404</ele>
        <time>2013-09-29T08:16:47Z</time>
      </trkpt>
      <trkpt lat="42.97106" lon="1.94957">
        <ele>404</ele>
        <time>2013-09-29T08:16:53Z</time>
      </trkpt>
      <trkpt lat="42.97109" lon="1.94954">
        <ele>404</ele>
        <time>2013-09-29T08:16:59Z</time>
      </trkpt>
      <trkpt lat="42.97102" lon="1.94955">
        <ele>404</ele>
        <time>2013-09-29T08:17:04Z</time>
      </trkpt>
      <trkpt lat="42.97084" lon="1.94952">
        <ele>404</ele>
        <time>2013-09-29T08:17:10Z</time>
      </trkpt>
      <trkpt lat="42.97069" lon="1.94934">
        <ele>404</ele>
        <time>2013-09-29T08:17:15Z</time>
      </trkpt>
      <trkpt lat="42.9706" lon="1.94915">
        <ele>403</ele>
        <time>2013-09-29T08:17:20Z</time>
      </trkpt>
      <trkpt lat="42.97048" lon="1.94901">
        <ele>403</ele>
        <time>2013-09-29T08:17:25Z</time>
      </trkpt>
      <trkpt lat="42.97033" lon="1.94897">
        <ele>402</ele>
        <time>2013-09-29T08:17:30Z</time>
      </trkpt>
      <trkpt lat="42.97021" lon="1.94908">
        <ele>402</ele>
        <time>2013-09-29T08:17:35Z</time>
      </trkpt>
      <trkpt lat="42.97016" lon="1.94928">
        <ele>402</ele>
        <time>2013-09-29T08:17:40Z</time>
      </trkpt>
      <trkpt lat="42.9701" lon="1.9495">
        <ele>402</ele>
        <time>2013-09-29T08:17:45Z</time>
      </trkpt>
      <trkpt lat="42.97006" lon="1.94961">
        <ele>402</ele>
        <time>2013-09-29T08:17:50Z</time>
      </trkpt>
      <trkpt lat="42.9701" lon="1.94966">
        <ele>402</ele>
        <time>2013-09-29T08:17:55Z</time>
      </trkpt>
      <trkpt lat="42.97026" lon="1.94972">
        <ele>402</ele>
        <time>2013-09-29T08:18:00Z</time>
      </trkpt>
      <trkpt lat="42.97044" lon="1.94981">
        <ele>402</ele>
        <time>2013-09-29T08:18:05Z</time>
      </trkpt>
      <trkpt lat="42.97057" lon="1.94987">
        <ele>402</ele>
        <time>2013-09-29T08:18:11Z</time>
      </trkpt>
      <trkpt lat="42.97072" lon="1.94997">
        <ele>402</ele>
        <time>2013-09-29T08:18:16Z</time>
      </trkpt>
      <trkpt lat="42.97087" lon="1.95011">
        <ele>402</ele>
        <time>2013-09-29T08:18:21Z</time>
      </trkpt>
      <trkpt lat="42.97102" lon="1.95022">
        <ele>402</ele>
        <time>2013-09-29T08:18:27Z</time>
      </trkpt>
      <trkpt lat="42.97118" lon="1.95035">
        <ele>402</ele>
        <time>2013-09-29T08:18:32Z</time>
      </trkpt>
      <trkpt lat="42.97132" lon="1.95042">
        <ele>402</ele>
        <time>2013-09-29T08:18:37Z</time>
      </trkpt>
      <trkpt lat="42.97145" lon="1.95048">
        <ele>402</ele>
        <time>2013-09-29T08:18:42Z</time>
      </trkpt>
      <trkpt lat="42.97158" lon="1.95047">
        <ele>402</ele>
        <time>2013-09-29T08:18:47Z</time>
      </trkpt>
      <trkpt lat="42.97168" lon="1.95042">
        <ele>401</ele>
        <time>2013-09-29T08:18:54Z</time>
      </trkpt>
      <trkpt lat="42.97166" lon="1.95041">
        <ele>401</ele>
        <time>2013-09-29T08:19:04Z</time>
      </trkpt>
      <trkpt lat="42.97165" lon="1.9504">
        <ele>401</ele>
        <time>2013-09-29T08:19:11Z</time>
      </trkpt>
      <trkpt lat="42.97167" lon="1.95043">
        <ele>403</ele>
        <time>2013-09-29T08:19:17Z</time>
      </trkpt>
      <trkpt lat="42.97168" lon="1.95044">
        <ele>403</ele>
        <time>2013-09-29T08:19:23Z</time>
      </trkpt>
      <trkpt lat="42.9717" lon="1.95045">
        <ele>403</ele>
        <time>2013-09-29T08:19:32Z</time>
      </trkpt>
      <trkpt lat="42.97171" lon="1.95046">
        <ele>404</ele>
        <time>2013-09-29T08:19:39Z</time>
      </trkpt>
      <trkpt lat="42.97175" lon="1.95041">
        <ele>404</ele>
        <time>2013-09-29T08:19:45Z</time>
      </trkpt>
      <trkpt lat="42.97178" lon="1.95041">
        <ele>404</ele>
        <time>2013-09-29T08:19:57Z</time>
      </trkpt>
      <trkpt lat="42.97182" lon="1.95045">
        <ele>404</ele>
        <time>2013-09-29T08:20:04Z</time>
      </trkpt>
      <trkpt lat="42.97189" lon="1.95052">
        <ele>404</ele>
        <time>2013-09-29T08:20:10Z</time>
      </trkpt>
      <trkpt lat="42.97194" lon="1.95053">
        <ele>404</ele>
        <time>2013-09-29T08:20:16Z</time>
      </trkpt>
      <trkpt lat="42.972" lon="1.95055">
        <ele>404</ele>
        <time>2013-09-29T08:20:21Z</time>
      </trkpt>
      <trkpt lat="42.97207" lon="1.95056">
        <ele>403</ele>
        <time>2013-09-29T08:20:28Z</time>
      </trkpt>
      <trkpt lat="42.97214" lon="1.95054">
        <ele>403</ele>
        <time>2013-09-29T08:20:34Z</time>
      </trkpt>
      <trkpt lat="42.97218" lon="1.95052">
        <ele>403</ele>
        <time>2013-09-29T08:20:41Z</time>
      </trkpt>
      <trkpt lat="42.9722" lon="1.95051">
        <ele>403</ele>
        <time>2013-09-29T08:20:47Z</time>
      </trkpt>
      <trkpt lat="42.97222" lon="1.95053">
        <ele>403</ele>
        <time>2013-09-29T08:20:56Z</time>
      </trkpt>
      <trkpt lat="42.97221" lon="1.95053">
        <ele>402</ele>
        <time>2013-09-29T08:21:03Z</time>
      </trkpt>
      <trkpt lat="42.97218" lon="1.95053">
        <ele>401</ele>
        <time>2013-09-29T08:21:09Z</time>
      </trkpt>
      <trkpt lat="42.97217" lon="1.95052">
        <ele>400</ele>
        <time>2013-09-29T08:21:15Z</time>
      </trkpt>
      <trkpt lat="42.97213" lon="1.95049">
        <ele>400</ele>
        <time>2013-09-29T08:21:20Z</time>
      </trkpt>
      <trkpt lat="42.97208" lon="1.95043">
        <ele>400</ele>
        <time>2013-09-29T08:21:25Z</time>
      </trkpt>
      <trkpt lat="42.97203" lon="1.95036">
        <ele>400</ele>
        <time>2013-09-29T08:21:30Z</time>
      </trkpt>
      <trkpt lat="42.97202" lon="1.95027">
        <ele>400</ele>
        <time>2013-09-29T08:21:35Z</time>
      </trkpt>
      <trkpt lat="42.97199" lon="1.95012">
        <ele>400</ele>
        <time>2013-09-29T08:21:41Z</time>
      </trkpt>
      <trkpt lat="42.97191" lon="1.94999">
        <ele>400</ele>
        <time>2013-09-29T08:21:46Z</time>
      </trkpt>
      <trkpt lat="42.97179" lon="1.94991">
        <ele>400</ele>
        <time>2013-09-29T08:21:51Z</time>
      </trkpt>
      <trkpt lat="42.97165" lon="1.94981">
        <ele>400</ele>
        <time>2013-09-29T08:21:57Z</time>
      </trkpt>
      <trkpt lat="42.97142" lon="1.94972">
        <ele>401</ele>
        <time>2013-09-29T08:22:02Z</time>
      </trkpt>
      <trkpt lat="42.97123" lon="1.94964">
        <ele>401</ele>
        <time>2013-09-29T08:22:07Z</time>
      </trkpt>
      <trkpt lat="42.97106" lon="1.94955">
        <ele>402</ele>
        <time>2013-09-29T08:22:12Z</time>
      </trkpt>
      <trkpt lat="42.97091" lon="1.94954">
        <ele>402</ele>
        <time>2013-09-29T08:22:17Z</time>
      </trkpt>
      <trkpt lat="42.97076" lon="1.94944">
        <ele>402</ele>
        <time>2013-09-29T08:22:22Z</time>
      </trkpt>
      <trkpt lat="42.97066" lon="1.94926">
        <ele>402</ele>
        <time>2013-09-29T08:22:28Z</time>
      </trkpt>
      <trkpt lat="42.97055" lon="1.94909">
        <ele>402</ele>
        <time>2013-09-29T08:22:33Z</time>
      </trkpt>
      <trkpt lat="42.97042" lon="1.94901">
        <ele>402</ele>
        <time>2013-09-29T08:22:38Z</time>
      </trkpt>
      <trkpt lat="42.97028" lon="1.94899">
        <ele>402</ele>
        <time>2013-09-29T08:22:43Z</time>
      </trkpt>
      <trkpt lat="42.97019" lon="1.94912">
        <ele>402</ele>
        <time>2013-09-29T08:22:49Z</time>
      </trkpt>
      <trkpt lat="42.97013" lon="1.94934">
        <ele>402</ele>
        <time>2013-09-29T08:22:54Z</time>
      </trkpt>
      <trkpt lat="42.97007" lon="1.94955">
        <ele>402</ele>
        <time>2013-09-29T08:23:00Z</time>
      </trkpt>
      <trkpt lat="42.96993" lon="1.94957">
        <ele>402</ele>
        <time>2013-09-29T08:23:05Z</time>
      </trkpt>
      <trkpt lat="42.96979" lon="1.94961">
        <ele>402</ele>
        <time>2013-09-29T08:23:11Z</time>
      </trkpt>
      <trkpt lat="42.96964" lon="1.94977">
        <ele>402</ele>
        <time>2013-09-29T08:23:16Z</time>
      </trkpt>
      <trkpt lat="42.96953" lon="1.94991">
        <ele>402</ele>
        <time>2013-09-29T08:23:21Z</time>
      </trkpt>
      <trkpt lat="42.9694" lon="1.95001">
        <ele>402</ele>
        <time>2013-09-29T08:23:26Z</time>
      </trkpt>
      <trkpt lat="42.96931" lon="1.95022">
        <ele>402</ele>
        <time>2013-09-29T08:23:31Z</time>
      </trkpt>
      <trkpt lat="42.96929" lon="1.95045">
        <ele>402</ele>
        <time>2013-09-29T08:23:36Z</time>
      </trkpt>
      <trkpt lat="42.96928" lon="1.95068">
        <ele>402</ele>
        <time>2013-09-29T08:23:41Z</time>
      </trkpt>
      <trkpt lat="42.96927" lon="1.9509">
        <ele>402</ele>
        <time>2013-09-29T08:23:46Z</time>
      </trkpt>
      <trkpt lat="42.96926" lon="1.95112">
        <ele>402</ele>
        <time>2013-09-29T08:23:51Z</time>
      </trkpt>
      <trkpt lat="42.96925" lon="1.95134">
        <ele>402</ele>
        <time>2013-09-29T08:23:56Z</time>
      </trkpt>
      <trkpt lat="42.96923" lon="1.95156">
        <ele>402</ele>
        <time>2013-09-29T08:24:01Z</time>
      </trkpt>
      <trkpt lat="42.96921" lon="1.95178">
        <ele>402</ele>
        <time>2013-09-29T08:24:07Z</time>
      </trkpt>
      <trkpt lat="42.96919" lon="1.95205">
        <ele>402</ele>
        <time>2013-09-29T08:24:12Z</time>
      </trkpt>
      <trkpt lat="42.96918" lon="1.95226">
        <ele>402</ele>
        <time>2013-09-29T08:24:17Z</time>
      </trkpt>
      <trkpt lat="42.96917" lon="1.95247">
        <ele>402</ele>
        <time>2013-09-29T08:24:23Z</time>
      </trkpt>
      <trkpt lat="42.96916" lon="1.95273">
        <ele>402</ele>
        <time>2013-09-29T08:24:28Z</time>
      </trkpt>
      <trkpt lat="42.96914" lon="1.95295">
        <ele>402</ele>
        <time>2013-09-29T08:24:33Z</time>
      </trkpt>
      <trkpt lat="42.96913" lon="1.95317">
        <ele>402</ele>
        <time>2013-09-29T08:24:38Z</time>
      </trkpt>
      <trkpt lat="42.96922" lon="1.95326">
        <ele>402</ele>
        <time>2013-09-29T08:24:43Z</time>
      </trkpt>
      <trkpt lat="42.96936" lon="1.95323">
        <ele>402</ele>
        <time>2013-09-29T08:24:48Z</time>
      </trkpt>
      <trkpt lat="42.9694" lon="1.95338">
        <ele>402</ele>
        <time>2013-09-29T08:24:54Z</time>
      </trkpt>
      <trkpt lat="42.96938" lon="1.95362">
        <ele>402</ele>
        <time>2013-09-29T08:24:59Z</time>
      </trkpt>
      <trkpt lat="42.96934" lon="1.95386">
        <ele>402</ele>
        <time>2013-09-29T08:25:04Z</time>
      </trkpt>
      <trkpt lat="42.96928" lon="1.95404">
        <ele>402</ele>
        <time>2013-09-29T08:25:09Z</time>
      </trkpt>
      <trkpt lat="42.96923" lon="1.95422">
        <ele>402</ele>
        <time>2013-09-29T08:25:14Z</time>
      </trkpt>
      <trkpt lat="42.96917" lon="1.95443">
        <ele>402</ele>
        <time>2013-09-29T08:25:20Z</time>
      </trkpt>
      <trkpt lat="42.96911" lon="1.95471">
        <ele>402</ele>
        <time>2013-09-29T08:25:25Z</time>
      </trkpt>
      <trkpt lat="42.96914" lon="1.95494">
        <ele>402</ele>
        <time>2013-09-29T08:25:31Z</time>
      </trkpt>
      <trkpt lat="42.96925" lon="1.95515">
        <ele>402</ele>
        <time>2013-09-29T08:25:36Z</time>
      </trkpt>
      <trkpt lat="42.96939" lon="1.95524">
        <ele>402</ele>
        <time>2013-09-29T08:25:41Z</time>
      </trkpt>
      <trkpt lat="42.96954" lon="1.95519">
        <ele>402</ele>
        <time>2013-09-29T08:25:47Z</time>
      </trkpt>
      <trkpt lat="42.96969" lon="1.95506">
        <ele>402</ele>
        <time>2013-09-29T08:25:52Z</time>
      </trkpt>
      <trkpt lat="42.9698" lon="1.95493">
        <ele>402</ele>
        <time>2013-09-29T08:25:57Z</time>
      </trkpt>
      <trkpt lat="42.9699" lon="1.95481">
        <ele>402</ele>
        <time>2013-09-29T08:26:03Z</time>
      </trkpt>
      <trkpt lat="42.97002" lon="1.95467">
        <ele>402</ele>
        <time>2013-09-29T08:26:08Z</time>
      </trkpt>
      <trkpt lat="42.97015" lon="1.9545">
        <ele>402</ele>
        <time>2013-09-29T08:26:14Z</time>
      </trkpt>
      <trkpt lat="42.97024" lon="1.95434">
        <ele>402</ele>
        <time>2013-09-29T08:26:19Z</time>
      </trkpt>
      <trkpt lat="42.97035" lon="1.95423">
        <ele>402</ele>
        <time>2013-09-29T08:26:24Z</time>
      </trkpt>
      <trkpt lat="42.97051" lon="1.95425">
        <ele>402</ele>
        <time>2013-09-29T08:26:29Z</time>
      </trkpt>
      <trkpt lat="42.97058" lon="1.95443">
        <ele>402</ele>
        <time>2013-09-29T08:26:35Z</time>
      </trkpt>
      <trkpt lat="42.97061" lon="1.95463">
        <ele>402</ele>
        <time>2013-09-29T08:26:40Z</time>
      </trkpt>
      <trkpt lat="42.97065" lon="1.95483">
        <ele>402</ele>
        <time>2013-09-29T08:26:45Z</time>
      </trkpt>
      <trkpt lat="42.9707" lon="1.95508">
        <ele>402</ele>
        <time>2013-09-29T08:26:51Z</time>
      </trkpt>
      <trkpt lat="42.97077" lon="1.95529">
        <ele>402</ele>
        <time>2013-09-29T08:26:56Z</time>
      </trkpt>
      <trkpt lat="42.97083" lon="1.95546">
        <ele>402</ele>
        <time>2013-09-29T08:27:01Z</time>
      </trkpt>
      <trkpt lat="42.97087" lon="1.95563">
        <ele>402</ele>
        <time>2013-09-29T08:27:06Z</time>
      </trkpt>
      <trkpt lat="42.97095" lon="1.95581">
        <ele>402</ele>
        <time>2013-09-29T08:27:11Z</time>
      </trkpt>
      <trkpt lat="42.97103" lon="1.95599">
        <ele>402</ele>
        <time>2013-09-29T08:27:17Z</time>
      </trkpt>
      <trkpt lat="42.97111" lon="1.95624">
        <ele>402</ele>
        <time>2013-09-29T08:27:22Z</time>
      </trkpt>
      <trkpt lat="42.97117" lon="1.95644">
        <ele>402</ele>
        <time>2013-09-29T08:27:28Z</time>
      </trkpt>
      <trkpt lat="42.97123" lon="1.95665">
        <ele>402</ele>
        <time>2013-09-29T08:27:33Z</time>
      </trkpt>
      <trkpt lat="42.97129" lon="1.95688">
        <ele>402</ele>
        <time>2013-09-29T08:27:38Z</time>
      </trkpt>
      <trkpt lat="42.97133" lon="1.95708">
        <ele>402</ele>
        <time>2013-09-29T08:27:43Z</time>
      </trkpt>
      <trkpt lat="42.9713" lon="1.95727">
        <ele>402</ele>
        <time>2013-09-29T08:27:48Z</time>
      </trkpt>
      <trkpt lat="42.97124" lon="1.95742">
        <ele>402</ele>
        <time>2013-09-29T08:27:53Z</time>
      </trkpt>
      <trkpt lat="42.97118" lon="1.95755">
        <ele>402</ele>
        <time>2013-09-29T08:27:58Z</time>
      </trkpt>
      <trkpt lat="42.97112" lon="1.95767">
        <ele>402</ele>
        <time>2013-09-29T08:28:03Z</time>
      </trkpt>
      <trkpt lat="42.97107" lon="1.9578">
        <ele>402</ele>
        <time>2013-09-29T08:28:09Z</time>
      </trkpt>
      <trkpt lat="42.97095" lon="1.95788">
        <ele>402</ele>
        <time>2013-09-29T08:28:15Z</time>
      </trkpt>
      <trkpt lat="42.97084" lon="1.95797">
        <ele>402</ele>
        <time>2013-09-29T08:28:20Z</time>
      </trkpt>
      <trkpt lat="42.97075" lon="1.95806">
        <ele>403</ele>
        <time>2013-09-29T08:28:25Z</time>
      </trkpt>
      <trkpt lat="42.97066" lon="1.95815">
        <ele>405</ele>
        <time>2013-09-29T08:28:30Z</time>
      </trkpt>
      <trkpt lat="42.97058" lon="1.95824">
        <ele>406</ele>
        <time>2013-09-29T08:28:35Z</time>
      </trkpt>
      <trkpt lat="42.97052" lon="1.95832">
        <ele>407</ele>
        <time>2013-09-29T08:28:41Z</time>
      </trkpt>
      <trkpt lat="42.97045" lon="1.9584">
        <ele>407</ele>
        <time>2013-09-29T08:28:46Z</time>
      </trkpt>
      <trkpt lat="42.97035" lon="1.95848">
        <ele>407</ele>
        <time>2013-09-29T08:28:52Z</time>
      </trkpt>
      <trkpt lat="42.97026" lon="1.95859">
        <ele>407</ele>
        <time>2013-09-29T08:28:57Z</time>
      </trkpt>
      <trkpt lat="42.97018" lon="1.95877">
        <ele>407</ele>
        <time>2013-09-29T08:29:02Z</time>
      </trkpt>
      <trkpt lat="42.97012" lon="1.95891">
        <ele>407</ele>
        <time>2013-09-29T08:29:07Z</time>
      </trkpt>
      <trkpt lat="42.97003" lon="1.95902">
        <ele>407</ele>
        <time>2013-09-29T08:29:12Z</time>
      </trkpt>
      <trkpt lat="42.96992" lon="1.95914">
        <ele>407</ele>
        <time>2013-09-29T08:29:17Z</time>
      </trkpt>
      <trkpt lat="42.96985" lon="1.95929">
        <ele>407</ele>
        <time>2013-09-29T08:29:23Z</time>
      </trkpt>
      <trkpt lat="42.96978" lon="1.95945">
        <ele>407</ele>
        <time>2013-09-29T08:29:28Z</time>
      </trkpt>
      <trkpt lat="42.9697" lon="1.95958">
        <ele>407</ele>
        <time>2013-09-29T08:29:33Z</time>
      </trkpt>
      <trkpt lat="42.96962" lon="1.95971">
        <ele>406</ele>
        <time>2013-09-29T08:29:38Z</time>
      </trkpt>
      <trkpt lat="42.96956" lon="1.95985">
        <ele>406</ele>
        <time>2013-09-29T08:29:44Z</time>
      </trkpt>
      <trkpt lat="42.96946" lon="1.96001">
        <ele>406</ele>
        <time>2013-09-29T08:29:49Z</time>
      </trkpt>
      <trkpt lat="42.96936" lon="1.96012">
        <ele>406</ele>
        <time>2013-09-29T08:29:54Z</time>
      </trkpt>
      <trkpt lat="42.96928" lon="1.96027">
        <ele>409</ele>
        <time>2013-09-29T08:29:59Z</time>
      </trkpt>
      <trkpt lat="42.96921" lon="1.96041">
        <ele>411</ele>
        <time>2013-09-29T08:30:05Z</time>
      </trkpt>
      <trkpt lat="42.96912" lon="1.96056">
        <ele>411</ele>
        <time>2013-09-29T08:30:10Z</time>
      </trkpt>
      <trkpt lat="42.9691" lon="1.96072">
        <ele>411</ele>
        <time>2013-09-29T08:30:16Z</time>
      </trkpt>
      <trkpt lat="42.96918" lon="1.96094">
        <ele>411</ele>
        <time>2013-09-29T08:30:21Z</time>
      </trkpt>
      <trkpt lat="42.96928" lon="1.96111">
        <ele>411</ele>
        <time>2013-09-29T08:30:26Z</time>
      </trkpt>
      <trkpt lat="42.96939" lon="1.96127">
        <ele>411</ele>
        <time>2013-09-29T08:30:31Z</time>
      </trkpt>
      <trkpt lat="42.96953" lon="1.96141">
        <ele>411</ele>
        <time>2013-09-29T08:30:36Z</time>
      </trkpt>
      <trkpt lat="42.96967" lon="1.96158">
        <ele>410</ele>
        <time>2013-09-29T08:30:42Z</time>
      </trkpt>
      <trkpt lat="42.96975" lon="1.96178">
        <ele>410</ele>
        <time>2013-09-29T08:30:47Z</time>
      </trkpt>
      <trkpt lat="42.96975" lon="1.96203">
        <ele>410</ele>
        <time>2013-09-29T08:30:53Z</time>
      </trkpt>
      <trkpt lat="42.96976" lon="1.96229">
        <ele>410</ele>
        <time>2013-09-29T08:30:59Z</time>
      </trkpt>
      <trkpt lat="42.96978" lon="1.96256">
        <ele>409</ele>
        <time>2013-09-29T08:31:04Z</time>
      </trkpt>
      <trkpt lat="42.96979" lon="1.96277">
        <ele>408</ele>
        <time>2013-09-29T08:31:09Z</time>
      </trkpt>
      <trkpt lat="42.96981" lon="1.963">
        <ele>407</ele>
        <time>2013-09-29T08:31:15Z</time>
      </trkpt>
      <trkpt lat="42.96981" lon="1.96322">
        <ele>407</ele>
        <time>2013-09-29T08:31:20Z</time>
      </trkpt>
      <trkpt lat="42.96973" lon="1.96342">
        <ele>407</ele>
        <time>2013-09-29T08:31:25Z</time>
      </trkpt>
      <trkpt lat="42.96972" lon="1.96364">
        <ele>407</ele>
        <time>2013-09-29T08:31:31Z</time>
      </trkpt>
      <trkpt lat="42.96974" lon="1.9639">
        <ele>407</ele>
        <time>2013-09-29T08:31:37Z</time>
      </trkpt>
      <trkpt lat="42.96969" lon="1.96412">
        <ele>407</ele>
        <time>2013-09-29T08:31:42Z</time>
      </trkpt>
      <trkpt lat="42.96957" lon="1.96425">
        <ele>407</ele>
        <time>2013-09-29T08:31:47Z</time>
      </trkpt>
      <trkpt lat="42.96943" lon="1.96427">
        <ele>405</ele>
        <time>2013-09-29T08:31:53Z</time>
      </trkpt>
      <trkpt lat="42.96926" lon="1.9644">
        <ele>404</ele>
        <time>2013-09-29T08:31:58Z</time>
      </trkpt>
      <trkpt lat="42.9692" lon="1.96457">
        <ele>404</ele>
        <time>2013-09-29T08:32:03Z</time>
      </trkpt>
      <trkpt lat="42.96916" lon="1.96476">
        <ele>404</ele>
        <time>2013-09-29T08:32:08Z</time>
      </trkpt>
      <trkpt lat="42.96915" lon="1.96498">
        <ele>404</ele>
        <time>2013-09-29T08:32:13Z</time>
      </trkpt>
      <trkpt lat="42.96912" lon="1.96517">
        <ele>404</ele>
        <time>2013-09-29T08:32:19Z</time>
      </trkpt>
      <trkpt lat="42.9691" lon="1.96542">
        <ele>404</ele>
        <time>2013-09-29T08:32:24Z</time>
      </trkpt>
      <trkpt lat="42.96907" lon="1.96563">
        <ele>404</ele>
        <time>2013-09-29T08:32:30Z</time>
      </trkpt>
      <trkpt lat="42.96903" lon="1.96584">
        <ele>404</ele>
        <time>2013-09-29T08:32:35Z</time>
      </trkpt>
      <trkpt lat="42.96899" lon="1.9661">
        <ele>404</ele>
        <time>2013-09-29T08:32:40Z</time>
      </trkpt>
      <trkpt lat="42.96894" lon="1.96628">
        <ele>404</ele>
        <time>2013-09-29T08:32:46Z</time>
      </trkpt>
      <trkpt lat="42.96882" lon="1.96644">
        <ele>404</ele>
        <time>2013-09-29T08:32:51Z</time>
      </trkpt>
      <trkpt lat="42.96871" lon="1.96659">
        <ele>404</ele>
        <time>2013-09-29T08:32:57Z</time>
      </trkpt>
      <trkpt lat="42.96861" lon="1.96679">
        <ele>404</ele>
        <time>2013-09-29T08:33:03Z</time>
      </trkpt>
      <trkpt lat="42.96861" lon="1.96704">
        <ele>404</ele>
        <time>2013-09-29T08:33:09Z</time>
      </trkpt>
      <trkpt lat="42.96867" lon="1.96729">
        <ele>404</ele>
        <time>2013-09-29T08:33:15Z</time>
      </trkpt>
      <trkpt lat="42.96874" lon="1.96752">
        <ele>404</ele>
        <time>2013-09-29T08:33:20Z</time>
      </trkpt>
      <trkpt lat="42.96881" lon="1.96771">
        <ele>404</ele>
        <time>2013-09-29T08:33:25Z</time>
      </trkpt>
      <trkpt lat="42.96888" lon="1.96789">
        <ele>404</ele>
        <time>2013-09-29T08:33:30Z</time>
      </trkpt>
      <trkpt lat="42.96895" lon="1.96808">
        <ele>404</ele>
        <time>2013-09-29T08:33:35Z</time>
      </trkpt>
      <trkpt lat="42.96902" lon="1.96827">
        <ele>404</ele>
        <time>2013-09-29T08:33:40Z</time>
      </trkpt>
      <trkpt lat="42.96909" lon="1.96847">
        <ele>404</ele>
        <time>2013-09-29T08:33:45Z</time>
      </trkpt>
      <trkpt lat="42.96918" lon="1.9687">
        <ele>404</ele>
        <time>2013-09-29T08:33:51Z</time>
      </trkpt>
      <trkpt lat="42.96925" lon="1.96889">
        <ele>404</ele>
        <time>2013-09-29T08:33:57Z</time>
      </trkpt>
      <trkpt lat="42.96932" lon="1.96908">
        <ele>404</ele>
        <time>2013-09-29T08:34:02Z</time>
      </trkpt>
      <trkpt lat="42.96941" lon="1.96931">
        <ele>404</ele>
        <time>2013-09-29T08:34:07Z</time>
      </trkpt>
      <trkpt lat="42.96949" lon="1.9695">
        <ele>404</ele>
        <time>2013-09-29T08:34:12Z</time>
      </trkpt>
      <trkpt lat="42.96956" lon="1.96969">
        <ele>404</ele>
        <time>2013-09-29T08:34:17Z</time>
      </trkpt>
      <trkpt lat="42.96963" lon="1.96989">
        <ele>404</ele>
        <time>2013-09-29T08:34:23Z</time>
      </trkpt>
      <trkpt lat="42.96971" lon="1.97011">
        <ele>404</ele>
        <time>2013-09-29T08:34:29Z</time>
      </trkpt>
      <trkpt lat="42.96979" lon="1.97033">
        <ele>404</ele>
        <time>2013-09-29T08:34:34Z</time>
      </trkpt>
      <trkpt lat="42.96986" lon="1.97052">
        <ele>404</ele>
        <time>2013-09-29T08:34:39Z</time>
      </trkpt>
      <trkpt lat="42.96993" lon="1.9707">
        <ele>404</ele>
        <time>2013-09-29T08:34:44Z</time>
      </trkpt>
      <trkpt lat="42.97002" lon="1.97089">
        <ele>404</ele>
        <time>2013-09-29T08:34:50Z</time>
      </trkpt>
      <trkpt lat="42.97014" lon="1.97091">
        <ele>404</ele>
        <time>2013-09-29T08:34:55Z</time>
      </trkpt>
      <trkpt lat="42.97026" lon="1.97089">
        <ele>404</ele>
        <time>2013-09-29T08:35:01Z</time>
      </trkpt>
      <trkpt lat="42.9704" lon="1.97084">
        <ele>409</ele>
        <time>2013-09-29T08:35:06Z</time>
      </trkpt>
      <trkpt lat="42.97049" lon="1.97085">
        <ele>414</ele>
        <time>2013-09-29T08:35:12Z</time>
      </trkpt>
      <trkpt lat="42.97064" lon="1.97088">
        <ele>420</ele>
        <time>2013-09-29T08:35:17Z</time>
      </trkpt>
      <trkpt lat="42.97081" lon="1.97093">
        <ele>422</ele>
        <time>2013-09-29T08:35:23Z</time>
      </trkpt>
      <trkpt lat="42.97094" lon="1.97099">
        <ele>422</ele>
        <time>2013-09-29T08:35:28Z</time>
      </trkpt>
      <trkpt lat="42.97108" lon="1.97107">
        <ele>422</ele>
        <time>2013-09-29T08:35:33Z</time>
      </trkpt>
      <trkpt lat="42.97116" lon="1.97121">
        <ele>422</ele>
        <time>2013-09-29T08:35:38Z</time>
      </trkpt>
      <trkpt lat="42.9712" lon="1.97142">
        <ele>422</ele>
        <time>2013-09-29T08:35:43Z</time>
      </trkpt>
      <trkpt lat="42.9712" lon="1.97163">
        <ele>422</ele>
        <time>2013-09-29T08:35:48Z</time>
      </trkpt>
      <trkpt lat="42.97121" lon="1.97184">
        <ele>422</ele>
        <time>2013-09-29T08:35:53Z</time>
      </trkpt>
      <trkpt lat="42.9712" lon="1.97205">
        <ele>422</ele>
        <time>2013-09-29T08:35:58Z</time>
      </trkpt>
      <trkpt lat="42.97117" lon="1.97224">
        <ele>422</ele>
        <time>2013-09-29T08:36:03Z</time>
      </trkpt>
      <trkpt lat="42.97108" lon="1.97243">
        <ele>422</ele>
        <time>2013-09-29T08:36:08Z</time>
      </trkpt>
      <trkpt lat="42.97102" lon="1.97263">
        <ele>421</ele>
        <time>2013-09-29T08:36:13Z</time>
      </trkpt>
      <trkpt lat="42.97095" lon="1.97281">
        <ele>419</ele>
        <time>2013-09-29T08:36:18Z</time>
      </trkpt>
      <trkpt lat="42.97087" lon="1.97299">
        <ele>416</ele>
        <time>2013-09-29T08:36:23Z</time>
      </trkpt>
      <trkpt lat="42.97079" lon="1.97317">
        <ele>414</ele>
        <time>2013-09-29T08:36:28Z</time>
      </trkpt>
      <trkpt lat="42.97072" lon="1.97336">
        <ele>411</ele>
        <time>2013-09-29T08:36:33Z</time>
      </trkpt>
      <trkpt lat="42.97065" lon="1.97354">
        <ele>410</ele>
        <time>2013-09-29T08:36:38Z</time>
      </trkpt>
      <trkpt lat="42.97057" lon="1.97372">
        <ele>408</ele>
        <time>2013-09-29T08:36:43Z</time>
      </trkpt>
      <trkpt lat="42.97049" lon="1.97386">
        <ele>406</ele>
        <time>2013-09-29T08:36:48Z</time>
      </trkpt>
      <trkpt lat="42.97043" lon="1.97389">
        <ele>405</ele>
        <time>2013-09-29T08:36:53Z</time>
      </trkpt>
      <trkpt lat="42.97042" lon="1.97384">
        <ele>405</ele>
        <time>2013-09-29T08:36:58Z</time>
      </trkpt>
      <trkpt lat="42.97045" lon="1.97386">
        <ele>405</ele>
        <time>2013-09-29T08:37:04Z</time>
      </trkpt>
      <trkpt lat="42.97046" lon="1.97392">
        <ele>405</ele>
        <time>2013-09-29T08:37:09Z</time>
      </trkpt>
      <trkpt lat="42.97041" lon="1.97397">
        <ele>405</ele>
        <time>2013-09-29T08:37:14Z</time>
      </trkpt>
      <trkpt lat="42.97039" lon="1.97403">
        <ele>405</ele>
        <time>2013-09-29T08:37:20Z</time>
      </trkpt>
      <trkpt lat="42.97038" lon="1.97406">
        <ele>405</ele>
        <time>2013-09-29T08:37:37Z</time>
      </trkpt>
      <trkpt lat="42.97039" lon="1.97402">
        <ele>405</ele>
        <time>2013-09-29T08:37:43Z</time>
      </trkpt>
      <trkpt lat="42.97038" lon="1.974">
        <ele>405</ele>
        <time>2013-09-29T08:37:49Z</time>
      </trkpt>
      <trkpt lat="42.97036" lon="1.97399">
        <ele>407</ele>
        <time>2013-09-29T08:37:58Z</time>
      </trkpt>
      <trkpt lat="42.97034" lon="1.97399">
        <ele>408</ele>
        <time>2013-09-29T08:38:06Z</time>
      </trkpt>
      <trkpt lat="42.97035" lon="1.97395">
        <ele>413</ele>
        <time>2013-09-29T08:38:11Z</time>
      </trkpt>
      <trkpt lat="42.97037" lon="1.97394">
        <ele>414</ele>
        <time>2013-09-29T08:38:18Z</time>
      </trkpt>
      <trkpt lat="42.97036" lon="1.97396">
        <ele>414</ele>
        <time>2013-09-29T08:38:27Z</time>
      </trkpt>
      <trkpt lat="42.97035" lon="1.97397">
        <ele>414</ele>
        <time>2013-09-29T08:38:33Z</time>
      </trkpt>
      <trkpt lat="42.97037" lon="1.97398">
        <ele>414</ele>
        <time>2013-09-29T08:38:39Z</time>
      </trkpt>
      <trkpt lat="42.97037" lon="1.97402">
        <ele>414</ele>
        <time>2013-09-29T08:38:45Z</time>
      </trkpt>
      <trkpt lat="42.97037" lon="1.97405">
        <ele>413</ele>
        <time>2013-09-29T08:38:50Z</time>
      </trkpt>
      <trkpt lat="42.97038" lon="1.97411">
        <ele>410</ele>
        <time>2013-09-29T08:38:58Z</time>
      </trkpt>
      <trkpt lat="42.97039" lon="1.97413">
        <ele>408</ele>
        <time>2013-09-29T08:39:11Z</time>
      </trkpt>
      <trkpt lat="42.9704" lon="1.97414">
        <ele>407</ele>
        <time>2013-09-29T08:39:25Z</time>
      </trkpt>
      <trkpt lat="42.97041" lon="1.97415">
        <ele>407</ele>
        <time>2013-09-29T08:39:48Z</time>
      </trkpt>
      <trkpt lat="42.9704" lon="1.97415">
        <ele>406</ele>
        <time>2013-09-29T08:40:14Z</time>
      </trkpt>
      <trkpt lat="42.97041" lon="1.97416">
        <ele>406</ele>
        <time>2013-09-29T08:40:28Z</time>
      </trkpt>
      <trkpt lat="42.97043" lon="1.97418">
        <ele>406</ele>
        <time>2013-09-29T08:40:34Z</time>
      </trkpt>
      <trkpt lat="42.97055" lon="1.97436">
        <ele>406</ele>
        <time>2013-09-29T08:40:39Z</time>
      </trkpt>
      <trkpt lat="42.97072" lon="1.97457">
        <ele>406</ele>
        <time>2013-09-29T08:40:44Z</time>
      </trkpt>
      <trkpt lat="42.97085" lon="1.97474">
        <ele>406</ele>
        <time>2013-09-29T08:40:49Z</time>
      </trkpt>
      <trkpt lat="42.97097" lon="1.9749">
        <ele>406</ele>
        <time>2013-09-29T08:40:54Z</time>
      </trkpt>
      <trkpt lat="42.97113" lon="1.9751">
        <ele>406</ele>
        <time>2013-09-29T08:41:00Z</time>
      </trkpt>
      <trkpt lat="42.97126" lon="1.97526">
        <ele>406</ele>
        <time>2013-09-29T08:41:06Z</time>
      </trkpt>
      <trkpt lat="42.97139" lon="1.97537">
        <ele>406</ele>
        <time>2013-09-29T08:41:11Z</time>
      </trkpt>
      <trkpt lat="42.97145" lon="1.97515">
        <ele>406</ele>
        <time>2013-09-29T08:41:16Z</time>
      </trkpt>
      <trkpt lat="42.97156" lon="1.97499">
        <ele>406</ele>
        <time>2013-09-29T08:41:21Z</time>
      </trkpt>
      <trkpt lat="42.97172" lon="1.97501">
        <ele>406</ele>
        <time>2013-09-29T08:41:26Z</time>
      </trkpt>
      <trkpt lat="42.9719" lon="1.97508">
        <ele>406</ele>
        <time>2013-09-29T08:41:32Z</time>
      </trkpt>
      <trkpt lat="42.97205" lon="1.97512">
        <ele>406</ele>
        <time>2013-09-29T08:41:37Z</time>
      </trkpt>
      <trkpt lat="42.97224" lon="1.97507">
        <ele>406</ele>
        <time>2013-09-29T08:41:43Z</time>
      </trkpt>
      <trkpt lat="42.97233" lon="1.97499">
        <ele>406</ele>
        <time>2013-09-29T08:41:48Z</time>
      </trkpt>
      <trkpt lat="42.97243" lon="1.9748">
        <ele>410</ele>
        <time>2013-09-29T08:41:53Z</time>
      </trkpt>
      <trkpt lat="42.97252" lon="1.97462">
        <ele>410</ele>
        <time>2013-09-29T08:41:58Z</time>
      </trkpt>
      <trkpt lat="42.97258" lon="1.97443">
        <ele>410</ele>
        <time>2013-09-29T08:42:04Z</time>
      </trkpt>
      <trkpt lat="42.9727" lon="1.97422">
        <ele>408</ele>
        <time>2013-09-29T08:42:09Z</time>
      </trkpt>
      <trkpt lat="42.97279" lon="1.97404">
        <ele>406</ele>
        <time>2013-09-29T08:42:14Z</time>
      </trkpt>
      <trkpt lat="42.97291" lon="1.97387">
        <ele>404</ele>
        <time>2013-09-29T08:42:19Z</time>
      </trkpt>
      <trkpt lat="42.97303" lon="1.9737">
        <ele>402</ele>
        <time>2013-09-29T08:42:24Z</time>
      </trkpt>
      <trkpt lat="42.97312" lon="1.97353">
        <ele>399</ele>
        <time>2013-09-29T08:42:29Z</time>
      </trkpt>
      <trkpt lat="42.9732" lon="1.97335">
        <ele>399</ele>
        <time>2013-09-29T08:42:34Z</time>
      </trkpt>
      <trkpt lat="42.97326" lon="1.97317">
        <ele>399</ele>
        <time>2013-09-29T08:42:39Z</time>
      </trkpt>
      <trkpt lat="42.97332" lon="1.97299">
        <ele>403</ele>
        <time>2013-09-29T08:42:44Z</time>
      </trkpt>
      <trkpt lat="42.9734" lon="1.97279">
        <ele>404</ele>
        <time>2013-09-29T08:42:49Z</time>
      </trkpt>
      <trkpt lat="42.9735" lon="1.9726">
        <ele>404</ele>
        <time>2013-09-29T08:42:54Z</time>
      </trkpt>
      <trkpt lat="42.97361" lon="1.97242">
        <ele>404</ele>
        <time>2013-09-29T08:42:59Z</time>
      </trkpt>
      <trkpt lat="42.97372" lon="1.97224">
        <ele>401</ele>
        <time>2013-09-29T08:43:04Z</time>
      </trkpt>
      <trkpt lat="42.97382" lon="1.97207">
        <ele>399</ele>
        <time>2013-09-29T08:43:09Z</time>
      </trkpt>
      <trkpt lat="42.97392" lon="1.97189">
        <ele>398</ele>
        <time>2013-09-29T08:43:14Z</time>
      </trkpt>
      <trkpt lat="42.97401" lon="1.9717">
        <ele>397</ele>
        <time>2013-09-29T08:43:19Z</time>
      </trkpt>
      <trkpt lat="42.97411" lon="1.97152">
        <ele>396</ele>
        <time>2013-09-29T08:43:24Z</time>
      </trkpt>
      <trkpt lat="42.97421" lon="1.97137">
        <ele>396</ele>
        <time>2013-09-29T08:43:29Z</time>
      </trkpt>
      <trkpt lat="42.9743" lon="1.97118">
        <ele>394</ele>
        <time>2013-09-29T08:43:34Z</time>
      </trkpt>
      <trkpt lat="42.97436" lon="1.97099">
        <ele>394</ele>
        <time>2013-09-29T08:43:39Z</time>
      </trkpt>
      <trkpt lat="42.97442" lon="1.97081">
        <ele>394</ele>
        <time>2013-09-29T08:43:44Z</time>
      </trkpt>
      <trkpt lat="42.97451" lon="1.97062">
        <ele>394</ele>
        <time>2013-09-29T08:43:49Z</time>
      </trkpt>
      <trkpt lat="42.97456" lon="1.97042">
        <ele>394</ele>
        <time>2013-09-29T08:43:54Z</time>
      </trkpt>
      <trkpt lat="42.97471" lon="1.97038">
        <ele>394</ele>
        <time>2013-09-29T08:43:59Z</time>
      </trkpt>
      <trkpt lat="42.97486" lon="1.97042">
        <ele>395</ele>
        <time>2013-09-29T08:44:04Z</time>
      </trkpt>
      <trkpt lat="42.97502" lon="1.97054">
        <ele>397</ele>
        <time>2013-09-29T08:44:09Z</time>
      </trkpt>
      <trkpt lat="42.97517" lon="1.97065">
        <ele>399</ele>
        <time>2013-09-29T08:44:14Z</time>
      </trkpt>
      <trkpt lat="42.97532" lon="1.97075">
        <ele>400</ele>
        <time>2013-09-29T08:44:19Z</time>
      </trkpt>
      <trkpt lat="42.97546" lon="1.97085">
        <ele>400</ele>
        <time>2013-09-29T08:44:24Z</time>
      </trkpt>
      <trkpt lat="42.97561" lon="1.97095">
        <ele>400</ele>
        <time>2013-09-29T08:44:29Z</time>
      </trkpt>
      <trkpt lat="42.97575" lon="1.97104">
        <ele>400</ele>
        <time>2013-09-29T08:44:34Z</time>
      </trkpt>
      <trkpt lat="42.9759" lon="1.9711">
        <ele>401</ele>
        <time>2013-09-29T08:44:39Z</time>
      </trkpt>
      <trkpt lat="42.97597" lon="1.97095">
        <ele>401</ele>
        <time>2013-09-29T08:44:44Z</time>
      </trkpt>
      <trkpt lat="42.9761" lon="1.9709">
        <ele>401</ele>
        <time>2013-09-29T08:44:49Z</time>
      </trkpt>
      <trkpt lat="42.97625" lon="1.97093">
        <ele>401</ele>
        <time>2013-09-29T08:44:55Z</time>
      </trkpt>
      <trkpt lat="42.9764" lon="1.97088">
        <ele>401</ele>
        <time>2013-09-29T08:45:00Z</time>
      </trkpt>
      <trkpt lat="42.97652" lon="1.97079">
        <ele>401</ele>
        <time>2013-09-29T08:45:05Z</time>
      </trkpt>
      <trkpt lat="42.97665" lon="1.97072">
        <ele>402</ele>
        <time>2013-09-29T08:45:10Z</time>
      </trkpt>
      <trkpt lat="42.97667" lon="1.97063">
        <ele>402</ele>
        <time>2013-09-29T08:45:16Z</time>
      </trkpt>
      <trkpt lat="42.97667" lon="1.97054">
        <ele>402</ele>
        <time>2013-09-29T08:45:21Z</time>
      </trkpt>
      <trkpt lat="42.97666" lon="1.97046">
        <ele>402</ele>
        <time>2013-09-29T08:45:26Z</time>
      </trkpt>
      <trkpt lat="42.97668" lon="1.97038">
        <ele>402</ele>
        <time>2013-09-29T08:45:31Z</time>
      </trkpt>
      <trkpt lat="42.9767" lon="1.97031">
        <ele>401</ele>
        <time>2013-09-29T08:45:39Z</time>
      </trkpt>
      <trkpt lat="42.97671" lon="1.97026">
        <ele>401</ele>
        <time>2013-09-29T08:45:44Z</time>
      </trkpt>
      <trkpt lat="42.97672" lon="1.97022">
        <ele>401</ele>
        <time>2013-09-29T08:45:52Z</time>
      </trkpt>
      <trkpt lat="42.97675" lon="1.97014">
        <ele>400</ele>
        <time>2013-09-29T08:45:58Z</time>
      </trkpt>
      <trkpt lat="42.97679" lon="1.9701">
        <ele>399</ele>
        <time>2013-09-29T08:46:04Z</time>
      </trkpt>
      <trkpt lat="42.97677" lon="1.97002">
        <ele>398</ele>
        <time>2013-09-29T08:46:09Z</time>
      </trkpt>
      <trkpt lat="42.97677" lon="1.96994">
        <ele>398</ele>
        <time>2013-09-29T08:46:14Z</time>
      </trkpt>
      <trkpt lat="42.97679" lon="1.9699">
        <ele>396</ele>
        <time>2013-09-29T08:46:21Z</time>
      </trkpt>
      <trkpt lat="42.9768" lon="1.96986">
        <ele>396</ele>
        <time>2013-09-29T08:46:27Z</time>
      </trkpt>
      <trkpt lat="42.97677" lon="1.96982">
        <ele>396</ele>
        <time>2013-09-29T08:46:32Z</time>
      </trkpt>
      <trkpt lat="42.97674" lon="1.96972">
        <ele>396</ele>
        <time>2013-09-29T08:46:38Z</time>
      </trkpt>
      <trkpt lat="42.97668" lon="1.9696">
        <ele>396</ele>
        <time>2013-09-29T08:46:43Z</time>
      </trkpt>
      <trkpt lat="42.97661" lon="1.9695">
        <ele>396</ele>
        <time>2013-09-29T08:46:48Z</time>
      </trkpt>
      <trkpt lat="42.97654" lon="1.96943">
        <ele>396</ele>
        <time>2013-09-29T08:46:53Z</time>
      </trkpt>
      <trkpt lat="42.97647" lon="1.96934">
        <ele>397</ele>
        <time>2013-09-29T08:46:58Z</time>
      </trkpt>
      <trkpt lat="42.97639" lon="1.96927">
        <ele>397</ele>
        <time>2013-09-29T08:47:03Z</time>
      </trkpt>
      <trkpt lat="42.97633" lon="1.96917">
        <ele>397</ele>
        <time>2013-09-29T08:47:08Z</time>
      </trkpt>
      <trkpt lat="42.97625" lon="1.96909">
        <ele>397</ele>
        <time>2013-09-29T08:47:13Z</time>
      </trkpt>
      <trkpt lat="42.97617" lon="1.96902">
        <ele>397</ele>
        <time>2013-09-29T08:47:18Z</time>
      </trkpt>
      <trkpt lat="42.97609" lon="1.96894">
        <ele>397</ele>
        <time>2013-09-29T08:47:23Z</time>
      </trkpt>
      <trkpt lat="42.97601" lon="1.96887">
        <ele>397</ele>
        <time>2013-09-29T08:47:28Z</time>
      </trkpt>
      <trkpt lat="42.97593" lon="1.96879">
        <ele>397</ele>
        <time>2013-09-29T08:47:33Z</time>
      </trkpt>
      <trkpt lat="42.97585" lon="1.96871">
        <ele>397</ele>
        <time>2013-09-29T08:47:38Z</time>
      </trkpt>
      <trkpt lat="42.97577" lon="1.96862">
        <ele>397</ele>
        <time>2013-09-29T08:47:43Z</time>
      </trkpt>
      <trkpt lat="42.9757" lon="1.96852">
        <ele>397</ele>
        <time>2013-09-29T08:47:49Z</time>
      </trkpt>
      <trkpt lat="42.9756" lon="1.96845">
        <ele>397</ele>
        <time>2013-09-29T08:47:54Z</time>
      </trkpt>
      <trkpt lat="42.97551" lon="1.96835">
        <ele>398</ele>
        <time>2013-09-29T08:48:00Z</time>
      </trkpt>
      <trkpt lat="42.97543" lon="1.96823">
        <ele>398</ele>
        <time>2013-09-29T08:48:05Z</time>
      </trkpt>
      <trkpt lat="42.97534" lon="1.96815">
        <ele>398</ele>
        <time>2013-09-29T08:48:10Z</time>
      </trkpt>
      <trkpt lat="42.97525" lon="1.96808">
        <ele>398</ele>
        <time>2013-09-29T08:48:15Z</time>
      </trkpt>
      <trkpt lat="42.97517" lon="1.96801">
        <ele>398</ele>
        <time>2013-09-29T08:48:20Z</time>
      </trkpt>
      <trkpt lat="42.9751" lon="1.96794">
        <ele>398</ele>
        <time>2013-09-29T08:48:25Z</time>
      </trkpt>
      <trkpt lat="42.97501" lon="1.96786">
        <ele>398</ele>
        <time>2013-09-29T08:48:30Z</time>
      </trkpt>
      <trkpt lat="42.97493" lon="1.96778">
        <ele>398</ele>
        <time>2013-09-29T08:48:35Z</time>
      </trkpt>
      <trkpt lat="42.97484" lon="1.9677">
        <ele>398</ele>
        <time>2013-09-29T08:48:40Z</time>
      </trkpt>
      <trkpt lat="42.97475" lon="1.96761">
        <ele>398</ele>
        <time>2013-09-29T08:48:46Z</time>
      </trkpt>
      <trkpt lat="42.97468" lon="1.96753">
        <ele>398</ele>
        <time>2013-09-29T08:48:52Z</time>
      </trkpt>
      <trkpt lat="42.97459" lon="1.96743">
        <ele>398</ele>
        <time>2013-09-29T08:48:57Z</time>
      </trkpt>
      <trkpt lat="42.9745" lon="1.96738">
        <ele>398</ele>
        <time>2013-09-29T08:49:02Z</time>
      </trkpt>
      <trkpt lat="42.97439" lon="1.9673">
        <ele>398</ele>
        <time>2013-09-29T08:49:09Z</time>
      </trkpt>
      <trkpt lat="42.97428" lon="1.96724">
        <ele>398</ele>
        <time>2013-09-29T08:49:14Z</time>
      </trkpt>
      <trkpt lat="42.97422" lon="1.96718">
        <ele>398</ele>
        <time>2013-09-29T08:49:19Z</time>
      </trkpt>
      <trkpt lat="42.97423" lon="1.96711">
        <ele>398</ele>
        <time>2013-09-29T08:49:25Z</time>
      </trkpt>
      <trkpt lat="42.97425" lon="1.96707">
        <ele>398</ele>
        <time>2013-09-29T08:49:31Z</time>
      </trkpt>
      <trkpt lat="42.9743" lon="1.96702">
        <ele>398</ele>
        <time>2013-09-29T08:49:36Z</time>
      </trkpt>
      <trkpt lat="42.97435" lon="1.96695">
        <ele>398</ele>
        <time>2013-09-29T08:49:41Z</time>
      </trkpt>
      <trkpt lat="42.97438" lon="1.96688">
        <ele>398</ele>
        <time>2013-09-29T08:49:47Z</time>
      </trkpt>
      <trkpt lat="42.97443" lon="1.96678">
        <ele>398</ele>
        <time>2013-09-29T08:49:52Z</time>
      </trkpt>
      <trkpt lat="42.97448" lon="1.9667">
        <ele>398</ele>
        <time>2013-09-29T08:49:57Z</time>
      </trkpt>
      <trkpt lat="42.97453" lon="1.96663">
        <ele>398</ele>
        <time>2013-09-29T08:50:02Z</time>
      </trkpt>
      <trkpt lat="42.97456" lon="1.96654">
        <ele>398</ele>
        <time>2013-09-29T08:50:07Z</time>
      </trkpt>
      <trkpt lat="42.9746" lon="1.96648">
        <ele>398</ele>
        <time>2013-09-29T08:50:12Z</time>
      </trkpt>
      <trkpt lat="42.97463" lon="1.96646">
        <ele>398</ele>
        <time>2013-09-29T08:50:18Z</time>
      </trkpt>
      <trkpt lat="42.97467" lon="1.96643">
        <ele>398</ele>
        <time>2013-09-29T08:50:23Z</time>
      </trkpt>
      <trkpt lat="42.97469" lon="1.96635">
        <ele>398</ele>
        <time>2013-09-29T08:50:28Z</time>
      </trkpt>
      <trkpt lat="42.97469" lon="1.96625">
        <ele>398</ele>
        <time>2013-09-29T08:50:34Z</time>
      </trkpt>
      <trkpt lat="42.97472" lon="1.96614">
        <ele>398</ele>
        <time>2013-09-29T08:50:39Z</time>
      </trkpt>
      <trkpt lat="42.97476" lon="1.96607">
        <ele>398</ele>
        <time>2013-09-29T08:50:44Z</time>
      </trkpt>
      <trkpt lat="42.97479" lon="1.96599">
        <ele>398</ele>
        <time>2013-09-29T08:50:49Z</time>
      </trkpt>
      <trkpt lat="42.97483" lon="1.96589">
        <ele>398</ele>
        <time>2013-09-29T08:50:55Z</time>
      </trkpt>
      <trkpt lat="42.97487" lon="1.96581">
        <ele>398</ele>
        <time>2013-09-29T08:51:00Z</time>
      </trkpt>
      <trkpt lat="42.9749" lon="1.96572">
        <ele>398</ele>
        <time>2013-09-29T08:51:05Z</time>
      </trkpt>
      <trkpt lat="42.97493" lon="1.96564">
        <ele>398</ele>
        <time>2013-09-29T08:51:10Z</time>
      </trkpt>
      <trkpt lat="42.97497" lon="1.96557">
        <ele>398</ele>
        <time>2013-09-29T08:51:16Z</time>
      </trkpt>
      <trkpt lat="42.975" lon="1.96551">
        <ele>398</ele>
        <time>2013-09-29T08:51:21Z</time>
      </trkpt>
      <trkpt lat="42.97503" lon="1.96544">
        <ele>398</ele>
        <time>2013-09-29T08:51:26Z</time>
      </trkpt>
      <trkpt lat="42.97506" lon="1.96538">
        <ele>398</ele>
        <time>2013-09-29T08:51:31Z</time>
      </trkpt>
      <trkpt lat="42.97511" lon="1.96531">
        <ele>397</ele>
        <time>2013-09-29T08:51:36Z</time>
      </trkpt>
      <trkpt lat="42.97517" lon="1.96524">
        <ele>397</ele>
        <time>2013-09-29T08:51:41Z</time>
      </trkpt>
      <trkpt lat="42.97517" lon="1.96514">
        <ele>397</ele>
        <time>2013-09-29T08:51:46Z</time>
      </trkpt>
      <trkpt lat="42.97517" lon="1.96509">
        <ele>397</ele>
        <time>2013-09-29T08:52:02Z</time>
      </trkpt>
      <trkpt lat="42.9752" lon="1.96506">
        <ele>397</ele>
        <time>2013-09-29T08:52:07Z</time>
      </trkpt>
      <trkpt lat="42.97522" lon="1.96501">
        <ele>397</ele>
        <time>2013-09-29T08:52:12Z</time>
      </trkpt>
      <trkpt lat="42.97524" lon="1.96494">
        <ele>397</ele>
        <time>2013-09-29T08:52:18Z</time>
      </trkpt>
      <trkpt lat="42.97525" lon="1.96488">
        <ele>397</ele>
        <time>2013-09-29T08:52:23Z</time>
      </trkpt>
      <trkpt lat="42.97526" lon="1.96485">
        <ele>397</ele>
        <time>2013-09-29T08:52:28Z</time>
      </trkpt>
      <trkpt lat="42.97525" lon="1.96483">
        <ele>397</ele>
        <time>2013-09-29T08:52:40Z</time>
      </trkpt>
      <trkpt lat="42.97525" lon="1.96482">
        <ele>397</ele>
        <time>2013-09-29T08:52:49Z</time>
      </trkpt>
      <trkpt lat="42.97523" lon="1.96485">
        <ele>397</ele>
        <time>2013-09-29T08:52:55Z</time>
      </trkpt>
      <trkpt lat="42.97525" lon="1.96485">
        <ele>397</ele>
        <time>2013-09-29T08:53:00Z</time>
      </trkpt>
      <trkpt lat="42.97531" lon="1.9648">
        <ele>397</ele>
        <time>2013-09-29T08:53:06Z</time>
      </trkpt>
      <trkpt lat="42.97537" lon="1.96472">
        <ele>397</ele>
        <time>2013-09-29T08:53:11Z</time>
      </trkpt>
      <trkpt lat="42.97546" lon="1.9647">
        <ele>397</ele>
        <time>2013-09-29T08:53:16Z</time>
      </trkpt>
      <trkpt lat="42.97556" lon="1.96471">
        <ele>397</ele>
        <time>2013-09-29T08:53:21Z</time>
      </trkpt>
      <trkpt lat="42.97566" lon="1.96467">
        <ele>397</ele>
        <time>2013-09-29T08:53:26Z</time>
      </trkpt>
      <trkpt lat="42.97576" lon="1.96459">
        <ele>397</ele>
        <time>2013-09-29T08:53:31Z</time>
      </trkpt>
      <trkpt lat="42.97584" lon="1.96456">
        <ele>397</ele>
        <time>2013-09-29T08:53:36Z</time>
      </trkpt>
      <trkpt lat="42.97595" lon="1.96452">
        <ele>397</ele>
        <time>2013-09-29T08:53:41Z</time>
      </trkpt>
      <trkpt lat="42.97604" lon="1.96449">
        <ele>397</ele>
        <time>2013-09-29T08:53:46Z</time>
      </trkpt>
      <trkpt lat="42.97614" lon="1.96443">
        <ele>397</ele>
        <time>2013-09-29T08:53:51Z</time>
      </trkpt>
      <trkpt lat="42.97622" lon="1.96436">
        <ele>397</ele>
        <time>2013-09-29T08:53:56Z</time>
      </trkpt>
      <trkpt lat="42.97631" lon="1.9643">
        <ele>397</ele>
        <time>2013-09-29T08:54:01Z</time>
      </trkpt>
      <trkpt lat="42.9764" lon="1.96425">
        <ele>397</ele>
        <time>2013-09-29T08:54:06Z</time>
      </trkpt>
      <trkpt lat="42.97649" lon="1.96421">
        <ele>397</ele>
        <time>2013-09-29T08:54:11Z</time>
      </trkpt>
      <trkpt lat="42.97659" lon="1.96418">
        <ele>397</ele>
        <time>2013-09-29T08:54:16Z</time>
      </trkpt>
      <trkpt lat="42.97668" lon="1.96412">
        <ele>397</ele>
        <time>2013-09-29T08:54:21Z</time>
      </trkpt>
      <trkpt lat="42.97678" lon="1.96407">
        <ele>397</ele>
        <time>2013-09-29T08:54:26Z</time>
      </trkpt>
      <trkpt lat="42.97687" lon="1.964">
        <ele>397</ele>
        <time>2013-09-29T08:54:31Z</time>
      </trkpt>
      <trkpt lat="42.97697" lon="1.96394">
        <ele>397</ele>
        <time>2013-09-29T08:54:36Z</time>
      </trkpt>
      <trkpt lat="42.97707" lon="1.96388">
        <ele>397</ele>
        <time>2013-09-29T08:54:41Z</time>
      </trkpt>
      <trkpt lat="42.97717" lon="1.96384">
        <ele>397</ele>
        <time>2013-09-29T08:54:46Z</time>
      </trkpt>
      <trkpt lat="42.97726" lon="1.96379">
        <ele>397</ele>
        <time>2013-09-29T08:54:51Z</time>
      </trkpt>
      <trkpt lat="42.97736" lon="1.96374">
        <ele>397</ele>
        <time>2013-09-29T08:54:56Z</time>
      </trkpt>
      <trkpt lat="42.97745" lon="1.96372">
        <ele>397</ele>
        <time>2013-09-29T08:55:01Z</time>
      </trkpt>
      <trkpt lat="42.97753" lon="1.96369">
        <ele>397</ele>
        <time>2013-09-29T08:55:06Z</time>
      </trkpt>
      <trkpt lat="42.97763" lon="1.96364">
        <ele>397</ele>
        <time>2013-09-29T08:55:11Z</time>
      </trkpt>
      <trkpt lat="42.97772" lon="1.9636">
        <ele>397</ele>
        <time>2013-09-29T08:55:16Z</time>
      </trkpt>
      <trkpt lat="42.97781" lon="1.96354">
        <ele>397</ele>
        <time>2013-09-29T08:55:21Z</time>
      </trkpt>
      <trkpt lat="42.9779" lon="1.9635">
        <ele>397</ele>
        <time>2013-09-29T08:55:26Z</time>
      </trkpt>
      <trkpt lat="42.978" lon="1.96347">
        <ele>397</ele>
        <time>2013-09-29T08:55:31Z</time>
      </trkpt>
      <trkpt lat="42.97809" lon="1.96343">
        <ele>397</ele>
        <time>2013-09-29T08:55:36Z</time>
      </trkpt>
      <trkpt lat="42.97818" lon="1.96338">
        <ele>397</ele>
        <time>2013-09-29T08:55:41Z</time>
      </trkpt>
      <trkpt lat="42.97827" lon="1.96332">
        <ele>397</ele>
        <time>2013-09-29T08:55:46Z</time>
      </trkpt>
      <trkpt lat="42.97836" lon="1.96327">
        <ele>397</ele>
        <time>2013-09-29T08:55:51Z</time>
      </trkpt>
      <trkpt lat="42.97844" lon="1.96323">
        <ele>397</ele>
        <time>2013-09-29T08:55:56Z</time>
      </trkpt>
      <trkpt lat="42.97853" lon="1.9632">
        <ele>397</ele>
        <time>2013-09-29T08:56:01Z</time>
      </trkpt>
      <trkpt lat="42.97863" lon="1.96319">
        <ele>397</ele>
        <time>2013-09-29T08:56:06Z</time>
      </trkpt>
      <trkpt lat="42.97872" lon="1.96317">
        <ele>397</ele>
        <time>2013-09-29T08:56:11Z</time>
      </trkpt>
      <trkpt lat="42.97882" lon="1.96313">
        <ele>397</ele>
        <time>2013-09-29T08:56:16Z</time>
      </trkpt>
      <trkpt lat="42.97892" lon="1.96309">
        <ele>397</ele>
        <time>2013-09-29T08:56:21Z</time>
      </trkpt>
      <trkpt lat="42.97901" lon="1.96305">
        <ele>397</ele>
        <time>2013-09-29T08:56:26Z</time>
      </trkpt>
      <trkpt lat="42.97911" lon="1.96302">
        <ele>397</ele>
        <time>2013-09-29T08:56:31Z</time>
      </trkpt>
      <trkpt lat="42.97919" lon="1.96297">
        <ele>397</ele>
        <time>2013-09-29T08:56:36Z</time>
      </trkpt>
      <trkpt lat="42.97928" lon="1.96292">
        <ele>397</ele>
        <time>2013-09-29T08:56:41Z</time>
      </trkpt>
      <trkpt lat="42.97937" lon="1.96288">
        <ele>397</ele>
        <time>2013-09-29T08:56:46Z</time>
      </trkpt>
      <trkpt lat="42.97946" lon="1.96284">
        <ele>397</ele>
        <time>2013-09-29T08:56:51Z</time>
      </trkpt>
      <trkpt lat="42.97956" lon="1.9628">
        <ele>397</ele>
        <time>2013-09-29T08:56:56Z</time>
      </trkpt>
      <trkpt lat="42.97966" lon="1.96278">
        <ele>397</ele>
        <time>2013-09-29T08:57:01Z</time>
      </trkpt>
      <trkpt lat="42.97975" lon="1.96275">
        <ele>397</ele>
        <time>2013-09-29T08:57:06Z</time>
      </trkpt>
      <trkpt lat="42.97984" lon="1.96271">
        <ele>398</ele>
        <time>2013-09-29T08:57:11Z</time>
      </trkpt>
      <trkpt lat="42.97995" lon="1.96268">
        <ele>398</ele>
        <time>2013-09-29T08:57:16Z</time>
      </trkpt>
      <trkpt lat="42.98004" lon="1.96266">
        <ele>398</ele>
        <time>2013-09-29T08:57:21Z</time>
      </trkpt>
      <trkpt lat="42.98013" lon="1.96267">
        <ele>398</ele>
        <time>2013-09-29T08:57:26Z</time>
      </trkpt>
      <trkpt lat="42.98023" lon="1.96266">
        <ele>398</ele>
        <time>2013-09-29T08:57:31Z</time>
      </trkpt>
      <trkpt lat="42.98032" lon="1.96265">
        <ele>398</ele>
        <time>2013-09-29T08:57:36Z</time>
      </trkpt>
      <trkpt lat="42.98041" lon="1.96263">
        <ele>398</ele>
        <time>2013-09-29T08:57:41Z</time>
      </trkpt>
      <trkpt lat="42.98051" lon="1.96262">
        <ele>398</ele>
        <time>2013-09-29T08:57:46Z</time>
      </trkpt>
      <trkpt lat="42.9806" lon="1.96261">
        <ele>398</ele>
        <time>2013-09-29T08:57:51Z</time>
      </trkpt>
      <trkpt lat="42.9807" lon="1.96259">
        <ele>398</ele>
        <time>2013-09-29T08:57:56Z</time>
      </trkpt>
      <trkpt lat="42.9808" lon="1.96257">
        <ele>398</ele>
        <time>2013-09-29T08:58:01Z</time>
      </trkpt>
      <trkpt lat="42.98089" lon="1.96253">
        <ele>398</ele>
        <time>2013-09-29T08:58:06Z</time>
      </trkpt>
      <trkpt lat="42.98095" lon="1.96249">
        <ele>398</ele>
        <time>2013-09-29T08:58:11Z</time>
      </trkpt>
      <trkpt lat="42.98105" lon="1.96244">
        <ele>398</ele>
        <time>2013-09-29T08:58:16Z</time>
      </trkpt>
      <trkpt lat="42.98114" lon="1.96242">
        <ele>398</ele>
        <time>2013-09-29T08:58:22Z</time>
      </trkpt>
      <trkpt lat="42.98126" lon="1.96241">
        <ele>398</ele>
        <time>2013-09-29T08:58:27Z</time>
      </trkpt>
      <trkpt lat="42.98135" lon="1.96238">
        <ele>398</ele>
        <time>2013-09-29T08:58:32Z</time>
      </trkpt>
      <trkpt lat="42.98139" lon="1.96232">
        <ele>398</ele>
        <time>2013-09-29T08:58:39Z</time>
      </trkpt>
      <trkpt lat="42.9814" lon="1.96231">
        <ele>398</ele>
        <time>2013-09-29T08:58:44Z</time>
      </trkpt>
      <trkpt lat="42.98138" lon="1.9623">
        <ele>398</ele>
        <time>2013-09-29T08:59:03Z</time>
      </trkpt>
      <trkpt lat="42.98138" lon="1.96229">
        <ele>398</ele>
        <time>2013-09-29T08:59:18Z</time>
      </trkpt>
      <trkpt lat="42.98143" lon="1.96228">
        <ele>395</ele>
        <time>2013-09-29T08:59:24Z</time>
      </trkpt>
      <trkpt lat="42.9814" lon="1.96228">
        <ele>393</ele>
        <time>2013-09-29T08:59:30Z</time>
      </trkpt>
      <trkpt lat="42.98138" lon="1.96229">
        <ele>395</ele>
        <time>2013-09-29T08:59:55Z</time>
      </trkpt>
      <trkpt lat="42.98136" lon="1.96227">
        <ele>395</ele>
        <time>2013-09-29T09:00:15Z</time>
      </trkpt>
      <trkpt lat="42.98133" lon="1.96221">
        <ele>395</ele>
        <time>2013-09-29T09:00:20Z</time>
      </trkpt>
      <trkpt lat="42.98134" lon="1.96214">
        <ele>395</ele>
        <time>2013-09-29T09:00:25Z</time>
      </trkpt>
      <trkpt lat="42.9813" lon="1.96205">
        <ele>395</ele>
        <time>2013-09-29T09:00:30Z</time>
      </trkpt>
      <trkpt lat="42.98124" lon="1.96196">
        <ele>395</ele>
        <time>2013-09-29T09:00:35Z</time>
      </trkpt>
      <trkpt lat="42.9812" lon="1.96183">
        <ele>395</ele>
        <time>2013-09-29T09:00:40Z</time>
      </trkpt>
      <trkpt lat="42.98114" lon="1.96172">
        <ele>395</ele>
        <time>2013-09-29T09:00:45Z</time>
      </trkpt>
      <trkpt lat="42.98108" lon="1.96162">
        <ele>396</ele>
        <time>2013-09-29T09:00:50Z</time>
      </trkpt>
      <trkpt lat="42.981" lon="1.96154">
        <ele>396</ele>
        <time>2013-09-29T09:00:55Z</time>
      </trkpt>
      <trkpt lat="42.98094" lon="1.96142">
        <ele>397</ele>
        <time>2013-09-29T09:01:00Z</time>
      </trkpt>
      <trkpt lat="42.98091" lon="1.96131">
        <ele>398</ele>
        <time>2013-09-29T09:01:05Z</time>
      </trkpt>
      <trkpt lat="42.98089" lon="1.96119">
        <ele>398</ele>
        <time>2013-09-29T09:01:10Z</time>
      </trkpt>
      <trkpt lat="42.98085" lon="1.96107">
        <ele>398</ele>
        <time>2013-09-29T09:01:15Z</time>
      </trkpt>
      <trkpt lat="42.98078" lon="1.96097">
        <ele>398</ele>
        <time>2013-09-29T09:01:20Z</time>
      </trkpt>
      <trkpt lat="42.98072" lon="1.96088">
        <ele>399</ele>
        <time>2013-09-29T09:01:25Z</time>
      </trkpt>
      <trkpt lat="42.98066" lon="1.96075">
        <ele>400</ele>
        <time>2013-09-29T09:01:30Z</time>
      </trkpt>
      <trkpt lat="42.98062" lon="1.96063">
        <ele>401</ele>
        <time>2013-09-29T09:01:35Z</time>
      </trkpt>
      <trkpt lat="42.98058" lon="1.96052">
        <ele>402</ele>
        <time>2013-09-29T09:01:40Z</time>
      </trkpt>
      <trkpt lat="42.98057" lon="1.96038">
        <ele>402</ele>
        <time>2013-09-29T09:01:45Z</time>
      </trkpt>
      <trkpt lat="42.98055" lon="1.96026">
        <ele>403</ele>
        <time>2013-09-29T09:01:50Z</time>
      </trkpt>
      <trkpt lat="42.98052" lon="1.96011">
        <ele>404</ele>
        <time>2013-09-29T09:01:55Z</time>
      </trkpt>
      <trkpt lat="42.98051" lon="1.95997">
        <ele>405</ele>
        <time>2013-09-29T09:02:00Z</time>
      </trkpt>
      <trkpt lat="42.98048" lon="1.95985">
        <ele>406</ele>
        <time>2013-09-29T09:02:05Z</time>
      </trkpt>
      <trkpt lat="42.98046" lon="1.9597">
        <ele>406</ele>
        <time>2013-09-29T09:02:10Z</time>
      </trkpt>
      <trkpt lat="42.98044" lon="1.95958">
        <ele>406</ele>
        <time>2013-09-29T09:02:15Z</time>
      </trkpt>
      <trkpt lat="42.98041" lon="1.95945">
        <ele>406</ele>
        <time>2013-09-29T09:02:20Z</time>
      </trkpt>
      <trkpt lat="42.98038" lon="1.95932">
        <ele>406</ele>
        <time>2013-09-29T09:02:25Z</time>
      </trkpt>
      <trkpt lat="42.98037" lon="1.95919">
        <ele>406</ele>
        <time>2013-09-29T09:02:30Z</time>
      </trkpt>
      <trkpt lat="42.98035" lon="1.95906">
        <ele>406</ele>
        <time>2013-09-29T09:02:35Z</time>
      </trkpt>
      <trkpt lat="42.98032" lon="1.95895">
        <ele>406</ele>
        <time>2013-09-29T09:02:40Z</time>
      </trkpt>
      <trkpt lat="42.98029" lon="1.95883">
        <ele>406</ele>
        <time>2013-09-29T09:02:45Z</time>
      </trkpt>
      <trkpt lat="42.98025" lon="1.95869">
        <ele>406</ele>
        <time>2013-09-29T09:02:50Z</time>
      </trkpt>
      <trkpt lat="42.98022" lon="1.95858">
        <ele>406</ele>
        <time>2013-09-29T09:02:55Z</time>
      </trkpt>
      <trkpt lat="42.98017" lon="1.95847">
        <ele>406</ele>
        <time>2013-09-29T09:03:00Z</time>
      </trkpt>
      <trkpt lat="42.98013" lon="1.95835">
        <ele>406</ele>
        <time>2013-09-29T09:03:05Z</time>
      </trkpt>
      <trkpt lat="42.98008" lon="1.95824">
        <ele>406</ele>
        <time>2013-09-29T09:03:10Z</time>
      </trkpt>
      <trkpt lat="42.98002" lon="1.95812">
        <ele>406</ele>
        <time>2013-09-29T09:03:15Z</time>
      </trkpt>
      <trkpt lat="42.97996" lon="1.95802">
        <ele>406</ele>
        <time>2013-09-29T09:03:20Z</time>
      </trkpt>
      <trkpt lat="42.97991" lon="1.95791">
        <ele>406</ele>
        <time>2013-09-29T09:03:25Z</time>
      </trkpt>
      <trkpt lat="42.97987" lon="1.95779">
        <ele>406</ele>
        <time>2013-09-29T09:03:30Z</time>
      </trkpt>
      <trkpt lat="42.97982" lon="1.95767">
        <ele>406</ele>
        <time>2013-09-29T09:03:35Z</time>
      </trkpt>
      <trkpt lat="42.97975" lon="1.95757">
        <ele>406</ele>
        <time>2013-09-29T09:03:40Z</time>
      </trkpt>
      <trkpt lat="42.97969" lon="1.95747">
        <ele>406</ele>
        <time>2013-09-29T09:03:45Z</time>
      </trkpt>
      <trkpt lat="42.97965" lon="1.95737">
        <ele>406</ele>
        <time>2013-09-29T09:03:50Z</time>
      </trkpt>
      <trkpt lat="42.9796" lon="1.95726">
        <ele>406</ele>
        <time>2013-09-29T09:03:55Z</time>
      </trkpt>
      <trkpt lat="42.97953" lon="1.95715">
        <ele>406</ele>
        <time>2013-09-29T09:04:00Z</time>
      </trkpt>
      <trkpt lat="42.97947" lon="1.95704">
        <ele>406</ele>
        <time>2013-09-29T09:04:05Z</time>
      </trkpt>
      <trkpt lat="42.97941" lon="1.95694">
        <ele>406</ele>
        <time>2013-09-29T09:04:10Z</time>
      </trkpt>
      <trkpt lat="42.97934" lon="1.95685">
        <ele>406</ele>
        <time>2013-09-29T09:04:15Z</time>
      </trkpt>
      <trkpt lat="42.97931" lon="1.95677">
        <ele>406</ele>
        <time>2013-09-29T09:04:20Z</time>
      </trkpt>
      <trkpt lat="42.97924" lon="1.95668">
        <ele>406</ele>
        <time>2013-09-29T09:04:25Z</time>
      </trkpt>
      <trkpt lat="42.97917" lon="1.95658">
        <ele>406</ele>
        <time>2013-09-29T09:04:30Z</time>
      </trkpt>
      <trkpt lat="42.9791" lon="1.95649">
        <ele>406</ele>
        <time>2013-09-29T09:04:35Z</time>
      </trkpt>
      <trkpt lat="42.97903" lon="1.95641">
        <ele>406</ele>
        <time>2013-09-29T09:04:40Z</time>
      </trkpt>
      <trkpt lat="42.97896" lon="1.95632">
        <ele>406</ele>
        <time>2013-09-29T09:04:45Z</time>
      </trkpt>
      <trkpt lat="42.97887" lon="1.95625">
        <ele>406</ele>
        <time>2013-09-29T09:04:50Z</time>
      </trkpt>
      <trkpt lat="42.9788" lon="1.95618">
        <ele>406</ele>
        <time>2013-09-29T09:04:55Z</time>
      </trkpt>
      <trkpt lat="42.97872" lon="1.95609">
        <ele>406</ele>
        <time>2013-09-29T09:05:00Z</time>
      </trkpt>
      <trkpt lat="42.97865" lon="1.95602">
        <ele>406</ele>
        <time>2013-09-29T09:05:05Z</time>
      </trkpt>
      <trkpt lat="42.97858" lon="1.95595">
        <ele>405</ele>
        <time>2013-09-29T09:05:10Z</time>
      </trkpt>
      <trkpt lat="42.97852" lon="1.9559">
        <ele>405</ele>
        <time>2013-09-29T09:05:17Z</time>
      </trkpt>
      <trkpt lat="42.9785" lon="1.95588">
        <ele>405</ele>
        <time>2013-09-29T09:05:24Z</time>
      </trkpt>
      <trkpt lat="42.97844" lon="1.95583">
        <ele>403</ele>
        <time>2013-09-29T09:05:30Z</time>
      </trkpt>
      <trkpt lat="42.97838" lon="1.95577">
        <ele>403</ele>
        <time>2013-09-29T09:05:36Z</time>
      </trkpt>
      <trkpt lat="42.97833" lon="1.95573">
        <ele>402</ele>
        <time>2013-09-29T09:05:41Z</time>
      </trkpt>
      <trkpt lat="42.97827" lon="1.95567">
        <ele>402</ele>
        <time>2013-09-29T09:05:46Z</time>
      </trkpt>
      <trkpt lat="42.97825" lon="1.95557">
        <ele>402</ele>
        <time>2013-09-29T09:05:54Z</time>
      </trkpt>
      <trkpt lat="42.97824" lon="1.95557">
        <ele>402</ele>
        <time>2013-09-29T09:06:07Z</time>
      </trkpt>
      <trkpt lat="42.97822" lon="1.95558">
        <ele>402</ele>
        <time>2013-09-29T09:06:18Z</time>
      </trkpt>
      <trkpt lat="42.97821" lon="1.95559">
        <ele>402</ele>
        <time>2013-09-29T09:06:23Z</time>
      </trkpt>
      <trkpt lat="42.97821" lon="1.95555">
        <ele>402</ele>
        <time>2013-09-29T09:06:29Z</time>
      </trkpt>
      <trkpt lat="42.97821" lon="1.95558">
        <ele>402</ele>
        <time>2013-09-29T09:06:34Z</time>
      </trkpt>
      <trkpt lat="42.97829" lon="1.95569">
        <ele>402</ele>
        <time>2013-09-29T09:06:39Z</time>
      </trkpt>
      <trkpt lat="42.97836" lon="1.95574">
        <ele>402</ele>
        <time>2013-09-29T09:06:44Z</time>
      </trkpt>
      <trkpt lat="42.97843" lon="1.95581">
        <ele>402</ele>
        <time>2013-09-29T09:06:49Z</time>
      </trkpt>
      <trkpt lat="42.97846" lon="1.95587">
        <ele>402</ele>
        <time>2013-09-29T09:06:55Z</time>
      </trkpt>
      <trkpt lat="42.97851" lon="1.9559">
        <ele>401</ele>
        <time>2013-09-29T09:07:00Z</time>
      </trkpt>
      <trkpt lat="42.97852" lon="1.95592">
        <ele>400</ele>
        <time>2013-09-29T09:07:14Z</time>
      </trkpt>
      <trkpt lat="42.97851" lon="1.95592">
        <ele>399</ele>
        <time>2013-09-29T09:07:19Z</time>
      </trkpt>
      <trkpt lat="42.9785" lon="1.9559">
        <ele>399</ele>
        <time>2013-09-29T09:07:26Z</time>
      </trkpt>
      <trkpt lat="42.9785" lon="1.95587">
        <ele>399</ele>
        <time>2013-09-29T09:07:31Z</time>
      </trkpt>
      <trkpt lat="42.97852" lon="1.9559">
        <ele>398</ele>
        <time>2013-09-29T09:07:36Z</time>
      </trkpt>
      <trkpt lat="42.9785" lon="1.95595">
        <ele>398</ele>
        <time>2013-09-29T09:07:42Z</time>
      </trkpt>
      <trkpt lat="42.97852" lon="1.95595">
        <ele>398</ele>
        <time>2013-09-29T09:07:47Z</time>
      </trkpt>
      <trkpt lat="42.97853" lon="1.95594">
        <ele>398</ele>
        <time>2013-09-29T09:07:58Z</time>
      </trkpt>
      <trkpt lat="42.97852" lon="1.95592">
        <ele>398</ele>
        <time>2013-09-29T09:08:06Z</time>
      </trkpt>
      <trkpt lat="42.97849" lon="1.9559">
        <ele>398</ele>
        <time>2013-09-29T09:08:11Z</time>
      </trkpt>
      <trkpt lat="42.97837" lon="1.95583">
        <ele>398</ele>
        <time>2013-09-29T09:08:16Z</time>
      </trkpt>
      <trkpt lat="42.97828" lon="1.95571">
        <ele>398</ele>
        <time>2013-09-29T09:08:21Z</time>
      </trkpt>
      <trkpt lat="42.97821" lon="1.95561">
        <ele>398</ele>
        <time>2013-09-29T09:08:27Z</time>
      </trkpt>
      <trkpt lat="42.97821" lon="1.95553">
        <ele>398</ele>
        <time>2013-09-29T09:08:33Z</time>
      </trkpt>
      <trkpt lat="42.97823" lon="1.95546">
        <ele>398</ele>
        <time>2013-09-29T09:08:38Z</time>
      </trkpt>
      <trkpt lat="42.97823" lon="1.95538">
        <ele>398</ele>
        <time>2013-09-29T09:08:43Z</time>
      </trkpt>
      <trkpt lat="42.9782" lon="1.9553">
        <ele>398</ele>
        <time>2013-09-29T09:08:48Z</time>
      </trkpt>
      <trkpt lat="42.97816" lon="1.95525">
        <ele>398</ele>
        <time>2013-09-29T09:08:54Z</time>
      </trkpt>
      <trkpt lat="42.97814" lon="1.95518">
        <ele>398</ele>
        <time>2013-09-29T09:08:59Z</time>
      </trkpt>
      <trkpt lat="42.97815" lon="1.95518">
        <ele>398</ele>
        <time>2013-09-29T09:09:05Z</time>
      </trkpt>
      <trkpt lat="42.97817" lon="1.95511">
        <ele>398</ele>
        <time>2013-09-29T09:09:20Z</time>
      </trkpt>
      <trkpt lat="42.97819" lon="1.95503">
        <ele>397</ele>
        <time>2013-09-29T09:09:25Z</time>
      </trkpt>
      <trkpt lat="42.9782" lon="1.95494">
        <ele>397</ele>
        <time>2013-09-29T09:09:30Z</time>
      </trkpt>
      <trkpt lat="42.97825" lon="1.95475">
        <ele>397</ele>
        <time>2013-09-29T09:09:35Z</time>
      </trkpt>
      <trkpt lat="42.97828" lon="1.95458">
        <ele>396</ele>
        <time>2013-09-29T09:09:40Z</time>
      </trkpt>
      <trkpt lat="42.97828" lon="1.9544">
        <ele>396</ele>
        <time>2013-09-29T09:09:45Z</time>
      </trkpt>
      <trkpt lat="42.97827" lon="1.95422">
        <ele>396</ele>
        <time>2013-09-29T09:09:50Z</time>
      </trkpt>
      <trkpt lat="42.97824" lon="1.95405">
        <ele>396</ele>
        <time>2013-09-29T09:09:56Z</time>
      </trkpt>
      <trkpt lat="42.97821" lon="1.95394">
        <ele>396</ele>
        <time>2013-09-29T09:10:02Z</time>
      </trkpt>
      <trkpt lat="42.97817" lon="1.95388">
        <ele>396</ele>
        <time>2013-09-29T09:10:08Z</time>
      </trkpt>
      <trkpt lat="42.97806" lon="1.95382">
        <ele>396</ele>
        <time>2013-09-29T09:10:13Z</time>
      </trkpt>
      <trkpt lat="42.9779" lon="1.95375">
        <ele>396</ele>
        <time>2013-09-29T09:10:18Z</time>
      </trkpt>
      <trkpt lat="42.97774" lon="1.95368">
        <ele>396</ele>
        <time>2013-09-29T09:10:25Z</time>
      </trkpt>
      <trkpt lat="42.97766" lon="1.95361">
        <ele>398</ele>
        <time>2013-09-29T09:10:32Z</time>
      </trkpt>
      <trkpt lat="42.97752" lon="1.95362">
        <ele>398</ele>
        <time>2013-09-29T09:10:37Z</time>
      </trkpt>
      <trkpt lat="42.97738" lon="1.95361">
        <ele>398</ele>
        <time>2013-09-29T09:10:42Z</time>
      </trkpt>
      <trkpt lat="42.97726" lon="1.95357">
        <ele>398</ele>
        <time>2013-09-29T09:10:47Z</time>
      </trkpt>
      <trkpt lat="42.97717" lon="1.9535">
        <ele>398</ele>
        <time>2013-09-29T09:10:52Z</time>
      </trkpt>
      <trkpt lat="42.97715" lon="1.95336">
        <ele>398</ele>
        <time>2013-09-29T09:10:57Z</time>
      </trkpt>
      <trkpt lat="42.97714" lon="1.95326">
        <ele>399</ele>
        <time>2013-09-29T09:11:02Z</time>
      </trkpt>
      <trkpt lat="42.97711" lon="1.95321">
        <ele>400</ele>
        <time>2013-09-29T09:11:07Z</time>
      </trkpt>
      <trkpt lat="42.9771" lon="1.95319">
        <ele>400</ele>
        <time>2013-09-29T09:11:14Z</time>
      </trkpt>
      <trkpt lat="42.97716" lon="1.95329">
        <ele>400</ele>
        <time>2013-09-29T09:11:19Z</time>
      </trkpt>
      <trkpt lat="42.97721" lon="1.95341">
        <ele>400</ele>
        <time>2013-09-29T09:11:24Z</time>
      </trkpt>
      <trkpt lat="42.97728" lon="1.95347">
        <ele>400</ele>
        <time>2013-09-29T09:11:30Z</time>
      </trkpt>
      <trkpt lat="42.97734" lon="1.95355">
        <ele>400</ele>
        <time>2013-09-29T09:11:36Z</time>
      </trkpt>
      <trkpt lat="42.97744" lon="1.95361">
        <ele>400</ele>
        <time>2013-09-29T09:11:41Z</time>
      </trkpt>
      <trkpt lat="42.97745" lon="1.95363">
        <ele>400</ele>
        <time>2013-09-29T09:11:48Z</time>
      </trkpt>
      <trkpt lat="42.97742" lon="1.95361">
        <ele>400</ele>
        <time>2013-09-29T09:11:56Z</time>
      </trkpt>
      <trkpt lat="42.97753" lon="1.9537">
        <ele>400</ele>
        <time>2013-09-29T09:12:01Z</time>
      </trkpt>
      <trkpt lat="42.97776" lon="1.95379">
        <ele>400</ele>
        <time>2013-09-29T09:12:06Z</time>
      </trkpt>
      <trkpt lat="42.97794" lon="1.95385">
        <ele>400</ele>
        <time>2013-09-29T09:12:11Z</time>
      </trkpt>
      <trkpt lat="42.97797" lon="1.95389">
        <ele>400</ele>
        <time>2013-09-29T09:12:18Z</time>
      </trkpt>
      <trkpt lat="42.97812" lon="1.95398">
        <ele>400</ele>
        <time>2013-09-29T09:12:23Z</time>
      </trkpt>
      <trkpt lat="42.97823" lon="1.95414">
        <ele>400</ele>
        <time>2013-09-29T09:12:28Z</time>
      </trkpt>
      <trkpt lat="42.97824" lon="1.95435">
        <ele>400</ele>
        <time>2013-09-29T09:12:33Z</time>
      </trkpt>
      <trkpt lat="42.97824" lon="1.95456">
        <ele>400</ele>
        <time>2013-09-29T09:12:38Z</time>
      </trkpt>
      <trkpt lat="42.97822" lon="1.95476">
        <ele>400</ele>
        <time>2013-09-29T09:12:44Z</time>
      </trkpt>
      <trkpt lat="42.9782" lon="1.955">
        <ele>400</ele>
        <time>2013-09-29T09:12:50Z</time>
      </trkpt>
      <trkpt lat="42.97818" lon="1.95518">
        <ele>400</ele>
        <time>2013-09-29T09:12:55Z</time>
      </trkpt>
      <trkpt lat="42.97816" lon="1.95524">
        <ele>400</ele>
        <time>2013-09-29T09:13:03Z</time>
      </trkpt>
      <trkpt lat="42.97813" lon="1.9552">
        <ele>400</ele>
        <time>2013-09-29T09:13:08Z</time>
      </trkpt>
      <trkpt lat="42.97813" lon="1.95517">
        <ele>400</ele>
        <time>2013-09-29T09:13:16Z</time>
      </trkpt>
      <trkpt lat="42.97807" lon="1.95514">
        <ele>399</ele>
        <time>2013-09-29T09:13:22Z</time>
      </trkpt>
      <trkpt lat="42.978" lon="1.95506">
        <ele>399</ele>
        <time>2013-09-29T09:13:28Z</time>
      </trkpt>
      <trkpt lat="42.97794" lon="1.95498">
        <ele>399</ele>
        <time>2013-09-29T09:13:33Z</time>
      </trkpt>
      <trkpt lat="42.97788" lon="1.95491">
        <ele>399</ele>
        <time>2013-09-29T09:13:38Z</time>
      </trkpt>
      <trkpt lat="42.97784" lon="1.95482">
        <ele>399</ele>
        <time>2013-09-29T09:13:43Z</time>
      </trkpt>
      <trkpt lat="42.97777" lon="1.95474">
        <ele>399</ele>
        <time>2013-09-29T09:13:48Z</time>
      </trkpt>
      <trkpt lat="42.97771" lon="1.95467">
        <ele>399</ele>
        <time>2013-09-29T09:13:53Z</time>
      </trkpt>
      <trkpt lat="42.97764" lon="1.9546">
        <ele>399</ele>
        <time>2013-09-29T09:13:58Z</time>
      </trkpt>
      <trkpt lat="42.97757" lon="1.95453">
        <ele>399</ele>
        <time>2013-09-29T09:14:03Z</time>
      </trkpt>
      <trkpt lat="42.97751" lon="1.95447">
        <ele>399</ele>
        <time>2013-09-29T09:14:08Z</time>
      </trkpt>
      <trkpt lat="42.97745" lon="1.95439">
        <ele>399</ele>
        <time>2013-09-29T09:14:13Z</time>
      </trkpt>
      <trkpt lat="42.97739" lon="1.95433">
        <ele>399</ele>
        <time>2013-09-29T09:14:18Z</time>
      </trkpt>
      <trkpt lat="42.97731" lon="1.95427">
        <ele>399</ele>
        <time>2013-09-29T09:14:23Z</time>
      </trkpt>
      <trkpt lat="42.97724" lon="1.95421">
        <ele>399</ele>
        <time>2013-09-29T09:14:28Z</time>
      </trkpt>
      <trkpt lat="42.97717" lon="1.95417">
        <ele>399</ele>
        <time>2013-09-29T09:14:33Z</time>
      </trkpt>
      <trkpt lat="42.9771" lon="1.95411">
        <ele>399</ele>
        <time>2013-09-29T09:14:38Z</time>
      </trkpt>
      <trkpt lat="42.97703" lon="1.95405">
        <ele>399</ele>
        <time>2013-09-29T09:14:43Z</time>
      </trkpt>
      <trkpt lat="42.97697" lon="1.954">
        <ele>399</ele>
        <time>2013-09-29T09:14:49Z</time>
      </trkpt>
      <trkpt lat="42.97689" lon="1.95392">
        <ele>399</ele>
        <time>2013-09-29T09:14:54Z</time>
      </trkpt>
      <trkpt lat="42.97683" lon="1.95385">
        <ele>399</ele>
        <time>2013-09-29T09:15:00Z</time>
      </trkpt>
      <trkpt lat="42.97677" lon="1.95375">
        <ele>399</ele>
        <time>2013-09-29T09:15:06Z</time>
      </trkpt>
      <trkpt lat="42.97674" lon="1.95367">
        <ele>399</ele>
        <time>2013-09-29T09:15:11Z</time>
      </trkpt>
      <trkpt lat="42.97674" lon="1.95358">
        <ele>399</ele>
        <time>2013-09-29T09:15:16Z</time>
      </trkpt>
      <trkpt lat="42.97675" lon="1.95348">
        <ele>399</ele>
        <time>2013-09-29T09:15:21Z</time>
      </trkpt>
      <trkpt lat="42.97674" lon="1.9534">
        <ele>399</ele>
        <time>2013-09-29T09:15:26Z</time>
      </trkpt>
      <trkpt lat="42.97675" lon="1.95331">
        <ele>399</ele>
        <time>2013-09-29T09:15:31Z</time>
      </trkpt>
      <trkpt lat="42.97676" lon="1.95323">
        <ele>399</ele>
        <time>2013-09-29T09:15:36Z</time>
      </trkpt>
      <trkpt lat="42.97679" lon="1.95314">
        <ele>399</ele>
        <time>2013-09-29T09:15:41Z</time>
      </trkpt>
      <trkpt lat="42.97681" lon="1.95306">
        <ele>399</ele>
        <time>2013-09-29T09:15:46Z</time>
      </trkpt>
      <trkpt lat="42.97682" lon="1.95299">
        <ele>399</ele>
        <time>2013-09-29T09:15:51Z</time>
      </trkpt>
      <trkpt lat="42.97683" lon="1.95291">
        <ele>399</ele>
        <time>2013-09-29T09:15:57Z</time>
      </trkpt>
      <trkpt lat="42.97688" lon="1.95283">
        <ele>399</ele>
        <time>2013-09-29T09:16:02Z</time>
      </trkpt>
      <trkpt lat="42.97692" lon="1.95276">
        <ele>399</ele>
        <time>2013-09-29T09:16:07Z</time>
      </trkpt>
      <trkpt lat="42.97692" lon="1.95273">
        <ele>399</ele>
        <time>2013-09-29T09:16:13Z</time>
      </trkpt>
      <trkpt lat="42.97692" lon="1.95271">
        <ele>399</ele>
        <time>2013-09-29T09:16:19Z</time>
      </trkpt>
      <trkpt lat="42.97692" lon="1.95265">
        <ele>399</ele>
        <time>2013-09-29T09:16:25Z</time>
      </trkpt>
      <trkpt lat="42.97694" lon="1.95255">
        <ele>399</ele>
        <time>2013-09-29T09:16:31Z</time>
      </trkpt>
      <trkpt lat="42.97691" lon="1.9524">
        <ele>399</ele>
        <time>2013-09-29T09:16:36Z</time>
      </trkpt>
      <trkpt lat="42.97691" lon="1.95226">
        <ele>399</ele>
        <time>2013-09-29T09:16:41Z</time>
      </trkpt>
      <trkpt lat="42.97692" lon="1.95212">
        <ele>399</ele>
        <time>2013-09-29T09:16:46Z</time>
      </trkpt>
      <trkpt lat="42.97693" lon="1.95201">
        <ele>399</ele>
        <time>2013-09-29T09:16:51Z</time>
      </trkpt>
      <trkpt lat="42.97691" lon="1.95188">
        <ele>399</ele>
        <time>2013-09-29T09:16:56Z</time>
      </trkpt>
      <trkpt lat="42.97693" lon="1.95174">
        <ele>399</ele>
        <time>2013-09-29T09:17:01Z</time>
      </trkpt>
      <trkpt lat="42.97694" lon="1.9516">
        <ele>399</ele>
        <time>2013-09-29T09:17:06Z</time>
      </trkpt>
      <trkpt lat="42.97695" lon="1.95147">
        <ele>399</ele>
        <time>2013-09-29T09:17:11Z</time>
      </trkpt>
      <trkpt lat="42.97696" lon="1.95133">
        <ele>399</ele>
        <time>2013-09-29T09:17:16Z</time>
      </trkpt>
      <trkpt lat="42.97698" lon="1.95119">
        <ele>399</ele>
        <time>2013-09-29T09:17:21Z</time>
      </trkpt>
      <trkpt lat="42.97699" lon="1.95104">
        <ele>399</ele>
        <time>2013-09-29T09:17:26Z</time>
      </trkpt>
      <trkpt lat="42.97699" lon="1.9509">
        <ele>398</ele>
        <time>2013-09-29T09:17:31Z</time>
      </trkpt>
      <trkpt lat="42.97701" lon="1.95076">
        <ele>398</ele>
        <time>2013-09-29T09:17:36Z</time>
      </trkpt>
      <trkpt lat="42.977" lon="1.95063">
        <ele>398</ele>
        <time>2013-09-29T09:17:41Z</time>
      </trkpt>
      <trkpt lat="42.97702" lon="1.95049">
        <ele>398</ele>
        <time>2013-09-29T09:17:46Z</time>
      </trkpt>
      <trkpt lat="42.97704" lon="1.95035">
        <ele>398</ele>
        <time>2013-09-29T09:17:51Z</time>
      </trkpt>
      <trkpt lat="42.97705" lon="1.95022">
        <ele>398</ele>
        <time>2013-09-29T09:17:56Z</time>
      </trkpt>
      <trkpt lat="42.97707" lon="1.9501">
        <ele>398</ele>
        <time>2013-09-29T09:18:01Z</time>
      </trkpt>
      <trkpt lat="42.97709" lon="1.94997">
        <ele>398</ele>
        <time>2013-09-29T09:18:06Z</time>
      </trkpt>
      <trkpt lat="42.9771" lon="1.94984">
        <ele>398</ele>
        <time>2013-09-29T09:18:11Z</time>
      </trkpt>
      <trkpt lat="42.97712" lon="1.94972">
        <ele>398</ele>
        <time>2013-09-29T09:18:16Z</time>
      </trkpt>
      <trkpt lat="42.97715" lon="1.94958">
        <ele>398</ele>
        <time>2013-09-29T09:18:21Z</time>
      </trkpt>
      <trkpt lat="42.97718" lon="1.94945">
        <ele>399</ele>
        <time>2013-09-29T09:18:26Z</time>
      </trkpt>
      <trkpt lat="42.97719" lon="1.94932">
        <ele>399</ele>
        <time>2013-09-29T09:18:31Z</time>
      </trkpt>
      <trkpt lat="42.9772" lon="1.9492">
        <ele>399</ele>
        <time>2013-09-29T09:18:36Z</time>
      </trkpt>
      <trkpt lat="42.97721" lon="1.94907">
        <ele>399</ele>
        <time>2013-09-29T09:18:41Z</time>
      </trkpt>
      <trkpt lat="42.97723" lon="1.94895">
        <ele>399</ele>
        <time>2013-09-29T09:18:46Z</time>
      </trkpt>
      <trkpt lat="42.97723" lon="1.94882">
        <ele>399</ele>
        <time>2013-09-29T09:18:51Z</time>
      </trkpt>
      <trkpt lat="42.97723" lon="1.94869">
        <ele>399</ele>
        <time>2013-09-29T09:18:56Z</time>
      </trkpt>
      <trkpt lat="42.97724" lon="1.94854">
        <ele>399</ele>
        <time>2013-09-29T09:19:01Z</time>
      </trkpt>
      <trkpt lat="42.97726" lon="1.94841">
        <ele>399</ele>
        <time>2013-09-29T09:19:06Z</time>
      </trkpt>
      <trkpt lat="42.97727" lon="1.94828">
        <ele>399</ele>
        <time>2013-09-29T09:19:11Z</time>
      </trkpt>
      <trkpt lat="42.9773" lon="1.94813">
        <ele>399</ele>
        <time>2013-09-29T09:19:16Z</time>
      </trkpt>
      <trkpt lat="42.97731" lon="1.94801">
        <ele>399</ele>
        <time>2013-09-29T09:19:21Z</time>
      </trkpt>
      <trkpt lat="42.97732" lon="1.94789">
        <ele>399</ele>
        <time>2013-09-29T09:19:26Z</time>
      </trkpt>
      <trkpt lat="42.97735" lon="1.94776">
        <ele>399</ele>
        <time>2013-09-29T09:19:31Z</time>
      </trkpt>
      <trkpt lat="42.97736" lon="1.94764">
        <ele>399</ele>
        <time>2013-09-29T09:19:36Z</time>
      </trkpt>
      <trkpt lat="42.97736" lon="1.94752">
        <ele>399</ele>
        <time>2013-09-29T09:19:41Z</time>
      </trkpt>
      <trkpt lat="42.97736" lon="1.94738">
        <ele>399</ele>
        <time>2013-09-29T09:19:46Z</time>
      </trkpt>
      <trkpt lat="42.97736" lon="1.94724">
        <ele>399</ele>
        <time>2013-09-29T09:19:51Z</time>
      </trkpt>
      <trkpt lat="42.97737" lon="1.94712">
        <ele>399</ele>
        <time>2013-09-29T09:19:56Z</time>
      </trkpt>
      <trkpt lat="42.97738" lon="1.94698">
        <ele>399</ele>
        <time>2013-09-29T09:20:01Z</time>
      </trkpt>
      <trkpt lat="42.9774" lon="1.94685">
        <ele>399</ele>
        <time>2013-09-29T09:20:06Z</time>
      </trkpt>
      <trkpt lat="42.9774" lon="1.94673">
        <ele>399</ele>
        <time>2013-09-29T09:20:11Z</time>
      </trkpt>
      <trkpt lat="42.97738" lon="1.94661">
        <ele>399</ele>
        <time>2013-09-29T09:20:16Z</time>
      </trkpt>
      <trkpt lat="42.97735" lon="1.94649">
        <ele>399</ele>
        <time>2013-09-29T09:20:21Z</time>
      </trkpt>
      <trkpt lat="42.97735" lon="1.94636">
        <ele>399</ele>
        <time>2013-09-29T09:20:26Z</time>
      </trkpt>
      <trkpt lat="42.97734" lon="1.94624">
        <ele>399</ele>
        <time>2013-09-29T09:20:31Z</time>
      </trkpt>
      <trkpt lat="42.97733" lon="1.94611">
        <ele>399</ele>
        <time>2013-09-29T09:20:36Z</time>
      </trkpt>
      <trkpt lat="42.97732" lon="1.94597">
        <ele>399</ele>
        <time>2013-09-29T09:20:41Z</time>
      </trkpt>
      <trkpt lat="42.97731" lon="1.94585">
        <ele>399</ele>
        <time>2013-09-29T09:20:46Z</time>
      </trkpt>
      <trkpt lat="42.9773" lon="1.94573">
        <ele>399</ele>
        <time>2013-09-29T09:20:51Z</time>
      </trkpt>
      <trkpt lat="42.97729" lon="1.94561">
        <ele>399</ele>
        <time>2013-09-29T09:20:56Z</time>
      </trkpt>
      <trkpt lat="42.97728" lon="1.94548">
        <ele>399</ele>
        <time>2013-09-29T09:21:01Z</time>
      </trkpt>
      <trkpt lat="42.97728" lon="1.94536">
        <ele>399</ele>
        <time>2013-09-29T09:21:06Z</time>
      </trkpt>
      <trkpt lat="42.97728" lon="1.94523">
        <ele>399</ele>
        <time>2013-09-29T09:21:11Z</time>
      </trkpt>
      <trkpt lat="42.97728" lon="1.94509">
        <ele>399</ele>
        <time>2013-09-29T09:21:16Z</time>
      </trkpt>
      <trkpt lat="42.97727" lon="1.94497">
        <ele>399</ele>
        <time>2013-09-29T09:21:21Z</time>
      </trkpt>
      <trkpt lat="42.97727" lon="1.94484">
        <ele>399</ele>
        <time>2013-09-29T09:21:26Z</time>
      </trkpt>
      <trkpt lat="42.97728" lon="1.9447">
        <ele>399</ele>
        <time>2013-09-29T09:21:31Z</time>
      </trkpt>
      <trkpt lat="42.97728" lon="1.94457">
        <ele>399</ele>
        <time>2013-09-29T09:21:36Z</time>
      </trkpt>
      <trkpt lat="42.97727" lon="1.94444">
        <ele>399</ele>
        <time>2013-09-29T09:21:41Z</time>
      </trkpt>
      <trkpt lat="42.97727" lon="1.94432">
        <ele>399</ele>
        <time>2013-09-29T09:21:46Z</time>
      </trkpt>
      <trkpt lat="42.97727" lon="1.94419">
        <ele>399</ele>
        <time>2013-09-29T09:21:51Z</time>
      </trkpt>
      <trkpt lat="42.97725" lon="1.94407">
        <ele>399</ele>
        <time>2013-09-29T09:21:56Z</time>
      </trkpt>
      <trkpt lat="42.9772" lon="1.94396">
        <ele>399</ele>
        <time>2013-09-29T09:22:01Z</time>
      </trkpt>
      <trkpt lat="42.97716" lon="1.94384">
        <ele>399</ele>
        <time>2013-09-29T09:22:06Z</time>
      </trkpt>
      <trkpt lat="42.97712" lon="1.94371">
        <ele>399</ele>
        <time>2013-09-29T09:22:11Z</time>
      </trkpt>
      <trkpt lat="42.97708" lon="1.94359">
        <ele>399</ele>
        <time>2013-09-29T09:22:16Z</time>
      </trkpt>
      <trkpt lat="42.97706" lon="1.94347">
        <ele>399</ele>
        <time>2013-09-29T09:22:21Z</time>
      </trkpt>
      <trkpt lat="42.97704" lon="1.94334">
        <ele>399</ele>
        <time>2013-09-29T09:22:26Z</time>
      </trkpt>
      <trkpt lat="42.97703" lon="1.94321">
        <ele>399</ele>
        <time>2013-09-29T09:22:31Z</time>
      </trkpt>
      <trkpt lat="42.97702" lon="1.94309">
        <ele>399</ele>
        <time>2013-09-29T09:22:36Z</time>
      </trkpt>
      <trkpt lat="42.977" lon="1.94295">
        <ele>399</ele>
        <time>2013-09-29T09:22:41Z</time>
      </trkpt>
      <trkpt lat="42.97701" lon="1.94283">
        <ele>399</ele>
        <time>2013-09-29T09:22:46Z</time>
      </trkpt>
      <trkpt lat="42.97701" lon="1.94269">
        <ele>399</ele>
        <time>2013-09-29T09:22:51Z</time>
      </trkpt>
      <trkpt lat="42.977" lon="1.94257">
        <ele>399</ele>
        <time>2013-09-29T09:22:56Z</time>
      </trkpt>
      <trkpt lat="42.97698" lon="1.94245">
        <ele>399</ele>
        <time>2013-09-29T09:23:01Z</time>
      </trkpt>
      <trkpt lat="42.97695" lon="1.94233">
        <ele>399</ele>
        <time>2013-09-29T09:23:06Z</time>
      </trkpt>
      <trkpt lat="42.97694" lon="1.94221">
        <ele>400</ele>
        <time>2013-09-29T09:23:11Z</time>
      </trkpt>
      <trkpt lat="42.97694" lon="1.94209">
        <ele>400</ele>
        <time>2013-09-29T09:23:16Z</time>
      </trkpt>
      <trkpt lat="42.97694" lon="1.94196">
        <ele>400</ele>
        <time>2013-09-29T09:23:21Z</time>
      </trkpt>
      <trkpt lat="42.97695" lon="1.94184">
        <ele>400</ele>
        <time>2013-09-29T09:23:26Z</time>
      </trkpt>
      <trkpt lat="42.97696" lon="1.94171">
        <ele>400</ele>
        <time>2013-09-29T09:23:31Z</time>
      </trkpt>
      <trkpt lat="42.97696" lon="1.94158">
        <ele>401</ele>
        <time>2013-09-29T09:23:36Z</time>
      </trkpt>
      <trkpt lat="42.97693" lon="1.94146">
        <ele>402</ele>
        <time>2013-09-29T09:23:41Z</time>
      </trkpt>
      <trkpt lat="42.97691" lon="1.94133">
        <ele>403</ele>
        <time>2013-09-29T09:23:46Z</time>
      </trkpt>
      <trkpt lat="42.97691" lon="1.94121">
        <ele>403</ele>
        <time>2013-09-29T09:23:51Z</time>
      </trkpt>
      <trkpt lat="42.9769" lon="1.94109">
        <ele>403</ele>
        <time>2013-09-29T09:23:56Z</time>
      </trkpt>
      <trkpt lat="42.97688" lon="1.94096">
        <ele>403</ele>
        <time>2013-09-29T09:24:01Z</time>
      </trkpt>
      <trkpt lat="42.97686" lon="1.94082">
        <ele>403</ele>
        <time>2013-09-29T09:24:06Z</time>
      </trkpt>
      <trkpt lat="42.97685" lon="1.94069">
        <ele>403</ele>
        <time>2013-09-29T09:24:11Z</time>
      </trkpt>
      <trkpt lat="42.97684" lon="1.94057">
        <ele>403</ele>
        <time>2013-09-29T09:24:16Z</time>
      </trkpt>
      <trkpt lat="42.97681" lon="1.94046">
        <ele>403</ele>
        <time>2013-09-29T09:24:21Z</time>
      </trkpt>
      <trkpt lat="42.97678" lon="1.94034">
        <ele>403</ele>
        <time>2013-09-29T09:24:26Z</time>
      </trkpt>
      <trkpt lat="42.97677" lon="1.9402">
        <ele>403</ele>
        <time>2013-09-29T09:24:31Z</time>
      </trkpt>
      <trkpt lat="42.97678" lon="1.94008">
        <ele>403</ele>
        <time>2013-09-29T09:24:36Z</time>
      </trkpt>
      <trkpt lat="42.9768" lon="1.93996">
        <ele>403</ele>
        <time>2013-09-29T09:24:41Z</time>
      </trkpt>
      <trkpt lat="42.97679" lon="1.93984">
        <ele>403</ele>
        <time>2013-09-29T09:24:46Z</time>
      </trkpt>
      <trkpt lat="42.97678" lon="1.93971">
        <ele>403</ele>
        <time>2013-09-29T09:24:51Z</time>
      </trkpt>
      <trkpt lat="42.9768" lon="1.9396">
        <ele>403</ele>
        <time>2013-09-29T09:24:56Z</time>
      </trkpt>
      <trkpt lat="42.97681" lon="1.93947">
        <ele>403</ele>
        <time>2013-09-29T09:25:01Z</time>
      </trkpt>
      <trkpt lat="42.9768" lon="1.93934">
        <ele>403</ele>
        <time>2013-09-29T09:25:06Z</time>
      </trkpt>
      <trkpt lat="42.9768" lon="1.93921">
        <ele>403</ele>
        <time>2013-09-29T09:25:11Z</time>
      </trkpt>
      <trkpt lat="42.97678" lon="1.93908">
        <ele>403</ele>
        <time>2013-09-29T09:25:16Z</time>
      </trkpt>
      <trkpt lat="42.97677" lon="1.93896">
        <ele>403</ele>
        <time>2013-09-29T09:25:21Z</time>
      </trkpt>
      <trkpt lat="42.97676" lon="1.93883">
        <ele>403</ele>
        <time>2013-09-29T09:25:26Z</time>
      </trkpt>
      <trkpt lat="42.97677" lon="1.93871">
        <ele>403</ele>
        <time>2013-09-29T09:25:31Z</time>
      </trkpt>
      <trkpt lat="42.97676" lon="1.93857">
        <ele>403</ele>
        <time>2013-09-29T09:25:36Z</time>
      </trkpt>
      <trkpt lat="42.97673" lon="1.93845">
        <ele>403</ele>
        <time>2013-09-29T09:25:41Z</time>
      </trkpt>
      <trkpt lat="42.97672" lon="1.93832">
        <ele>402</ele>
        <time>2013-09-29T09:25:46Z</time>
      </trkpt>
      <trkpt lat="42.9767" lon="1.93819">
        <ele>400</ele>
        <time>2013-09-29T09:25:51Z</time>
      </trkpt>
      <trkpt lat="42.9767" lon="1.93806">
        <ele>400</ele>
        <time>2013-09-29T09:25:56Z</time>
      </trkpt>
      <trkpt lat="42.97671" lon="1.93792">
        <ele>400</ele>
        <time>2013-09-29T09:26:01Z</time>
      </trkpt>
      <trkpt lat="42.9767" lon="1.93779">
        <ele>400</ele>
        <time>2013-09-29T09:26:06Z</time>
      </trkpt>
      <trkpt lat="42.97667" lon="1.93767">
        <ele>400</ele>
        <time>2013-09-29T09:26:11Z</time>
      </trkpt>
      <trkpt lat="42.97664" lon="1.93756">
        <ele>400</ele>
        <time>2013-09-29T09:26:16Z</time>
      </trkpt>
      <trkpt lat="42.97662" lon="1.93744">
        <ele>400</ele>
        <time>2013-09-29T09:26:21Z</time>
      </trkpt>
      <trkpt lat="42.97661" lon="1.93731">
        <ele>400</ele>
        <time>2013-09-29T09:26:26Z</time>
      </trkpt>
      <trkpt lat="42.97659" lon="1.93719">
        <ele>400</ele>
        <time>2013-09-29T09:26:31Z</time>
      </trkpt>
      <trkpt lat="42.97658" lon="1.93706">
        <ele>400</ele>
        <time>2013-09-29T09:26:36Z</time>
      </trkpt>
      <trkpt lat="42.97655" lon="1.93694">
        <ele>400</ele>
        <time>2013-09-29T09:26:41Z</time>
      </trkpt>
      <trkpt lat="42.97652" lon="1.93683">
        <ele>400</ele>
        <time>2013-09-29T09:26:46Z</time>
      </trkpt>
      <trkpt lat="42.97649" lon="1.9367">
        <ele>400</ele>
        <time>2013-09-29T09:26:51Z</time>
      </trkpt>
      <trkpt lat="42.97648" lon="1.93659">
        <ele>400</ele>
        <time>2013-09-29T09:26:56Z</time>
      </trkpt>
      <trkpt lat="42.97646" lon="1.93648">
        <ele>400</ele>
        <time>2013-09-29T09:27:01Z</time>
      </trkpt>
      <trkpt lat="42.97643" lon="1.93636">
        <ele>400</ele>
        <time>2013-09-29T09:27:06Z</time>
      </trkpt>
      <trkpt lat="42.97641" lon="1.93623">
        <ele>400</ele>
        <time>2013-09-29T09:27:11Z</time>
      </trkpt>
      <trkpt lat="42.9764" lon="1.93609">
        <ele>400</ele>
        <time>2013-09-29T09:27:16Z</time>
      </trkpt>
      <trkpt lat="42.97637" lon="1.93597">
        <ele>400</ele>
        <time>2013-09-29T09:27:21Z</time>
      </trkpt>
      <trkpt lat="42.97633" lon="1.93585">
        <ele>400</ele>
        <time>2013-09-29T09:27:26Z</time>
      </trkpt>
      <trkpt lat="42.97631" lon="1.93573">
        <ele>400</ele>
        <time>2013-09-29T09:27:31Z</time>
      </trkpt>
      <trkpt lat="42.97629" lon="1.93561">
        <ele>400</ele>
        <time>2013-09-29T09:27:36Z</time>
      </trkpt>
      <trkpt lat="42.97627" lon="1.9355">
        <ele>400</ele>
        <time>2013-09-29T09:27:41Z</time>
      </trkpt>
      <trkpt lat="42.97625" lon="1.93537">
        <ele>400</ele>
        <time>2013-09-29T09:27:46Z</time>
      </trkpt>
      <trkpt lat="42.97624" lon="1.93525">
        <ele>400</ele>
        <time>2013-09-29T09:27:51Z</time>
      </trkpt>
      <trkpt lat="42.97626" lon="1.93512">
        <ele>400</ele>
        <time>2013-09-29T09:27:56Z</time>
      </trkpt>
      <trkpt lat="42.97627" lon="1.93499">
        <ele>400</ele>
        <time>2013-09-29T09:28:01Z</time>
      </trkpt>
      <trkpt lat="42.97625" lon="1.93488">
        <ele>400</ele>
        <time>2013-09-29T09:28:06Z</time>
      </trkpt>
      <trkpt lat="42.97623" lon="1.93475">
        <ele>400</ele>
        <time>2013-09-29T09:28:11Z</time>
      </trkpt>
      <trkpt lat="42.97622" lon="1.93463">
        <ele>400</ele>
        <time>2013-09-29T09:28:16Z</time>
      </trkpt>
      <trkpt lat="42.97621" lon="1.9345">
        <ele>400</ele>
        <time>2013-09-29T09:28:21Z</time>
      </trkpt>
      <trkpt lat="42.9762" lon="1.93438">
        <ele>400</ele>
        <time>2013-09-29T09:28:26Z</time>
      </trkpt>
      <trkpt lat="42.97618" lon="1.93428">
        <ele>400</ele>
        <time>2013-09-29T09:28:31Z</time>
      </trkpt>
      <trkpt lat="42.97616" lon="1.93417">
        <ele>400</ele>
        <time>2013-09-29T09:28:36Z</time>
      </trkpt>
      <trkpt lat="42.97612" lon="1.93407">
        <ele>400</ele>
        <time>2013-09-29T09:28:41Z</time>
      </trkpt>
      <trkpt lat="42.97611" lon="1.93398">
        <ele>401</ele>
        <time>2013-09-29T09:28:46Z</time>
      </trkpt>
      <trkpt lat="42.97612" lon="1.93391">
        <ele>406</ele>
        <time>2013-09-29T09:28:51Z</time>
      </trkpt>
      <trkpt lat="42.97613" lon="1.93389">
        <ele>414</ele>
        <time>2013-09-29T09:29:00Z</time>
      </trkpt>
      <trkpt lat="42.97614" lon="1.93384">
        <ele>418</ele>
        <time>2013-09-29T09:29:05Z</time>
      </trkpt>
      <trkpt lat="42.9761" lon="1.93379">
        <ele>423</ele>
        <time>2013-09-29T09:29:11Z</time>
      </trkpt>
      <trkpt lat="42.97609" lon="1.93375">
        <ele>427</ele>
        <time>2013-09-29T09:29:20Z</time>
      </trkpt>
      <trkpt lat="42.97608" lon="1.93376">
        <ele>429</ele>
        <time>2013-09-29T09:29:28Z</time>
      </trkpt>
      <trkpt lat="42.97607" lon="1.93373">
        <ele>429</ele>
        <time>2013-09-29T09:29:33Z</time>
      </trkpt>
      <trkpt lat="42.97607" lon="1.93378">
        <ele>429</ele>
        <time>2013-09-29T09:29:38Z</time>
      </trkpt>
      <trkpt lat="42.97612" lon="1.93387">
        <ele>429</ele>
        <time>2013-09-29T09:29:43Z</time>
      </trkpt>
      <trkpt lat="42.97615" lon="1.93398">
        <ele>429</ele>
        <time>2013-09-29T09:29:50Z</time>
      </trkpt>
      <trkpt lat="42.97611" lon="1.93398">
        <ele>429</ele>
        <time>2013-09-29T09:29:56Z</time>
      </trkpt>
      <trkpt lat="42.97607" lon="1.93404">
        <ele>428</ele>
        <time>2013-09-29T09:30:01Z</time>
      </trkpt>
      <trkpt lat="42.97611" lon="1.93415">
        <ele>424</ele>
        <time>2013-09-29T09:30:06Z</time>
      </trkpt>
      <trkpt lat="42.97612" lon="1.93428">
        <ele>421</ele>
        <time>2013-09-29T09:30:11Z</time>
      </trkpt>
      <trkpt lat="42.97611" lon="1.9344">
        <ele>420</ele>
        <time>2013-09-29T09:30:16Z</time>
      </trkpt>
      <trkpt lat="42.97611" lon="1.9345">
        <ele>415</ele>
        <time>2013-09-29T09:30:21Z</time>
      </trkpt>
      <trkpt lat="42.97612" lon="1.93464">
        <ele>410</ele>
        <time>2013-09-29T09:30:26Z</time>
      </trkpt>
      <trkpt lat="42.97613" lon="1.93478">
        <ele>405</ele>
        <time>2013-09-29T09:30:31Z</time>
      </trkpt>
      <trkpt lat="42.97614" lon="1.93489">
        <ele>402</ele>
        <time>2013-09-29T09:30:36Z</time>
      </trkpt>
      <trkpt lat="42.97615" lon="1.93502">
        <ele>399</ele>
        <time>2013-09-29T09:30:41Z</time>
      </trkpt>
      <trkpt lat="42.97618" lon="1.93515">
        <ele>398</ele>
        <time>2013-09-29T09:30:46Z</time>
      </trkpt>
      <trkpt lat="42.97624" lon="1.93525">
        <ele>397</ele>
        <time>2013-09-29T09:30:51Z</time>
      </trkpt>
      <trkpt lat="42.97631" lon="1.93536">
        <ele>396</ele>
        <time>2013-09-29T09:30:56Z</time>
      </trkpt>
      <trkpt lat="42.97638" lon="1.93545">
        <ele>396</ele>
        <time>2013-09-29T09:31:01Z</time>
      </trkpt>
      <trkpt lat="42.97646" lon="1.93552">
        <ele>396</ele>
        <time>2013-09-29T09:31:06Z</time>
      </trkpt>
      <trkpt lat="42.97652" lon="1.93562">
        <ele>396</ele>
        <time>2013-09-29T09:31:11Z</time>
      </trkpt>
      <trkpt lat="42.9766" lon="1.93569">
        <ele>396</ele>
        <time>2013-09-29T09:31:16Z</time>
      </trkpt>
      <trkpt lat="42.97668" lon="1.93575">
        <ele>396</ele>
        <time>2013-09-29T09:31:21Z</time>
      </trkpt>
      <trkpt lat="42.97676" lon="1.93582">
        <ele>396</ele>
        <time>2013-09-29T09:31:26Z</time>
      </trkpt>
      <trkpt lat="42.97686" lon="1.93591">
        <ele>396</ele>
        <time>2013-09-29T09:31:32Z</time>
      </trkpt>
      <trkpt lat="42.97694" lon="1.93592">
        <ele>397</ele>
        <time>2013-09-29T09:31:37Z</time>
      </trkpt>
      <trkpt lat="42.97704" lon="1.93588">
        <ele>397</ele>
        <time>2013-09-29T09:31:42Z</time>
      </trkpt>
      <trkpt lat="42.97713" lon="1.93585">
        <ele>397</ele>
        <time>2013-09-29T09:31:47Z</time>
      </trkpt>
      <trkpt lat="42.97723" lon="1.93584">
        <ele>397</ele>
        <time>2013-09-29T09:31:52Z</time>
      </trkpt>
      <trkpt lat="42.97733" lon="1.93582">
        <ele>397</ele>
        <time>2013-09-29T09:31:57Z</time>
      </trkpt>
      <trkpt lat="42.97744" lon="1.93581">
        <ele>397</ele>
        <time>2013-09-29T09:32:02Z</time>
      </trkpt>
      <trkpt lat="42.97753" lon="1.93579">
        <ele>398</ele>
        <time>2013-09-29T09:32:07Z</time>
      </trkpt>
      <trkpt lat="42.97764" lon="1.93579">
        <ele>398</ele>
        <time>2013-09-29T09:32:12Z</time>
      </trkpt>
      <trkpt lat="42.97773" lon="1.93576">
        <ele>398</ele>
        <time>2013-09-29T09:32:17Z</time>
      </trkpt>
      <trkpt lat="42.97784" lon="1.93572">
        <ele>398</ele>
        <time>2013-09-29T09:32:23Z</time>
      </trkpt>
      <trkpt lat="42.97792" lon="1.93569">
        <ele>398</ele>
        <time>2013-09-29T09:32:28Z</time>
      </trkpt>
      <trkpt lat="42.97802" lon="1.93566">
        <ele>398</ele>
        <time>2013-09-29T09:32:33Z</time>
      </trkpt>
      <trkpt lat="42.97814" lon="1.93562">
        <ele>398</ele>
        <time>2013-09-29T09:32:39Z</time>
      </trkpt>
      <trkpt lat="42.97823" lon="1.93559">
        <ele>398</ele>
        <time>2013-09-29T09:32:44Z</time>
      </trkpt>
      <trkpt lat="42.97833" lon="1.93556">
        <ele>398</ele>
        <time>2013-09-29T09:32:49Z</time>
      </trkpt>
      <trkpt lat="42.97845" lon="1.93553">
        <ele>398</ele>
        <time>2013-09-29T09:32:55Z</time>
      </trkpt>
      <trkpt lat="42.97855" lon="1.93552">
        <ele>398</ele>
        <time>2013-09-29T09:33:00Z</time>
      </trkpt>
      <trkpt lat="42.97864" lon="1.93553">
        <ele>398</ele>
        <time>2013-09-29T09:33:05Z</time>
      </trkpt>
      <trkpt lat="42.97876" lon="1.93552">
        <ele>398</ele>
        <time>2013-09-29T09:33:11Z</time>
      </trkpt>
      <trkpt lat="42.97885" lon="1.9355">
        <ele>398</ele>
        <time>2013-09-29T09:33:16Z</time>
      </trkpt>
      <trkpt lat="42.97895" lon="1.93548">
        <ele>398</ele>
        <time>2013-09-29T09:33:21Z</time>
      </trkpt>
      <trkpt lat="42.97906" lon="1.93546">
        <ele>398</ele>
        <time>2013-09-29T09:33:27Z</time>
      </trkpt>
      <trkpt lat="42.97915" lon="1.93544">
        <ele>398</ele>
        <time>2013-09-29T09:33:32Z</time>
      </trkpt>
      <trkpt lat="42.97924" lon="1.93542">
        <ele>398</ele>
        <time>2013-09-29T09:33:37Z</time>
      </trkpt>
      <trkpt lat="42.97936" lon="1.93539">
        <ele>398</ele>
        <time>2013-09-29T09:33:43Z</time>
      </trkpt>
      <trkpt lat="42.97946" lon="1.93538">
        <ele>398</ele>
        <time>2013-09-29T09:33:48Z</time>
      </trkpt>
      <trkpt lat="42.97956" lon="1.93539">
        <ele>398</ele>
        <time>2013-09-29T09:33:53Z</time>
      </trkpt>
      <trkpt lat="42.97968" lon="1.93539">
        <ele>398</ele>
        <time>2013-09-29T09:33:59Z</time>
      </trkpt>
      <trkpt lat="42.97979" lon="1.9354">
        <ele>398</ele>
        <time>2013-09-29T09:34:04Z</time>
      </trkpt>
      <trkpt lat="42.97989" lon="1.93538">
        <ele>398</ele>
        <time>2013-09-29T09:34:09Z</time>
      </trkpt>
      <trkpt lat="42.97999" lon="1.93537">
        <ele>398</ele>
        <time>2013-09-29T09:34:14Z</time>
      </trkpt>
      <trkpt lat="42.98009" lon="1.93535">
        <ele>398</ele>
        <time>2013-09-29T09:34:19Z</time>
      </trkpt>
      <trkpt lat="42.98019" lon="1.93534">
        <ele>398</ele>
        <time>2013-09-29T09:34:24Z</time>
      </trkpt>
      <trkpt lat="42.98028" lon="1.93532">
        <ele>398</ele>
        <time>2013-09-29T09:34:29Z</time>
      </trkpt>
      <trkpt lat="42.9804" lon="1.93531">
        <ele>398</ele>
        <time>2013-09-29T09:34:35Z</time>
      </trkpt>
      <trkpt lat="42.98049" lon="1.9353">
        <ele>398</ele>
        <time>2013-09-29T09:34:40Z</time>
      </trkpt>
      <trkpt lat="42.98059" lon="1.93528">
        <ele>398</ele>
        <time>2013-09-29T09:34:45Z</time>
      </trkpt>
      <trkpt lat="42.98071" lon="1.93526">
        <ele>398</ele>
        <time>2013-09-29T09:34:51Z</time>
      </trkpt>
      <trkpt lat="42.9808" lon="1.93526">
        <ele>398</ele>
        <time>2013-09-29T09:34:56Z</time>
      </trkpt>
      <trkpt lat="42.9809" lon="1.93524">
        <ele>398</ele>
        <time>2013-09-29T09:35:01Z</time>
      </trkpt>
      <trkpt lat="42.98101" lon="1.93521">
        <ele>398</ele>
        <time>2013-09-29T09:35:07Z</time>
      </trkpt>
      <trkpt lat="42.9811" lon="1.93518">
        <ele>398</ele>
        <time>2013-09-29T09:35:12Z</time>
      </trkpt>
      <trkpt lat="42.98119" lon="1.93515">
        <ele>398</ele>
        <time>2013-09-29T09:35:17Z</time>
      </trkpt>
      <trkpt lat="42.9813" lon="1.93513">
        <ele>398</ele>
        <time>2013-09-29T09:35:23Z</time>
      </trkpt>
      <trkpt lat="42.9814" lon="1.9351">
        <ele>398</ele>
        <time>2013-09-29T09:35:28Z</time>
      </trkpt>
      <trkpt lat="42.98149" lon="1.93506">
        <ele>398</ele>
        <time>2013-09-29T09:35:33Z</time>
      </trkpt>
      <trkpt lat="42.98158" lon="1.93502">
        <ele>398</ele>
        <time>2013-09-29T09:35:38Z</time>
      </trkpt>
      <trkpt lat="42.98167" lon="1.93499">
        <ele>398</ele>
        <time>2013-09-29T09:35:43Z</time>
      </trkpt>
      <trkpt lat="42.98176" lon="1.93496">
        <ele>398</ele>
        <time>2013-09-29T09:35:48Z</time>
      </trkpt>
      <trkpt lat="42.98186" lon="1.93493">
        <ele>398</ele>
        <time>2013-09-29T09:35:53Z</time>
      </trkpt>
      <trkpt lat="42.98197" lon="1.93489">
        <ele>398</ele>
        <time>2013-09-29T09:35:59Z</time>
      </trkpt>
      <trkpt lat="42.98206" lon="1.93485">
        <ele>398</ele>
        <time>2013-09-29T09:36:04Z</time>
      </trkpt>
      <trkpt lat="42.98216" lon="1.93481">
        <ele>398</ele>
        <time>2013-09-29T09:36:09Z</time>
      </trkpt>
      <trkpt lat="42.98225" lon="1.93477">
        <ele>398</ele>
        <time>2013-09-29T09:36:14Z</time>
      </trkpt>
      <trkpt lat="42.98236" lon="1.93475">
        <ele>398</ele>
        <time>2013-09-29T09:36:20Z</time>
      </trkpt>
      <trkpt lat="42.98246" lon="1.93471">
        <ele>399</ele>
        <time>2013-09-29T09:36:25Z</time>
      </trkpt>
      <trkpt lat="42.98255" lon="1.93467">
        <ele>400</ele>
        <time>2013-09-29T09:36:30Z</time>
      </trkpt>
      <trkpt lat="42.98265" lon="1.93463">
        <ele>400</ele>
        <time>2013-09-29T09:36:36Z</time>
      </trkpt>
      <trkpt lat="42.98278" lon="1.93461">
        <ele>400</ele>
        <time>2013-09-29T09:36:42Z</time>
      </trkpt>
      <trkpt lat="42.98287" lon="1.93458">
        <ele>400</ele>
        <time>2013-09-29T09:36:47Z</time>
      </trkpt>
      <trkpt lat="42.98296" lon="1.93454">
        <ele>400</ele>
        <time>2013-09-29T09:36:52Z</time>
      </trkpt>
      <trkpt lat="42.983" lon="1.93451">
        <ele>400</ele>
        <time>2013-09-29T09:36:58Z</time>
      </trkpt>
      <trkpt lat="42.98301" lon="1.9345">
        <ele>400</ele>
        <time>2013-09-29T09:37:03Z</time>
      </trkpt>
      <trkpt lat="42.98303" lon="1.93448">
        <ele>400</ele>
        <time>2013-09-29T09:37:13Z</time>
      </trkpt>
      <trkpt lat="42.98311" lon="1.93446">
        <ele>401</ele>
        <time>2013-09-29T09:37:19Z</time>
      </trkpt>
      <trkpt lat="42.98318" lon="1.93444">
        <ele>403</ele>
        <time>2013-09-29T09:37:24Z</time>
      </trkpt>
      <trkpt lat="42.98318" lon="1.93456">
        <ele>403</ele>
        <time>2013-09-29T09:37:29Z</time>
      </trkpt>
      <trkpt lat="42.98318" lon="1.93477">
        <ele>403</ele>
        <time>2013-09-29T09:37:34Z</time>
      </trkpt>
      <trkpt lat="42.98317" lon="1.93496">
        <ele>403</ele>
        <time>2013-09-29T09:37:39Z</time>
      </trkpt>
      <trkpt lat="42.98317" lon="1.93512">
        <ele>403</ele>
        <time>2013-09-29T09:37:45Z</time>
      </trkpt>
      <trkpt lat="42.98321" lon="1.93527">
        <ele>403</ele>
        <time>2013-09-29T09:37:50Z</time>
      </trkpt>
      <trkpt lat="42.98325" lon="1.93535">
        <ele>407</ele>
        <time>2013-09-29T09:37:55Z</time>
      </trkpt>
      <trkpt lat="42.98331" lon="1.93537">
        <ele>411</ele>
        <time>2013-09-29T09:38:00Z</time>
      </trkpt>
      <trkpt lat="42.98338" lon="1.93538">
        <ele>411</ele>
        <time>2013-09-29T09:38:05Z</time>
      </trkpt>
      <trkpt lat="42.98345" lon="1.93538">
        <ele>413</ele>
        <time>2013-09-29T09:38:10Z</time>
      </trkpt>
      <trkpt lat="42.98353" lon="1.93539">
        <ele>413</ele>
        <time>2013-09-29T09:38:16Z</time>
      </trkpt>
      <trkpt lat="42.98357" lon="1.93545">
        <ele>413</ele>
        <time>2013-09-29T09:38:22Z</time>
      </trkpt>
      <trkpt lat="42.98361" lon="1.93558">
        <ele>413</ele>
        <time>2013-09-29T09:38:27Z</time>
      </trkpt>
      <trkpt lat="42.98358" lon="1.93576">
        <ele>413</ele>
        <time>2013-09-29T09:38:32Z</time>
      </trkpt>
      <trkpt lat="42.98355" lon="1.93595">
        <ele>413</ele>
        <time>2013-09-29T09:38:37Z</time>
      </trkpt>
      <trkpt lat="42.98351" lon="1.93613">
        <ele>413</ele>
        <time>2013-09-29T09:38:42Z</time>
      </trkpt>
      <trkpt lat="42.98346" lon="1.9363">
        <ele>412</ele>
        <time>2013-09-29T09:38:47Z</time>
      </trkpt>
      <trkpt lat="42.98341" lon="1.93645">
        <ele>411</ele>
        <time>2013-09-29T09:38:52Z</time>
      </trkpt>
      <trkpt lat="42.98337" lon="1.93665">
        <ele>411</ele>
        <time>2013-09-29T09:38:58Z</time>
      </trkpt>
      <trkpt lat="42.98335" lon="1.93681">
        <ele>410</ele>
        <time>2013-09-29T09:39:03Z</time>
      </trkpt>
      <trkpt lat="42.98335" lon="1.9369">
        <ele>410</ele>
        <time>2013-09-29T09:39:09Z</time>
      </trkpt>
      <trkpt lat="42.98332" lon="1.93693">
        <ele>410</ele>
        <time>2013-09-29T09:39:15Z</time>
      </trkpt>
      <trkpt lat="42.98326" lon="1.93694">
        <ele>410</ele>
        <time>2013-09-29T09:39:20Z</time>
      </trkpt>
      <trkpt lat="42.9832" lon="1.93693">
        <ele>410</ele>
        <time>2013-09-29T09:39:26Z</time>
      </trkpt>
      <trkpt lat="42.98316" lon="1.93691">
        <ele>410</ele>
        <time>2013-09-29T09:39:32Z</time>
      </trkpt>
      <trkpt lat="42.98312" lon="1.93691">
        <ele>410</ele>
        <time>2013-09-29T09:39:40Z</time>
      </trkpt>
      <trkpt lat="42.98314" lon="1.93693">
        <ele>410</ele>
        <time>2013-09-29T09:39:46Z</time>
      </trkpt>
      <trkpt lat="42.98313" lon="1.93692">
        <ele>411</ele>
        <time>2013-09-29T09:39:55Z</time>
      </trkpt>
      <trkpt lat="42.98312" lon="1.93691">
        <ele>412</ele>
        <time>2013-09-29T09:40:00Z</time>
      </trkpt>
      <trkpt lat="42.9831" lon="1.93689">
        <ele>412</ele>
        <time>2013-09-29T09:40:10Z</time>
      </trkpt>
      <trkpt lat="42.98312" lon="1.9369">
        <ele>412</ele>
        <time>2013-09-29T09:40:16Z</time>
      </trkpt>
      <trkpt lat="42.98321" lon="1.93691">
        <ele>412</ele>
        <time>2013-09-29T09:40:22Z</time>
      </trkpt>
      <trkpt lat="42.98329" lon="1.9369">
        <ele>412</ele>
        <time>2013-09-29T09:40:27Z</time>
      </trkpt>
      <trkpt lat="42.98331" lon="1.93691">
        <ele>414</ele>
        <time>2013-09-29T09:40:35Z</time>
      </trkpt>
      <trkpt lat="42.98331" lon="1.93692">
        <ele>414</ele>
        <time>2013-09-29T09:40:40Z</time>
      </trkpt>
      <trkpt lat="42.9833" lon="1.93696">
        <ele>414</ele>
        <time>2013-09-29T09:40:46Z</time>
      </trkpt>
      <trkpt lat="42.98329" lon="1.93695">
        <ele>414</ele>
        <time>2013-09-29T09:40:54Z</time>
      </trkpt>
      <trkpt lat="42.98325" lon="1.93692">
        <ele>414</ele>
        <time>2013-09-29T09:41:01Z</time>
      </trkpt>
      <trkpt lat="42.9833" lon="1.93693">
        <ele>414</ele>
        <time>2013-09-29T09:41:10Z</time>
      </trkpt>
      <trkpt lat="42.98331" lon="1.93694">
        <ele>414</ele>
        <time>2013-09-29T09:41:23Z</time>
      </trkpt>
      <trkpt lat="42.98331" lon="1.93692">
        <ele>416</ele>
        <time>2013-09-29T09:41:35Z</time>
      </trkpt>
      <trkpt lat="42.98329" lon="1.93693">
        <ele>416</ele>
        <time>2013-09-29T09:41:40Z</time>
      </trkpt>
      <trkpt lat="42.98329" lon="1.93692">
        <ele>416</ele>
        <time>2013-09-29T09:41:49Z</time>
      </trkpt>
      <trkpt lat="42.9833" lon="1.93691">
        <ele>417</ele>
        <time>2013-09-29T09:41:59Z</time>
      </trkpt>
      <trkpt lat="42.9833" lon="1.93689">
        <ele>417</ele>
        <time>2013-09-29T09:42:08Z</time>
      </trkpt>
      <trkpt lat="42.98331" lon="1.93689">
        <ele>417</ele>
        <time>2013-09-29T09:42:14Z</time>
      </trkpt>
      <trkpt lat="42.9833" lon="1.93691">
        <ele>415</ele>
        <time>2013-09-29T09:42:20Z</time>
      </trkpt>
      <trkpt lat="42.9833" lon="1.93692">
        <ele>415</ele>
        <time>2013-09-29T09:42:26Z</time>
      </trkpt>
      <trkpt lat="42.98328" lon="1.93695">
        <ele>415</ele>
        <time>2013-09-29T09:42:32Z</time>
      </trkpt>
      <trkpt lat="42.98329" lon="1.93696">
        <ele>415</ele>
        <time>2013-09-29T09:42:42Z</time>
      </trkpt>
      <trkpt lat="42.98331" lon="1.93693">
        <ele>415</ele>
        <time>2013-09-29T09:42:54Z</time>
      </trkpt>
      <trkpt lat="42.98331" lon="1.93692">
        <ele>415</ele>
        <time>2013-09-29T09:43:14Z</time>
      </trkpt>
      <trkpt lat="42.98331" lon="1.9369">
        <ele>417</ele>
        <time>2013-09-29T09:43:24Z</time>
      </trkpt>
      <trkpt lat="42.98334" lon="1.93695">
        <ele>417</ele>
        <time>2013-09-29T09:43:29Z</time>
      </trkpt>
      <trkpt lat="42.98329" lon="1.93719">
        <ele>417</ele>
        <time>2013-09-29T09:43:35Z</time>
      </trkpt>
      <trkpt lat="42.98325" lon="1.93759">
        <ele>416</ele>
        <time>2013-09-29T09:43:40Z</time>
      </trkpt>
      <trkpt lat="42.98318" lon="1.93797">
        <ele>415</ele>
        <time>2013-09-29T09:43:46Z</time>
      </trkpt>
      <trkpt lat="42.98314" lon="1.9384">
        <ele>413</ele>
        <time>2013-09-29T09:43:52Z</time>
      </trkpt>
      <trkpt lat="42.98307" lon="1.93882">
        <ele>409</ele>
        <time>2013-09-29T09:43:57Z</time>
      </trkpt>
      <trkpt lat="42.98326" lon="1.9392">
        <ele>408</ele>
        <time>2013-09-29T09:44:02Z</time>
      </trkpt>
      <trkpt lat="42.98351" lon="1.93951">
        <ele>408</ele>
        <time>2013-09-29T09:44:07Z</time>
      </trkpt>
      <trkpt lat="42.98377" lon="1.93983">
        <ele>408</ele>
        <time>2013-09-29T09:44:12Z</time>
      </trkpt>
      <trkpt lat="42.98403" lon="1.94016">
        <ele>408</ele>
        <time>2013-09-29T09:44:17Z</time>
      </trkpt>
      <trkpt lat="42.98429" lon="1.94049">
        <ele>408</ele>
        <time>2013-09-29T09:44:22Z</time>
      </trkpt>
      <trkpt lat="42.98456" lon="1.94081">
        <ele>408</ele>
        <time>2013-09-29T09:44:27Z</time>
      </trkpt>
      <trkpt lat="42.98482" lon="1.94114">
        <ele>408</ele>
        <time>2013-09-29T09:44:32Z</time>
      </trkpt>
      <trkpt lat="42.98509" lon="1.94148">
        <ele>408</ele>
        <time>2013-09-29T09:44:37Z</time>
      </trkpt>
      <trkpt lat="42.98535" lon="1.94181">
        <ele>408</ele>
        <time>2013-09-29T09:44:42Z</time>
      </trkpt>
      <trkpt lat="42.98562" lon="1.94213">
        <ele>408</ele>
        <time>2013-09-29T09:44:47Z</time>
      </trkpt>
      <trkpt lat="42.98588" lon="1.94246">
        <ele>408</ele>
        <time>2013-09-29T09:44:52Z</time>
      </trkpt>
      <trkpt lat="42.98612" lon="1.94279">
        <ele>408</ele>
        <time>2013-09-29T09:44:57Z</time>
      </trkpt>
      <trkpt lat="42.98618" lon="1.94307">
        <ele>408</ele>
        <time>2013-09-29T09:45:02Z</time>
      </trkpt>
      <trkpt lat="42.98608" lon="1.94344">
        <ele>406</ele>
        <time>2013-09-29T09:45:07Z</time>
      </trkpt>
      <trkpt lat="42.98591" lon="1.94382">
        <ele>401</ele>
        <time>2013-09-29T09:45:12Z</time>
      </trkpt>
      <trkpt lat="42.98565" lon="1.94415">
        <ele>398</ele>
        <time>2013-09-29T09:45:17Z</time>
      </trkpt>
      <trkpt lat="42.98555" lon="1.94454">
        <ele>398</ele>
        <time>2013-09-29T09:45:22Z</time>
      </trkpt>
      <trkpt lat="42.98544" lon="1.94495">
        <ele>398</ele>
        <time>2013-09-29T09:45:27Z</time>
      </trkpt>
      <trkpt lat="42.98535" lon="1.94538">
        <ele>398</ele>
        <time>2013-09-29T09:45:32Z</time>
      </trkpt>
      <trkpt lat="42.98524" lon="1.94574">
        <ele>398</ele>
        <time>2013-09-29T09:45:37Z</time>
      </trkpt>
      <trkpt lat="42.98513" lon="1.94608">
        <ele>401</ele>
        <time>2013-09-29T09:45:42Z</time>
      </trkpt>
      <trkpt lat="42.98512" lon="1.94646">
        <ele>401</ele>
        <time>2013-09-29T09:45:47Z</time>
      </trkpt>
      <trkpt lat="42.98502" lon="1.94683">
        <ele>401</ele>
        <time>2013-09-29T09:45:52Z</time>
      </trkpt>
      <trkpt lat="42.98503" lon="1.94728">
        <ele>401</ele>
        <time>2013-09-29T09:45:57Z</time>
      </trkpt>
      <trkpt lat="42.98502" lon="1.94768">
        <ele>403</ele>
        <time>2013-09-29T09:46:02Z</time>
      </trkpt>
      <trkpt lat="42.98494" lon="1.94801">
        <ele>404</ele>
        <time>2013-09-29T09:46:07Z</time>
      </trkpt>
      <trkpt lat="42.98494" lon="1.94839">
        <ele>404</ele>
        <time>2013-09-29T09:46:12Z</time>
      </trkpt>
      <trkpt lat="42.98488" lon="1.94881">
        <ele>404</ele>
        <time>2013-09-29T09:46:17Z</time>
      </trkpt>
      <trkpt lat="42.98485" lon="1.94922">
        <ele>404</ele>
        <time>2013-09-29T09:46:22Z</time>
      </trkpt>
      <trkpt lat="42.98484" lon="1.94965">
        <ele>404</ele>
        <time>2013-09-29T09:46:27Z</time>
      </trkpt>
      <trkpt lat="42.98484" lon="1.95003">
        <ele>401</ele>
        <time>2013-09-29T09:46:32Z</time>
      </trkpt>
      <trkpt lat="42.98481" lon="1.95044">
        <ele>398</ele>
        <time>2013-09-29T09:46:37Z</time>
      </trkpt>
      <trkpt lat="42.98489" lon="1.95082">
        <ele>397</ele>
        <time>2013-09-29T09:46:42Z</time>
      </trkpt>
      <trkpt lat="42.98493" lon="1.95108">
        <ele>397</ele>
        <time>2013-09-29T09:46:47Z</time>
      </trkpt>
      <trkpt lat="42.98491" lon="1.95136">
        <ele>401</ele>
        <time>2013-09-29T09:46:52Z</time>
      </trkpt>
      <trkpt lat="42.98488" lon="1.95168">
        <ele>406</ele>
        <time>2013-09-29T09:46:57Z</time>
      </trkpt>
      <trkpt lat="42.98484" lon="1.95199">
        <ele>408</ele>
        <time>2013-09-29T09:47:02Z</time>
      </trkpt>
      <trkpt lat="42.98478" lon="1.95236">
        <ele>408</ele>
        <time>2013-09-29T09:47:07Z</time>
      </trkpt>
      <trkpt lat="42.98473" lon="1.9527">
        <ele>408</ele>
        <time>2013-09-29T09:47:12Z</time>
      </trkpt>
      <trkpt lat="42.98471" lon="1.95298">
        <ele>406</ele>
        <time>2013-09-29T09:47:17Z</time>
      </trkpt>
      <trkpt lat="42.98468" lon="1.95324">
        <ele>405</ele>
        <time>2013-09-29T09:47:22Z</time>
      </trkpt>
      <trkpt lat="42.98467" lon="1.95348">
        <ele>404</ele>
        <time>2013-09-29T09:47:27Z</time>
      </trkpt>
      <trkpt lat="42.98461" lon="1.95378">
        <ele>404</ele>
        <time>2013-09-29T09:47:32Z</time>
      </trkpt>
      <trkpt lat="42.98456" lon="1.95405">
        <ele>404</ele>
        <time>2013-09-29T09:47:37Z</time>
      </trkpt>
      <trkpt lat="42.98461" lon="1.95432">
        <ele>403</ele>
        <time>2013-09-29T09:47:42Z</time>
      </trkpt>
      <trkpt lat="42.98462" lon="1.95459">
        <ele>403</ele>
        <time>2013-09-29T09:47:47Z</time>
      </trkpt>
      <trkpt lat="42.98462" lon="1.95464">
        <ele>403</ele>
        <time>2013-09-29T09:47:52Z</time>
      </trkpt>
      <trkpt lat="42.98459" lon="1.95468">
        <ele>403</ele>
        <time>2013-09-29T09:47:57Z</time>
      </trkpt>
      <trkpt lat="42.98449" lon="1.95488">
        <ele>403</ele>
        <time>2013-09-29T09:48:02Z</time>
      </trkpt>
      <trkpt lat="42.98444" lon="1.9552">
        <ele>403</ele>
        <time>2013-09-29T09:48:08Z</time>
      </trkpt>
      <trkpt lat="42.98448" lon="1.95524">
        <ele>403</ele>
        <time>2013-09-29T09:48:14Z</time>
      </trkpt>
      <trkpt lat="42.98447" lon="1.95516">
        <ele>404</ele>
        <time>2013-09-29T09:48:19Z</time>
      </trkpt>
      <trkpt lat="42.98439" lon="1.95504">
        <ele>404</ele>
        <time>2013-09-29T09:48:24Z</time>
      </trkpt>
      <trkpt lat="42.98443" lon="1.95493">
        <ele>404</ele>
        <time>2013-09-29T09:48:29Z</time>
      </trkpt>
      <trkpt lat="42.98453" lon="1.95475">
        <ele>404</ele>
        <time>2013-09-29T09:48:35Z</time>
      </trkpt>
      <trkpt lat="42.98467" lon="1.95478">
        <ele>407</ele>
        <time>2013-09-29T09:48:40Z</time>
      </trkpt>
      <trkpt lat="42.98487" lon="1.95483">
        <ele>410</ele>
        <time>2013-09-29T09:48:45Z</time>
      </trkpt>
      <trkpt lat="42.98516" lon="1.9548">
        <ele>413</ele>
        <time>2013-09-29T09:48:50Z</time>
      </trkpt>
      <trkpt lat="42.98545" lon="1.95468">
        <ele>414</ele>
        <time>2013-09-29T09:48:55Z</time>
      </trkpt>
      <trkpt lat="42.98566" lon="1.95463">
        <ele>415</ele>
        <time>2013-09-29T09:49:00Z</time>
      </trkpt>
      <trkpt lat="42.98587" lon="1.95474">
        <ele>415</ele>
        <time>2013-09-29T09:49:05Z</time>
      </trkpt>
      <trkpt lat="42.98607" lon="1.95459">
        <ele>415</ele>
        <time>2013-09-29T09:49:10Z</time>
      </trkpt>
      <trkpt lat="42.98613" lon="1.95427">
        <ele>415</ele>
        <time>2013-09-29T09:49:15Z</time>
      </trkpt>
      <trkpt lat="42.98615" lon="1.95399">
        <ele>414</ele>
        <time>2013-09-29T09:49:20Z</time>
      </trkpt>
      <trkpt lat="42.98615" lon="1.95373">
        <ele>412</ele>
        <time>2013-09-29T09:49:25Z</time>
      </trkpt>
      <trkpt lat="42.98621" lon="1.95348">
        <ele>407</ele>
        <time>2013-09-29T09:49:30Z</time>
      </trkpt>
      <trkpt lat="42.98624" lon="1.95312">
        <ele>402</ele>
        <time>2013-09-29T09:49:35Z</time>
      </trkpt>
      <trkpt lat="42.98634" lon="1.95268">
        <ele>404</ele>
        <time>2013-09-29T09:49:40Z</time>
      </trkpt>
      <trkpt lat="42.98652" lon="1.95233">
        <ele>409</ele>
        <time>2013-09-29T09:49:45Z</time>
      </trkpt>
      <trkpt lat="42.98668" lon="1.95202">
        <ele>411</ele>
        <time>2013-09-29T09:49:50Z</time>
      </trkpt>
      <trkpt lat="42.9868" lon="1.9517">
        <ele>411</ele>
        <time>2013-09-29T09:49:55Z</time>
      </trkpt>
      <trkpt lat="42.98695" lon="1.95144">
        <ele>415</ele>
        <time>2013-09-29T09:50:00Z</time>
      </trkpt>
      <trkpt lat="42.98713" lon="1.95127">
        <ele>417</ele>
        <time>2013-09-29T09:50:05Z</time>
      </trkpt>
      <trkpt lat="42.98729" lon="1.95105">
        <ele>418</ele>
        <time>2013-09-29T09:50:10Z</time>
      </trkpt>
      <trkpt lat="42.98745" lon="1.95076">
        <ele>420</ele>
        <time>2013-09-29T09:50:15Z</time>
      </trkpt>
      <trkpt lat="42.9876" lon="1.95045">
        <ele>424</ele>
        <time>2013-09-29T09:50:20Z</time>
      </trkpt>
      <trkpt lat="42.98772" lon="1.95003">
        <ele>423</ele>
        <time>2013-09-29T09:50:25Z</time>
      </trkpt>
      <trkpt lat="42.98779" lon="1.94964">
        <ele>418</ele>
        <time>2013-09-29T09:50:30Z</time>
      </trkpt>
      <trkpt lat="42.98784" lon="1.94925">
        <ele>418</ele>
        <time>2013-09-29T09:50:35Z</time>
      </trkpt>
      <trkpt lat="42.98788" lon="1.94894">
        <ele>418</ele>
        <time>2013-09-29T09:50:40Z</time>
      </trkpt>
      <trkpt lat="42.98809" lon="1.94877">
        <ele>418</ele>
        <time>2013-09-29T09:50:45Z</time>
      </trkpt>
      <trkpt lat="42.98832" lon="1.94876">
        <ele>418</ele>
        <time>2013-09-29T09:50:50Z</time>
      </trkpt>
      <trkpt lat="42.98851" lon="1.94901">
        <ele>417</ele>
        <time>2013-09-29T09:50:55Z</time>
      </trkpt>
      <trkpt lat="42.98868" lon="1.94923">
        <ele>412</ele>
        <time>2013-09-29T09:51:00Z</time>
      </trkpt>
      <trkpt lat="42.98879" lon="1.94926">
        <ele>408</ele>
        <time>2013-09-29T09:51:05Z</time>
      </trkpt>
      <trkpt lat="42.98891" lon="1.9493">
        <ele>408</ele>
        <time>2013-09-29T09:51:10Z</time>
      </trkpt>
      <trkpt lat="42.98911" lon="1.9491">
        <ele>406</ele>
        <time>2013-09-29T09:51:15Z</time>
      </trkpt>
      <trkpt lat="42.98931" lon="1.94904">
        <ele>406</ele>
        <time>2013-09-29T09:51:20Z</time>
      </trkpt>
      <trkpt lat="42.98952" lon="1.94908">
        <ele>406</ele>
        <time>2013-09-29T09:51:25Z</time>
      </trkpt>
      <trkpt lat="42.98973" lon="1.94896">
        <ele>406</ele>
        <time>2013-09-29T09:51:30Z</time>
      </trkpt>
      <trkpt lat="42.98994" lon="1.94885">
        <ele>406</ele>
        <time>2013-09-29T09:51:35Z</time>
      </trkpt>
      <trkpt lat="42.99012" lon="1.94869">
        <ele>406</ele>
        <time>2013-09-29T09:51:40Z</time>
      </trkpt>
      <trkpt lat="42.99033" lon="1.94854">
        <ele>406</ele>
        <time>2013-09-29T09:51:45Z</time>
      </trkpt>
      <trkpt lat="42.99044" lon="1.94835">
        <ele>406</ele>
        <time>2013-09-29T09:51:50Z</time>
      </trkpt>
      <trkpt lat="42.99055" lon="1.94822">
        <ele>409</ele>
        <time>2013-09-29T09:51:55Z</time>
      </trkpt>
      <trkpt lat="42.99058" lon="1.94797">
        <ele>411</ele>
        <time>2013-09-29T09:52:00Z</time>
      </trkpt>
      <trkpt lat="42.99078" lon="1.94768">
        <ele>411</ele>
        <time>2013-09-29T09:52:05Z</time>
      </trkpt>
      <trkpt lat="42.99105" lon="1.94761">
        <ele>411</ele>
        <time>2013-09-29T09:52:10Z</time>
      </trkpt>
      <trkpt lat="42.9912" lon="1.94779">
        <ele>409</ele>
        <time>2013-09-29T09:52:15Z</time>
      </trkpt>
      <trkpt lat="42.99123" lon="1.94811">
        <ele>405</ele>
        <time>2013-09-29T09:52:20Z</time>
      </trkpt>
      <trkpt lat="42.99123" lon="1.94851">
        <ele>400</ele>
        <time>2013-09-29T09:52:25Z</time>
      </trkpt>
      <trkpt lat="42.99123" lon="1.94875">
        <ele>395</ele>
        <time>2013-09-29T09:52:30Z</time>
      </trkpt>
      <trkpt lat="42.99121" lon="1.94897">
        <ele>397</ele>
        <time>2013-09-29T09:52:35Z</time>
      </trkpt>
      <trkpt lat="42.99112" lon="1.94906">
        <ele>401</ele>
        <time>2013-09-29T09:52:40Z</time>
      </trkpt>
      <trkpt lat="42.99108" lon="1.94924">
        <ele>401</ele>
        <time>2013-09-29T09:52:45Z</time>
      </trkpt>
      <trkpt lat="42.99103" lon="1.94948">
        <ele>401</ele>
        <time>2013-09-29T09:52:50Z</time>
      </trkpt>
      <trkpt lat="42.99114" lon="1.94974">
        <ele>401</ele>
        <time>2013-09-29T09:52:55Z</time>
      </trkpt>
      <trkpt lat="42.99107" lon="1.94994">
        <ele>401</ele>
        <time>2013-09-29T09:53:00Z</time>
      </trkpt>
      <trkpt lat="42.99085" lon="1.94986">
        <ele>403</ele>
        <time>2013-09-29T09:53:05Z</time>
      </trkpt>
      <trkpt lat="42.99074" lon="1.95003">
        <ele>404</ele>
        <time>2013-09-29T09:53:10Z</time>
      </trkpt>
      <trkpt lat="42.99066" lon="1.95023">
        <ele>405</ele>
        <time>2013-09-29T09:53:15Z</time>
      </trkpt>
      <trkpt lat="42.99055" lon="1.95044">
        <ele>405</ele>
        <time>2013-09-29T09:53:20Z</time>
      </trkpt>
      <trkpt lat="42.99047" lon="1.95076">
        <ele>406</ele>
        <time>2013-09-29T09:53:25Z</time>
      </trkpt>
      <trkpt lat="42.99045" lon="1.95103">
        <ele>406</ele>
        <time>2013-09-29T09:53:30Z</time>
      </trkpt>
      <trkpt lat="42.99039" lon="1.95135">
        <ele>406</ele>
        <time>2013-09-29T09:53:35Z</time>
      </trkpt>
      <trkpt lat="42.99043" lon="1.95168">
        <ele>406</ele>
        <time>2013-09-29T09:53:40Z</time>
      </trkpt>
      <trkpt lat="42.99054" lon="1.95193">
        <ele>406</ele>
        <time>2013-09-29T09:53:45Z</time>
      </trkpt>
      <trkpt lat="42.99065" lon="1.95207">
        <ele>406</ele>
        <time>2013-09-29T09:53:50Z</time>
      </trkpt>
      <trkpt lat="42.99068" lon="1.95216">
        <ele>406</ele>
        <time>2013-09-29T09:53:56Z</time>
      </trkpt>
      <trkpt lat="42.99072" lon="1.95237">
        <ele>406</ele>
        <time>2013-09-29T09:54:01Z</time>
      </trkpt>
      <trkpt lat="42.99084" lon="1.95264">
        <ele>406</ele>
        <time>2013-09-29T09:54:06Z</time>
      </trkpt>
      <trkpt lat="42.99089" lon="1.95283">
        <ele>406</ele>
        <time>2013-09-29T09:54:11Z</time>
      </trkpt>
      <trkpt lat="42.99088" lon="1.95306">
        <ele>406</ele>
        <time>2013-09-29T09:54:16Z</time>
      </trkpt>
      <trkpt lat="42.99093" lon="1.95329">
        <ele>405</ele>
        <time>2013-09-29T09:54:21Z</time>
      </trkpt>
      <trkpt lat="42.99091" lon="1.95351">
        <ele>405</ele>
        <time>2013-09-29T09:54:26Z</time>
      </trkpt>
      <trkpt lat="42.99091" lon="1.95376">
        <ele>403</ele>
        <time>2013-09-29T09:54:31Z</time>
      </trkpt>
      <trkpt lat="42.99088" lon="1.95409">
        <ele>398</ele>
        <time>2013-09-29T09:54:36Z</time>
      </trkpt>
      <trkpt lat="42.99081" lon="1.95437">
        <ele>393</ele>
        <time>2013-09-29T09:54:41Z</time>
      </trkpt>
      <trkpt lat="42.99066" lon="1.95465">
        <ele>393</ele>
        <time>2013-09-29T09:54:46Z</time>
      </trkpt>
      <trkpt lat="42.9905" lon="1.95491">
        <ele>394</ele>
        <time>2013-09-29T09:54:51Z</time>
      </trkpt>
      <trkpt lat="42.99049" lon="1.95519">
        <ele>395</ele>
        <time>2013-09-29T09:54:56Z</time>
      </trkpt>
      <trkpt lat="42.99068" lon="1.95525">
        <ele>397</ele>
        <time>2013-09-29T09:55:01Z</time>
      </trkpt>
      <trkpt lat="42.99086" lon="1.95516">
        <ele>400</ele>
        <time>2013-09-29T09:55:06Z</time>
      </trkpt>
      <trkpt lat="42.9911" lon="1.95524">
        <ele>401</ele>
        <time>2013-09-29T09:55:11Z</time>
      </trkpt>
      <trkpt lat="42.99139" lon="1.95533">
        <ele>402</ele>
        <time>2013-09-29T09:55:16Z</time>
      </trkpt>
      <trkpt lat="42.99171" lon="1.95539">
        <ele>402</ele>
        <time>2013-09-29T09:55:21Z</time>
      </trkpt>
      <trkpt lat="42.99185" lon="1.95544">
        <ele>402</ele>
        <time>2013-09-29T09:55:26Z</time>
      </trkpt>
      <trkpt lat="42.99199" lon="1.95563">
        <ele>402</ele>
        <time>2013-09-29T09:55:31Z</time>
      </trkpt>
      <trkpt lat="42.9921" lon="1.95584">
        <ele>402</ele>
        <time>2013-09-29T09:55:36Z</time>
      </trkpt>
      <trkpt lat="42.99221" lon="1.95601">
        <ele>402</ele>
        <time>2013-09-29T09:55:41Z</time>
      </trkpt>
      <trkpt lat="42.99235" lon="1.95608">
        <ele>402</ele>
        <time>2013-09-29T09:55:46Z</time>
      </trkpt>
      <trkpt lat="42.99253" lon="1.95601">
        <ele>402</ele>
        <time>2013-09-29T09:55:51Z</time>
      </trkpt>
      <trkpt lat="42.99265" lon="1.956">
        <ele>404</ele>
        <time>2013-09-29T09:56:00Z</time>
      </trkpt>
      <trkpt lat="42.99269" lon="1.95603">
        <ele>404</ele>
        <time>2013-09-29T09:56:05Z</time>
      </trkpt>
      <trkpt lat="42.99288" lon="1.95614">
        <ele>404</ele>
        <time>2013-09-29T09:56:10Z</time>
      </trkpt>
      <trkpt lat="42.99308" lon="1.95626">
        <ele>404</ele>
        <time>2013-09-29T09:56:15Z</time>
      </trkpt>
      <trkpt lat="42.99327" lon="1.95636">
        <ele>404</ele>
        <time>2013-09-29T09:56:20Z</time>
      </trkpt>
      <trkpt lat="42.99348" lon="1.95649">
        <ele>404</ele>
        <time>2013-09-29T09:56:25Z</time>
      </trkpt>
      <trkpt lat="42.99371" lon="1.95663">
        <ele>404</ele>
        <time>2013-09-29T09:56:30Z</time>
      </trkpt>
      <trkpt lat="42.99395" lon="1.9568">
        <ele>404</ele>
        <time>2013-09-29T09:56:35Z</time>
      </trkpt>
      <trkpt lat="42.99418" lon="1.95693">
        <ele>404</ele>
        <time>2013-09-29T09:56:40Z</time>
      </trkpt>
      <trkpt lat="42.9943" lon="1.95703">
        <ele>404</ele>
        <time>2013-09-29T09:56:45Z</time>
      </trkpt>
      <trkpt lat="42.99429" lon="1.95705">
        <ele>404</ele>
        <time>2013-09-29T09:56:50Z</time>
      </trkpt>
      <trkpt lat="42.99421" lon="1.95712">
        <ele>403</ele>
        <time>2013-09-29T09:56:55Z</time>
      </trkpt>
      <trkpt lat="42.99415" lon="1.95738">
        <ele>403</ele>
        <time>2013-09-29T09:57:00Z</time>
      </trkpt>
      <trkpt lat="42.9941" lon="1.95767">
        <ele>403</ele>
        <time>2013-09-29T09:57:05Z</time>
      </trkpt>
      <trkpt lat="42.99404" lon="1.958">
        <ele>403</ele>
        <time>2013-09-29T09:57:10Z</time>
      </trkpt>
      <trkpt lat="42.99398" lon="1.95833">
        <ele>403</ele>
        <time>2013-09-29T09:57:15Z</time>
      </trkpt>
      <trkpt lat="42.99398" lon="1.95855">
        <ele>403</ele>
        <time>2013-09-29T09:57:20Z</time>
      </trkpt>
      <trkpt lat="42.99414" lon="1.95866">
        <ele>403</ele>
        <time>2013-09-29T09:57:25Z</time>
      </trkpt>
      <trkpt lat="42.99433" lon="1.9587">
        <ele>398</ele>
        <time>2013-09-29T09:57:30Z</time>
      </trkpt>
      <trkpt lat="42.99455" lon="1.9587">
        <ele>393</ele>
        <time>2013-09-29T09:57:35Z</time>
      </trkpt>
      <trkpt lat="42.99474" lon="1.95864">
        <ele>388</ele>
        <time>2013-09-29T09:57:40Z</time>
      </trkpt>
      <trkpt lat="42.99496" lon="1.95857">
        <ele>383</ele>
        <time>2013-09-29T09:57:45Z</time>
      </trkpt>
      <trkpt lat="42.99512" lon="1.95861">
        <ele>378</ele>
        <time>2013-09-29T09:57:50Z</time>
      </trkpt>
      <trkpt lat="42.99521" lon="1.95873">
        <ele>373</ele>
        <time>2013-09-29T09:57:55Z</time>
      </trkpt>
      <trkpt lat="42.99532" lon="1.95883">
        <ele>370</ele>
        <time>2013-09-29T09:58:01Z</time>
      </trkpt>
      <trkpt lat="42.99538" lon="1.95888">
        <ele>368</ele>
        <time>2013-09-29T09:58:06Z</time>
      </trkpt>
      <trkpt lat="42.9954" lon="1.95897">
        <ele>368</ele>
        <time>2013-09-29T09:58:11Z</time>
      </trkpt>
      <trkpt lat="42.99551" lon="1.9591">
        <ele>367</ele>
        <time>2013-09-29T09:58:16Z</time>
      </trkpt>
      <trkpt lat="42.99561" lon="1.9592">
        <ele>367</ele>
        <time>2013-09-29T09:58:21Z</time>
      </trkpt>
      <trkpt lat="42.99578" lon="1.95931">
        <ele>366</ele>
        <time>2013-09-29T09:58:26Z</time>
      </trkpt>
      <trkpt lat="42.99606" lon="1.95941">
        <ele>366</ele>
        <time>2013-09-29T09:58:31Z</time>
      </trkpt>
      <trkpt lat="42.99639" lon="1.95951">
        <ele>366</ele>
        <time>2013-09-29T09:58:36Z</time>
      </trkpt>
      <trkpt lat="42.99672" lon="1.95972">
        <ele>366</ele>
        <time>2013-09-29T09:58:41Z</time>
      </trkpt>
      <trkpt lat="42.99707" lon="1.95991">
        <ele>366</ele>
        <time>2013-09-29T09:58:46Z</time>
      </trkpt>
      <trkpt lat="42.99744" lon="1.96007">
        <ele>366</ele>
        <time>2013-09-29T09:58:51Z</time>
      </trkpt>
      <trkpt lat="42.99784" lon="1.96018">
        <ele>366</ele>
        <time>2013-09-29T09:58:56Z</time>
      </trkpt>
      <trkpt lat="42.99824" lon="1.96023">
        <ele>366</ele>
        <time>2013-09-29T09:59:01Z</time>
      </trkpt>
      <trkpt lat="42.99864" lon="1.96025">
        <ele>367</ele>
        <time>2013-09-29T09:59:06Z</time>
      </trkpt>
      <trkpt lat="42.99905" lon="1.96028">
        <ele>367</ele>
        <time>2013-09-29T09:59:11Z</time>
      </trkpt>
      <trkpt lat="42.99942" lon="1.96049">
        <ele>367</ele>
        <time>2013-09-29T09:59:16Z</time>
      </trkpt>
      <trkpt lat="42.99972" lon="1.96087">
        <ele>367</ele>
        <time>2013-09-29T09:59:21Z</time>
      </trkpt>
      <trkpt lat="43.00005" lon="1.9612">
        <ele>366</ele>
        <time>2013-09-29T09:59:26Z</time>
      </trkpt>
      <trkpt lat="43.00039" lon="1.96151">
        <ele>366</ele>
        <time>2013-09-29T09:59:31Z</time>
      </trkpt>
      <trkpt lat="43.00071" lon="1.96178">
        <ele>366</ele>
        <time>2013-09-29T09:59:36Z</time>
      </trkpt>
      <trkpt lat="43.00101" lon="1.96202">
        <ele>366</ele>
        <time>2013-09-29T09:59:41Z</time>
      </trkpt>
      <trkpt lat="43.00129" lon="1.96222">
        <ele>366</ele>
        <time>2013-09-29T09:59:46Z</time>
      </trkpt>
      <trkpt lat="43.00159" lon="1.96226">
        <ele>366</ele>
        <time>2013-09-29T09:59:51Z</time>
      </trkpt>
      <trkpt lat="43.00161" lon="1.96236">
        <ele>366</ele>
        <time>2013-09-29T09:59:56Z</time>
      </trkpt>
      <trkpt lat="43.00144" lon="1.96249">
        <ele>364</ele>
        <time>2013-09-29T10:00:01Z</time>
      </trkpt>
      <trkpt lat="43.00127" lon="1.9626">
        <ele>363</ele>
        <time>2013-09-29T10:00:06Z</time>
      </trkpt>
      <trkpt lat="43.00119" lon="1.96264">
        <ele>362</ele>
        <time>2013-09-29T10:00:16Z</time>
      </trkpt>
      <trkpt lat="43.00106" lon="1.96274">
        <ele>362</ele>
        <time>2013-09-29T10:00:21Z</time>
      </trkpt>
      <trkpt lat="43.00089" lon="1.96288">
        <ele>362</ele>
        <time>2013-09-29T10:00:26Z</time>
      </trkpt>
      <trkpt lat="43.00073" lon="1.96299">
        <ele>364</ele>
        <time>2013-09-29T10:00:31Z</time>
      </trkpt>
      <trkpt lat="43.00057" lon="1.9631">
        <ele>366</ele>
        <time>2013-09-29T10:00:36Z</time>
      </trkpt>
      <trkpt lat="43.00044" lon="1.96319">
        <ele>370</ele>
        <time>2013-09-29T10:00:41Z</time>
      </trkpt>
      <trkpt lat="43.00031" lon="1.96333">
        <ele>370</ele>
        <time>2013-09-29T10:00:46Z</time>
      </trkpt>
      <trkpt lat="43.00014" lon="1.96344">
        <ele>371</ele>
        <time>2013-09-29T10:00:51Z</time>
      </trkpt>
      <trkpt lat="43.00005" lon="1.96356">
        <ele>374</ele>
        <time>2013-09-29T10:00:56Z</time>
      </trkpt>
      <trkpt lat="43" lon="1.96371">
        <ele>377</ele>
        <time>2013-09-29T10:01:01Z</time>
      </trkpt>
      <trkpt lat="42.99996" lon="1.96388">
        <ele>377</ele>
        <time>2013-09-29T10:01:07Z</time>
      </trkpt>
      <trkpt lat="42.99995" lon="1.96399">
        <ele>377</ele>
        <time>2013-09-29T10:01:13Z</time>
      </trkpt>
      <trkpt lat="43.00004" lon="1.96395">
        <ele>377</ele>
        <time>2013-09-29T10:01:18Z</time>
      </trkpt>
      <trkpt lat="43.00014" lon="1.96384">
        <ele>377</ele>
        <time>2013-09-29T10:01:23Z</time>
      </trkpt>
      <trkpt lat="43.00026" lon="1.96379">
        <ele>379</ele>
        <time>2013-09-29T10:01:28Z</time>
      </trkpt>
      <trkpt lat="43.0004" lon="1.96377">
        <ele>379</ele>
        <time>2013-09-29T10:01:33Z</time>
      </trkpt>
      <trkpt lat="43.00056" lon="1.96375">
        <ele>382</ele>
        <time>2013-09-29T10:01:38Z</time>
      </trkpt>
      <trkpt lat="43.0007" lon="1.96376">
        <ele>385</ele>
        <time>2013-09-29T10:01:43Z</time>
      </trkpt>
      <trkpt lat="43.00081" lon="1.96379">
        <ele>390</ele>
        <time>2013-09-29T10:01:48Z</time>
      </trkpt>
      <trkpt lat="43.00093" lon="1.96384">
        <ele>395</ele>
        <time>2013-09-29T10:01:53Z</time>
      </trkpt>
      <trkpt lat="43.00104" lon="1.96392">
        <ele>400</ele>
        <time>2013-09-29T10:01:58Z</time>
      </trkpt>
      <trkpt lat="43.00117" lon="1.96397">
        <ele>404</ele>
        <time>2013-09-29T10:02:03Z</time>
      </trkpt>
      <trkpt lat="43.00131" lon="1.96406">
        <ele>407</ele>
        <time>2013-09-29T10:02:09Z</time>
      </trkpt>
      <trkpt lat="43.0014" lon="1.96413">
        <ele>409</ele>
        <time>2013-09-29T10:02:14Z</time>
      </trkpt>
      <trkpt lat="43.00148" lon="1.96419">
        <ele>410</ele>
        <time>2013-09-29T10:02:19Z</time>
      </trkpt>
      <trkpt lat="43.00154" lon="1.96425">
        <ele>410</ele>
        <time>2013-09-29T10:02:24Z</time>
      </trkpt>
      <trkpt lat="43.00161" lon="1.96431">
        <ele>410</ele>
        <time>2013-09-29T10:02:29Z</time>
      </trkpt>
      <trkpt lat="43.00165" lon="1.96439">
        <ele>409</ele>
        <time>2013-09-29T10:02:34Z</time>
      </trkpt>
      <trkpt lat="43.00172" lon="1.96442">
        <ele>408</ele>
        <time>2013-09-29T10:02:39Z</time>
      </trkpt>
      <trkpt lat="43.00183" lon="1.96446">
        <ele>408</ele>
        <time>2013-09-29T10:02:44Z</time>
      </trkpt>
      <trkpt lat="43.0019" lon="1.96449">
        <ele>408</ele>
        <time>2013-09-29T10:02:49Z</time>
      </trkpt>
      <trkpt lat="43.00199" lon="1.9645">
        <ele>410</ele>
        <time>2013-09-29T10:02:54Z</time>
      </trkpt>
      <trkpt lat="43.00208" lon="1.96456">
        <ele>412</ele>
        <time>2013-09-29T10:02:59Z</time>
      </trkpt>
      <trkpt lat="43.00217" lon="1.96464">
        <ele>414</ele>
        <time>2013-09-29T10:03:04Z</time>
      </trkpt>
      <trkpt lat="43.00225" lon="1.96473">
        <ele>414</ele>
        <time>2013-09-29T10:03:09Z</time>
      </trkpt>
      <trkpt lat="43.00234" lon="1.96481">
        <ele>420</ele>
        <time>2013-09-29T10:03:14Z</time>
      </trkpt>
      <trkpt lat="43.00241" lon="1.96489">
        <ele>425</ele>
        <time>2013-09-29T10:03:19Z</time>
      </trkpt>
      <trkpt lat="43.00247" lon="1.96492">
        <ele>430</ele>
        <time>2013-09-29T10:03:24Z</time>
      </trkpt>
      <trkpt lat="43.00252" lon="1.96491">
        <ele>431</ele>
        <time>2013-09-29T10:03:29Z</time>
      </trkpt>
      <trkpt lat="43.0026" lon="1.96495">
        <ele>431</ele>
        <time>2013-09-29T10:03:34Z</time>
      </trkpt>
      <trkpt lat="43.00266" lon="1.96495">
        <ele>431</ele>
        <time>2013-09-29T10:03:39Z</time>
      </trkpt>
      <trkpt lat="43.00274" lon="1.96496">
        <ele>431</ele>
        <time>2013-09-29T10:03:44Z</time>
      </trkpt>
      <trkpt lat="43.00282" lon="1.96499">
        <ele>434</ele>
        <time>2013-09-29T10:03:49Z</time>
      </trkpt>
      <trkpt lat="43.0029" lon="1.96502">
        <ele>434</ele>
        <time>2013-09-29T10:03:54Z</time>
      </trkpt>
      <trkpt lat="43.00299" lon="1.96504">
        <ele>435</ele>
        <time>2013-09-29T10:03:59Z</time>
      </trkpt>
      <trkpt lat="43.00304" lon="1.96512">
        <ele>435</ele>
        <time>2013-09-29T10:04:04Z</time>
      </trkpt>
      <trkpt lat="43.00313" lon="1.96514">
        <ele>434</ele>
        <time>2013-09-29T10:04:09Z</time>
      </trkpt>
      <trkpt lat="43.0032" lon="1.96519">
        <ele>436</ele>
        <time>2013-09-29T10:04:14Z</time>
      </trkpt>
      <trkpt lat="43.00327" lon="1.96526">
        <ele>436</ele>
        <time>2013-09-29T10:04:19Z</time>
      </trkpt>
      <trkpt lat="43.00335" lon="1.96534">
        <ele>436</ele>
        <time>2013-09-29T10:04:24Z</time>
      </trkpt>
      <trkpt lat="43.00341" lon="1.96543">
        <ele>436</ele>
        <time>2013-09-29T10:04:30Z</time>
      </trkpt>
      <trkpt lat="43.0034" lon="1.96554">
        <ele>436</ele>
        <time>2013-09-29T10:04:35Z</time>
      </trkpt>
      <trkpt lat="43.00337" lon="1.96565">
        <ele>435</ele>
        <time>2013-09-29T10:04:40Z</time>
      </trkpt>
      <trkpt lat="43.00336" lon="1.96576">
        <ele>438</ele>
        <time>2013-09-29T10:04:46Z</time>
      </trkpt>
      <trkpt lat="43.00327" lon="1.96586">
        <ele>443</ele>
        <time>2013-09-29T10:04:51Z</time>
      </trkpt>
      <trkpt lat="43.00317" lon="1.96593">
        <ele>444</ele>
        <time>2013-09-29T10:04:56Z</time>
      </trkpt>
      <trkpt lat="43.00309" lon="1.966">
        <ele>445</ele>
        <time>2013-09-29T10:05:01Z</time>
      </trkpt>
      <trkpt lat="43.00296" lon="1.96608">
        <ele>444</ele>
        <time>2013-09-29T10:05:06Z</time>
      </trkpt>
      <trkpt lat="43.00287" lon="1.9661">
        <ele>440</ele>
        <time>2013-09-29T10:05:11Z</time>
      </trkpt>
      <trkpt lat="43.00276" lon="1.96613">
        <ele>439</ele>
        <time>2013-09-29T10:05:16Z</time>
      </trkpt>
      <trkpt lat="43.00265" lon="1.96619">
        <ele>437</ele>
        <time>2013-09-29T10:05:21Z</time>
      </trkpt>
      <trkpt lat="43.00255" lon="1.96624">
        <ele>437</ele>
        <time>2013-09-29T10:05:26Z</time>
      </trkpt>
      <trkpt lat="43.00247" lon="1.9663">
        <ele>437</ele>
        <time>2013-09-29T10:05:31Z</time>
      </trkpt>
      <trkpt lat="43.00238" lon="1.96637">
        <ele>437</ele>
        <time>2013-09-29T10:05:36Z</time>
      </trkpt>
      <trkpt lat="43.00229" lon="1.96644">
        <ele>437</ele>
        <time>2013-09-29T10:05:41Z</time>
      </trkpt>
      <trkpt lat="43.00221" lon="1.96651">
        <ele>437</ele>
        <time>2013-09-29T10:05:46Z</time>
      </trkpt>
      <trkpt lat="43.00212" lon="1.96659">
        <ele>437</ele>
        <time>2013-09-29T10:05:51Z</time>
      </trkpt>
      <trkpt lat="43.00202" lon="1.96668">
        <ele>437</ele>
        <time>2013-09-29T10:05:56Z</time>
      </trkpt>
      <trkpt lat="43.00192" lon="1.96677">
        <ele>437</ele>
        <time>2013-09-29T10:06:01Z</time>
      </trkpt>
      <trkpt lat="43.00182" lon="1.96686">
        <ele>439</ele>
        <time>2013-09-29T10:06:06Z</time>
      </trkpt>
      <trkpt lat="43.00172" lon="1.96695">
        <ele>441</ele>
        <time>2013-09-29T10:06:11Z</time>
      </trkpt>
      <trkpt lat="43.00163" lon="1.96703">
        <ele>442</ele>
        <time>2013-09-29T10:06:16Z</time>
      </trkpt>
      <trkpt lat="43.00153" lon="1.96712">
        <ele>443</ele>
        <time>2013-09-29T10:06:21Z</time>
      </trkpt>
      <trkpt lat="43.00141" lon="1.96722">
        <ele>443</ele>
        <time>2013-09-29T10:06:27Z</time>
      </trkpt>
      <trkpt lat="43.00131" lon="1.96731">
        <ele>444</ele>
        <time>2013-09-29T10:06:32Z</time>
      </trkpt>
      <trkpt lat="43.00122" lon="1.96739">
        <ele>445</ele>
        <time>2013-09-29T10:06:37Z</time>
      </trkpt>
      <trkpt lat="43.00112" lon="1.96747">
        <ele>446</ele>
        <time>2013-09-29T10:06:42Z</time>
      </trkpt>
      <trkpt lat="43.00102" lon="1.96756">
        <ele>449</ele>
        <time>2013-09-29T10:06:48Z</time>
      </trkpt>
      <trkpt lat="43.00093" lon="1.96764">
        <ele>451</ele>
        <time>2013-09-29T10:06:53Z</time>
      </trkpt>
      <trkpt lat="43.00085" lon="1.96771">
        <ele>454</ele>
        <time>2013-09-29T10:06:58Z</time>
      </trkpt>
      <trkpt lat="43.00076" lon="1.96779">
        <ele>456</ele>
        <time>2013-09-29T10:07:03Z</time>
      </trkpt>
      <trkpt lat="43.00066" lon="1.96789">
        <ele>457</ele>
        <time>2013-09-29T10:07:09Z</time>
      </trkpt>
      <trkpt lat="43.00057" lon="1.96797">
        <ele>459</ele>
        <time>2013-09-29T10:07:14Z</time>
      </trkpt>
      <trkpt lat="43.00048" lon="1.96806">
        <ele>459</ele>
        <time>2013-09-29T10:07:19Z</time>
      </trkpt>
      <trkpt lat="43.0004" lon="1.96814">
        <ele>459</ele>
        <time>2013-09-29T10:07:24Z</time>
      </trkpt>
      <trkpt lat="43.00031" lon="1.96822">
        <ele>460</ele>
        <time>2013-09-29T10:07:29Z</time>
      </trkpt>
      <trkpt lat="43.00019" lon="1.96832">
        <ele>460</ele>
        <time>2013-09-29T10:07:35Z</time>
      </trkpt>
      <trkpt lat="43.00008" lon="1.96841">
        <ele>460</ele>
        <time>2013-09-29T10:07:40Z</time>
      </trkpt>
      <trkpt lat="42.99992" lon="1.96853">
        <ele>460</ele>
        <time>2013-09-29T10:07:46Z</time>
      </trkpt>
      <trkpt lat="42.99976" lon="1.96864">
        <ele>460</ele>
        <time>2013-09-29T10:07:51Z</time>
      </trkpt>
      <trkpt lat="42.99962" lon="1.96881">
        <ele>460</ele>
        <time>2013-09-29T10:07:56Z</time>
      </trkpt>
      <trkpt lat="42.99953" lon="1.96907">
        <ele>460</ele>
        <time>2013-09-29T10:08:01Z</time>
      </trkpt>
      <trkpt lat="42.99949" lon="1.96931">
        <ele>461</ele>
        <time>2013-09-29T10:08:06Z</time>
      </trkpt>
      <trkpt lat="42.99943" lon="1.96952">
        <ele>461</ele>
        <time>2013-09-29T10:08:11Z</time>
      </trkpt>
      <trkpt lat="42.99939" lon="1.96976">
        <ele>461</ele>
        <time>2013-09-29T10:08:16Z</time>
      </trkpt>
      <trkpt lat="42.99934" lon="1.96994">
        <ele>461</ele>
        <time>2013-09-29T10:08:21Z</time>
      </trkpt>
      <trkpt lat="42.99929" lon="1.9701">
        <ele>462</ele>
        <time>2013-09-29T10:08:26Z</time>
      </trkpt>
      <trkpt lat="42.9993" lon="1.9702">
        <ele>466</ele>
        <time>2013-09-29T10:08:31Z</time>
      </trkpt>
      <trkpt lat="42.9994" lon="1.97025">
        <ele>470</ele>
        <time>2013-09-29T10:08:36Z</time>
      </trkpt>
      <trkpt lat="42.99947" lon="1.97034">
        <ele>470</ele>
        <time>2013-09-29T10:08:41Z</time>
      </trkpt>
      <trkpt lat="42.99954" lon="1.97045">
        <ele>474</ele>
        <time>2013-09-29T10:08:46Z</time>
      </trkpt>
      <trkpt lat="42.9996" lon="1.97054">
        <ele>475</ele>
        <time>2013-09-29T10:08:51Z</time>
      </trkpt>
      <trkpt lat="42.99968" lon="1.9706">
        <ele>475</ele>
        <time>2013-09-29T10:08:56Z</time>
      </trkpt>
      <trkpt lat="42.99974" lon="1.97068">
        <ele>475</ele>
        <time>2013-09-29T10:09:01Z</time>
      </trkpt>
      <trkpt lat="42.99973" lon="1.97075">
        <ele>475</ele>
        <time>2013-09-29T10:09:06Z</time>
      </trkpt>
      <trkpt lat="42.99971" lon="1.97079">
        <ele>478</ele>
        <time>2013-09-29T10:09:15Z</time>
      </trkpt>
      <trkpt lat="42.9997" lon="1.9708">
        <ele>478</ele>
        <time>2013-09-29T10:09:21Z</time>
      </trkpt>
      <trkpt lat="42.99966" lon="1.97081">
        <ele>478</ele>
        <time>2013-09-29T10:09:26Z</time>
      </trkpt>
      <trkpt lat="42.99962" lon="1.97083">
        <ele>478</ele>
        <time>2013-09-29T10:09:31Z</time>
      </trkpt>
      <trkpt lat="42.99958" lon="1.97085">
        <ele>478</ele>
        <time>2013-09-29T10:09:37Z</time>
      </trkpt>
      <trkpt lat="42.99957" lon="1.97086">
        <ele>478</ele>
        <time>2013-09-29T10:09:45Z</time>
      </trkpt>
      <trkpt lat="42.99949" lon="1.97085">
        <ele>478</ele>
        <time>2013-09-29T10:09:50Z</time>
      </trkpt>
      <trkpt lat="42.99938" lon="1.97083">
        <ele>478</ele>
        <time>2013-09-29T10:09:55Z</time>
      </trkpt>
      <trkpt lat="42.99927" lon="1.9708">
        <ele>478</ele>
        <time>2013-09-29T10:10:00Z</time>
      </trkpt>
      <trkpt lat="42.99918" lon="1.97081">
        <ele>478</ele>
        <time>2013-09-29T10:10:05Z</time>
      </trkpt>
      <trkpt lat="42.99912" lon="1.97085">
        <ele>484</ele>
        <time>2013-09-29T10:10:17Z</time>
      </trkpt>
      <trkpt lat="42.99908" lon="1.97088">
        <ele>484</ele>
        <time>2013-09-29T10:10:23Z</time>
      </trkpt>
      <trkpt lat="42.99903" lon="1.97097">
        <ele>484</ele>
        <time>2013-09-29T10:10:28Z</time>
      </trkpt>
      <trkpt lat="42.99902" lon="1.97108">
        <ele>484</ele>
        <time>2013-09-29T10:10:33Z</time>
      </trkpt>
      <trkpt lat="42.99904" lon="1.97118">
        <ele>487</ele>
        <time>2013-09-29T10:10:38Z</time>
      </trkpt>
      <trkpt lat="42.99904" lon="1.97129">
        <ele>492</ele>
        <time>2013-09-29T10:10:43Z</time>
      </trkpt>
      <trkpt lat="42.99902" lon="1.9714">
        <ele>493</ele>
        <time>2013-09-29T10:10:48Z</time>
      </trkpt>
      <trkpt lat="42.99898" lon="1.97152">
        <ele>494</ele>
        <time>2013-09-29T10:10:54Z</time>
      </trkpt>
      <trkpt lat="42.99894" lon="1.97163">
        <ele>494</ele>
        <time>2013-09-29T10:10:59Z</time>
      </trkpt>
      <trkpt lat="42.9989" lon="1.97174">
        <ele>494</ele>
        <time>2013-09-29T10:11:04Z</time>
      </trkpt>
      <trkpt lat="42.99886" lon="1.97184">
        <ele>494</ele>
        <time>2013-09-29T10:11:09Z</time>
      </trkpt>
      <trkpt lat="42.9988" lon="1.97194">
        <ele>494</ele>
        <time>2013-09-29T10:11:14Z</time>
      </trkpt>
      <trkpt lat="42.99876" lon="1.97204">
        <ele>494</ele>
        <time>2013-09-29T10:11:19Z</time>
      </trkpt>
      <trkpt lat="42.99872" lon="1.97215">
        <ele>494</ele>
        <time>2013-09-29T10:11:24Z</time>
      </trkpt>
      <trkpt lat="42.99866" lon="1.97225">
        <ele>494</ele>
        <time>2013-09-29T10:11:29Z</time>
      </trkpt>
      <trkpt lat="42.99861" lon="1.97237">
        <ele>494</ele>
        <time>2013-09-29T10:11:34Z</time>
      </trkpt>
      <trkpt lat="42.99854" lon="1.9725">
        <ele>494</ele>
        <time>2013-09-29T10:11:39Z</time>
      </trkpt>
      <trkpt lat="42.99847" lon="1.97266">
        <ele>496</ele>
        <time>2013-09-29T10:11:44Z</time>
      </trkpt>
      <trkpt lat="42.99841" lon="1.97283">
        <ele>497</ele>
        <time>2013-09-29T10:11:49Z</time>
      </trkpt>
      <trkpt lat="42.99834" lon="1.973">
        <ele>499</ele>
        <time>2013-09-29T10:11:54Z</time>
      </trkpt>
      <trkpt lat="42.9983" lon="1.97318">
        <ele>500</ele>
        <time>2013-09-29T10:11:59Z</time>
      </trkpt>
      <trkpt lat="42.99827" lon="1.97336">
        <ele>501</ele>
        <time>2013-09-29T10:12:04Z</time>
      </trkpt>
      <trkpt lat="42.9982" lon="1.97354">
        <ele>502</ele>
        <time>2013-09-29T10:12:09Z</time>
      </trkpt>
      <trkpt lat="42.99811" lon="1.97374">
        <ele>503</ele>
        <time>2013-09-29T10:12:14Z</time>
      </trkpt>
      <trkpt lat="42.99802" lon="1.97394">
        <ele>504</ele>
        <time>2013-09-29T10:12:19Z</time>
      </trkpt>
      <trkpt lat="42.99794" lon="1.97415">
        <ele>504</ele>
        <time>2013-09-29T10:12:24Z</time>
      </trkpt>
      <trkpt lat="42.99787" lon="1.97436">
        <ele>505</ele>
        <time>2013-09-29T10:12:29Z</time>
      </trkpt>
      <trkpt lat="42.99779" lon="1.97456">
        <ele>507</ele>
        <time>2013-09-29T10:12:34Z</time>
      </trkpt>
      <trkpt lat="42.9977" lon="1.97475">
        <ele>507</ele>
        <time>2013-09-29T10:12:39Z</time>
      </trkpt>
      <trkpt lat="42.99763" lon="1.97493">
        <ele>508</ele>
        <time>2013-09-29T10:12:44Z</time>
      </trkpt>
      <trkpt lat="42.99757" lon="1.97509">
        <ele>509</ele>
        <time>2013-09-29T10:12:49Z</time>
      </trkpt>
      <trkpt lat="42.99752" lon="1.97525">
        <ele>510</ele>
        <time>2013-09-29T10:12:54Z</time>
      </trkpt>
      <trkpt lat="42.99744" lon="1.97542">
        <ele>510</ele>
        <time>2013-09-29T10:12:59Z</time>
      </trkpt>
      <trkpt lat="42.99737" lon="1.97559">
        <ele>510</ele>
        <time>2013-09-29T10:13:04Z</time>
      </trkpt>
      <trkpt lat="42.99729" lon="1.97575">
        <ele>510</ele>
        <time>2013-09-29T10:13:09Z</time>
      </trkpt>
      <trkpt lat="42.99724" lon="1.9759">
        <ele>512</ele>
        <time>2013-09-29T10:13:14Z</time>
      </trkpt>
      <trkpt lat="42.99717" lon="1.97606">
        <ele>513</ele>
        <time>2013-09-29T10:13:19Z</time>
      </trkpt>
      <trkpt lat="42.99715" lon="1.97617">
        <ele>514</ele>
        <time>2013-09-29T10:13:24Z</time>
      </trkpt>
      <trkpt lat="42.99723" lon="1.97619">
        <ele>515</ele>
        <time>2013-09-29T10:13:29Z</time>
      </trkpt>
      <trkpt lat="42.99733" lon="1.97626">
        <ele>516</ele>
        <time>2013-09-29T10:13:34Z</time>
      </trkpt>
      <trkpt lat="42.99746" lon="1.97634">
        <ele>516</ele>
        <time>2013-09-29T10:13:39Z</time>
      </trkpt>
      <trkpt lat="42.99762" lon="1.97643">
        <ele>516</ele>
        <time>2013-09-29T10:13:44Z</time>
      </trkpt>
      <trkpt lat="42.99788" lon="1.9765">
        <ele>515</ele>
        <time>2013-09-29T10:13:49Z</time>
      </trkpt>
      <trkpt lat="42.9983" lon="1.97656">
        <ele>511</ele>
        <time>2013-09-29T10:13:54Z</time>
      </trkpt>
      <trkpt lat="42.99895" lon="1.97664">
        <ele>505</ele>
        <time>2013-09-29T10:14:00Z</time>
      </trkpt>
      <trkpt lat="42.99951" lon="1.97677">
        <ele>502</ele>
        <time>2013-09-29T10:14:05Z</time>
      </trkpt>
      <trkpt lat="42.99997" lon="1.97692">
        <ele>500</ele>
        <time>2013-09-29T10:14:10Z</time>
      </trkpt>
      <trkpt lat="43.00011" lon="1.97677">
        <ele>499</ele>
        <time>2013-09-29T10:14:15Z</time>
      </trkpt>
      <trkpt lat="43.00011" lon="1.97638">
        <ele>498</ele>
        <time>2013-09-29T10:14:20Z</time>
      </trkpt>
      <trkpt lat="43.00011" lon="1.97585">
        <ele>496</ele>
        <time>2013-09-29T10:14:26Z</time>
      </trkpt>
      <trkpt lat="43.00026" lon="1.97546">
        <ele>494</ele>
        <time>2013-09-29T10:14:31Z</time>
      </trkpt>
      <trkpt lat="43.00062" lon="1.97527">
        <ele>492</ele>
        <time>2013-09-29T10:14:36Z</time>
      </trkpt>
      <trkpt lat="43.00095" lon="1.97497">
        <ele>490</ele>
        <time>2013-09-29T10:14:41Z</time>
      </trkpt>
      <trkpt lat="43.00128" lon="1.97464">
        <ele>490</ele>
        <time>2013-09-29T10:14:46Z</time>
      </trkpt>
      <trkpt lat="43.00158" lon="1.97427">
        <ele>487</ele>
        <time>2013-09-29T10:14:51Z</time>
      </trkpt>
      <trkpt lat="43.00185" lon="1.97384">
        <ele>484</ele>
        <time>2013-09-29T10:14:56Z</time>
      </trkpt>
      <trkpt lat="43.00219" lon="1.97353">
        <ele>481</ele>
        <time>2013-09-29T10:15:01Z</time>
      </trkpt>
      <trkpt lat="43.00256" lon="1.9733">
        <ele>478</ele>
        <time>2013-09-29T10:15:06Z</time>
      </trkpt>
      <trkpt lat="43.00295" lon="1.97324">
        <ele>477</ele>
        <time>2013-09-29T10:15:11Z</time>
      </trkpt>
      <trkpt lat="43.00342" lon="1.97312">
        <ele>476</ele>
        <time>2013-09-29T10:15:16Z</time>
      </trkpt>
      <trkpt lat="43.00346" lon="1.97296">
        <ele>475</ele>
        <time>2013-09-29T10:15:21Z</time>
      </trkpt>
      <trkpt lat="43.00355" lon="1.97274">
        <ele>475</ele>
        <time>2013-09-29T10:15:26Z</time>
      </trkpt>
      <trkpt lat="43.00373" lon="1.97245">
        <ele>471</ele>
        <time>2013-09-29T10:15:31Z</time>
      </trkpt>
      <trkpt lat="43.00395" lon="1.97218">
        <ele>468</ele>
        <time>2013-09-29T10:15:36Z</time>
      </trkpt>
      <trkpt lat="43.00417" lon="1.97187">
        <ele>465</ele>
        <time>2013-09-29T10:15:41Z</time>
      </trkpt>
      <trkpt lat="43.00446" lon="1.97147">
        <ele>461</ele>
        <time>2013-09-29T10:15:46Z</time>
      </trkpt>
      <trkpt lat="43.00475" lon="1.97107">
        <ele>456</ele>
        <time>2013-09-29T10:15:51Z</time>
      </trkpt>
      <trkpt lat="43.005" lon="1.97081">
        <ele>451</ele>
        <time>2013-09-29T10:15:56Z</time>
      </trkpt>
      <trkpt lat="43.00531" lon="1.97059">
        <ele>446</ele>
        <time>2013-09-29T10:16:01Z</time>
      </trkpt>
      <trkpt lat="43.00558" lon="1.97053">
        <ele>441</ele>
        <time>2013-09-29T10:16:06Z</time>
      </trkpt>
      <trkpt lat="43.00552" lon="1.97013">
        <ele>434</ele>
        <time>2013-09-29T10:16:11Z</time>
      </trkpt>
      <trkpt lat="43.00523" lon="1.96971">
        <ele>426</ele>
        <time>2013-09-29T10:16:16Z</time>
      </trkpt>
      <trkpt lat="43.00515" lon="1.96951">
        <ele>420</ele>
        <time>2013-09-29T10:16:21Z</time>
      </trkpt>
      <trkpt lat="43.00536" lon="1.96932">
        <ele>414</ele>
        <time>2013-09-29T10:16:26Z</time>
      </trkpt>
      <trkpt lat="43.00557" lon="1.96906">
        <ele>409</ele>
        <time>2013-09-29T10:16:31Z</time>
      </trkpt>
      <trkpt lat="43.00578" lon="1.96883">
        <ele>404</ele>
        <time>2013-09-29T10:16:36Z</time>
      </trkpt>
      <trkpt lat="43.00593" lon="1.9685">
        <ele>399</ele>
        <time>2013-09-29T10:16:41Z</time>
      </trkpt>
      <trkpt lat="43.00608" lon="1.96817">
        <ele>394</ele>
        <time>2013-09-29T10:16:46Z</time>
      </trkpt>
      <trkpt lat="43.00624" lon="1.9677">
        <ele>389</ele>
        <time>2013-09-29T10:16:52Z</time>
      </trkpt>
      <trkpt lat="43.00633" lon="1.96729">
        <ele>389</ele>
        <time>2013-09-29T10:16:57Z</time>
      </trkpt>
      <trkpt lat="43.0064" lon="1.96696">
        <ele>387</ele>
        <time>2013-09-29T10:17:02Z</time>
      </trkpt>
      <trkpt lat="43.00641" lon="1.96662">
        <ele>382</ele>
        <time>2013-09-29T10:17:07Z</time>
      </trkpt>
      <trkpt lat="43.00654" lon="1.96633">
        <ele>377</ele>
        <time>2013-09-29T10:17:12Z</time>
      </trkpt>
      <trkpt lat="43.0068" lon="1.96621">
        <ele>372</ele>
        <time>2013-09-29T10:17:17Z</time>
      </trkpt>
      <trkpt lat="43.00714" lon="1.96623">
        <ele>366</ele>
        <time>2013-09-29T10:17:22Z</time>
      </trkpt>
      <trkpt lat="43.00745" lon="1.96635">
        <ele>361</ele>
        <time>2013-09-29T10:17:27Z</time>
      </trkpt>
      <trkpt lat="43.00775" lon="1.96653">
        <ele>358</ele>
        <time>2013-09-29T10:17:32Z</time>
      </trkpt>
      <trkpt lat="43.00802" lon="1.96667">
        <ele>353</ele>
        <time>2013-09-29T10:17:37Z</time>
      </trkpt>
      <trkpt lat="43.00809" lon="1.96664">
        <ele>350</ele>
        <time>2013-09-29T10:17:42Z</time>
      </trkpt>
      <trkpt lat="43.00813" lon="1.9665">
        <ele>350</ele>
        <time>2013-09-29T10:17:47Z</time>
      </trkpt>
      <trkpt lat="43.00822" lon="1.96624">
        <ele>349</ele>
        <time>2013-09-29T10:17:53Z</time>
      </trkpt>
      <trkpt lat="43.00832" lon="1.96597">
        <ele>349</ele>
        <time>2013-09-29T10:17:58Z</time>
      </trkpt>
      <trkpt lat="43.00843" lon="1.96572">
        <ele>349</ele>
        <time>2013-09-29T10:18:03Z</time>
      </trkpt>
      <trkpt lat="43.0086" lon="1.96537">
        <ele>349</ele>
        <time>2013-09-29T10:18:09Z</time>
      </trkpt>
      <trkpt lat="43.00874" lon="1.96513">
        <ele>347</ele>
        <time>2013-09-29T10:18:14Z</time>
      </trkpt>
      <trkpt lat="43.00887" lon="1.96497">
        <ele>345</ele>
        <time>2013-09-29T10:18:19Z</time>
      </trkpt>
      <trkpt lat="43.00902" lon="1.96477">
        <ele>345</ele>
        <time>2013-09-29T10:18:24Z</time>
      </trkpt>
      <trkpt lat="43.0092" lon="1.96457">
        <ele>346</ele>
        <time>2013-09-29T10:18:29Z</time>
      </trkpt>
      <trkpt lat="43.01216" lon="1.9624">
        <ele>348</ele>
        <time>2013-09-29T10:19:20Z</time>
      </trkpt>
      <trkpt lat="43.0122" lon="1.96233">
        <ele>352</ele>
        <time>2013-09-29T10:19:25Z</time>
      </trkpt>
      <trkpt lat="43.01222" lon="1.96237">
        <ele>346</ele>
        <time>2013-09-29T10:19:34Z</time>
      </trkpt>
      <trkpt lat="43.01224" lon="1.96235">
        <ele>358</ele>
        <time>2013-09-29T10:19:49Z</time>
      </trkpt>
      <trkpt lat="43.01225" lon="1.96231">
        <ele>358</ele>
        <time>2013-09-29T10:19:54Z</time>
      </trkpt>
      <trkpt lat="43.01226" lon="1.96232">
        <ele>358</ele>
        <time>2013-09-29T10:20:01Z</time>
      </trkpt>
      <trkpt lat="43.01242" lon="1.96226">
        <ele>358</ele>
        <time>2013-09-29T10:20:06Z</time>
      </trkpt>
      <trkpt lat="43.01271" lon="1.96216">
        <ele>356</ele>
        <time>2013-09-29T10:20:11Z</time>
      </trkpt>
      <trkpt lat="43.01306" lon="1.96203">
        <ele>353</ele>
        <time>2013-09-29T10:20:16Z</time>
      </trkpt>
      <trkpt lat="43.01336" lon="1.96196">
        <ele>352</ele>
        <time>2013-09-29T10:20:21Z</time>
      </trkpt>
      <trkpt lat="43.01365" lon="1.96188">
        <ele>350</ele>
        <time>2013-09-29T10:20:26Z</time>
      </trkpt>
      <trkpt lat="43.01397" lon="1.96178">
        <ele>350</ele>
        <time>2013-09-29T10:20:31Z</time>
      </trkpt>
      <trkpt lat="43.01431" lon="1.96166">
        <ele>350</ele>
        <time>2013-09-29T10:20:36Z</time>
      </trkpt>
      <trkpt lat="43.01467" lon="1.96158">
        <ele>350</ele>
        <time>2013-09-29T10:20:41Z</time>
      </trkpt>
      <trkpt lat="43.01505" lon="1.96152">
        <ele>348</ele>
        <time>2013-09-29T10:20:46Z</time>
      </trkpt>
      <trkpt lat="43.01542" lon="1.96153">
        <ele>347</ele>
        <time>2013-09-29T10:20:51Z</time>
      </trkpt>
      <trkpt lat="43.01579" lon="1.9616">
        <ele>346</ele>
        <time>2013-09-29T10:20:56Z</time>
      </trkpt>
      <trkpt lat="43.01616" lon="1.96172">
        <ele>346</ele>
        <time>2013-09-29T10:21:01Z</time>
      </trkpt>
      <trkpt lat="43.01652" lon="1.96188">
        <ele>345</ele>
        <time>2013-09-29T10:21:06Z</time>
      </trkpt>
      <trkpt lat="43.01695" lon="1.96205">
        <ele>345</ele>
        <time>2013-09-29T10:21:12Z</time>
      </trkpt>
      <trkpt lat="43.01728" lon="1.96218">
        <ele>345</ele>
        <time>2013-09-29T10:21:17Z</time>
      </trkpt>
      <trkpt lat="43.0176" lon="1.96232">
        <ele>345</ele>
        <time>2013-09-29T10:21:22Z</time>
      </trkpt>
      <trkpt lat="43.01791" lon="1.96247">
        <ele>344</ele>
        <time>2013-09-29T10:21:27Z</time>
      </trkpt>
      <trkpt lat="43.01822" lon="1.96262">
        <ele>344</ele>
        <time>2013-09-29T10:21:32Z</time>
      </trkpt>
      <trkpt lat="43.0185" lon="1.96281">
        <ele>344</ele>
        <time>2013-09-29T10:21:37Z</time>
      </trkpt>
      <trkpt lat="43.01879" lon="1.96299">
        <ele>344</ele>
        <time>2013-09-29T10:21:42Z</time>
      </trkpt>
      <trkpt lat="43.0191" lon="1.96313">
        <ele>344</ele>
        <time>2013-09-29T10:21:47Z</time>
      </trkpt>
      <trkpt lat="43.01941" lon="1.96326">
        <ele>344</ele>
        <time>2013-09-29T10:21:52Z</time>
      </trkpt>
      <trkpt lat="43.01971" lon="1.9634">
        <ele>344</ele>
        <time>2013-09-29T10:21:57Z</time>
      </trkpt>
      <trkpt lat="43.02001" lon="1.96355">
        <ele>344</ele>
        <time>2013-09-29T10:22:02Z</time>
      </trkpt>
      <trkpt lat="43.02031" lon="1.96368">
        <ele>344</ele>
        <time>2013-09-29T10:22:07Z</time>
      </trkpt>
      <trkpt lat="43.02059" lon="1.96381">
        <ele>344</ele>
        <time>2013-09-29T10:22:12Z</time>
      </trkpt>
      <trkpt lat="43.02084" lon="1.96392">
        <ele>344</ele>
        <time>2013-09-29T10:22:17Z</time>
      </trkpt>
      <trkpt lat="43.02105" lon="1.96396">
        <ele>344</ele>
        <time>2013-09-29T10:22:22Z</time>
      </trkpt>
      <trkpt lat="43.02117" lon="1.96396">
        <ele>344</ele>
        <time>2013-09-29T10:22:27Z</time>
      </trkpt>
      <trkpt lat="43.02118" lon="1.96396">
        <ele>344</ele>
        <time>2013-09-29T10:22:32Z</time>
      </trkpt>
      <trkpt lat="43.0213" lon="1.96397">
        <ele>344</ele>
        <time>2013-09-29T10:22:37Z</time>
      </trkpt>
      <trkpt lat="43.02156" lon="1.96398">
        <ele>344</ele>
        <time>2013-09-29T10:22:42Z</time>
      </trkpt>
      <trkpt lat="43.02182" lon="1.96398">
        <ele>344</ele>
        <time>2013-09-29T10:22:47Z</time>
      </trkpt>
      <trkpt lat="43.02208" lon="1.96397">
        <ele>344</ele>
        <time>2013-09-29T10:22:52Z</time>
      </trkpt>
      <trkpt lat="43.02235" lon="1.96397">
        <ele>344</ele>
        <time>2013-09-29T10:22:57Z</time>
      </trkpt>
      <trkpt lat="43.02258" lon="1.96397">
        <ele>344</ele>
        <time>2013-09-29T10:23:02Z</time>
      </trkpt>
      <trkpt lat="43.02259" lon="1.96398">
        <ele>347</ele>
        <time>2013-09-29T10:23:23Z</time>
      </trkpt>
      <trkpt lat="43.02259" lon="1.96395">
        <ele>349</ele>
        <time>2013-09-29T10:23:30Z</time>
      </trkpt>
      <trkpt lat="43.02259" lon="1.96397">
        <ele>350</ele>
        <time>2013-09-29T10:23:39Z</time>
      </trkpt>
      <trkpt lat="43.02257" lon="1.96397">
        <ele>350</ele>
        <time>2013-09-29T10:23:52Z</time>
      </trkpt>
      <trkpt lat="43.02257" lon="1.96399">
        <ele>350</ele>
        <time>2013-09-29T10:23:58Z</time>
      </trkpt>
      <trkpt lat="43.02255" lon="1.96398">
        <ele>350</ele>
        <time>2013-09-29T10:24:04Z</time>
      </trkpt>
      <trkpt lat="43.02253" lon="1.96397">
        <ele>349</ele>
        <time>2013-09-29T10:24:15Z</time>
      </trkpt>
      <trkpt lat="43.02251" lon="1.96401">
        <ele>348</ele>
        <time>2013-09-29T10:24:22Z</time>
      </trkpt>
      <trkpt lat="43.02251" lon="1.96397">
        <ele>348</ele>
        <time>2013-09-29T10:24:28Z</time>
      </trkpt>
      <trkpt lat="43.0225" lon="1.96397">
        <ele>348</ele>
        <time>2013-09-29T10:24:33Z</time>
      </trkpt>
      <trkpt lat="43.02245" lon="1.96397">
        <ele>348</ele>
        <time>2013-09-29T10:24:39Z</time>
      </trkpt>
      <trkpt lat="43.02239" lon="1.96397">
        <ele>348</ele>
        <time>2013-09-29T10:24:45Z</time>
      </trkpt>
      <trkpt lat="43.02234" lon="1.96397">
        <ele>348</ele>
        <time>2013-09-29T10:24:56Z</time>
      </trkpt>
      <trkpt lat="43.02228" lon="1.96398">
        <ele>348</ele>
        <time>2013-09-29T10:25:01Z</time>
      </trkpt>
      <trkpt lat="43.02223" lon="1.96398">
        <ele>348</ele>
        <time>2013-09-29T10:25:06Z</time>
      </trkpt>
      <trkpt lat="43.02218" lon="1.96398">
        <ele>348</ele>
        <time>2013-09-29T10:25:11Z</time>
      </trkpt>
      <trkpt lat="43.02216" lon="1.96398">
        <ele>348</ele>
        <time>2013-09-29T10:25:17Z</time>
      </trkpt>
      <trkpt lat="43.02215" lon="1.96398">
        <ele>348</ele>
        <time>2013-09-29T10:25:28Z</time>
      </trkpt>
      <trkpt lat="43.02221" lon="1.96398">
        <ele>348</ele>
        <time>2013-09-29T10:25:34Z</time>
      </trkpt>
      <trkpt lat="43.02227" lon="1.96397">
        <ele>348</ele>
        <time>2013-09-29T10:25:40Z</time>
      </trkpt>
      <trkpt lat="43.02234" lon="1.96396">
        <ele>348</ele>
        <time>2013-09-29T10:25:45Z</time>
      </trkpt>
      <trkpt lat="43.0224" lon="1.96396">
        <ele>348</ele>
        <time>2013-09-29T10:25:50Z</time>
      </trkpt>
      <trkpt lat="43.02248" lon="1.96395">
        <ele>347</ele>
        <time>2013-09-29T10:25:56Z</time>
      </trkpt>
      <trkpt lat="43.02253" lon="1.96395">
        <ele>347</ele>
        <time>2013-09-29T10:26:01Z</time>
      </trkpt>
      <trkpt lat="43.02254" lon="1.96397">
        <ele>347</ele>
        <time>2013-09-29T10:26:11Z</time>
      </trkpt>
      <trkpt lat="43.02248" lon="1.96396">
        <ele>347</ele>
        <time>2013-09-29T10:26:16Z</time>
      </trkpt>
      <trkpt lat="43.02244" lon="1.96396">
        <ele>347</ele>
        <time>2013-09-29T10:26:22Z</time>
      </trkpt>
      <trkpt lat="43.02243" lon="1.96397">
        <ele>347</ele>
        <time>2013-09-29T10:26:30Z</time>
      </trkpt>
      <trkpt lat="43.0225" lon="1.96399">
        <ele>347</ele>
        <time>2013-09-29T10:26:36Z</time>
      </trkpt>
      <trkpt lat="43.02253" lon="1.96401">
        <ele>347</ele>
        <time>2013-09-29T10:26:42Z</time>
      </trkpt>
      <trkpt lat="43.02256" lon="1.96401">
        <ele>347</ele>
        <time>2013-09-29T10:26:47Z</time>
      </trkpt>
      <trkpt lat="43.02258" lon="1.964">
        <ele>347</ele>
        <time>2013-09-29T10:26:53Z</time>
      </trkpt>
      <trkpt lat="43.02259" lon="1.964">
        <ele>347</ele>
        <time>2013-09-29T10:27:00Z</time>
      </trkpt>
      <trkpt lat="43.02261" lon="1.96399">
        <ele>347</ele>
        <time>2013-09-29T10:27:07Z</time>
      </trkpt>
      <trkpt lat="43.02263" lon="1.96393">
        <ele>347</ele>
        <time>2013-09-29T10:27:14Z</time>
      </trkpt>
      <trkpt lat="43.02263" lon="1.9639">
        <ele>347</ele>
        <time>2013-09-29T10:27:19Z</time>
      </trkpt>
      <trkpt lat="43.02262" lon="1.96387">
        <ele>347</ele>
        <time>2013-09-29T10:27:25Z</time>
      </trkpt>
      <trkpt lat="43.02262" lon="1.96388">
        <ele>347</ele>
        <time>2013-09-29T10:27:39Z</time>
      </trkpt>
      <trkpt lat="43.02258" lon="1.96393">
        <ele>347</ele>
        <time>2013-09-29T10:27:46Z</time>
      </trkpt>
      <trkpt lat="43.0226" lon="1.96397">
        <ele>347</ele>
        <time>2013-09-29T10:27:53Z</time>
      </trkpt>
      <trkpt lat="43.02267" lon="1.96398">
        <ele>347</ele>
        <time>2013-09-29T10:27:59Z</time>
      </trkpt>
      <trkpt lat="43.02278" lon="1.96398">
        <ele>347</ele>
        <time>2013-09-29T10:28:04Z</time>
      </trkpt>
      <trkpt lat="43.02304" lon="1.96394">
        <ele>344</ele>
        <time>2013-09-29T10:28:09Z</time>
      </trkpt>
      <trkpt lat="43.02337" lon="1.96387">
        <ele>339</ele>
        <time>2013-09-29T10:28:14Z</time>
      </trkpt>
      <trkpt lat="43.02367" lon="1.96376">
        <ele>334</ele>
        <time>2013-09-29T10:28:19Z</time>
      </trkpt>
      <trkpt lat="43.02399" lon="1.96362">
        <ele>333</ele>
        <time>2013-09-29T10:28:24Z</time>
      </trkpt>
      <trkpt lat="43.0243" lon="1.96342">
        <ele>332</ele>
        <time>2013-09-29T10:28:29Z</time>
      </trkpt>
      <trkpt lat="43.02461" lon="1.96317">
        <ele>331</ele>
        <time>2013-09-29T10:28:34Z</time>
      </trkpt>
      <trkpt lat="43.02496" lon="1.96282">
        <ele>331</ele>
        <time>2013-09-29T10:28:40Z</time>
      </trkpt>
      <trkpt lat="43.02522" lon="1.96248">
        <ele>331</ele>
        <time>2013-09-29T10:28:45Z</time>
      </trkpt>
      <trkpt lat="43.02544" lon="1.96213">
        <ele>331</ele>
        <time>2013-09-29T10:28:50Z</time>
      </trkpt>
      <trkpt lat="43.02564" lon="1.96176">
        <ele>331</ele>
        <time>2013-09-29T10:28:55Z</time>
      </trkpt>
      <trkpt lat="43.02581" lon="1.96138">
        <ele>331</ele>
        <time>2013-09-29T10:29:00Z</time>
      </trkpt>
      <trkpt lat="43.02595" lon="1.96095">
        <ele>331</ele>
        <time>2013-09-29T10:29:05Z</time>
      </trkpt>
      <trkpt lat="43.02604" lon="1.96051">
        <ele>333</ele>
        <time>2013-09-29T10:29:10Z</time>
      </trkpt>
      <trkpt lat="43.02612" lon="1.96009">
        <ele>333</ele>
        <time>2013-09-29T10:29:15Z</time>
      </trkpt>
      <trkpt lat="43.02618" lon="1.9596">
        <ele>334</ele>
        <time>2013-09-29T10:29:20Z</time>
      </trkpt>
      <trkpt lat="43.02623" lon="1.95906">
        <ele>337</ele>
        <time>2013-09-29T10:29:25Z</time>
      </trkpt>
      <trkpt lat="43.02626" lon="1.9585">
        <ele>337</ele>
        <time>2013-09-29T10:29:30Z</time>
      </trkpt>
      <trkpt lat="43.02629" lon="1.95793">
        <ele>337</ele>
        <time>2013-09-29T10:29:35Z</time>
      </trkpt>
      <trkpt lat="43.02633" lon="1.95733">
        <ele>337</ele>
        <time>2013-09-29T10:29:40Z</time>
      </trkpt>
      <trkpt lat="43.02641" lon="1.95675">
        <ele>339</ele>
        <time>2013-09-29T10:29:45Z</time>
      </trkpt>
      <trkpt lat="43.02651" lon="1.9562">
        <ele>340</ele>
        <time>2013-09-29T10:29:50Z</time>
      </trkpt>
      <trkpt lat="43.02667" lon="1.95566">
        <ele>340</ele>
        <time>2013-09-29T10:29:55Z</time>
      </trkpt>
      <trkpt lat="43.02685" lon="1.95516">
        <ele>340</ele>
        <time>2013-09-29T10:30:00Z</time>
      </trkpt>
      <trkpt lat="43.02697" lon="1.95487">
        <ele>340</ele>
        <time>2013-09-29T10:30:05Z</time>
      </trkpt>
      <trkpt lat="43.02704" lon="1.95469">
        <ele>340</ele>
        <time>2013-09-29T10:30:10Z</time>
      </trkpt>
      <trkpt lat="43.0271" lon="1.95457">
        <ele>340</ele>
        <time>2013-09-29T10:30:15Z</time>
      </trkpt>
      <trkpt lat="43.02713" lon="1.95449">
        <ele>340</ele>
        <time>2013-09-29T10:30:24Z</time>
      </trkpt>
      <trkpt lat="43.02722" lon="1.95434">
        <ele>340</ele>
        <time>2013-09-29T10:30:29Z</time>
      </trkpt>
      <trkpt lat="43.02737" lon="1.95403">
        <ele>340</ele>
        <time>2013-09-29T10:30:35Z</time>
      </trkpt>
      <trkpt lat="43.02755" lon="1.95373">
        <ele>340</ele>
        <time>2013-09-29T10:30:40Z</time>
      </trkpt>
      <trkpt lat="43.02777" lon="1.95346">
        <ele>340</ele>
        <time>2013-09-29T10:30:45Z</time>
      </trkpt>
      <trkpt lat="43.028" lon="1.9532">
        <ele>340</ele>
        <time>2013-09-29T10:30:50Z</time>
      </trkpt>
      <trkpt lat="43.02821" lon="1.953">
        <ele>336</ele>
        <time>2013-09-29T10:30:55Z</time>
      </trkpt>
      <trkpt lat="43.02842" lon="1.95278">
        <ele>335</ele>
        <time>2013-09-29T10:31:00Z</time>
      </trkpt>
      <trkpt lat="43.02866" lon="1.95255">
        <ele>334</ele>
        <time>2013-09-29T10:31:05Z</time>
      </trkpt>
      <trkpt lat="43.02892" lon="1.95229">
        <ele>332</ele>
        <time>2013-09-29T10:31:10Z</time>
      </trkpt>
      <trkpt lat="43.02916" lon="1.95205">
        <ele>330</ele>
        <time>2013-09-29T10:31:15Z</time>
      </trkpt>
      <trkpt lat="43.02929" lon="1.95194">
        <ele>329</ele>
        <time>2013-09-29T10:31:21Z</time>
      </trkpt>
      <trkpt lat="43.02929" lon="1.95191">
        <ele>329</ele>
        <time>2013-09-29T10:31:27Z</time>
      </trkpt>
      <trkpt lat="43.02929" lon="1.95187">
        <ele>333</ele>
        <time>2013-09-29T10:31:38Z</time>
      </trkpt>
      <trkpt lat="43.02932" lon="1.9518">
        <ele>340</ele>
        <time>2013-09-29T10:31:48Z</time>
      </trkpt>
      <trkpt lat="43.02944" lon="1.95171">
        <ele>340</ele>
        <time>2013-09-29T10:31:54Z</time>
      </trkpt>
      <trkpt lat="43.02963" lon="1.95152">
        <ele>340</ele>
        <time>2013-09-29T10:31:59Z</time>
      </trkpt>
      <trkpt lat="43.02989" lon="1.95126">
        <ele>340</ele>
        <time>2013-09-29T10:32:04Z</time>
      </trkpt>
      <trkpt lat="43.03017" lon="1.95098">
        <ele>338</ele>
        <time>2013-09-29T10:32:09Z</time>
      </trkpt>
      <trkpt lat="43.03046" lon="1.9507">
        <ele>335</ele>
        <time>2013-09-29T10:32:14Z</time>
      </trkpt>
      <trkpt lat="43.03079" lon="1.95033">
        <ele>332</ele>
        <time>2013-09-29T10:32:20Z</time>
      </trkpt>
      <trkpt lat="43.03104" lon="1.94996">
        <ele>330</ele>
        <time>2013-09-29T10:32:25Z</time>
      </trkpt>
      <trkpt lat="43.03127" lon="1.94961">
        <ele>328</ele>
        <time>2013-09-29T10:32:30Z</time>
      </trkpt>
      <trkpt lat="43.03139" lon="1.94939">
        <ele>328</ele>
        <time>2013-09-29T10:32:35Z</time>
      </trkpt>
      <trkpt lat="43.03142" lon="1.94935">
        <ele>328</ele>
        <time>2013-09-29T10:32:43Z</time>
      </trkpt>
      <trkpt lat="43.03142" lon="1.94933">
        <ele>331</ele>
        <time>2013-09-29T10:32:50Z</time>
      </trkpt>
      <trkpt lat="43.03142" lon="1.94932">
        <ele>336</ele>
        <time>2013-09-29T10:32:55Z</time>
      </trkpt>
      <trkpt lat="43.03141" lon="1.9493">
        <ele>341</ele>
        <time>2013-09-29T10:33:01Z</time>
      </trkpt>
      <trkpt lat="43.03141" lon="1.94929">
        <ele>347</ele>
        <time>2013-09-29T10:33:10Z</time>
      </trkpt>
      <trkpt lat="43.03139" lon="1.94926">
        <ele>349</ele>
        <time>2013-09-29T10:33:15Z</time>
      </trkpt>
      <trkpt lat="43.03146" lon="1.94916">
        <ele>349</ele>
        <time>2013-09-29T10:33:20Z</time>
      </trkpt>
      <trkpt lat="43.03154" lon="1.94902">
        <ele>348</ele>
        <time>2013-09-29T10:33:25Z</time>
      </trkpt>
      <trkpt lat="43.03166" lon="1.94877">
        <ele>343</ele>
        <time>2013-09-29T10:33:30Z</time>
      </trkpt>
      <trkpt lat="43.03185" lon="1.94828">
        <ele>337</ele>
        <time>2013-09-29T10:33:36Z</time>
      </trkpt>
      <trkpt lat="43.03203" lon="1.94781">
        <ele>335</ele>
        <time>2013-09-29T10:33:41Z</time>
      </trkpt>
      <trkpt lat="43.03223" lon="1.94728">
        <ele>333</ele>
        <time>2013-09-29T10:33:46Z</time>
      </trkpt>
      <trkpt lat="43.03244" lon="1.94674">
        <ele>333</ele>
        <time>2013-09-29T10:33:51Z</time>
      </trkpt>
      <trkpt lat="43.03265" lon="1.94622">
        <ele>333</ele>
        <time>2013-09-29T10:33:56Z</time>
      </trkpt>
      <trkpt lat="43.03284" lon="1.9457">
        <ele>333</ele>
        <time>2013-09-29T10:34:01Z</time>
      </trkpt>
      <trkpt lat="43.03303" lon="1.94518">
        <ele>333</ele>
        <time>2013-09-29T10:34:06Z</time>
      </trkpt>
      <trkpt lat="43.03324" lon="1.94468">
        <ele>333</ele>
        <time>2013-09-29T10:34:11Z</time>
      </trkpt>
      <trkpt lat="43.03346" lon="1.94418">
        <ele>333</ele>
        <time>2013-09-29T10:34:16Z</time>
      </trkpt>
      <trkpt lat="43.0337" lon="1.94372">
        <ele>333</ele>
        <time>2013-09-29T10:34:21Z</time>
      </trkpt>
      <trkpt lat="43.03395" lon="1.94334">
        <ele>333</ele>
        <time>2013-09-29T10:34:26Z</time>
      </trkpt>
      <trkpt lat="43.03422" lon="1.94301">
        <ele>329</ele>
        <time>2013-09-29T10:34:31Z</time>
      </trkpt>
      <trkpt lat="43.03449" lon="1.94272">
        <ele>328</ele>
        <time>2013-09-29T10:34:36Z</time>
      </trkpt>
      <trkpt lat="43.03482" lon="1.9425">
        <ele>328</ele>
        <time>2013-09-29T10:34:41Z</time>
      </trkpt>
      <trkpt lat="43.03519" lon="1.9423">
        <ele>328</ele>
        <time>2013-09-29T10:34:46Z</time>
      </trkpt>
      <trkpt lat="43.03556" lon="1.94213">
        <ele>326</ele>
        <time>2013-09-29T10:34:51Z</time>
      </trkpt>
      <trkpt lat="43.03595" lon="1.94203">
        <ele>324</ele>
        <time>2013-09-29T10:34:56Z</time>
      </trkpt>
      <trkpt lat="43.03636" lon="1.94199">
        <ele>324</ele>
        <time>2013-09-29T10:35:01Z</time>
      </trkpt>
      <trkpt lat="43.03679" lon="1.94201">
        <ele>324</ele>
        <time>2013-09-29T10:35:06Z</time>
      </trkpt>
      <trkpt lat="43.03722" lon="1.94207">
        <ele>324</ele>
        <time>2013-09-29T10:35:11Z</time>
      </trkpt>
      <trkpt lat="43.03765" lon="1.94212">
        <ele>324</ele>
        <time>2013-09-29T10:35:16Z</time>
      </trkpt>
      <trkpt lat="43.03808" lon="1.94217">
        <ele>324</ele>
        <time>2013-09-29T10:35:21Z</time>
      </trkpt>
      <trkpt lat="43.0385" lon="1.94222">
        <ele>324</ele>
        <time>2013-09-29T10:35:26Z</time>
      </trkpt>
      <trkpt lat="43.03894" lon="1.94228">
        <ele>324</ele>
        <time>2013-09-29T10:35:31Z</time>
      </trkpt>
      <trkpt lat="43.03938" lon="1.94234">
        <ele>324</ele>
        <time>2013-09-29T10:35:36Z</time>
      </trkpt>
      <trkpt lat="43.03982" lon="1.94239">
        <ele>324</ele>
        <time>2013-09-29T10:35:41Z</time>
      </trkpt>
      <trkpt lat="43.04024" lon="1.94245">
        <ele>324</ele>
        <time>2013-09-29T10:35:46Z</time>
      </trkpt>
      <trkpt lat="43.04066" lon="1.94252">
        <ele>324</ele>
        <time>2013-09-29T10:35:51Z</time>
      </trkpt>
      <trkpt lat="43.04105" lon="1.94256">
        <ele>323</ele>
        <time>2013-09-29T10:35:56Z</time>
      </trkpt>
      <trkpt lat="43.04142" lon="1.94261">
        <ele>323</ele>
        <time>2013-09-29T10:36:01Z</time>
      </trkpt>
      <trkpt lat="43.04176" lon="1.94266">
        <ele>323</ele>
        <time>2013-09-29T10:36:06Z</time>
      </trkpt>
      <trkpt lat="43.04211" lon="1.94269">
        <ele>323</ele>
        <time>2013-09-29T10:36:11Z</time>
      </trkpt>
      <trkpt lat="43.04249" lon="1.94272">
        <ele>323</ele>
        <time>2013-09-29T10:36:16Z</time>
      </trkpt>
      <trkpt lat="43.04286" lon="1.94276">
        <ele>323</ele>
        <time>2013-09-29T10:36:21Z</time>
      </trkpt>
      <trkpt lat="43.04316" lon="1.94273">
        <ele>323</ele>
        <time>2013-09-29T10:36:26Z</time>
      </trkpt>
      <trkpt lat="43.04335" lon="1.94239">
        <ele>323</ele>
        <time>2013-09-29T10:36:31Z</time>
      </trkpt>
      <trkpt lat="43.04353" lon="1.94199">
        <ele>323</ele>
        <time>2013-09-29T10:36:36Z</time>
      </trkpt>
      <trkpt lat="43.04375" lon="1.94152">
        <ele>323</ele>
        <time>2013-09-29T10:36:41Z</time>
      </trkpt>
      <trkpt lat="43.04398" lon="1.94109">
        <ele>323</ele>
        <time>2013-09-29T10:36:46Z</time>
      </trkpt>
      <trkpt lat="43.04421" lon="1.94066">
        <ele>323</ele>
        <time>2013-09-29T10:36:51Z</time>
      </trkpt>
      <trkpt lat="43.04442" lon="1.94025">
        <ele>323</ele>
        <time>2013-09-29T10:36:56Z</time>
      </trkpt>
      <trkpt lat="43.04448" lon="1.9401">
        <ele>323</ele>
        <time>2013-09-29T10:37:01Z</time>
      </trkpt>
      <trkpt lat="43.0445" lon="1.94">
        <ele>323</ele>
        <time>2013-09-29T10:37:06Z</time>
      </trkpt>
      <trkpt lat="43.04448" lon="1.93996">
        <ele>323</ele>
        <time>2013-09-29T10:37:17Z</time>
      </trkpt>
      <trkpt lat="43.04446" lon="1.93972">
        <ele>323</ele>
        <time>2013-09-29T10:37:22Z</time>
      </trkpt>
      <trkpt lat="43.04447" lon="1.93931">
        <ele>323</ele>
        <time>2013-09-29T10:37:27Z</time>
      </trkpt>
      <trkpt lat="43.04461" lon="1.93894">
        <ele>323</ele>
        <time>2013-09-29T10:37:32Z</time>
      </trkpt>
      <trkpt lat="43.04481" lon="1.93866">
        <ele>323</ele>
        <time>2013-09-29T10:37:37Z</time>
      </trkpt>
      <trkpt lat="43.04503" lon="1.93836">
        <ele>323</ele>
        <time>2013-09-29T10:37:42Z</time>
      </trkpt>
      <trkpt lat="43.0452" lon="1.93793">
        <ele>323</ele>
        <time>2013-09-29T10:37:47Z</time>
      </trkpt>
      <trkpt lat="43.04535" lon="1.93739">
        <ele>323</ele>
        <time>2013-09-29T10:37:52Z</time>
      </trkpt>
      <trkpt lat="43.04549" lon="1.93686">
        <ele>323</ele>
        <time>2013-09-29T10:37:57Z</time>
      </trkpt>
      <trkpt lat="43.0457" lon="1.93661">
        <ele>323</ele>
        <time>2013-09-29T10:38:02Z</time>
      </trkpt>
      <trkpt lat="43.04601" lon="1.93681">
        <ele>323</ele>
        <time>2013-09-29T10:38:07Z</time>
      </trkpt>
      <trkpt lat="43.04634" lon="1.93699">
        <ele>323</ele>
        <time>2013-09-29T10:38:12Z</time>
      </trkpt>
      <trkpt lat="43.04673" lon="1.93709">
        <ele>323</ele>
        <time>2013-09-29T10:38:18Z</time>
      </trkpt>
      <trkpt lat="43.04687" lon="1.9367">
        <ele>323</ele>
        <time>2013-09-29T10:38:23Z</time>
      </trkpt>
      <trkpt lat="43.047" lon="1.93633">
        <ele>323</ele>
        <time>2013-09-29T10:38:28Z</time>
      </trkpt>
      <trkpt lat="43.04701" lon="1.93609">
        <ele>323</ele>
        <time>2013-09-29T10:38:33Z</time>
      </trkpt>
      <trkpt lat="43.0469" lon="1.93587">
        <ele>324</ele>
        <time>2013-09-29T10:38:38Z</time>
      </trkpt>
      <trkpt lat="43.04698" lon="1.93565">
        <ele>327</ele>
        <time>2013-09-29T10:38:44Z</time>
      </trkpt>
      <trkpt lat="43.04708" lon="1.93556">
        <ele>329</ele>
        <time>2013-09-29T10:38:49Z</time>
      </trkpt>
      <trkpt lat="43.04718" lon="1.9355">
        <ele>330</ele>
        <time>2013-09-29T10:38:54Z</time>
      </trkpt>
      <trkpt lat="43.04728" lon="1.93552">
        <ele>331</ele>
        <time>2013-09-29T10:38:59Z</time>
      </trkpt>
      <trkpt lat="43.04736" lon="1.93556">
        <ele>333</ele>
        <time>2013-09-29T10:39:04Z</time>
      </trkpt>
      <trkpt lat="43.04744" lon="1.93561">
        <ele>334</ele>
        <time>2013-09-29T10:39:09Z</time>
      </trkpt>
      <trkpt lat="43.04754" lon="1.93567">
        <ele>336</ele>
        <time>2013-09-29T10:39:15Z</time>
      </trkpt>
      <trkpt lat="43.04762" lon="1.9357">
        <ele>338</ele>
        <time>2013-09-29T10:39:20Z</time>
      </trkpt>
      <trkpt lat="43.04771" lon="1.93572">
        <ele>340</ele>
        <time>2013-09-29T10:39:25Z</time>
      </trkpt>
      <trkpt lat="43.04781" lon="1.93574">
        <ele>341</ele>
        <time>2013-09-29T10:39:30Z</time>
      </trkpt>
      <trkpt lat="43.0479" lon="1.93576">
        <ele>343</ele>
        <time>2013-09-29T10:39:35Z</time>
      </trkpt>
      <trkpt lat="43.04801" lon="1.93577">
        <ele>344</ele>
        <time>2013-09-29T10:39:40Z</time>
      </trkpt>
      <trkpt lat="43.04812" lon="1.93578">
        <ele>346</ele>
        <time>2013-09-29T10:39:45Z</time>
      </trkpt>
      <trkpt lat="43.04823" lon="1.93578">
        <ele>347</ele>
        <time>2013-09-29T10:39:50Z</time>
      </trkpt>
      <trkpt lat="43.04832" lon="1.93576">
        <ele>349</ele>
        <time>2013-09-29T10:39:55Z</time>
      </trkpt>
      <trkpt lat="43.04844" lon="1.93573">
        <ele>350</ele>
        <time>2013-09-29T10:40:00Z</time>
      </trkpt>
      <trkpt lat="43.04854" lon="1.9357">
        <ele>352</ele>
        <time>2013-09-29T10:40:05Z</time>
      </trkpt>
      <trkpt lat="43.04865" lon="1.93569">
        <ele>353</ele>
        <time>2013-09-29T10:40:10Z</time>
      </trkpt>
      <trkpt lat="43.04875" lon="1.9357">
        <ele>354</ele>
        <time>2013-09-29T10:40:15Z</time>
      </trkpt>
      <trkpt lat="43.04884" lon="1.93572">
        <ele>357</ele>
        <time>2013-09-29T10:40:20Z</time>
      </trkpt>
      <trkpt lat="43.04894" lon="1.93575">
        <ele>360</ele>
        <time>2013-09-29T10:40:25Z</time>
      </trkpt>
      <trkpt lat="43.04902" lon="1.93578">
        <ele>361</ele>
        <time>2013-09-29T10:40:30Z</time>
      </trkpt>
      <trkpt lat="43.0491" lon="1.93584">
        <ele>362</ele>
        <time>2013-09-29T10:40:35Z</time>
      </trkpt>
      <trkpt lat="43.04921" lon="1.93588">
        <ele>363</ele>
        <time>2013-09-29T10:40:40Z</time>
      </trkpt>
      <trkpt lat="43.04933" lon="1.93591">
        <ele>363</ele>
        <time>2013-09-29T10:40:45Z</time>
      </trkpt>
      <trkpt lat="43.04944" lon="1.93596">
        <ele>363</ele>
        <time>2013-09-29T10:40:50Z</time>
      </trkpt>
      <trkpt lat="43.04956" lon="1.93599">
        <ele>363</ele>
        <time>2013-09-29T10:40:55Z</time>
      </trkpt>
      <trkpt lat="43.04964" lon="1.93589">
        <ele>363</ele>
        <time>2013-09-29T10:41:00Z</time>
      </trkpt>
      <trkpt lat="43.0497" lon="1.93575">
        <ele>364</ele>
        <time>2013-09-29T10:41:05Z</time>
      </trkpt>
      <trkpt lat="43.04975" lon="1.93557">
        <ele>367</ele>
        <time>2013-09-29T10:41:10Z</time>
      </trkpt>
      <trkpt lat="43.04979" lon="1.9354">
        <ele>369</ele>
        <time>2013-09-29T10:41:15Z</time>
      </trkpt>
      <trkpt lat="43.04983" lon="1.93521">
        <ele>372</ele>
        <time>2013-09-29T10:41:20Z</time>
      </trkpt>
      <trkpt lat="43.04986" lon="1.93507">
        <ele>372</ele>
        <time>2013-09-29T10:41:25Z</time>
      </trkpt>
      <trkpt lat="43.04992" lon="1.93478">
        <ele>372</ele>
        <time>2013-09-29T10:41:30Z</time>
      </trkpt>
      <trkpt lat="43.04998" lon="1.93444">
        <ele>373</ele>
        <time>2013-09-29T10:41:35Z</time>
      </trkpt>
      <trkpt lat="43.05003" lon="1.93414">
        <ele>373</ele>
        <time>2013-09-29T10:41:40Z</time>
      </trkpt>
      <trkpt lat="43.05012" lon="1.93398">
        <ele>373</ele>
        <time>2013-09-29T10:41:45Z</time>
      </trkpt>
      <trkpt lat="43.05014" lon="1.93394">
        <ele>373</ele>
        <time>2013-09-29T10:41:52Z</time>
      </trkpt>
      <trkpt lat="43.05017" lon="1.93393">
        <ele>373</ele>
        <time>2013-09-29T10:41:57Z</time>
      </trkpt>
      <trkpt lat="43.05027" lon="1.93383">
        <ele>373</ele>
        <time>2013-09-29T10:42:02Z</time>
      </trkpt>
      <trkpt lat="43.05042" lon="1.93377">
        <ele>373</ele>
        <time>2013-09-29T10:42:07Z</time>
      </trkpt>
      <trkpt lat="43.05057" lon="1.93371">
        <ele>374</ele>
        <time>2013-09-29T10:42:12Z</time>
      </trkpt>
      <trkpt lat="43.05075" lon="1.93365">
        <ele>374</ele>
        <time>2013-09-29T10:42:18Z</time>
      </trkpt>
      <trkpt lat="43.05093" lon="1.93359">
        <ele>374</ele>
        <time>2013-09-29T10:42:23Z</time>
      </trkpt>
      <trkpt lat="43.05111" lon="1.93354">
        <ele>374</ele>
        <time>2013-09-29T10:42:28Z</time>
      </trkpt>
      <trkpt lat="43.05115" lon="1.93354">
        <ele>372</ele>
        <time>2013-09-29T10:42:35Z</time>
      </trkpt>
      <trkpt lat="43.05114" lon="1.93355">
        <ele>371</ele>
        <time>2013-09-29T10:42:46Z</time>
      </trkpt>
      <trkpt lat="43.05109" lon="1.93355">
        <ele>371</ele>
        <time>2013-09-29T10:42:51Z</time>
      </trkpt>
      <trkpt lat="43.05099" lon="1.93355">
        <ele>372</ele>
        <time>2013-09-29T10:42:56Z</time>
      </trkpt>
      <trkpt lat="43.05082" lon="1.93359">
        <ele>377</ele>
        <time>2013-09-29T10:43:01Z</time>
      </trkpt>
      <trkpt lat="43.05063" lon="1.93365">
        <ele>380</ele>
        <time>2013-09-29T10:43:06Z</time>
      </trkpt>
      <trkpt lat="43.05039" lon="1.93376">
        <ele>381</ele>
        <time>2013-09-29T10:43:11Z</time>
      </trkpt>
      <trkpt lat="43.05013" lon="1.93394">
        <ele>381</ele>
        <time>2013-09-29T10:43:16Z</time>
      </trkpt>
      <trkpt lat="43.04999" lon="1.93421">
        <ele>380</ele>
        <time>2013-09-29T10:43:21Z</time>
      </trkpt>
      <trkpt lat="43.04994" lon="1.93453">
        <ele>378</ele>
        <time>2013-09-29T10:43:26Z</time>
      </trkpt>
      <trkpt lat="43.04987" lon="1.93487">
        <ele>378</ele>
        <time>2013-09-29T10:43:31Z</time>
      </trkpt>
      <trkpt lat="43.04984" lon="1.93515">
        <ele>378</ele>
        <time>2013-09-29T10:43:36Z</time>
      </trkpt>
      <trkpt lat="43.04997" lon="1.93529">
        <ele>378</ele>
        <time>2013-09-29T10:43:41Z</time>
      </trkpt>
      <trkpt lat="43.05008" lon="1.93506">
        <ele>378</ele>
        <time>2013-09-29T10:43:46Z</time>
      </trkpt>
      <trkpt lat="43.05021" lon="1.93476">
        <ele>378</ele>
        <time>2013-09-29T10:43:51Z</time>
      </trkpt>
      <trkpt lat="43.05037" lon="1.93452">
        <ele>378</ele>
        <time>2013-09-29T10:43:56Z</time>
      </trkpt>
      <trkpt lat="43.05053" lon="1.93445">
        <ele>378</ele>
        <time>2013-09-29T10:44:01Z</time>
      </trkpt>
      <trkpt lat="43.05069" lon="1.93461">
        <ele>378</ele>
        <time>2013-09-29T10:44:06Z</time>
      </trkpt>
      <trkpt lat="43.05089" lon="1.9348">
        <ele>378</ele>
        <time>2013-09-29T10:44:12Z</time>
      </trkpt>
      <trkpt lat="43.05106" lon="1.93499">
        <ele>378</ele>
        <time>2013-09-29T10:44:17Z</time>
      </trkpt>
      <trkpt lat="43.05122" lon="1.93514">
        <ele>378</ele>
        <time>2013-09-29T10:44:22Z</time>
      </trkpt>
      <trkpt lat="43.05136" lon="1.93519">
        <ele>378</ele>
        <time>2013-09-29T10:44:27Z</time>
      </trkpt>
      <trkpt lat="43.05141" lon="1.93517">
        <ele>378</ele>
        <time>2013-09-29T10:44:32Z</time>
      </trkpt>
      <trkpt lat="43.05144" lon="1.93516">
        <ele>378</ele>
        <time>2013-09-29T10:44:39Z</time>
      </trkpt>
      <trkpt lat="43.05144" lon="1.93514">
        <ele>379</ele>
        <time>2013-09-29T10:44:51Z</time>
      </trkpt>
      <trkpt lat="43.05143" lon="1.93515">
        <ele>379</ele>
        <time>2013-09-29T10:44:57Z</time>
      </trkpt>
      <trkpt lat="43.05142" lon="1.93515">
        <ele>379</ele>
        <time>2013-09-29T10:45:06Z</time>
      </trkpt>
      <trkpt lat="43.05142" lon="1.93514">
        <ele>379</ele>
        <time>2013-09-29T10:45:15Z</time>
      </trkpt>
      <trkpt lat="43.05142" lon="1.93512">
        <ele>379</ele>
        <time>2013-09-29T10:45:20Z</time>
      </trkpt>
      <trkpt lat="43.0514" lon="1.93507">
        <ele>379</ele>
        <time>2013-09-29T10:45:26Z</time>
      </trkpt>
      <trkpt lat="43.0514" lon="1.93508">
        <ele>379</ele>
        <time>2013-09-29T10:45:31Z</time>
      </trkpt>
      <trkpt lat="43.05142" lon="1.93517">
        <ele>379</ele>
        <time>2013-09-29T10:45:36Z</time>
      </trkpt>
      <trkpt lat="43.05142" lon="1.93516">
        <ele>379</ele>
        <time>2013-09-29T10:45:41Z</time>
      </trkpt>
      <trkpt lat="43.05143" lon="1.93516">
        <ele>379</ele>
        <time>2013-09-29T10:45:56Z</time>
      </trkpt>
      <trkpt lat="43.05144" lon="1.93514">
        <ele>379</ele>
        <time>2013-09-29T10:46:10Z</time>
      </trkpt>
      <trkpt lat="43.05138" lon="1.93502">
        <ele>379</ele>
        <time>2013-09-29T10:46:15Z</time>
      </trkpt>
      <trkpt lat="43.05133" lon="1.93499">
        <ele>381</ele>
        <time>2013-09-29T10:46:41Z</time>
      </trkpt>
      <trkpt lat="43.05133" lon="1.93498">
        <ele>381</ele>
        <time>2013-09-29T10:46:53Z</time>
      </trkpt>
      <trkpt lat="43.05135" lon="1.93497">
        <ele>381</ele>
        <time>2013-09-29T10:46:58Z</time>
      </trkpt>
      <trkpt lat="43.05142" lon="1.93499">
        <ele>381</ele>
        <time>2013-09-29T10:47:04Z</time>
      </trkpt>
      <trkpt lat="43.05145" lon="1.93499">
        <ele>381</ele>
        <time>2013-09-29T10:47:09Z</time>
      </trkpt>
      <trkpt lat="43.05159" lon="1.93496">
        <ele>381</ele>
        <time>2013-09-29T10:47:14Z</time>
      </trkpt>
      <trkpt lat="43.05175" lon="1.93497">
        <ele>381</ele>
        <time>2013-09-29T10:47:19Z</time>
      </trkpt>
      <trkpt lat="43.05191" lon="1.935">
        <ele>381</ele>
        <time>2013-09-29T10:47:24Z</time>
      </trkpt>
      <trkpt lat="43.05206" lon="1.93504">
        <ele>381</ele>
        <time>2013-09-29T10:47:29Z</time>
      </trkpt>
      <trkpt lat="43.05218" lon="1.93508">
        <ele>381</ele>
        <time>2013-09-29T10:47:34Z</time>
      </trkpt>
      <trkpt lat="43.05225" lon="1.93515">
        <ele>380</ele>
        <time>2013-09-29T10:47:39Z</time>
      </trkpt>
      <trkpt lat="43.05234" lon="1.93518">
        <ele>380</ele>
        <time>2013-09-29T10:47:44Z</time>
      </trkpt>
      <trkpt lat="43.05247" lon="1.93517">
        <ele>379</ele>
        <time>2013-09-29T10:47:49Z</time>
      </trkpt>
      <trkpt lat="43.0526" lon="1.93516">
        <ele>377</ele>
        <time>2013-09-29T10:47:56Z</time>
      </trkpt>
      <trkpt lat="43.05264" lon="1.93522">
        <ele>376</ele>
        <time>2013-09-29T10:48:02Z</time>
      </trkpt>
      <trkpt lat="43.05266" lon="1.93524">
        <ele>376</ele>
        <time>2013-09-29T10:48:07Z</time>
      </trkpt>
      <trkpt lat="43.05268" lon="1.93527">
        <ele>376</ele>
        <time>2013-09-29T10:48:13Z</time>
      </trkpt>
      <trkpt lat="43.05274" lon="1.93517">
        <ele>376</ele>
        <time>2013-09-29T10:48:18Z</time>
      </trkpt>
      <trkpt lat="43.05282" lon="1.93495">
        <ele>375</ele>
        <time>2013-09-29T10:48:23Z</time>
      </trkpt>
      <trkpt lat="43.05291" lon="1.93477">
        <ele>374</ele>
        <time>2013-09-29T10:48:28Z</time>
      </trkpt>
      <trkpt lat="43.05299" lon="1.9346">
        <ele>374</ele>
        <time>2013-09-29T10:48:33Z</time>
      </trkpt>
      <trkpt lat="43.05309" lon="1.93444">
        <ele>374</ele>
        <time>2013-09-29T10:48:38Z</time>
      </trkpt>
      <trkpt lat="43.05323" lon="1.93442">
        <ele>374</ele>
        <time>2013-09-29T10:48:43Z</time>
      </trkpt>
      <trkpt lat="43.05338" lon="1.93443">
        <ele>374</ele>
        <time>2013-09-29T10:48:48Z</time>
      </trkpt>
      <trkpt lat="43.05352" lon="1.93446">
        <ele>374</ele>
        <time>2013-09-29T10:48:53Z</time>
      </trkpt>
      <trkpt lat="43.05368" lon="1.93446">
        <ele>374</ele>
        <time>2013-09-29T10:48:58Z</time>
      </trkpt>
      <trkpt lat="43.05381" lon="1.93442">
        <ele>374</ele>
        <time>2013-09-29T10:49:03Z</time>
      </trkpt>
      <trkpt lat="43.05388" lon="1.93422">
        <ele>374</ele>
        <time>2013-09-29T10:49:09Z</time>
      </trkpt>
      <trkpt lat="43.0539" lon="1.93399">
        <ele>370</ele>
        <time>2013-09-29T10:49:14Z</time>
      </trkpt>
      <trkpt lat="43.05393" lon="1.93378">
        <ele>367</ele>
        <time>2013-09-29T10:49:19Z</time>
      </trkpt>
      <trkpt lat="43.05396" lon="1.93357">
        <ele>365</ele>
        <time>2013-09-29T10:49:24Z</time>
      </trkpt>
      <trkpt lat="43.05396" lon="1.93336">
        <ele>363</ele>
        <time>2013-09-29T10:49:29Z</time>
      </trkpt>
      <trkpt lat="43.05399" lon="1.93321">
        <ele>359</ele>
        <time>2013-09-29T10:49:34Z</time>
      </trkpt>
      <trkpt lat="43.05397" lon="1.93315">
        <ele>357</ele>
        <time>2013-09-29T10:49:39Z</time>
      </trkpt>
      <trkpt lat="43.05391" lon="1.93315">
        <ele>355</ele>
        <time>2013-09-29T10:49:44Z</time>
      </trkpt>
      <trkpt lat="43.05386" lon="1.93314">
        <ele>355</ele>
        <time>2013-09-29T10:49:51Z</time>
      </trkpt>
      <trkpt lat="43.05386" lon="1.93312">
        <ele>363</ele>
        <time>2013-09-29T10:50:00Z</time>
      </trkpt>
      <trkpt lat="43.05388" lon="1.93311">
        <ele>370</ele>
        <time>2013-09-29T10:50:07Z</time>
      </trkpt>
      <trkpt lat="43.05397" lon="1.93312">
        <ele>370</ele>
        <time>2013-09-29T10:50:12Z</time>
      </trkpt>
      <trkpt lat="43.05402" lon="1.93304">
        <ele>370</ele>
        <time>2013-09-29T10:50:17Z</time>
      </trkpt>
      <trkpt lat="43.05407" lon="1.93281">
        <ele>368</ele>
        <time>2013-09-29T10:50:22Z</time>
      </trkpt>
      <trkpt lat="43.0541" lon="1.93253">
        <ele>362</ele>
        <time>2013-09-29T10:50:28Z</time>
      </trkpt>
      <trkpt lat="43.05411" lon="1.93228">
        <ele>359</ele>
        <time>2013-09-29T10:50:33Z</time>
      </trkpt>
      <trkpt lat="43.05412" lon="1.93206">
        <ele>358</ele>
        <time>2013-09-29T10:50:38Z</time>
      </trkpt>
      <trkpt lat="43.05415" lon="1.93183">
        <ele>358</ele>
        <time>2013-09-29T10:50:43Z</time>
      </trkpt>
      <trkpt lat="43.05418" lon="1.93159">
        <ele>357</ele>
        <time>2013-09-29T10:50:48Z</time>
      </trkpt>
      <trkpt lat="43.05421" lon="1.93136">
        <ele>357</ele>
        <time>2013-09-29T10:50:53Z</time>
      </trkpt>
      <trkpt lat="43.05424" lon="1.93113">
        <ele>357</ele>
        <time>2013-09-29T10:50:58Z</time>
      </trkpt>
      <trkpt lat="43.05426" lon="1.93089">
        <ele>357</ele>
        <time>2013-09-29T10:51:03Z</time>
      </trkpt>
      <trkpt lat="43.05428" lon="1.93061">
        <ele>357</ele>
        <time>2013-09-29T10:51:09Z</time>
      </trkpt>
      <trkpt lat="43.05428" lon="1.93038">
        <ele>357</ele>
        <time>2013-09-29T10:51:14Z</time>
      </trkpt>
      <trkpt lat="43.05431" lon="1.93016">
        <ele>357</ele>
        <time>2013-09-29T10:51:19Z</time>
      </trkpt>
      <trkpt lat="43.05436" lon="1.92994">
        <ele>357</ele>
        <time>2013-09-29T10:51:24Z</time>
      </trkpt>
      <trkpt lat="43.05438" lon="1.92971">
        <ele>357</ele>
        <time>2013-09-29T10:51:29Z</time>
      </trkpt>
      <trkpt lat="43.05441" lon="1.92949">
        <ele>357</ele>
        <time>2013-09-29T10:51:34Z</time>
      </trkpt>
      <trkpt lat="43.05444" lon="1.92928">
        <ele>356</ele>
        <time>2013-09-29T10:51:39Z</time>
      </trkpt>
      <trkpt lat="43.05446" lon="1.92905">
        <ele>356</ele>
        <time>2013-09-29T10:51:44Z</time>
      </trkpt>
      <trkpt lat="43.05448" lon="1.92883">
        <ele>356</ele>
        <time>2013-09-29T10:51:49Z</time>
      </trkpt>
      <trkpt lat="43.05452" lon="1.92862">
        <ele>356</ele>
        <time>2013-09-29T10:51:54Z</time>
      </trkpt>
      <trkpt lat="43.05455" lon="1.92841">
        <ele>356</ele>
        <time>2013-09-29T10:51:59Z</time>
      </trkpt>
      <trkpt lat="43.05458" lon="1.92821">
        <ele>355</ele>
        <time>2013-09-29T10:52:04Z</time>
      </trkpt>
      <trkpt lat="43.05447" lon="1.92807">
        <ele>353</ele>
        <time>2013-09-29T10:52:09Z</time>
      </trkpt>
      <trkpt lat="43.05424" lon="1.9281">
        <ele>353</ele>
        <time>2013-09-29T10:52:15Z</time>
      </trkpt>
      <trkpt lat="43.05408" lon="1.92812">
        <ele>353</ele>
        <time>2013-09-29T10:52:20Z</time>
      </trkpt>
      <trkpt lat="43.05392" lon="1.92813">
        <ele>353</ele>
        <time>2013-09-29T10:52:25Z</time>
      </trkpt>
      <trkpt lat="43.05374" lon="1.92817">
        <ele>353</ele>
        <time>2013-09-29T10:52:30Z</time>
      </trkpt>
      <trkpt lat="43.05357" lon="1.92821">
        <ele>353</ele>
        <time>2013-09-29T10:52:35Z</time>
      </trkpt>
      <trkpt lat="43.05342" lon="1.92824">
        <ele>353</ele>
        <time>2013-09-29T10:52:40Z</time>
      </trkpt>
      <trkpt lat="43.05326" lon="1.92826">
        <ele>353</ele>
        <time>2013-09-29T10:52:45Z</time>
      </trkpt>
      <trkpt lat="43.0531" lon="1.9283">
        <ele>353</ele>
        <time>2013-09-29T10:52:50Z</time>
      </trkpt>
      <trkpt lat="43.05295" lon="1.92831">
        <ele>353</ele>
        <time>2013-09-29T10:52:55Z</time>
      </trkpt>
      <trkpt lat="43.05279" lon="1.92833">
        <ele>353</ele>
        <time>2013-09-29T10:53:00Z</time>
      </trkpt>
      <trkpt lat="43.05263" lon="1.92834">
        <ele>353</ele>
        <time>2013-09-29T10:53:05Z</time>
      </trkpt>
      <trkpt lat="43.05247" lon="1.92836">
        <ele>352</ele>
        <time>2013-09-29T10:53:10Z</time>
      </trkpt>
      <trkpt lat="43.0523" lon="1.92839">
        <ele>351</ele>
        <time>2013-09-29T10:53:15Z</time>
      </trkpt>
      <trkpt lat="43.05214" lon="1.92842">
        <ele>351</ele>
        <time>2013-09-29T10:53:20Z</time>
      </trkpt>
      <trkpt lat="43.05198" lon="1.92844">
        <ele>351</ele>
        <time>2013-09-29T10:53:25Z</time>
      </trkpt>
      <trkpt lat="43.05182" lon="1.92847">
        <ele>350</ele>
        <time>2013-09-29T10:53:30Z</time>
      </trkpt>
      <trkpt lat="43.05165" lon="1.9285">
        <ele>350</ele>
        <time>2013-09-29T10:53:35Z</time>
      </trkpt>
      <trkpt lat="43.0515" lon="1.92852">
        <ele>349</ele>
        <time>2013-09-29T10:53:40Z</time>
      </trkpt>
      <trkpt lat="43.05136" lon="1.92853">
        <ele>348</ele>
        <time>2013-09-29T10:53:45Z</time>
      </trkpt>
      <trkpt lat="43.05131" lon="1.92852">
        <ele>347</ele>
        <time>2013-09-29T10:53:51Z</time>
      </trkpt>
      <trkpt lat="43.05137" lon="1.92851">
        <ele>347</ele>
        <time>2013-09-29T10:53:58Z</time>
      </trkpt>
      <trkpt lat="43.05139" lon="1.92849">
        <ele>347</ele>
        <time>2013-09-29T10:54:08Z</time>
      </trkpt>
      <trkpt lat="43.0514" lon="1.92845">
        <ele>347</ele>
        <time>2013-09-29T10:54:14Z</time>
      </trkpt>
      <trkpt lat="43.05138" lon="1.92833">
        <ele>347</ele>
        <time>2013-09-29T10:54:19Z</time>
      </trkpt>
      <trkpt lat="43.05131" lon="1.92829">
        <ele>347</ele>
        <time>2013-09-29T10:54:25Z</time>
      </trkpt>
      <trkpt lat="43.05126" lon="1.92813">
        <ele>345</ele>
        <time>2013-09-29T10:54:30Z</time>
      </trkpt>
      <trkpt lat="43.05121" lon="1.92785">
        <ele>345</ele>
        <time>2013-09-29T10:54:36Z</time>
      </trkpt>
      <trkpt lat="43.05117" lon="1.92763">
        <ele>345</ele>
        <time>2013-09-29T10:54:41Z</time>
      </trkpt>
      <trkpt lat="43.05114" lon="1.9274">
        <ele>345</ele>
        <time>2013-09-29T10:54:46Z</time>
      </trkpt>
      <trkpt lat="43.05111" lon="1.92715">
        <ele>345</ele>
        <time>2013-09-29T10:54:52Z</time>
      </trkpt>
      <trkpt lat="43.05106" lon="1.92689">
        <ele>346</ele>
        <time>2013-09-29T10:54:58Z</time>
      </trkpt>
      <trkpt lat="43.05102" lon="1.92668">
        <ele>347</ele>
        <time>2013-09-29T10:55:03Z</time>
      </trkpt>
      <trkpt lat="43.05099" lon="1.92648">
        <ele>347</ele>
        <time>2013-09-29T10:55:08Z</time>
      </trkpt>
      <trkpt lat="43.05093" lon="1.92624">
        <ele>347</ele>
        <time>2013-09-29T10:55:14Z</time>
      </trkpt>
      <trkpt lat="43.0509" lon="1.92603">
        <ele>348</ele>
        <time>2013-09-29T10:55:19Z</time>
      </trkpt>
      <trkpt lat="43.05088" lon="1.92582">
        <ele>349</ele>
        <time>2013-09-29T10:55:24Z</time>
      </trkpt>
      <trkpt lat="43.05087" lon="1.92562">
        <ele>350</ele>
        <time>2013-09-29T10:55:29Z</time>
      </trkpt>
      <trkpt lat="43.05085" lon="1.92541">
        <ele>350</ele>
        <time>2013-09-29T10:55:34Z</time>
      </trkpt>
      <trkpt lat="43.05082" lon="1.9252">
        <ele>350</ele>
        <time>2013-09-29T10:55:39Z</time>
      </trkpt>
      <trkpt lat="43.05079" lon="1.92496">
        <ele>350</ele>
        <time>2013-09-29T10:55:45Z</time>
      </trkpt>
      <trkpt lat="43.05077" lon="1.92477">
        <ele>350</ele>
        <time>2013-09-29T10:55:50Z</time>
      </trkpt>
      <trkpt lat="43.05084" lon="1.92469">
        <ele>350</ele>
        <time>2013-09-29T10:55:56Z</time>
      </trkpt>
      <trkpt lat="43.05094" lon="1.9248">
        <ele>348</ele>
        <time>2013-09-29T10:56:01Z</time>
      </trkpt>
      <trkpt lat="43.05098" lon="1.92493">
        <ele>343</ele>
        <time>2013-09-29T10:56:06Z</time>
      </trkpt>
      <trkpt lat="43.05101" lon="1.92516">
        <ele>341</ele>
        <time>2013-09-29T10:56:12Z</time>
      </trkpt>
      <trkpt lat="43.05103" lon="1.92542">
        <ele>341</ele>
        <time>2013-09-29T10:56:18Z</time>
      </trkpt>
      <trkpt lat="43.05105" lon="1.92565">
        <ele>341</ele>
        <time>2013-09-29T10:56:24Z</time>
      </trkpt>
      <trkpt lat="43.05109" lon="1.92588">
        <ele>341</ele>
        <time>2013-09-29T10:56:30Z</time>
      </trkpt>
      <trkpt lat="43.05111" lon="1.92606">
        <ele>341</ele>
        <time>2013-09-29T10:56:35Z</time>
      </trkpt>
      <trkpt lat="43.05114" lon="1.92623">
        <ele>341</ele>
        <time>2013-09-29T10:56:40Z</time>
      </trkpt>
      <trkpt lat="43.05118" lon="1.92644">
        <ele>341</ele>
        <time>2013-09-29T10:56:46Z</time>
      </trkpt>
      <trkpt lat="43.05124" lon="1.9266">
        <ele>341</ele>
        <time>2013-09-29T10:56:51Z</time>
      </trkpt>
      <trkpt lat="43.0513" lon="1.92674">
        <ele>341</ele>
        <time>2013-09-29T10:56:56Z</time>
      </trkpt>
      <trkpt lat="43.05127" lon="1.9268">
        <ele>341</ele>
        <time>2013-09-29T10:57:01Z</time>
      </trkpt>
      <trkpt lat="43.05122" lon="1.92678">
        <ele>341</ele>
        <time>2013-09-29T10:57:08Z</time>
      </trkpt>
      <trkpt lat="43.05121" lon="1.92676">
        <ele>341</ele>
        <time>2013-09-29T10:57:19Z</time>
      </trkpt>
      <trkpt lat="43.05125" lon="1.92675">
        <ele>341</ele>
        <time>2013-09-29T10:57:25Z</time>
      </trkpt>
      <trkpt lat="43.05128" lon="1.92669">
        <ele>341</ele>
        <time>2013-09-29T10:57:30Z</time>
      </trkpt>
      <trkpt lat="43.05124" lon="1.92654">
        <ele>341</ele>
        <time>2013-09-29T10:57:35Z</time>
      </trkpt>
      <trkpt lat="43.05116" lon="1.92631">
        <ele>341</ele>
        <time>2013-09-29T10:57:40Z</time>
      </trkpt>
      <trkpt lat="43.0511" lon="1.92606">
        <ele>341</ele>
        <time>2013-09-29T10:57:45Z</time>
      </trkpt>
      <trkpt lat="43.05103" lon="1.92582">
        <ele>341</ele>
        <time>2013-09-29T10:57:50Z</time>
      </trkpt>
      <trkpt lat="43.05101" lon="1.92558">
        <ele>341</ele>
        <time>2013-09-29T10:57:55Z</time>
      </trkpt>
      <trkpt lat="43.05097" lon="1.92535">
        <ele>340</ele>
        <time>2013-09-29T10:58:00Z</time>
      </trkpt>
      <trkpt lat="43.05095" lon="1.92509">
        <ele>339</ele>
        <time>2013-09-29T10:58:06Z</time>
      </trkpt>
      <trkpt lat="43.05093" lon="1.92488">
        <ele>339</ele>
        <time>2013-09-29T10:58:11Z</time>
      </trkpt>
      <trkpt lat="43.05083" lon="1.92482">
        <ele>339</ele>
        <time>2013-09-29T10:58:16Z</time>
      </trkpt>
      <trkpt lat="43.05066" lon="1.92493">
        <ele>338</ele>
        <time>2013-09-29T10:58:22Z</time>
      </trkpt>
      <trkpt lat="43.05052" lon="1.92501">
        <ele>336</ele>
        <time>2013-09-29T10:58:27Z</time>
      </trkpt>
      <trkpt lat="43.05038" lon="1.92507">
        <ele>334</ele>
        <time>2013-09-29T10:58:32Z</time>
      </trkpt>
      <trkpt lat="43.05023" lon="1.92514">
        <ele>332</ele>
        <time>2013-09-29T10:58:37Z</time>
      </trkpt>
      <trkpt lat="43.05011" lon="1.9252">
        <ele>330</ele>
        <time>2013-09-29T10:58:42Z</time>
      </trkpt>
      <trkpt lat="43.04998" lon="1.92529">
        <ele>329</ele>
        <time>2013-09-29T10:58:47Z</time>
      </trkpt>
      <trkpt lat="43.04984" lon="1.92539">
        <ele>328</ele>
        <time>2013-09-29T10:58:52Z</time>
      </trkpt>
      <trkpt lat="43.04969" lon="1.92549">
        <ele>328</ele>
        <time>2013-09-29T10:58:57Z</time>
      </trkpt>
      <trkpt lat="43.04955" lon="1.92561">
        <ele>328</ele>
        <time>2013-09-29T10:59:02Z</time>
      </trkpt>
      <trkpt lat="43.04941" lon="1.9257">
        <ele>328</ele>
        <time>2013-09-29T10:59:07Z</time>
      </trkpt>
      <trkpt lat="43.04928" lon="1.92581">
        <ele>328</ele>
        <time>2013-09-29T10:59:12Z</time>
      </trkpt>
      <trkpt lat="43.04914" lon="1.9259">
        <ele>328</ele>
        <time>2013-09-29T10:59:17Z</time>
      </trkpt>
      <trkpt lat="43.04899" lon="1.92603">
        <ele>328</ele>
        <time>2013-09-29T10:59:23Z</time>
      </trkpt>
      <trkpt lat="43.04886" lon="1.92609">
        <ele>328</ele>
        <time>2013-09-29T10:59:28Z</time>
      </trkpt>
      <trkpt lat="43.04875" lon="1.9261">
        <ele>328</ele>
        <time>2013-09-29T10:59:33Z</time>
      </trkpt>
      <trkpt lat="43.04868" lon="1.92593">
        <ele>328</ele>
        <time>2013-09-29T10:59:38Z</time>
      </trkpt>
      <trkpt lat="43.04855" lon="1.92588">
        <ele>330</ele>
        <time>2013-09-29T10:59:43Z</time>
      </trkpt>
      <trkpt lat="43.04839" lon="1.9259">
        <ele>334</ele>
        <time>2013-09-29T10:59:48Z</time>
      </trkpt>
      <trkpt lat="43.04824" lon="1.92589">
        <ele>335</ele>
        <time>2013-09-29T10:59:53Z</time>
      </trkpt>
      <trkpt lat="43.04808" lon="1.92591">
        <ele>335</ele>
        <time>2013-09-29T10:59:58Z</time>
      </trkpt>
      <trkpt lat="43.04793" lon="1.9259">
        <ele>335</ele>
        <time>2013-09-29T11:00:03Z</time>
      </trkpt>
      <trkpt lat="43.04777" lon="1.92593">
        <ele>335</ele>
        <time>2013-09-29T11:00:09Z</time>
      </trkpt>
      <trkpt lat="43.04766" lon="1.92597">
        <ele>335</ele>
        <time>2013-09-29T11:00:14Z</time>
      </trkpt>
      <trkpt lat="43.04758" lon="1.92598">
        <ele>335</ele>
        <time>2013-09-29T11:00:19Z</time>
      </trkpt>
      <trkpt lat="43.04746" lon="1.92601">
        <ele>338</ele>
        <time>2013-09-29T11:00:24Z</time>
      </trkpt>
      <trkpt lat="43.0473" lon="1.92598">
        <ele>339</ele>
        <time>2013-09-29T11:00:29Z</time>
      </trkpt>
      <trkpt lat="43.04718" lon="1.9259">
        <ele>339</ele>
        <time>2013-09-29T11:00:34Z</time>
      </trkpt>
      <trkpt lat="43.04716" lon="1.92584">
        <ele>339</ele>
        <time>2013-09-29T11:00:41Z</time>
      </trkpt>
      <trkpt lat="43.04719" lon="1.92584">
        <ele>340</ele>
        <time>2013-09-29T11:00:46Z</time>
      </trkpt>
      <trkpt lat="43.04723" lon="1.92584">
        <ele>343</ele>
        <time>2013-09-29T11:00:58Z</time>
      </trkpt>
      <trkpt lat="43.04712" lon="1.92582">
        <ele>343</ele>
        <time>2013-09-29T11:01:03Z</time>
      </trkpt>
      <trkpt lat="43.04688" lon="1.92576">
        <ele>343</ele>
        <time>2013-09-29T11:01:09Z</time>
      </trkpt>
      <trkpt lat="43.04671" lon="1.92568">
        <ele>341</ele>
        <time>2013-09-29T11:01:14Z</time>
      </trkpt>
      <trkpt lat="43.04654" lon="1.92561">
        <ele>339</ele>
        <time>2013-09-29T11:01:19Z</time>
      </trkpt>
      <trkpt lat="43.04634" lon="1.92558">
        <ele>338</ele>
        <time>2013-09-29T11:01:24Z</time>
      </trkpt>
      <trkpt lat="43.04617" lon="1.92549">
        <ele>337</ele>
        <time>2013-09-29T11:01:30Z</time>
      </trkpt>
      <trkpt lat="43.046" lon="1.92543">
        <ele>337</ele>
        <time>2013-09-29T11:01:35Z</time>
      </trkpt>
      <trkpt lat="43.04585" lon="1.92536">
        <ele>337</ele>
        <time>2013-09-29T11:01:40Z</time>
      </trkpt>
      <trkpt lat="43.0457" lon="1.9253">
        <ele>337</ele>
        <time>2013-09-29T11:01:45Z</time>
      </trkpt>
      <trkpt lat="43.04556" lon="1.92524">
        <ele>337</ele>
        <time>2013-09-29T11:01:50Z</time>
      </trkpt>
      <trkpt lat="43.04541" lon="1.9252">
        <ele>337</ele>
        <time>2013-09-29T11:01:55Z</time>
      </trkpt>
      <trkpt lat="43.04528" lon="1.92515">
        <ele>337</ele>
        <time>2013-09-29T11:02:00Z</time>
      </trkpt>
      <trkpt lat="43.04513" lon="1.9251">
        <ele>337</ele>
        <time>2013-09-29T11:02:05Z</time>
      </trkpt>
      <trkpt lat="43.04499" lon="1.92505">
        <ele>338</ele>
        <time>2013-09-29T11:02:10Z</time>
      </trkpt>
      <trkpt lat="43.04486" lon="1.925">
        <ele>339</ele>
        <time>2013-09-29T11:02:15Z</time>
      </trkpt>
      <trkpt lat="43.04473" lon="1.92495">
        <ele>340</ele>
        <time>2013-09-29T11:02:20Z</time>
      </trkpt>
      <trkpt lat="43.04461" lon="1.92491">
        <ele>342</ele>
        <time>2013-09-29T11:02:25Z</time>
      </trkpt>
      <trkpt lat="43.04448" lon="1.92485">
        <ele>343</ele>
        <time>2013-09-29T11:02:30Z</time>
      </trkpt>
      <trkpt lat="43.04434" lon="1.92481">
        <ele>344</ele>
        <time>2013-09-29T11:02:35Z</time>
      </trkpt>
      <trkpt lat="43.04421" lon="1.92477">
        <ele>346</ele>
        <time>2013-09-29T11:02:40Z</time>
      </trkpt>
      <trkpt lat="43.04408" lon="1.92471">
        <ele>346</ele>
        <time>2013-09-29T11:02:45Z</time>
      </trkpt>
      <trkpt lat="43.04396" lon="1.92467">
        <ele>346</ele>
        <time>2013-09-29T11:02:50Z</time>
      </trkpt>
      <trkpt lat="43.04386" lon="1.92473">
        <ele>346</ele>
        <time>2013-09-29T11:02:55Z</time>
      </trkpt>
      <trkpt lat="43.04382" lon="1.92491">
        <ele>346</ele>
        <time>2013-09-29T11:03:00Z</time>
      </trkpt>
      <trkpt lat="43.04379" lon="1.92509">
        <ele>346</ele>
        <time>2013-09-29T11:03:05Z</time>
      </trkpt>
      <trkpt lat="43.04376" lon="1.92529">
        <ele>346</ele>
        <time>2013-09-29T11:03:10Z</time>
      </trkpt>
      <trkpt lat="43.04369" lon="1.92545">
        <ele>346</ele>
        <time>2013-09-29T11:03:15Z</time>
      </trkpt>
      <trkpt lat="43.04356" lon="1.9255">
        <ele>346</ele>
        <time>2013-09-29T11:03:20Z</time>
      </trkpt>
      <trkpt lat="43.04344" lon="1.92547">
        <ele>346</ele>
        <time>2013-09-29T11:03:25Z</time>
      </trkpt>
      <trkpt lat="43.04335" lon="1.92542">
        <ele>346</ele>
        <time>2013-09-29T11:03:30Z</time>
      </trkpt>
      <trkpt lat="43.04325" lon="1.92536">
        <ele>346</ele>
        <time>2013-09-29T11:03:35Z</time>
      </trkpt>
      <trkpt lat="43.04314" lon="1.9253">
        <ele>346</ele>
        <time>2013-09-29T11:03:40Z</time>
      </trkpt>
      <trkpt lat="43.04301" lon="1.92524">
        <ele>346</ele>
        <time>2013-09-29T11:03:45Z</time>
      </trkpt>
      <trkpt lat="43.04289" lon="1.92519">
        <ele>347</ele>
        <time>2013-09-29T11:03:50Z</time>
      </trkpt>
      <trkpt lat="43.04278" lon="1.9252">
        <ele>347</ele>
        <time>2013-09-29T11:03:55Z</time>
      </trkpt>
      <trkpt lat="43.04274" lon="1.92541">
        <ele>347</ele>
        <time>2013-09-29T11:04:00Z</time>
      </trkpt>
      <trkpt lat="43.04271" lon="1.92562">
        <ele>347</ele>
        <time>2013-09-29T11:04:05Z</time>
      </trkpt>
      <trkpt lat="43.04268" lon="1.92582">
        <ele>347</ele>
        <time>2013-09-29T11:04:10Z</time>
      </trkpt>
      <trkpt lat="43.04263" lon="1.92602">
        <ele>347</ele>
        <time>2013-09-29T11:04:15Z</time>
      </trkpt>
      <trkpt lat="43.04258" lon="1.92618">
        <ele>347</ele>
        <time>2013-09-29T11:04:20Z</time>
      </trkpt>
      <trkpt lat="43.0425" lon="1.92629">
        <ele>345</ele>
        <time>2013-09-29T11:04:25Z</time>
      </trkpt>
      <trkpt lat="43.04246" lon="1.92635">
        <ele>343</ele>
        <time>2013-09-29T11:04:32Z</time>
      </trkpt>
      <trkpt lat="43.04237" lon="1.92655">
        <ele>339</ele>
        <time>2013-09-29T11:04:38Z</time>
      </trkpt>
      <trkpt lat="43.04227" lon="1.92672">
        <ele>337</ele>
        <time>2013-09-29T11:04:43Z</time>
      </trkpt>
      <trkpt lat="43.04219" lon="1.92689">
        <ele>335</ele>
        <time>2013-09-29T11:04:48Z</time>
      </trkpt>
      <trkpt lat="43.04206" lon="1.92695">
        <ele>333</ele>
        <time>2013-09-29T11:04:53Z</time>
      </trkpt>
      <trkpt lat="43.04197" lon="1.9269">
        <ele>332</ele>
        <time>2013-09-29T11:04:58Z</time>
      </trkpt>
      <trkpt lat="43.04193" lon="1.92691">
        <ele>332</ele>
        <time>2013-09-29T11:05:03Z</time>
      </trkpt>
      <trkpt lat="43.04187" lon="1.92695">
        <ele>332</ele>
        <time>2013-09-29T11:05:09Z</time>
      </trkpt>
      <trkpt lat="43.04191" lon="1.92693">
        <ele>332</ele>
        <time>2013-09-29T11:05:14Z</time>
      </trkpt>
      <trkpt lat="43.04197" lon="1.92689">
        <ele>332</ele>
        <time>2013-09-29T11:05:19Z</time>
      </trkpt>
      <trkpt lat="43.04202" lon="1.92696">
        <ele>331</ele>
        <time>2013-09-29T11:05:24Z</time>
      </trkpt>
      <trkpt lat="43.04202" lon="1.927">
        <ele>331</ele>
        <time>2013-09-29T11:05:30Z</time>
      </trkpt>
      <trkpt lat="43.04197" lon="1.92694">
        <ele>331</ele>
        <time>2013-09-29T11:05:35Z</time>
      </trkpt>
      <trkpt lat="43.04188" lon="1.92696">
        <ele>331</ele>
        <time>2013-09-29T11:05:40Z</time>
      </trkpt>
      <trkpt lat="43.04187" lon="1.92699">
        <ele>331</ele>
        <time>2013-09-29T11:05:47Z</time>
      </trkpt>
      <trkpt lat="43.04191" lon="1.92694">
        <ele>331</ele>
        <time>2013-09-29T11:05:52Z</time>
      </trkpt>
      <trkpt lat="43.04198" lon="1.92689">
        <ele>331</ele>
        <time>2013-09-29T11:05:57Z</time>
      </trkpt>
      <trkpt lat="43.04201" lon="1.92699">
        <ele>331</ele>
        <time>2013-09-29T11:06:02Z</time>
      </trkpt>
      <trkpt lat="43.04198" lon="1.92704">
        <ele>331</ele>
        <time>2013-09-29T11:06:07Z</time>
      </trkpt>
      <trkpt lat="43.04197" lon="1.92709">
        <ele>333</ele>
        <time>2013-09-29T11:06:19Z</time>
      </trkpt>
      <trkpt lat="43.04203" lon="1.92708">
        <ele>333</ele>
        <time>2013-09-29T11:06:25Z</time>
      </trkpt>
      <trkpt lat="43.04209" lon="1.92711">
        <ele>333</ele>
        <time>2013-09-29T11:06:30Z</time>
      </trkpt>
      <trkpt lat="43.04211" lon="1.92732">
        <ele>333</ele>
        <time>2013-09-29T11:06:35Z</time>
      </trkpt>
      <trkpt lat="43.04209" lon="1.9276">
        <ele>333</ele>
        <time>2013-09-29T11:06:41Z</time>
      </trkpt>
      <trkpt lat="43.04209" lon="1.92783">
        <ele>333</ele>
        <time>2013-09-29T11:06:46Z</time>
      </trkpt>
      <trkpt lat="43.04209" lon="1.92805">
        <ele>333</ele>
        <time>2013-09-29T11:06:51Z</time>
      </trkpt>
      <trkpt lat="43.0421" lon="1.92826">
        <ele>333</ele>
        <time>2013-09-29T11:06:56Z</time>
      </trkpt>
      <trkpt lat="43.04211" lon="1.92848">
        <ele>333</ele>
        <time>2013-09-29T11:07:01Z</time>
      </trkpt>
      <trkpt lat="43.04215" lon="1.92869">
        <ele>333</ele>
        <time>2013-09-29T11:07:06Z</time>
      </trkpt>
      <trkpt lat="43.04216" lon="1.92892">
        <ele>333</ele>
        <time>2013-09-29T11:07:11Z</time>
      </trkpt>
      <trkpt lat="43.04218" lon="1.92914">
        <ele>332</ele>
        <time>2013-09-29T11:07:16Z</time>
      </trkpt>
      <trkpt lat="43.04221" lon="1.92936">
        <ele>330</ele>
        <time>2013-09-29T11:07:21Z</time>
      </trkpt>
      <trkpt lat="43.04222" lon="1.92958">
        <ele>329</ele>
        <time>2013-09-29T11:07:26Z</time>
      </trkpt>
      <trkpt lat="43.04224" lon="1.92981">
        <ele>327</ele>
        <time>2013-09-29T11:07:31Z</time>
      </trkpt>
      <trkpt lat="43.04227" lon="1.93003">
        <ele>326</ele>
        <time>2013-09-29T11:07:36Z</time>
      </trkpt>
      <trkpt lat="43.0423" lon="1.93025">
        <ele>325</ele>
        <time>2013-09-29T11:07:41Z</time>
      </trkpt>
      <trkpt lat="43.04232" lon="1.93046">
        <ele>324</ele>
        <time>2013-09-29T11:07:46Z</time>
      </trkpt>
      <trkpt lat="43.04235" lon="1.93067">
        <ele>324</ele>
        <time>2013-09-29T11:07:51Z</time>
      </trkpt>
      <trkpt lat="43.04236" lon="1.93085">
        <ele>324</ele>
        <time>2013-09-29T11:07:56Z</time>
      </trkpt>
      <trkpt lat="43.04237" lon="1.93104">
        <ele>324</ele>
        <time>2013-09-29T11:08:01Z</time>
      </trkpt>
      <trkpt lat="43.04237" lon="1.93124">
        <ele>324</ele>
        <time>2013-09-29T11:08:06Z</time>
      </trkpt>
      <trkpt lat="43.04239" lon="1.93143">
        <ele>324</ele>
        <time>2013-09-29T11:08:11Z</time>
      </trkpt>
      <trkpt lat="43.0424" lon="1.93163">
        <ele>324</ele>
        <time>2013-09-29T11:08:16Z</time>
      </trkpt>
      <trkpt lat="43.04242" lon="1.93183">
        <ele>324</ele>
        <time>2013-09-29T11:08:21Z</time>
      </trkpt>
      <trkpt lat="43.04243" lon="1.93203">
        <ele>324</ele>
        <time>2013-09-29T11:08:26Z</time>
      </trkpt>
      <trkpt lat="43.04246" lon="1.93223">
        <ele>324</ele>
        <time>2013-09-29T11:08:31Z</time>
      </trkpt>
      <trkpt lat="43.04249" lon="1.93244">
        <ele>324</ele>
        <time>2013-09-29T11:08:36Z</time>
      </trkpt>
      <trkpt lat="43.0425" lon="1.93262">
        <ele>324</ele>
        <time>2013-09-29T11:08:41Z</time>
      </trkpt>
      <trkpt lat="43.0425" lon="1.9328">
        <ele>324</ele>
        <time>2013-09-29T11:08:46Z</time>
      </trkpt>
      <trkpt lat="43.04243" lon="1.93295">
        <ele>324</ele>
        <time>2013-09-29T11:08:51Z</time>
      </trkpt>
      <trkpt lat="43.04232" lon="1.93302">
        <ele>324</ele>
        <time>2013-09-29T11:08:56Z</time>
      </trkpt>
      <trkpt lat="43.04219" lon="1.93301">
        <ele>324</ele>
        <time>2013-09-29T11:09:01Z</time>
      </trkpt>
      <trkpt lat="43.04205" lon="1.93298">
        <ele>324</ele>
        <time>2013-09-29T11:09:06Z</time>
      </trkpt>
      <trkpt lat="43.04189" lon="1.93302">
        <ele>324</ele>
        <time>2013-09-29T11:09:11Z</time>
      </trkpt>
      <trkpt lat="43.04175" lon="1.93305">
        <ele>324</ele>
        <time>2013-09-29T11:09:16Z</time>
      </trkpt>
      <trkpt lat="43.04162" lon="1.93309">
        <ele>324</ele>
        <time>2013-09-29T11:09:21Z</time>
      </trkpt>
      <trkpt lat="43.0415" lon="1.93316">
        <ele>324</ele>
        <time>2013-09-29T11:09:26Z</time>
      </trkpt>
      <trkpt lat="43.04139" lon="1.93325">
        <ele>324</ele>
        <time>2013-09-29T11:09:31Z</time>
      </trkpt>
      <trkpt lat="43.0413" lon="1.93341">
        <ele>324</ele>
        <time>2013-09-29T11:09:36Z</time>
      </trkpt>
      <trkpt lat="43.04118" lon="1.93349">
        <ele>324</ele>
        <time>2013-09-29T11:09:41Z</time>
      </trkpt>
      <trkpt lat="43.04103" lon="1.93352">
        <ele>324</ele>
        <time>2013-09-29T11:09:46Z</time>
      </trkpt>
      <trkpt lat="43.04091" lon="1.93355">
        <ele>324</ele>
        <time>2013-09-29T11:09:51Z</time>
      </trkpt>
      <trkpt lat="43.0408" lon="1.93359">
        <ele>324</ele>
        <time>2013-09-29T11:09:56Z</time>
      </trkpt>
      <trkpt lat="43.04069" lon="1.93365">
        <ele>324</ele>
        <time>2013-09-29T11:10:01Z</time>
      </trkpt>
      <trkpt lat="43.04056" lon="1.93366">
        <ele>325</ele>
        <time>2013-09-29T11:10:06Z</time>
      </trkpt>
      <trkpt lat="43.04045" lon="1.93365">
        <ele>325</ele>
        <time>2013-09-29T11:10:11Z</time>
      </trkpt>
      <trkpt lat="43.04039" lon="1.9337">
        <ele>325</ele>
        <time>2013-09-29T11:10:17Z</time>
      </trkpt>
      <trkpt lat="43.04038" lon="1.93376">
        <ele>325</ele>
        <time>2013-09-29T11:10:23Z</time>
      </trkpt>
      <trkpt lat="43.04038" lon="1.93379">
        <ele>325</ele>
        <time>2013-09-29T11:10:31Z</time>
      </trkpt>
      <trkpt lat="43.04037" lon="1.93383">
        <ele>325</ele>
        <time>2013-09-29T11:10:38Z</time>
      </trkpt>
      <trkpt lat="43.04034" lon="1.93385">
        <ele>325</ele>
        <time>2013-09-29T11:10:47Z</time>
      </trkpt>
      <trkpt lat="43.04033" lon="1.93385">
        <ele>325</ele>
        <time>2013-09-29T11:11:00Z</time>
      </trkpt>
      <trkpt lat="43.04033" lon="1.93384">
        <ele>325</ele>
        <time>2013-09-29T11:11:05Z</time>
      </trkpt>
      <trkpt lat="43.04033" lon="1.93378">
        <ele>325</ele>
        <time>2013-09-29T11:11:11Z</time>
      </trkpt>
      <trkpt lat="43.04035" lon="1.93372">
        <ele>325</ele>
        <time>2013-09-29T11:11:17Z</time>
      </trkpt>
      <trkpt lat="43.04036" lon="1.93367">
        <ele>325</ele>
        <time>2013-09-29T11:11:23Z</time>
      </trkpt>
      <trkpt lat="43.04037" lon="1.93365">
        <ele>325</ele>
        <time>2013-09-29T11:11:32Z</time>
      </trkpt>
      <trkpt lat="43.04037" lon="1.93363">
        <ele>325</ele>
        <time>2013-09-29T11:11:38Z</time>
      </trkpt>
      <trkpt lat="43.04034" lon="1.93363">
        <ele>325</ele>
        <time>2013-09-29T11:11:44Z</time>
      </trkpt>
      <trkpt lat="43.04036" lon="1.93363">
        <ele>325</ele>
        <time>2013-09-29T11:11:54Z</time>
      </trkpt>
      <trkpt lat="43.04042" lon="1.93362">
        <ele>325</ele>
        <time>2013-09-29T11:11:59Z</time>
      </trkpt>
      <trkpt lat="43.04047" lon="1.93362">
        <ele>325</ele>
        <time>2013-09-29T11:12:04Z</time>
      </trkpt>
      <trkpt lat="43.04054" lon="1.93362">
        <ele>325</ele>
        <time>2013-09-29T11:12:09Z</time>
      </trkpt>
      <trkpt lat="43.04058" lon="1.93367">
        <ele>325</ele>
        <time>2013-09-29T11:12:14Z</time>
      </trkpt>
      <trkpt lat="43.04058" lon="1.93368">
        <ele>325</ele>
        <time>2013-09-29T11:12:23Z</time>
      </trkpt>
      <trkpt lat="43.04053" lon="1.93364">
        <ele>325</ele>
        <time>2013-09-29T11:12:28Z</time>
      </trkpt>
      <trkpt lat="43.04047" lon="1.93362">
        <ele>325</ele>
        <time>2013-09-29T11:12:33Z</time>
      </trkpt>
      <trkpt lat="43.04044" lon="1.93363">
        <ele>325</ele>
        <time>2013-09-29T11:12:38Z</time>
      </trkpt>
      <trkpt lat="43.04046" lon="1.93364">
        <ele>325</ele>
        <time>2013-09-29T11:12:44Z</time>
      </trkpt>
      <trkpt lat="43.04048" lon="1.93371">
        <ele>325</ele>
        <time>2013-09-29T11:12:49Z</time>
      </trkpt>
      <trkpt lat="43.04047" lon="1.93376">
        <ele>325</ele>
        <time>2013-09-29T11:12:57Z</time>
      </trkpt>
      <trkpt lat="43.04044" lon="1.93379">
        <ele>325</ele>
        <time>2013-09-29T11:13:04Z</time>
      </trkpt>
      <trkpt lat="43.04041" lon="1.93384">
        <ele>325</ele>
        <time>2013-09-29T11:13:09Z</time>
      </trkpt>
      <trkpt lat="43.0404" lon="1.93389">
        <ele>325</ele>
        <time>2013-09-29T11:13:15Z</time>
      </trkpt>
      <trkpt lat="43.04039" lon="1.93393">
        <ele>325</ele>
        <time>2013-09-29T11:13:21Z</time>
      </trkpt>
      <trkpt lat="43.04035" lon="1.93399">
        <ele>325</ele>
        <time>2013-09-29T11:13:27Z</time>
      </trkpt>
      <trkpt lat="43.04029" lon="1.93401">
        <ele>325</ele>
        <time>2013-09-29T11:13:32Z</time>
      </trkpt>
      <trkpt lat="43.04026" lon="1.93396">
        <ele>325</ele>
        <time>2013-09-29T11:13:37Z</time>
      </trkpt>
      <trkpt lat="43.04023" lon="1.93391">
        <ele>323</ele>
        <time>2013-09-29T11:13:42Z</time>
      </trkpt>
      <trkpt lat="43.04018" lon="1.93388">
        <ele>323</ele>
        <time>2013-09-29T11:13:49Z</time>
      </trkpt>
      <trkpt lat="43.04013" lon="1.93386">
        <ele>323</ele>
        <time>2013-09-29T11:14:00Z</time>
      </trkpt>
      <trkpt lat="43.04015" lon="1.93386">
        <ele>323</ele>
        <time>2013-09-29T11:14:05Z</time>
      </trkpt>
      <trkpt lat="43.04018" lon="1.93388">
        <ele>323</ele>
        <time>2013-09-29T11:14:11Z</time>
      </trkpt>
      <trkpt lat="43.04021" lon="1.93387">
        <ele>323</ele>
        <time>2013-09-29T11:14:16Z</time>
      </trkpt>
      <trkpt lat="43.04025" lon="1.93387">
        <ele>323</ele>
        <time>2013-09-29T11:14:23Z</time>
      </trkpt>
      <trkpt lat="43.04029" lon="1.9339">
        <ele>323</ele>
        <time>2013-09-29T11:14:28Z</time>
      </trkpt>
      <trkpt lat="43.04034" lon="1.93396">
        <ele>323</ele>
        <time>2013-09-29T11:14:34Z</time>
      </trkpt>
      <trkpt lat="43.04038" lon="1.93397">
        <ele>323</ele>
        <time>2013-09-29T11:14:40Z</time>
      </trkpt>
      <trkpt lat="43.04042" lon="1.93401">
        <ele>323</ele>
        <time>2013-09-29T11:14:46Z</time>
      </trkpt>
      <trkpt lat="43.04045" lon="1.93401">
        <ele>323</ele>
        <time>2013-09-29T11:14:52Z</time>
      </trkpt>
      <trkpt lat="43.04047" lon="1.93404">
        <ele>323</ele>
        <time>2013-09-29T11:14:57Z</time>
      </trkpt>
      <trkpt lat="43.04046" lon="1.93404">
        <ele>323</ele>
        <time>2013-09-29T11:15:12Z</time>
      </trkpt>
      <trkpt lat="43.04033" lon="1.93396">
        <ele>323</ele>
        <time>2013-09-29T11:15:17Z</time>
      </trkpt>
      <trkpt lat="43.04025" lon="1.93386">
        <ele>323</ele>
        <time>2013-09-29T11:15:22Z</time>
      </trkpt>
      <trkpt lat="43.04023" lon="1.93381">
        <ele>323</ele>
        <time>2013-09-29T11:15:27Z</time>
      </trkpt>
      <trkpt lat="43.0402" lon="1.93374">
        <ele>323</ele>
        <time>2013-09-29T11:15:33Z</time>
      </trkpt>
      <trkpt lat="43.04021" lon="1.93368">
        <ele>323</ele>
        <time>2013-09-29T11:15:39Z</time>
      </trkpt>
      <trkpt lat="43.04023" lon="1.93369">
        <ele>323</ele>
        <time>2013-09-29T11:15:44Z</time>
      </trkpt>
      <trkpt lat="43.04023" lon="1.93371">
        <ele>323</ele>
        <time>2013-09-29T11:15:51Z</time>
      </trkpt>
      <trkpt lat="43.04022" lon="1.93376">
        <ele>323</ele>
        <time>2013-09-29T11:15:56Z</time>
      </trkpt>
      <trkpt lat="43.04021" lon="1.93382">
        <ele>323</ele>
        <time>2013-09-29T11:16:01Z</time>
      </trkpt>
      <trkpt lat="43.04017" lon="1.93386">
        <ele>323</ele>
        <time>2013-09-29T11:16:06Z</time>
      </trkpt>
      <trkpt lat="43.04014" lon="1.9338">
        <ele>323</ele>
        <time>2013-09-29T11:16:12Z</time>
      </trkpt>
      <trkpt lat="43.0401" lon="1.93375">
        <ele>323</ele>
        <time>2013-09-29T11:16:17Z</time>
      </trkpt>
      <trkpt lat="43.04003" lon="1.93369">
        <ele>323</ele>
        <time>2013-09-29T11:16:22Z</time>
      </trkpt>
      <trkpt lat="43.03996" lon="1.93365">
        <ele>323</ele>
        <time>2013-09-29T11:16:27Z</time>
      </trkpt>
      <trkpt lat="43.03989" lon="1.93362">
        <ele>324</ele>
        <time>2013-09-29T11:16:33Z</time>
      </trkpt>
      <trkpt lat="43.03984" lon="1.93361">
        <ele>324</ele>
        <time>2013-09-29T11:16:38Z</time>
      </trkpt>
      <trkpt lat="43.03977" lon="1.93359">
        <ele>324</ele>
        <time>2013-09-29T11:16:44Z</time>
      </trkpt>
      <trkpt lat="43.03972" lon="1.93355">
        <ele>324</ele>
        <time>2013-09-29T11:16:52Z</time>
      </trkpt>
      <trkpt lat="43.03965" lon="1.93354">
        <ele>325</ele>
        <time>2013-09-29T11:16:58Z</time>
      </trkpt>
      <trkpt lat="43.03963" lon="1.93354">
        <ele>325</ele>
        <time>2013-09-29T11:17:03Z</time>
      </trkpt>
      <trkpt lat="43.03947" lon="1.93347">
        <ele>325</ele>
        <time>2013-09-29T11:17:09Z</time>
      </trkpt>
      <trkpt lat="43.03936" lon="1.93341">
        <ele>327</ele>
        <time>2013-09-29T11:17:14Z</time>
      </trkpt>
      <trkpt lat="43.03928" lon="1.93338">
        <ele>328</ele>
        <time>2013-09-29T11:17:20Z</time>
      </trkpt>
      <trkpt lat="43.03925" lon="1.93336">
        <ele>328</ele>
        <time>2013-09-29T11:17:25Z</time>
      </trkpt>
      <trkpt lat="43.03922" lon="1.93342">
        <ele>328</ele>
        <time>2013-09-29T11:17:31Z</time>
      </trkpt>
      <trkpt lat="43.03917" lon="1.93349">
        <ele>328</ele>
        <time>2013-09-29T11:17:37Z</time>
      </trkpt>
      <trkpt lat="43.03917" lon="1.93349">
        <ele>328</ele>
        <time>2013-09-29T11:17:43Z</time>
      </trkpt>
      <trkpt lat="43.03927" lon="1.93338">
        <ele>328</ele>
        <time>2013-09-29T11:17:48Z</time>
      </trkpt>
      <trkpt lat="43.03937" lon="1.9334">
        <ele>329</ele>
        <time>2013-09-29T11:17:53Z</time>
      </trkpt>
      <trkpt lat="43.03948" lon="1.93346">
        <ele>330</ele>
        <time>2013-09-29T11:17:58Z</time>
      </trkpt>
      <trkpt lat="43.03965" lon="1.93352">
        <ele>330</ele>
        <time>2013-09-29T11:18:03Z</time>
      </trkpt>
      <trkpt lat="43.03982" lon="1.93357">
        <ele>330</ele>
        <time>2013-09-29T11:18:09Z</time>
      </trkpt>
      <trkpt lat="43.03994" lon="1.93361">
        <ele>330</ele>
        <time>2013-09-29T11:18:14Z</time>
      </trkpt>
      <trkpt lat="43.04001" lon="1.93368">
        <ele>330</ele>
        <time>2013-09-29T11:18:20Z</time>
      </trkpt>
      <trkpt lat="43.04006" lon="1.93373">
        <ele>330</ele>
        <time>2013-09-29T11:18:25Z</time>
      </trkpt>
      <trkpt lat="43.04012" lon="1.9338">
        <ele>330</ele>
        <time>2013-09-29T11:18:31Z</time>
      </trkpt>
      <trkpt lat="43.04017" lon="1.93381">
        <ele>329</ele>
        <time>2013-09-29T11:18:37Z</time>
      </trkpt>
      <trkpt lat="43.0402" lon="1.93382">
        <ele>328</ele>
        <time>2013-09-29T11:18:46Z</time>
      </trkpt>
      <trkpt lat="43.04024" lon="1.93386">
        <ele>327</ele>
        <time>2013-09-29T11:18:52Z</time>
      </trkpt>
      <trkpt lat="43.04027" lon="1.93392">
        <ele>327</ele>
        <time>2013-09-29T11:18:57Z</time>
      </trkpt>
      <trkpt lat="43.0403" lon="1.93399">
        <ele>327</ele>
        <time>2013-09-29T11:19:03Z</time>
      </trkpt>
      <trkpt lat="43.04028" lon="1.93399">
        <ele>326</ele>
        <time>2013-09-29T11:19:13Z</time>
      </trkpt>
      <trkpt lat="43.04026" lon="1.93397">
        <ele>326</ele>
        <time>2013-09-29T11:19:18Z</time>
      </trkpt>
      <trkpt lat="43.04024" lon="1.93394">
        <ele>326</ele>
        <time>2013-09-29T11:19:24Z</time>
      </trkpt>
      <trkpt lat="43.04022" lon="1.93392">
        <ele>326</ele>
        <time>2013-09-29T11:19:34Z</time>
      </trkpt>
      <trkpt lat="43.0402" lon="1.93393">
        <ele>326</ele>
        <time>2013-09-29T11:19:44Z</time>
      </trkpt>
      <trkpt lat="43.04023" lon="1.9339">
        <ele>326</ele>
        <time>2013-09-29T11:19:58Z</time>
      </trkpt>
      <trkpt lat="43.04024" lon="1.93387">
        <ele>326</ele>
        <time>2013-09-29T11:20:09Z</time>
      </trkpt>
      <trkpt lat="43.0403" lon="1.93391">
        <ele>326</ele>
        <time>2013-09-29T11:20:15Z</time>
      </trkpt>
      <trkpt lat="43.04037" lon="1.93396">
        <ele>326</ele>
        <time>2013-09-29T11:20:21Z</time>
      </trkpt>
      <trkpt lat="43.04042" lon="1.93398">
        <ele>324</ele>
        <time>2013-09-29T11:20:26Z</time>
      </trkpt>
      <trkpt lat="43.04046" lon="1.93401">
        <ele>324</ele>
        <time>2013-09-29T11:20:32Z</time>
      </trkpt>
      <trkpt lat="43.04051" lon="1.93401">
        <ele>324</ele>
        <time>2013-09-29T11:20:37Z</time>
      </trkpt>
      <trkpt lat="43.04054" lon="1.93398">
        <ele>324</ele>
        <time>2013-09-29T11:20:43Z</time>
      </trkpt>
      <trkpt lat="43.04055" lon="1.93399">
        <ele>324</ele>
        <time>2013-09-29T11:20:48Z</time>
      </trkpt>
      <trkpt lat="43.04058" lon="1.93407">
        <ele>324</ele>
        <time>2013-09-29T11:20:54Z</time>
      </trkpt>
      <trkpt lat="43.04063" lon="1.9341">
        <ele>324</ele>
        <time>2013-09-29T11:21:00Z</time>
      </trkpt>
      <trkpt lat="43.04068" lon="1.93411">
        <ele>324</ele>
        <time>2013-09-29T11:21:06Z</time>
      </trkpt>
      <trkpt lat="43.04072" lon="1.93411">
        <ele>324</ele>
        <time>2013-09-29T11:21:13Z</time>
      </trkpt>
      <trkpt lat="43.04074" lon="1.93405">
        <ele>324</ele>
        <time>2013-09-29T11:21:18Z</time>
      </trkpt>
      <trkpt lat="43.04077" lon="1.93407">
        <ele>324</ele>
        <time>2013-09-29T11:21:25Z</time>
      </trkpt>
      <trkpt lat="43.04078" lon="1.93407">
        <ele>324</ele>
        <time>2013-09-29T11:21:30Z</time>
      </trkpt>
      <trkpt lat="43.04075" lon="1.93406">
        <ele>324</ele>
        <time>2013-09-29T11:21:36Z</time>
      </trkpt>
      <trkpt lat="43.0407" lon="1.93404">
        <ele>324</ele>
        <time>2013-09-29T11:21:42Z</time>
      </trkpt>
      <trkpt lat="43.04065" lon="1.93401">
        <ele>324</ele>
        <time>2013-09-29T11:21:47Z</time>
      </trkpt>
      <trkpt lat="43.0406" lon="1.93397">
        <ele>324</ele>
        <time>2013-09-29T11:21:54Z</time>
      </trkpt>
      <trkpt lat="43.04062" lon="1.93398">
        <ele>324</ele>
        <time>2013-09-29T11:22:03Z</time>
      </trkpt>
      <trkpt lat="43.04057" lon="1.93396">
        <ele>324</ele>
        <time>2013-09-29T11:22:09Z</time>
      </trkpt>
      <trkpt lat="43.04054" lon="1.93395">
        <ele>324</ele>
        <time>2013-09-29T11:22:16Z</time>
      </trkpt>
      <trkpt lat="43.0405" lon="1.93396">
        <ele>324</ele>
        <time>2013-09-29T11:22:21Z</time>
      </trkpt>
      <trkpt lat="43.04048" lon="1.93394">
        <ele>324</ele>
        <time>2013-09-29T11:22:26Z</time>
      </trkpt>
      <trkpt lat="43.04047" lon="1.93393">
        <ele>324</ele>
        <time>2013-09-29T11:22:31Z</time>
      </trkpt>
      <trkpt lat="43.04045" lon="1.93393">
        <ele>325</ele>
        <time>2013-09-29T11:22:40Z</time>
      </trkpt>
      <trkpt lat="43.04046" lon="1.93391">
        <ele>326</ele>
        <time>2013-09-29T11:22:45Z</time>
      </trkpt>
      <trkpt lat="43.04046" lon="1.93387">
        <ele>326</ele>
        <time>2013-09-29T11:22:50Z</time>
      </trkpt>
      <trkpt lat="43.04045" lon="1.93384">
        <ele>326</ele>
        <time>2013-09-29T11:22:57Z</time>
      </trkpt>
      <trkpt lat="43.04046" lon="1.93382">
        <ele>326</ele>
        <time>2013-09-29T11:23:10Z</time>
      </trkpt>
      <trkpt lat="43.0405" lon="1.93381">
        <ele>326</ele>
        <time>2013-09-29T11:23:15Z</time>
      </trkpt>
      <trkpt lat="43.04053" lon="1.93379">
        <ele>326</ele>
        <time>2013-09-29T11:23:20Z</time>
      </trkpt>
      <trkpt lat="43.04054" lon="1.93378">
        <ele>329</ele>
        <time>2013-09-29T11:23:25Z</time>
      </trkpt>
      <trkpt lat="43.04057" lon="1.93373">
        <ele>329</ele>
        <time>2013-09-29T11:23:31Z</time>
      </trkpt>
      <trkpt lat="43.04061" lon="1.93368">
        <ele>329</ele>
        <time>2013-09-29T11:23:37Z</time>
      </trkpt>
      <trkpt lat="43.04065" lon="1.93368">
        <ele>329</ele>
        <time>2013-09-29T11:23:43Z</time>
      </trkpt>
      <trkpt lat="43.04069" lon="1.93364">
        <ele>329</ele>
        <time>2013-09-29T11:23:48Z</time>
      </trkpt>
      <trkpt lat="43.04073" lon="1.93358">
        <ele>329</ele>
        <time>2013-09-29T11:23:53Z</time>
      </trkpt>
      <trkpt lat="43.04079" lon="1.93353">
        <ele>329</ele>
        <time>2013-09-29T11:23:59Z</time>
      </trkpt>
      <trkpt lat="43.04086" lon="1.93351">
        <ele>329</ele>
        <time>2013-09-29T11:24:04Z</time>
      </trkpt>
      <trkpt lat="43.04092" lon="1.93349">
        <ele>329</ele>
        <time>2013-09-29T11:24:09Z</time>
      </trkpt>
      <trkpt lat="43.04098" lon="1.93346">
        <ele>329</ele>
        <time>2013-09-29T11:24:14Z</time>
      </trkpt>
      <trkpt lat="43.04106" lon="1.93345">
        <ele>329</ele>
        <time>2013-09-29T11:24:19Z</time>
      </trkpt>
      <trkpt lat="43.04112" lon="1.93344">
        <ele>329</ele>
        <time>2013-09-29T11:24:24Z</time>
      </trkpt>
      <trkpt lat="43.04118" lon="1.93343">
        <ele>329</ele>
        <time>2013-09-29T11:24:29Z</time>
      </trkpt>
      <trkpt lat="43.04125" lon="1.93344">
        <ele>329</ele>
        <time>2013-09-29T11:24:34Z</time>
      </trkpt>
      <trkpt lat="43.04131" lon="1.93338">
        <ele>329</ele>
        <time>2013-09-29T11:24:40Z</time>
      </trkpt>
      <trkpt lat="43.04134" lon="1.93331">
        <ele>329</ele>
        <time>2013-09-29T11:24:45Z</time>
      </trkpt>
      <trkpt lat="43.04138" lon="1.93323">
        <ele>329</ele>
        <time>2013-09-29T11:24:50Z</time>
      </trkpt>
      <trkpt lat="43.04143" lon="1.93313">
        <ele>329</ele>
        <time>2013-09-29T11:24:56Z</time>
      </trkpt>
      <trkpt lat="43.04149" lon="1.9331">
        <ele>329</ele>
        <time>2013-09-29T11:25:01Z</time>
      </trkpt>
      <trkpt lat="43.04154" lon="1.93306">
        <ele>329</ele>
        <time>2013-09-29T11:25:06Z</time>
      </trkpt>
      <trkpt lat="43.0416" lon="1.93304">
        <ele>329</ele>
        <time>2013-09-29T11:25:11Z</time>
      </trkpt>
      <trkpt lat="43.04168" lon="1.93302">
        <ele>329</ele>
        <time>2013-09-29T11:25:16Z</time>
      </trkpt>
      <trkpt lat="43.04176" lon="1.933">
        <ele>329</ele>
        <time>2013-09-29T11:25:21Z</time>
      </trkpt>
      <trkpt lat="43.04182" lon="1.93298">
        <ele>329</ele>
        <time>2013-09-29T11:25:26Z</time>
      </trkpt>
      <trkpt lat="43.04191" lon="1.93295">
        <ele>329</ele>
        <time>2013-09-29T11:25:31Z</time>
      </trkpt>
      <trkpt lat="43.04206" lon="1.9329">
        <ele>329</ele>
        <time>2013-09-29T11:25:36Z</time>
      </trkpt>
      <trkpt lat="43.04223" lon="1.93292">
        <ele>329</ele>
        <time>2013-09-29T11:25:41Z</time>
      </trkpt>
      <trkpt lat="43.04236" lon="1.93292">
        <ele>329</ele>
        <time>2013-09-29T11:25:46Z</time>
      </trkpt>
      <trkpt lat="43.04248" lon="1.93292">
        <ele>329</ele>
        <time>2013-09-29T11:25:51Z</time>
      </trkpt>
      <trkpt lat="43.0426" lon="1.93295">
        <ele>329</ele>
        <time>2013-09-29T11:25:56Z</time>
      </trkpt>
      <trkpt lat="43.04271" lon="1.933">
        <ele>330</ele>
        <time>2013-09-29T11:26:01Z</time>
      </trkpt>
      <trkpt lat="43.04284" lon="1.93305">
        <ele>331</ele>
        <time>2013-09-29T11:26:06Z</time>
      </trkpt>
      <trkpt lat="43.04299" lon="1.9331">
        <ele>331</ele>
        <time>2013-09-29T11:26:11Z</time>
      </trkpt>
      <trkpt lat="43.04314" lon="1.93316">
        <ele>331</ele>
        <time>2013-09-29T11:26:16Z</time>
      </trkpt>
      <trkpt lat="43.04329" lon="1.93322">
        <ele>332</ele>
        <time>2013-09-29T11:26:21Z</time>
      </trkpt>
      <trkpt lat="43.04343" lon="1.93328">
        <ele>332</ele>
        <time>2013-09-29T11:26:26Z</time>
      </trkpt>
      <trkpt lat="43.04353" lon="1.93334">
        <ele>332</ele>
        <time>2013-09-29T11:26:31Z</time>
      </trkpt>
      <trkpt lat="43.04363" lon="1.9334">
        <ele>332</ele>
        <time>2013-09-29T11:26:36Z</time>
      </trkpt>
      <trkpt lat="43.04377" lon="1.93345">
        <ele>332</ele>
        <time>2013-09-29T11:26:41Z</time>
      </trkpt>
      <trkpt lat="43.04392" lon="1.93351">
        <ele>332</ele>
        <time>2013-09-29T11:26:46Z</time>
      </trkpt>
      <trkpt lat="43.04408" lon="1.93357">
        <ele>332</ele>
        <time>2013-09-29T11:26:51Z</time>
      </trkpt>
      <trkpt lat="43.04423" lon="1.93361">
        <ele>332</ele>
        <time>2013-09-29T11:26:56Z</time>
      </trkpt>
      <trkpt lat="43.04439" lon="1.93366">
        <ele>332</ele>
        <time>2013-09-29T11:27:01Z</time>
      </trkpt>
      <trkpt lat="43.04453" lon="1.9337">
        <ele>332</ele>
        <time>2013-09-29T11:27:06Z</time>
      </trkpt>
      <trkpt lat="43.04467" lon="1.93373">
        <ele>332</ele>
        <time>2013-09-29T11:27:11Z</time>
      </trkpt>
      <trkpt lat="43.04481" lon="1.93377">
        <ele>332</ele>
        <time>2013-09-29T11:27:16Z</time>
      </trkpt>
      <trkpt lat="43.04489" lon="1.93393">
        <ele>332</ele>
        <time>2013-09-29T11:27:21Z</time>
      </trkpt>
      <trkpt lat="43.04486" lon="1.9341">
        <ele>332</ele>
        <time>2013-09-29T11:27:26Z</time>
      </trkpt>
      <trkpt lat="43.04479" lon="1.93426">
        <ele>332</ele>
        <time>2013-09-29T11:27:31Z</time>
      </trkpt>
      <trkpt lat="43.04473" lon="1.93442">
        <ele>332</ele>
        <time>2013-09-29T11:27:36Z</time>
      </trkpt>
      <trkpt lat="43.04469" lon="1.9346">
        <ele>332</ele>
        <time>2013-09-29T11:27:41Z</time>
      </trkpt>
      <trkpt lat="43.04467" lon="1.93477">
        <ele>332</ele>
        <time>2013-09-29T11:27:46Z</time>
      </trkpt>
      <trkpt lat="43.04472" lon="1.93495">
        <ele>332</ele>
        <time>2013-09-29T11:27:51Z</time>
      </trkpt>
      <trkpt lat="43.04478" lon="1.9351">
        <ele>332</ele>
        <time>2013-09-29T11:27:56Z</time>
      </trkpt>
      <trkpt lat="43.04483" lon="1.93527">
        <ele>332</ele>
        <time>2013-09-29T11:28:01Z</time>
      </trkpt>
      <trkpt lat="43.0449" lon="1.93543">
        <ele>332</ele>
        <time>2013-09-29T11:28:06Z</time>
      </trkpt>
      <trkpt lat="43.04492" lon="1.93559">
        <ele>332</ele>
        <time>2013-09-29T11:28:11Z</time>
      </trkpt>
      <trkpt lat="43.04494" lon="1.93575">
        <ele>332</ele>
        <time>2013-09-29T11:28:16Z</time>
      </trkpt>
      <trkpt lat="43.04494" lon="1.93591">
        <ele>332</ele>
        <time>2013-09-29T11:28:21Z</time>
      </trkpt>
      <trkpt lat="43.04497" lon="1.93606">
        <ele>331</ele>
        <time>2013-09-29T11:28:26Z</time>
      </trkpt>
      <trkpt lat="43.04499" lon="1.93618">
        <ele>329</ele>
        <time>2013-09-29T11:28:32Z</time>
      </trkpt>
      <trkpt lat="43.04497" lon="1.93621">
        <ele>329</ele>
        <time>2013-09-29T11:28:38Z</time>
      </trkpt>
      <trkpt lat="43.04494" lon="1.93622">
        <ele>329</ele>
        <time>2013-09-29T11:28:44Z</time>
      </trkpt>
      <trkpt lat="43.04493" lon="1.93622">
        <ele>329</ele>
        <time>2013-09-29T11:28:52Z</time>
      </trkpt>
      <trkpt lat="43.04492" lon="1.93623">
        <ele>329</ele>
        <time>2013-09-29T11:28:57Z</time>
      </trkpt>
      <trkpt lat="43.04493" lon="1.93622">
        <ele>328</ele>
        <time>2013-09-29T11:29:12Z</time>
      </trkpt>
      <trkpt lat="43.04496" lon="1.93621">
        <ele>328</ele>
        <time>2013-09-29T11:29:19Z</time>
      </trkpt>
      <trkpt lat="43.04496" lon="1.93614">
        <ele>327</ele>
        <time>2013-09-29T11:29:25Z</time>
      </trkpt>
      <trkpt lat="43.04494" lon="1.93604">
        <ele>327</ele>
        <time>2013-09-29T11:29:30Z</time>
      </trkpt>
      <trkpt lat="43.04492" lon="1.93595">
        <ele>327</ele>
        <time>2013-09-29T11:29:35Z</time>
      </trkpt>
      <trkpt lat="43.0449" lon="1.93586">
        <ele>327</ele>
        <time>2013-09-29T11:29:40Z</time>
      </trkpt>
      <trkpt lat="43.0449" lon="1.93575">
        <ele>327</ele>
        <time>2013-09-29T11:29:45Z</time>
      </trkpt>
      <trkpt lat="43.04491" lon="1.93566">
        <ele>327</ele>
        <time>2013-09-29T11:29:50Z</time>
      </trkpt>
      <trkpt lat="43.0449" lon="1.93558">
        <ele>327</ele>
        <time>2013-09-29T11:29:55Z</time>
      </trkpt>
      <trkpt lat="43.04487" lon="1.93548">
        <ele>327</ele>
        <time>2013-09-29T11:30:00Z</time>
      </trkpt>
      <trkpt lat="43.04485" lon="1.93539">
        <ele>327</ele>
        <time>2013-09-29T11:30:05Z</time>
      </trkpt>
      <trkpt lat="43.04483" lon="1.93529">
        <ele>327</ele>
        <time>2013-09-29T11:30:10Z</time>
      </trkpt>
      <trkpt lat="43.0448" lon="1.9352">
        <ele>326</ele>
        <time>2013-09-29T11:30:15Z</time>
      </trkpt>
      <trkpt lat="43.04477" lon="1.93511">
        <ele>326</ele>
        <time>2013-09-29T11:30:20Z</time>
      </trkpt>
      <trkpt lat="43.04471" lon="1.93503">
        <ele>326</ele>
        <time>2013-09-29T11:30:26Z</time>
      </trkpt>
      <trkpt lat="43.04468" lon="1.93495">
        <ele>326</ele>
        <time>2013-09-29T11:30:31Z</time>
      </trkpt>
      <trkpt lat="43.04466" lon="1.93485">
        <ele>326</ele>
        <time>2013-09-29T11:30:36Z</time>
      </trkpt>
      <trkpt lat="43.04463" lon="1.93462">
        <ele>326</ele>
        <time>2013-09-29T11:30:41Z</time>
      </trkpt>
      <trkpt lat="43.04467" lon="1.93433">
        <ele>326</ele>
        <time>2013-09-29T11:30:46Z</time>
      </trkpt>
      <trkpt lat="43.04475" lon="1.93411">
        <ele>326</ele>
        <time>2013-09-29T11:30:51Z</time>
      </trkpt>
      <trkpt lat="43.04481" lon="1.93395">
        <ele>328</ele>
        <time>2013-09-29T11:30:56Z</time>
      </trkpt>
      <trkpt lat="43.04488" lon="1.93394">
        <ele>329</ele>
        <time>2013-09-29T11:31:01Z</time>
      </trkpt>
      <trkpt lat="43.045" lon="1.93401">
        <ele>329</ele>
        <time>2013-09-29T11:31:06Z</time>
      </trkpt>
      <trkpt lat="43.04515" lon="1.93405">
        <ele>329</ele>
        <time>2013-09-29T11:31:11Z</time>
      </trkpt>
      <trkpt lat="43.04528" lon="1.93408">
        <ele>329</ele>
        <time>2013-09-29T11:31:16Z</time>
      </trkpt>
      <trkpt lat="43.04541" lon="1.93414">
        <ele>329</ele>
        <time>2013-09-29T11:31:21Z</time>
      </trkpt>
      <trkpt lat="43.04547" lon="1.93418">
        <ele>329</ele>
        <time>2013-09-29T11:31:27Z</time>
      </trkpt>
      <trkpt lat="43.04551" lon="1.93419">
        <ele>329</ele>
        <time>2013-09-29T11:31:32Z</time>
      </trkpt>
      <trkpt lat="43.04552" lon="1.9342">
        <ele>329</ele>
        <time>2013-09-29T11:31:37Z</time>
      </trkpt>
      <trkpt lat="43.04554" lon="1.93418">
        <ele>329</ele>
        <time>2013-09-29T11:31:48Z</time>
      </trkpt>
      <trkpt lat="43.04554" lon="1.93416">
        <ele>329</ele>
        <time>2013-09-29T11:31:54Z</time>
      </trkpt>
      <trkpt lat="43.04555" lon="1.93417">
        <ele>329</ele>
        <time>2013-09-29T11:32:05Z</time>
      </trkpt>
      <trkpt lat="43.04557" lon="1.93417">
        <ele>329</ele>
        <time>2013-09-29T11:32:10Z</time>
      </trkpt>
      <trkpt lat="43.04556" lon="1.93415">
        <ele>330</ele>
        <time>2013-09-29T11:32:15Z</time>
      </trkpt>
      <trkpt lat="43.04558" lon="1.93414">
        <ele>333</ele>
        <time>2013-09-29T11:32:32Z</time>
      </trkpt>
      <trkpt lat="43.0457" lon="1.93405">
        <ele>333</ele>
        <time>2013-09-29T11:32:37Z</time>
      </trkpt>
      <trkpt lat="43.04582" lon="1.93396">
        <ele>333</ele>
        <time>2013-09-29T11:32:42Z</time>
      </trkpt>
      <trkpt lat="43.04592" lon="1.93386">
        <ele>334</ele>
        <time>2013-09-29T11:32:47Z</time>
      </trkpt>
      <trkpt lat="43.04599" lon="1.93375">
        <ele>334</ele>
        <time>2013-09-29T11:32:52Z</time>
      </trkpt>
      <trkpt lat="43.04604" lon="1.9336">
        <ele>334</ele>
        <time>2013-09-29T11:32:57Z</time>
      </trkpt>
      <trkpt lat="43.04606" lon="1.93343">
        <ele>336</ele>
        <time>2013-09-29T11:33:02Z</time>
      </trkpt>
      <trkpt lat="43.04607" lon="1.93325">
        <ele>338</ele>
        <time>2013-09-29T11:33:07Z</time>
      </trkpt>
      <trkpt lat="43.04608" lon="1.93309">
        <ele>341</ele>
        <time>2013-09-29T11:33:12Z</time>
      </trkpt>
      <trkpt lat="43.04611" lon="1.93299">
        <ele>344</ele>
        <time>2013-09-29T11:33:17Z</time>
      </trkpt>
      <trkpt lat="43.04614" lon="1.93292">
        <ele>346</ele>
        <time>2013-09-29T11:33:22Z</time>
      </trkpt>
      <trkpt lat="43.04618" lon="1.93284">
        <ele>348</ele>
        <time>2013-09-29T11:33:27Z</time>
      </trkpt>
      <trkpt lat="43.04621" lon="1.93275">
        <ele>350</ele>
        <time>2013-09-29T11:33:32Z</time>
      </trkpt>
      <trkpt lat="43.04626" lon="1.93269">
        <ele>351</ele>
        <time>2013-09-29T11:33:37Z</time>
      </trkpt>
      <trkpt lat="43.04633" lon="1.93263">
        <ele>352</ele>
        <time>2013-09-29T11:33:42Z</time>
      </trkpt>
      <trkpt lat="43.04639" lon="1.93255">
        <ele>352</ele>
        <time>2013-09-29T11:33:48Z</time>
      </trkpt>
      <trkpt lat="43.04649" lon="1.93248">
        <ele>353</ele>
        <time>2013-09-29T11:33:53Z</time>
      </trkpt>
      <trkpt lat="43.04661" lon="1.93243">
        <ele>353</ele>
        <time>2013-09-29T11:33:58Z</time>
      </trkpt>
      <trkpt lat="43.04674" lon="1.93241">
        <ele>353</ele>
        <time>2013-09-29T11:34:03Z</time>
      </trkpt>
      <trkpt lat="43.0469" lon="1.93239">
        <ele>353</ele>
        <time>2013-09-29T11:34:09Z</time>
      </trkpt>
      <trkpt lat="43.04701" lon="1.93236">
        <ele>353</ele>
        <time>2013-09-29T11:34:14Z</time>
      </trkpt>
      <trkpt lat="43.04711" lon="1.93235">
        <ele>353</ele>
        <time>2013-09-29T11:34:19Z</time>
      </trkpt>
      <trkpt lat="43.04723" lon="1.93243">
        <ele>353</ele>
        <time>2013-09-29T11:34:24Z</time>
      </trkpt>
      <trkpt lat="43.04733" lon="1.93251">
        <ele>354</ele>
        <time>2013-09-29T11:34:29Z</time>
      </trkpt>
      <trkpt lat="43.04744" lon="1.9326">
        <ele>356</ele>
        <time>2013-09-29T11:34:34Z</time>
      </trkpt>
      <trkpt lat="43.04755" lon="1.93268">
        <ele>358</ele>
        <time>2013-09-29T11:34:39Z</time>
      </trkpt>
      <trkpt lat="43.04765" lon="1.93274">
        <ele>359</ele>
        <time>2013-09-29T11:34:44Z</time>
      </trkpt>
      <trkpt lat="43.04775" lon="1.93277">
        <ele>360</ele>
        <time>2013-09-29T11:34:49Z</time>
      </trkpt>
      <trkpt lat="43.04786" lon="1.93279">
        <ele>362</ele>
        <time>2013-09-29T11:34:54Z</time>
      </trkpt>
      <trkpt lat="43.04796" lon="1.93279">
        <ele>363</ele>
        <time>2013-09-29T11:34:59Z</time>
      </trkpt>
      <trkpt lat="43.04806" lon="1.93279">
        <ele>366</ele>
        <time>2013-09-29T11:35:04Z</time>
      </trkpt>
      <trkpt lat="43.04817" lon="1.93281">
        <ele>367</ele>
        <time>2013-09-29T11:35:09Z</time>
      </trkpt>
      <trkpt lat="43.04829" lon="1.93286">
        <ele>368</ele>
        <time>2013-09-29T11:35:14Z</time>
      </trkpt>
      <trkpt lat="43.04836" lon="1.93293">
        <ele>369</ele>
        <time>2013-09-29T11:35:19Z</time>
      </trkpt>
      <trkpt lat="43.04845" lon="1.93304">
        <ele>371</ele>
        <time>2013-09-29T11:35:24Z</time>
      </trkpt>
      <trkpt lat="43.04853" lon="1.9332">
        <ele>373</ele>
        <time>2013-09-29T11:35:29Z</time>
      </trkpt>
      <trkpt lat="43.04859" lon="1.93336">
        <ele>374</ele>
        <time>2013-09-29T11:35:34Z</time>
      </trkpt>
      <trkpt lat="43.04867" lon="1.93353">
        <ele>376</ele>
        <time>2013-09-29T11:35:39Z</time>
      </trkpt>
      <trkpt lat="43.04873" lon="1.93368">
        <ele>376</ele>
        <time>2013-09-29T11:35:44Z</time>
      </trkpt>
      <trkpt lat="43.04874" lon="1.93372">
        <ele>376</ele>
        <time>2013-09-29T11:35:51Z</time>
      </trkpt>
      <trkpt lat="43.04871" lon="1.9337">
        <ele>376</ele>
        <time>2013-09-29T11:36:02Z</time>
      </trkpt>
      <trkpt lat="43.0487" lon="1.93369">
        <ele>376</ele>
        <time>2013-09-29T11:36:07Z</time>
      </trkpt>
      <trkpt lat="43.04869" lon="1.93369">
        <ele>376</ele>
        <time>2013-09-29T11:36:13Z</time>
      </trkpt>
      <trkpt lat="43.04871" lon="1.93372">
        <ele>376</ele>
        <time>2013-09-29T11:36:19Z</time>
      </trkpt>
      <trkpt lat="43.04877" lon="1.93391">
        <ele>376</ele>
        <time>2013-09-29T11:36:24Z</time>
      </trkpt>
      <trkpt lat="43.04886" lon="1.9341">
        <ele>376</ele>
        <time>2013-09-29T11:36:29Z</time>
      </trkpt>
      <trkpt lat="43.04898" lon="1.93421">
        <ele>377</ele>
        <time>2013-09-29T11:36:34Z</time>
      </trkpt>
      <trkpt lat="43.04913" lon="1.93431">
        <ele>378</ele>
        <time>2013-09-29T11:36:39Z</time>
      </trkpt>
      <trkpt lat="43.04911" lon="1.93452">
        <ele>379</ele>
        <time>2013-09-29T11:36:44Z</time>
      </trkpt>
      <trkpt lat="43.04925" lon="1.93459">
        <ele>379</ele>
        <time>2013-09-29T11:36:49Z</time>
      </trkpt>
      <trkpt lat="43.04937" lon="1.93465">
        <ele>380</ele>
        <time>2013-09-29T11:36:54Z</time>
      </trkpt>
      <trkpt lat="43.04953" lon="1.93474">
        <ele>383</ele>
        <time>2013-09-29T11:36:59Z</time>
      </trkpt>
      <trkpt lat="43.04964" lon="1.9348">
        <ele>388</ele>
        <time>2013-09-29T11:37:04Z</time>
      </trkpt>
      <trkpt lat="43.04966" lon="1.935">
        <ele>389</ele>
        <time>2013-09-29T11:37:09Z</time>
      </trkpt>
      <trkpt lat="43.04957" lon="1.93518">
        <ele>389</ele>
        <time>2013-09-29T11:37:14Z</time>
      </trkpt>
      <trkpt lat="43.04951" lon="1.93537">
        <ele>389</ele>
        <time>2013-09-29T11:37:19Z</time>
      </trkpt>
      <trkpt lat="43.04945" lon="1.93556">
        <ele>389</ele>
        <time>2013-09-29T11:37:24Z</time>
      </trkpt>
      <trkpt lat="43.0494" lon="1.93575">
        <ele>389</ele>
        <time>2013-09-29T11:37:29Z</time>
      </trkpt>
      <trkpt lat="43.04939" lon="1.93596">
        <ele>385</ele>
        <time>2013-09-29T11:37:34Z</time>
      </trkpt>
      <trkpt lat="43.04935" lon="1.93612">
        <ele>381</ele>
        <time>2013-09-29T11:37:39Z</time>
      </trkpt>
      <trkpt lat="43.04932" lon="1.93627">
        <ele>377</ele>
        <time>2013-09-29T11:37:44Z</time>
      </trkpt>
      <trkpt lat="43.04933" lon="1.93645">
        <ele>372</ele>
        <time>2013-09-29T11:37:49Z</time>
      </trkpt>
      <trkpt lat="43.04934" lon="1.93649">
        <ele>369</ele>
        <time>2013-09-29T11:37:55Z</time>
      </trkpt>
      <trkpt lat="43.04937" lon="1.93649">
        <ele>367</ele>
        <time>2013-09-29T11:38:11Z</time>
      </trkpt>
      <trkpt lat="43.04937" lon="1.93647">
        <ele>365</ele>
        <time>2013-09-29T11:38:19Z</time>
      </trkpt>
      <trkpt lat="43.0494" lon="1.93633">
        <ele>365</ele>
        <time>2013-09-29T11:38:24Z</time>
      </trkpt>
      <trkpt lat="43.04942" lon="1.93618">
        <ele>365</ele>
        <time>2013-09-29T11:38:29Z</time>
      </trkpt>
      <trkpt lat="43.04948" lon="1.936">
        <ele>365</ele>
        <time>2013-09-29T11:38:34Z</time>
      </trkpt>
      <trkpt lat="43.04951" lon="1.93582">
        <ele>365</ele>
        <time>2013-09-29T11:38:39Z</time>
      </trkpt>
      <trkpt lat="43.04951" lon="1.93561">
        <ele>366</ele>
        <time>2013-09-29T11:38:44Z</time>
      </trkpt>
      <trkpt lat="43.04956" lon="1.93541">
        <ele>369</ele>
        <time>2013-09-29T11:38:49Z</time>
      </trkpt>
      <trkpt lat="43.04961" lon="1.93521">
        <ele>372</ele>
        <time>2013-09-29T11:38:54Z</time>
      </trkpt>
      <trkpt lat="43.04964" lon="1.93499">
        <ele>373</ele>
        <time>2013-09-29T11:38:59Z</time>
      </trkpt>
      <trkpt lat="43.04968" lon="1.93478">
        <ele>375</ele>
        <time>2013-09-29T11:39:04Z</time>
      </trkpt>
      <trkpt lat="43.04954" lon="1.93474">
        <ele>378</ele>
        <time>2013-09-29T11:39:09Z</time>
      </trkpt>
      <trkpt lat="43.04938" lon="1.93467">
        <ele>381</ele>
        <time>2013-09-29T11:39:14Z</time>
      </trkpt>
      <trkpt lat="43.04921" lon="1.9346">
        <ele>384</ele>
        <time>2013-09-29T11:39:19Z</time>
      </trkpt>
      <trkpt lat="43.0491" lon="1.93458">
        <ele>384</ele>
        <time>2013-09-29T11:39:24Z</time>
      </trkpt>
      <trkpt lat="43.04897" lon="1.93465">
        <ele>384</ele>
        <time>2013-09-29T11:39:29Z</time>
      </trkpt>
      <trkpt lat="43.04891" lon="1.93469">
        <ele>384</ele>
        <time>2013-09-29T11:39:34Z</time>
      </trkpt>
      <trkpt lat="43.04875" lon="1.93454">
        <ele>384</ele>
        <time>2013-09-29T11:39:39Z</time>
      </trkpt>
      <trkpt lat="43.04873" lon="1.93448">
        <ele>384</ele>
        <time>2013-09-29T11:39:44Z</time>
      </trkpt>
      <trkpt lat="43.04874" lon="1.93449">
        <ele>384</ele>
        <time>2013-09-29T11:39:49Z</time>
      </trkpt>
      <trkpt lat="43.04886" lon="1.9346">
        <ele>384</ele>
        <time>2013-09-29T11:39:54Z</time>
      </trkpt>
      <trkpt lat="43.049" lon="1.93468">
        <ele>384</ele>
        <time>2013-09-29T11:39:59Z</time>
      </trkpt>
      <trkpt lat="43.04918" lon="1.93462">
        <ele>383</ele>
        <time>2013-09-29T11:40:05Z</time>
      </trkpt>
      <trkpt lat="43.04939" lon="1.93468">
        <ele>380</ele>
        <time>2013-09-29T11:40:10Z</time>
      </trkpt>
      <trkpt lat="43.04956" lon="1.93475">
        <ele>380</ele>
        <time>2013-09-29T11:40:15Z</time>
      </trkpt>
      <trkpt lat="43.04968" lon="1.93482">
        <ele>380</ele>
        <time>2013-09-29T11:40:20Z</time>
      </trkpt>
      <trkpt lat="43.04976" lon="1.93503">
        <ele>380</ele>
        <time>2013-09-29T11:40:25Z</time>
      </trkpt>
      <trkpt lat="43.04976" lon="1.93518">
        <ele>380</ele>
        <time>2013-09-29T11:40:30Z</time>
      </trkpt>
      <trkpt lat="43.04986" lon="1.93523">
        <ele>380</ele>
        <time>2013-09-29T11:40:35Z</time>
      </trkpt>
      <trkpt lat="43.04996" lon="1.93526">
        <ele>380</ele>
        <time>2013-09-29T11:40:40Z</time>
      </trkpt>
      <trkpt lat="43.05006" lon="1.93512">
        <ele>380</ele>
        <time>2013-09-29T11:40:45Z</time>
      </trkpt>
      <trkpt lat="43.05015" lon="1.93495">
        <ele>380</ele>
        <time>2013-09-29T11:40:50Z</time>
      </trkpt>
      <trkpt lat="43.05024" lon="1.93477">
        <ele>380</ele>
        <time>2013-09-29T11:40:55Z</time>
      </trkpt>
      <trkpt lat="43.05035" lon="1.93461">
        <ele>380</ele>
        <time>2013-09-29T11:41:00Z</time>
      </trkpt>
      <trkpt lat="43.05045" lon="1.93449">
        <ele>380</ele>
        <time>2013-09-29T11:41:05Z</time>
      </trkpt>
      <trkpt lat="43.05054" lon="1.93447">
        <ele>380</ele>
        <time>2013-09-29T11:41:10Z</time>
      </trkpt>
      <trkpt lat="43.05061" lon="1.93456">
        <ele>381</ele>
        <time>2013-09-29T11:41:15Z</time>
      </trkpt>
      <trkpt lat="43.05061" lon="1.93468">
        <ele>382</ele>
        <time>2013-09-29T11:41:20Z</time>
      </trkpt>
      <trkpt lat="43.05064" lon="1.93478">
        <ele>384</ele>
        <time>2013-09-29T11:41:25Z</time>
      </trkpt>
      <trkpt lat="43.05068" lon="1.93487">
        <ele>386</ele>
        <time>2013-09-29T11:41:30Z</time>
      </trkpt>
      <trkpt lat="43.05076" lon="1.93498">
        <ele>388</ele>
        <time>2013-09-29T11:41:35Z</time>
      </trkpt>
      <trkpt lat="43.05082" lon="1.93509">
        <ele>389</ele>
        <time>2013-09-29T11:41:40Z</time>
      </trkpt>
      <trkpt lat="43.05085" lon="1.93517">
        <ele>391</ele>
        <time>2013-09-29T11:41:45Z</time>
      </trkpt>
      <trkpt lat="43.05095" lon="1.93521">
        <ele>392</ele>
        <time>2013-09-29T11:41:51Z</time>
      </trkpt>
      <trkpt lat="43.05103" lon="1.93517">
        <ele>392</ele>
        <time>2013-09-29T11:41:56Z</time>
      </trkpt>
      <trkpt lat="43.05106" lon="1.93516">
        <ele>392</ele>
        <time>2013-09-29T11:42:01Z</time>
      </trkpt>
      <trkpt lat="43.05116" lon="1.93515">
        <ele>392</ele>
        <time>2013-09-29T11:42:07Z</time>
      </trkpt>
      <trkpt lat="43.05118" lon="1.93515">
        <ele>392</ele>
        <time>2013-09-29T11:42:12Z</time>
      </trkpt>
      <trkpt lat="43.0513" lon="1.93515">
        <ele>392</ele>
        <time>2013-09-29T11:42:28Z</time>
      </trkpt>
      <trkpt lat="43.05128" lon="1.93514">
        <ele>392</ele>
        <time>2013-09-29T11:42:41Z</time>
      </trkpt>
      <trkpt lat="43.05131" lon="1.93514">
        <ele>392</ele>
        <time>2013-09-29T11:42:47Z</time>
      </trkpt>
      <trkpt lat="43.05137" lon="1.93514">
        <ele>392</ele>
        <time>2013-09-29T11:42:52Z</time>
      </trkpt>
      <trkpt lat="43.05139" lon="1.93515">
        <ele>391</ele>
        <time>2013-09-29T11:42:59Z</time>
      </trkpt>
      <trkpt lat="43.0514" lon="1.93516">
        <ele>389</ele>
        <time>2013-09-29T11:43:11Z</time>
      </trkpt>
      <trkpt lat="43.05141" lon="1.93518">
        <ele>388</ele>
        <time>2013-09-29T11:43:22Z</time>
      </trkpt>
      <trkpt lat="43.05139" lon="1.93517">
        <ele>388</ele>
        <time>2013-09-29T11:43:28Z</time>
      </trkpt>
      <trkpt lat="43.05138" lon="1.93514">
        <ele>388</ele>
        <time>2013-09-29T11:43:36Z</time>
      </trkpt>
      <trkpt lat="43.05137" lon="1.93512">
        <ele>388</ele>
        <time>2013-09-29T11:43:42Z</time>
      </trkpt>
      <trkpt lat="43.05131" lon="1.93515">
        <ele>388</ele>
        <time>2013-09-29T11:43:47Z</time>
      </trkpt>
      <trkpt lat="43.05133" lon="1.93527">
        <ele>388</ele>
        <time>2013-09-29T11:43:52Z</time>
      </trkpt>
      <trkpt lat="43.05147" lon="1.93541">
        <ele>388</ele>
        <time>2013-09-29T11:43:57Z</time>
      </trkpt>
      <trkpt lat="43.0516" lon="1.93554">
        <ele>388</ele>
        <time>2013-09-29T11:44:02Z</time>
      </trkpt>
      <trkpt lat="43.0518" lon="1.93573">
        <ele>388</ele>
        <time>2013-09-29T11:44:07Z</time>
      </trkpt>
      <trkpt lat="43.05206" lon="1.93597">
        <ele>388</ele>
        <time>2013-09-29T11:44:12Z</time>
      </trkpt>
      <trkpt lat="43.0523" lon="1.93596">
        <ele>388</ele>
        <time>2013-09-29T11:44:17Z</time>
      </trkpt>
      <trkpt lat="43.05248" lon="1.93559">
        <ele>388</ele>
        <time>2013-09-29T11:44:22Z</time>
      </trkpt>
      <trkpt lat="43.05262" lon="1.93522">
        <ele>384</ele>
        <time>2013-09-29T11:44:27Z</time>
      </trkpt>
      <trkpt lat="43.05286" lon="1.93476">
        <ele>382</ele>
        <time>2013-09-29T11:44:32Z</time>
      </trkpt>
      <trkpt lat="43.05311" lon="1.93441">
        <ele>380</ele>
        <time>2013-09-29T11:44:37Z</time>
      </trkpt>
      <trkpt lat="43.05372" lon="1.93445">
        <ele>376</ele>
        <time>2013-09-29T11:44:43Z</time>
      </trkpt>
      <trkpt lat="43.05429" lon="1.93448">
        <ele>371</ele>
        <time>2013-09-29T11:44:48Z</time>
      </trkpt>
      <trkpt lat="43.05473" lon="1.93451">
        <ele>369</ele>
        <time>2013-09-29T11:44:53Z</time>
      </trkpt>
      <trkpt lat="43.05513" lon="1.93455">
        <ele>367</ele>
        <time>2013-09-29T11:44:58Z</time>
      </trkpt>
      <trkpt lat="43.05547" lon="1.93456">
        <ele>365</ele>
        <time>2013-09-29T11:45:03Z</time>
      </trkpt>
      <trkpt lat="43.05585" lon="1.93461">
        <ele>361</ele>
        <time>2013-09-29T11:45:09Z</time>
      </trkpt>
      <trkpt lat="43.05626" lon="1.93447">
        <ele>359</ele>
        <time>2013-09-29T11:45:14Z</time>
      </trkpt>
      <trkpt lat="43.05658" lon="1.93432">
        <ele>359</ele>
        <time>2013-09-29T11:45:19Z</time>
      </trkpt>
      <trkpt lat="43.05688" lon="1.93407">
        <ele>359</ele>
        <time>2013-09-29T11:45:24Z</time>
      </trkpt>
      <trkpt lat="43.0572" lon="1.93377">
        <ele>358</ele>
        <time>2013-09-29T11:45:29Z</time>
      </trkpt>
      <trkpt lat="43.05746" lon="1.93351">
        <ele>357</ele>
        <time>2013-09-29T11:45:34Z</time>
      </trkpt>
      <trkpt lat="43.05783" lon="1.93326">
        <ele>354</ele>
        <time>2013-09-29T11:45:39Z</time>
      </trkpt>
      <trkpt lat="43.05823" lon="1.93321">
        <ele>350</ele>
        <time>2013-09-29T11:45:44Z</time>
      </trkpt>
      <trkpt lat="43.05864" lon="1.93321">
        <ele>346</ele>
        <time>2013-09-29T11:45:49Z</time>
      </trkpt>
      <trkpt lat="43.05906" lon="1.93321">
        <ele>341</ele>
        <time>2013-09-29T11:45:54Z</time>
      </trkpt>
      <trkpt lat="43.05937" lon="1.93324">
        <ele>336</ele>
        <time>2013-09-29T11:45:59Z</time>
      </trkpt>
      <trkpt lat="43.05965" lon="1.93338">
        <ele>331</ele>
        <time>2013-09-29T11:46:04Z</time>
      </trkpt>
      <trkpt lat="43.05996" lon="1.93345">
        <ele>327</ele>
        <time>2013-09-29T11:46:09Z</time>
      </trkpt>
      <trkpt lat="43.06019" lon="1.93351">
        <ele>327</ele>
        <time>2013-09-29T11:46:14Z</time>
      </trkpt>
      <trkpt lat="43.06033" lon="1.93345">
        <ele>327</ele>
        <time>2013-09-29T11:46:19Z</time>
      </trkpt>
      <trkpt lat="43.06042" lon="1.93318">
        <ele>325</ele>
        <time>2013-09-29T11:46:24Z</time>
      </trkpt>
      <trkpt lat="43.06063" lon="1.93287">
        <ele>325</ele>
        <time>2013-09-29T11:46:29Z</time>
      </trkpt>
      <trkpt lat="43.06079" lon="1.93257">
        <ele>325</ele>
        <time>2013-09-29T11:46:34Z</time>
      </trkpt>
      <trkpt lat="43.06097" lon="1.93252">
        <ele>325</ele>
        <time>2013-09-29T11:46:40Z</time>
      </trkpt>
      <trkpt lat="43.06115" lon="1.93263">
        <ele>325</ele>
        <time>2013-09-29T11:46:45Z</time>
      </trkpt>
      <trkpt lat="43.06133" lon="1.93271">
        <ele>325</ele>
        <time>2013-09-29T11:46:50Z</time>
      </trkpt>
      <trkpt lat="43.06157" lon="1.93278">
        <ele>325</ele>
        <time>2013-09-29T11:46:55Z</time>
      </trkpt>
      <trkpt lat="43.06173" lon="1.93263">
        <ele>325</ele>
        <time>2013-09-29T11:47:00Z</time>
      </trkpt>
      <trkpt lat="43.06179" lon="1.93259">
        <ele>325</ele>
        <time>2013-09-29T11:47:05Z</time>
      </trkpt>
      <trkpt lat="43.06179" lon="1.93254">
        <ele>325</ele>
        <time>2013-09-29T11:47:10Z</time>
      </trkpt>
      <trkpt lat="43.06182" lon="1.93244">
        <ele>325</ele>
        <time>2013-09-29T11:47:15Z</time>
      </trkpt>
      <trkpt lat="43.06187" lon="1.9323">
        <ele>326</ele>
        <time>2013-09-29T11:47:20Z</time>
      </trkpt>
      <trkpt lat="43.06192" lon="1.93212">
        <ele>328</ele>
        <time>2013-09-29T11:47:26Z</time>
      </trkpt>
      <trkpt lat="43.062" lon="1.93193">
        <ele>329</ele>
        <time>2013-09-29T11:47:32Z</time>
      </trkpt>
      <trkpt lat="43.06206" lon="1.93176">
        <ele>329</ele>
        <time>2013-09-29T11:47:37Z</time>
      </trkpt>
      <trkpt lat="43.06212" lon="1.93161">
        <ele>329</ele>
        <time>2013-09-29T11:47:42Z</time>
      </trkpt>
      <trkpt lat="43.06216" lon="1.93146">
        <ele>329</ele>
        <time>2013-09-29T11:47:47Z</time>
      </trkpt>
      <trkpt lat="43.0622" lon="1.93133">
        <ele>331</ele>
        <time>2013-09-29T11:47:52Z</time>
      </trkpt>
      <trkpt lat="43.06223" lon="1.93119">
        <ele>332</ele>
        <time>2013-09-29T11:47:57Z</time>
      </trkpt>
      <trkpt lat="43.06227" lon="1.93107">
        <ele>333</ele>
        <time>2013-09-29T11:48:02Z</time>
      </trkpt>
      <trkpt lat="43.06231" lon="1.93093">
        <ele>334</ele>
        <time>2013-09-29T11:48:07Z</time>
      </trkpt>
      <trkpt lat="43.06235" lon="1.93078">
        <ele>334</ele>
        <time>2013-09-29T11:48:12Z</time>
      </trkpt>
      <trkpt lat="43.06237" lon="1.9306">
        <ele>334</ele>
        <time>2013-09-29T11:48:18Z</time>
      </trkpt>
      <trkpt lat="43.06238" lon="1.93042">
        <ele>335</ele>
        <time>2013-09-29T11:48:23Z</time>
      </trkpt>
      <trkpt lat="43.06239" lon="1.93024">
        <ele>336</ele>
        <time>2013-09-29T11:48:28Z</time>
      </trkpt>
      <trkpt lat="43.06239" lon="1.93008">
        <ele>337</ele>
        <time>2013-09-29T11:48:33Z</time>
      </trkpt>
      <trkpt lat="43.06244" lon="1.92989">
        <ele>339</ele>
        <time>2013-09-29T11:48:38Z</time>
      </trkpt>
      <trkpt lat="43.06248" lon="1.92971">
        <ele>341</ele>
        <time>2013-09-29T11:48:43Z</time>
      </trkpt>
      <trkpt lat="43.06256" lon="1.9295">
        <ele>343</ele>
        <time>2013-09-29T11:48:48Z</time>
      </trkpt>
      <trkpt lat="43.06263" lon="1.92927">
        <ele>344</ele>
        <time>2013-09-29T11:48:53Z</time>
      </trkpt>
      <trkpt lat="43.06267" lon="1.92902">
        <ele>347</ele>
        <time>2013-09-29T11:48:58Z</time>
      </trkpt>
      <trkpt lat="43.06272" lon="1.92879">
        <ele>351</ele>
        <time>2013-09-29T11:49:03Z</time>
      </trkpt>
      <trkpt lat="43.0628" lon="1.92852">
        <ele>354</ele>
        <time>2013-09-29T11:49:09Z</time>
      </trkpt>
      <trkpt lat="43.06288" lon="1.92828">
        <ele>355</ele>
        <time>2013-09-29T11:49:14Z</time>
      </trkpt>
      <trkpt lat="43.06296" lon="1.92806">
        <ele>355</ele>
        <time>2013-09-29T11:49:19Z</time>
      </trkpt>
      <trkpt lat="43.06305" lon="1.92785">
        <ele>355</ele>
        <time>2013-09-29T11:49:24Z</time>
      </trkpt>
      <trkpt lat="43.06312" lon="1.92764">
        <ele>355</ele>
        <time>2013-09-29T11:49:29Z</time>
      </trkpt>
      <trkpt lat="43.06318" lon="1.92743">
        <ele>355</ele>
        <time>2013-09-29T11:49:34Z</time>
      </trkpt>
      <trkpt lat="43.06325" lon="1.92723">
        <ele>355</ele>
        <time>2013-09-29T11:49:39Z</time>
      </trkpt>
      <trkpt lat="43.06332" lon="1.92702">
        <ele>355</ele>
        <time>2013-09-29T11:49:44Z</time>
      </trkpt>
      <trkpt lat="43.06339" lon="1.92681">
        <ele>356</ele>
        <time>2013-09-29T11:49:49Z</time>
      </trkpt>
      <trkpt lat="43.06345" lon="1.92659">
        <ele>357</ele>
        <time>2013-09-29T11:49:54Z</time>
      </trkpt>
      <trkpt lat="43.06351" lon="1.92638">
        <ele>358</ele>
        <time>2013-09-29T11:49:59Z</time>
      </trkpt>
      <trkpt lat="43.06357" lon="1.92616">
        <ele>359</ele>
        <time>2013-09-29T11:50:04Z</time>
      </trkpt>
      <trkpt lat="43.06362" lon="1.92598">
        <ele>361</ele>
        <time>2013-09-29T11:50:09Z</time>
      </trkpt>
      <trkpt lat="43.06367" lon="1.9258">
        <ele>363</ele>
        <time>2013-09-29T11:50:14Z</time>
      </trkpt>
      <trkpt lat="43.06372" lon="1.92563">
        <ele>365</ele>
        <time>2013-09-29T11:50:19Z</time>
      </trkpt>
      <trkpt lat="43.06377" lon="1.92546">
        <ele>366</ele>
        <time>2013-09-29T11:50:24Z</time>
      </trkpt>
      <trkpt lat="43.06386" lon="1.92533">
        <ele>367</ele>
        <time>2013-09-29T11:50:29Z</time>
      </trkpt>
      <trkpt lat="43.06395" lon="1.92525">
        <ele>368</ele>
        <time>2013-09-29T11:50:34Z</time>
      </trkpt>
      <trkpt lat="43.06404" lon="1.92512">
        <ele>370</ele>
        <time>2013-09-29T11:50:39Z</time>
      </trkpt>
      <trkpt lat="43.06411" lon="1.92499">
        <ele>372</ele>
        <time>2013-09-29T11:50:44Z</time>
      </trkpt>
      <trkpt lat="43.06418" lon="1.92486">
        <ele>373</ele>
        <time>2013-09-29T11:50:49Z</time>
      </trkpt>
      <trkpt lat="43.06427" lon="1.92475">
        <ele>374</ele>
        <time>2013-09-29T11:50:54Z</time>
      </trkpt>
      <trkpt lat="43.06434" lon="1.92464">
        <ele>375</ele>
        <time>2013-09-29T11:50:59Z</time>
      </trkpt>
      <trkpt lat="43.06437" lon="1.9245">
        <ele>376</ele>
        <time>2013-09-29T11:51:04Z</time>
      </trkpt>
      <trkpt lat="43.06436" lon="1.92435">
        <ele>376</ele>
        <time>2013-09-29T11:51:09Z</time>
      </trkpt>
      <trkpt lat="43.06432" lon="1.92418">
        <ele>376</ele>
        <time>2013-09-29T11:51:14Z</time>
      </trkpt>
      <trkpt lat="43.06428" lon="1.92397">
        <ele>376</ele>
        <time>2013-09-29T11:51:19Z</time>
      </trkpt>
      <trkpt lat="43.06423" lon="1.92377">
        <ele>377</ele>
        <time>2013-09-29T11:51:24Z</time>
      </trkpt>
      <trkpt lat="43.06419" lon="1.92358">
        <ele>379</ele>
        <time>2013-09-29T11:51:29Z</time>
      </trkpt>
      <trkpt lat="43.06416" lon="1.92341">
        <ele>380</ele>
        <time>2013-09-29T11:51:34Z</time>
      </trkpt>
      <trkpt lat="43.06421" lon="1.92331">
        <ele>382</ele>
        <time>2013-09-29T11:51:40Z</time>
      </trkpt>
      <trkpt lat="43.06428" lon="1.92333">
        <ele>383</ele>
        <time>2013-09-29T11:51:45Z</time>
      </trkpt>
      <trkpt lat="43.06437" lon="1.92339">
        <ele>383</ele>
        <time>2013-09-29T11:51:50Z</time>
      </trkpt>
      <trkpt lat="43.06448" lon="1.92344">
        <ele>383</ele>
        <time>2013-09-29T11:51:55Z</time>
      </trkpt>
      <trkpt lat="43.06458" lon="1.92348">
        <ele>383</ele>
        <time>2013-09-29T11:52:00Z</time>
      </trkpt>
      <trkpt lat="43.06469" lon="1.92352">
        <ele>384</ele>
        <time>2013-09-29T11:52:05Z</time>
      </trkpt>
      <trkpt lat="43.06478" lon="1.92357">
        <ele>385</ele>
        <time>2013-09-29T11:52:10Z</time>
      </trkpt>
      <trkpt lat="43.0649" lon="1.92359">
        <ele>386</ele>
        <time>2013-09-29T11:52:15Z</time>
      </trkpt>
      <trkpt lat="43.06501" lon="1.92361">
        <ele>386</ele>
        <time>2013-09-29T11:52:20Z</time>
      </trkpt>
      <trkpt lat="43.06513" lon="1.92365">
        <ele>387</ele>
        <time>2013-09-29T11:52:25Z</time>
      </trkpt>
      <trkpt lat="43.06527" lon="1.92372">
        <ele>387</ele>
        <time>2013-09-29T11:52:30Z</time>
      </trkpt>
      <trkpt lat="43.06544" lon="1.92383">
        <ele>387</ele>
        <time>2013-09-29T11:52:35Z</time>
      </trkpt>
      <trkpt lat="43.0657" lon="1.92401">
        <ele>387</ele>
        <time>2013-09-29T11:52:41Z</time>
      </trkpt>
      <trkpt lat="43.06595" lon="1.92415">
        <ele>387</ele>
        <time>2013-09-29T11:52:47Z</time>
      </trkpt>
      <trkpt lat="43.06616" lon="1.9242">
        <ele>387</ele>
        <time>2013-09-29T11:52:52Z</time>
      </trkpt>
      <trkpt lat="43.06633" lon="1.92425">
        <ele>387</ele>
        <time>2013-09-29T11:52:57Z</time>
      </trkpt>
      <trkpt lat="43.06649" lon="1.92429">
        <ele>387</ele>
        <time>2013-09-29T11:53:02Z</time>
      </trkpt>
      <trkpt lat="43.06667" lon="1.92429">
        <ele>387</ele>
        <time>2013-09-29T11:53:08Z</time>
      </trkpt>
      <trkpt lat="43.06682" lon="1.9243">
        <ele>387</ele>
        <time>2013-09-29T11:53:13Z</time>
      </trkpt>
      <trkpt lat="43.06694" lon="1.92431">
        <ele>389</ele>
        <time>2013-09-29T11:53:19Z</time>
      </trkpt>
      <trkpt lat="43.06704" lon="1.92431">
        <ele>391</ele>
        <time>2013-09-29T11:53:24Z</time>
      </trkpt>
      <trkpt lat="43.06717" lon="1.92431">
        <ele>393</ele>
        <time>2013-09-29T11:53:30Z</time>
      </trkpt>
      <trkpt lat="43.06728" lon="1.9243">
        <ele>395</ele>
        <time>2013-09-29T11:53:36Z</time>
      </trkpt>
      <trkpt lat="43.06739" lon="1.92432">
        <ele>396</ele>
        <time>2013-09-29T11:53:41Z</time>
      </trkpt>
      <trkpt lat="43.06754" lon="1.92437">
        <ele>396</ele>
        <time>2013-09-29T11:53:46Z</time>
      </trkpt>
      <trkpt lat="43.0677" lon="1.92444">
        <ele>396</ele>
        <time>2013-09-29T11:53:51Z</time>
      </trkpt>
      <trkpt lat="43.06783" lon="1.92445">
        <ele>396</ele>
        <time>2013-09-29T11:53:56Z</time>
      </trkpt>
      <trkpt lat="43.06781" lon="1.92432">
        <ele>396</ele>
        <time>2013-09-29T11:54:01Z</time>
      </trkpt>
      <trkpt lat="43.06773" lon="1.92403">
        <ele>396</ele>
        <time>2013-09-29T11:54:07Z</time>
      </trkpt>
      <trkpt lat="43.06768" lon="1.92377">
        <ele>396</ele>
        <time>2013-09-29T11:54:12Z</time>
      </trkpt>
      <trkpt lat="43.06763" lon="1.92356">
        <ele>397</ele>
        <time>2013-09-29T11:54:17Z</time>
      </trkpt>
      <trkpt lat="43.06759" lon="1.92338">
        <ele>398</ele>
        <time>2013-09-29T11:54:22Z</time>
      </trkpt>
      <trkpt lat="43.06756" lon="1.92325">
        <ele>400</ele>
        <time>2013-09-29T11:54:27Z</time>
      </trkpt>
      <trkpt lat="43.06754" lon="1.92312">
        <ele>402</ele>
        <time>2013-09-29T11:54:32Z</time>
      </trkpt>
      <trkpt lat="43.06756" lon="1.923">
        <ele>404</ele>
        <time>2013-09-29T11:54:37Z</time>
      </trkpt>
      <trkpt lat="43.06763" lon="1.92292">
        <ele>406</ele>
        <time>2013-09-29T11:54:42Z</time>
      </trkpt>
      <trkpt lat="43.06774" lon="1.92284">
        <ele>408</ele>
        <time>2013-09-29T11:54:48Z</time>
      </trkpt>
      <trkpt lat="43.06782" lon="1.92278">
        <ele>410</ele>
        <time>2013-09-29T11:54:53Z</time>
      </trkpt>
      <trkpt lat="43.06791" lon="1.92273">
        <ele>411</ele>
        <time>2013-09-29T11:54:58Z</time>
      </trkpt>
      <trkpt lat="43.06801" lon="1.92269">
        <ele>412</ele>
        <time>2013-09-29T11:55:03Z</time>
      </trkpt>
      <trkpt lat="43.06815" lon="1.92261">
        <ele>414</ele>
        <time>2013-09-29T11:55:09Z</time>
      </trkpt>
      <trkpt lat="43.06815" lon="1.92249">
        <ele>415</ele>
        <time>2013-09-29T11:55:14Z</time>
      </trkpt>
      <trkpt lat="43.06809" lon="1.9224">
        <ele>416</ele>
        <time>2013-09-29T11:55:19Z</time>
      </trkpt>
      <trkpt lat="43.06799" lon="1.92228">
        <ele>417</ele>
        <time>2013-09-29T11:55:25Z</time>
      </trkpt>
      <trkpt lat="43.06787" lon="1.92226">
        <ele>418</ele>
        <time>2013-09-29T11:55:30Z</time>
      </trkpt>
      <trkpt lat="43.0678" lon="1.9222">
        <ele>420</ele>
        <time>2013-09-29T11:55:35Z</time>
      </trkpt>
      <trkpt lat="43.06782" lon="1.92206">
        <ele>421</ele>
        <time>2013-09-29T11:55:40Z</time>
      </trkpt>
      <trkpt lat="43.06781" lon="1.92188">
        <ele>421</ele>
        <time>2013-09-29T11:55:45Z</time>
      </trkpt>
      <trkpt lat="43.06778" lon="1.92162">
        <ele>422</ele>
        <time>2013-09-29T11:55:51Z</time>
      </trkpt>
      <trkpt lat="43.0677" lon="1.92131">
        <ele>423</ele>
        <time>2013-09-29T11:55:56Z</time>
      </trkpt>
      <trkpt lat="43.06764" lon="1.92098">
        <ele>423</ele>
        <time>2013-09-29T11:56:01Z</time>
      </trkpt>
      <trkpt lat="43.06763" lon="1.92058">
        <ele>423</ele>
        <time>2013-09-29T11:56:06Z</time>
      </trkpt>
      <trkpt lat="43.06758" lon="1.91988">
        <ele>423</ele>
        <time>2013-09-29T11:56:12Z</time>
      </trkpt>
      <trkpt lat="43.0676" lon="1.91935">
        <ele>423</ele>
        <time>2013-09-29T11:56:17Z</time>
      </trkpt>
      <trkpt lat="43.06756" lon="1.91913">
        <ele>421</ele>
        <time>2013-09-29T11:56:22Z</time>
      </trkpt>
      <trkpt lat="43.0676" lon="1.91902">
        <ele>419</ele>
        <time>2013-09-29T11:56:27Z</time>
      </trkpt>
      <trkpt lat="43.0676" lon="1.91892">
        <ele>419</ele>
        <time>2013-09-29T11:56:32Z</time>
      </trkpt>
      <trkpt lat="43.0676" lon="1.91859">
        <ele>418</ele>
        <time>2013-09-29T11:56:37Z</time>
      </trkpt>
      <trkpt lat="43.06756" lon="1.91814">
        <ele>415</ele>
        <time>2013-09-29T11:56:43Z</time>
      </trkpt>
      <trkpt lat="43.06735" lon="1.91788">
        <ele>413</ele>
        <time>2013-09-29T11:56:48Z</time>
      </trkpt>
      <trkpt lat="43.06706" lon="1.91768">
        <ele>411</ele>
        <time>2013-09-29T11:56:53Z</time>
      </trkpt>
      <trkpt lat="43.06722" lon="1.91735">
        <ele>410</ele>
        <time>2013-09-29T11:56:59Z</time>
      </trkpt>
      <trkpt lat="43.06743" lon="1.91701">
        <ele>410</ele>
        <time>2013-09-29T11:57:04Z</time>
      </trkpt>
      <trkpt lat="43.06774" lon="1.91695">
        <ele>410</ele>
        <time>2013-09-29T11:57:09Z</time>
      </trkpt>
      <trkpt lat="43.06797" lon="1.91701">
        <ele>410</ele>
        <time>2013-09-29T11:57:14Z</time>
      </trkpt>
      <trkpt lat="43.06804" lon="1.91701">
        <ele>409</ele>
        <time>2013-09-29T11:57:27Z</time>
      </trkpt>
      <trkpt lat="43.06794" lon="1.91698">
        <ele>409</ele>
        <time>2013-09-29T11:57:32Z</time>
      </trkpt>
      <trkpt lat="43.06765" lon="1.91697">
        <ele>407</ele>
        <time>2013-09-29T11:57:38Z</time>
      </trkpt>
      <trkpt lat="43.06735" lon="1.91713">
        <ele>404</ele>
        <time>2013-09-29T11:57:43Z</time>
      </trkpt>
      <trkpt lat="43.06721" lon="1.91747">
        <ele>401</ele>
        <time>2013-09-29T11:57:48Z</time>
      </trkpt>
      <trkpt lat="43.06711" lon="1.91773">
        <ele>399</ele>
        <time>2013-09-29T11:57:53Z</time>
      </trkpt>
      <trkpt lat="43.06726" lon="1.91786">
        <ele>399</ele>
        <time>2013-09-29T11:57:58Z</time>
      </trkpt>
      <trkpt lat="43.06748" lon="1.91801">
        <ele>399</ele>
        <time>2013-09-29T11:58:03Z</time>
      </trkpt>
      <trkpt lat="43.06771" lon="1.91829">
        <ele>399</ele>
        <time>2013-09-29T11:58:09Z</time>
      </trkpt>
      <trkpt lat="43.06792" lon="1.9185">
        <ele>399</ele>
        <time>2013-09-29T11:58:14Z</time>
      </trkpt>
      <trkpt lat="43.06805" lon="1.91895">
        <ele>399</ele>
        <time>2013-09-29T11:58:19Z</time>
      </trkpt>
      <trkpt lat="43.06818" lon="1.91931">
        <ele>399</ele>
        <time>2013-09-29T11:58:24Z</time>
      </trkpt>
      <trkpt lat="43.06842" lon="1.91928">
        <ele>397</ele>
        <time>2013-09-29T11:58:29Z</time>
      </trkpt>
      <trkpt lat="43.06884" lon="1.91925">
        <ele>394</ele>
        <time>2013-09-29T11:58:34Z</time>
      </trkpt>
      <trkpt lat="43.06919" lon="1.91896">
        <ele>391</ele>
        <time>2013-09-29T11:58:39Z</time>
      </trkpt>
      <trkpt lat="43.06961" lon="1.91889">
        <ele>390</ele>
        <time>2013-09-29T11:58:44Z</time>
      </trkpt>
      <trkpt lat="43.06996" lon="1.91887">
        <ele>386</ele>
        <time>2013-09-29T11:58:49Z</time>
      </trkpt>
      <trkpt lat="43.07037" lon="1.91876">
        <ele>385</ele>
        <time>2013-09-29T11:58:55Z</time>
      </trkpt>
      <trkpt lat="43.07066" lon="1.91879">
        <ele>385</ele>
        <time>2013-09-29T11:59:00Z</time>
      </trkpt>
      <trkpt lat="43.07096" lon="1.91875">
        <ele>385</ele>
        <time>2013-09-29T11:59:05Z</time>
      </trkpt>
      <trkpt lat="43.07132" lon="1.91872">
        <ele>385</ele>
        <time>2013-09-29T11:59:10Z</time>
      </trkpt>
      <trkpt lat="43.07171" lon="1.91875">
        <ele>385</ele>
        <time>2013-09-29T11:59:15Z</time>
      </trkpt>
      <trkpt lat="43.07209" lon="1.91897">
        <ele>381</ele>
        <time>2013-09-29T11:59:20Z</time>
      </trkpt>
      <trkpt lat="43.07239" lon="1.91935">
        <ele>380</ele>
        <time>2013-09-29T11:59:25Z</time>
      </trkpt>
      <trkpt lat="43.07265" lon="1.91961">
        <ele>380</ele>
        <time>2013-09-29T11:59:30Z</time>
      </trkpt>
      <trkpt lat="43.07296" lon="1.91989">
        <ele>377</ele>
        <time>2013-09-29T11:59:35Z</time>
      </trkpt>
      <trkpt lat="43.07333" lon="1.92019">
        <ele>373</ele>
        <time>2013-09-29T11:59:40Z</time>
      </trkpt>
      <trkpt lat="43.07363" lon="1.9205">
        <ele>372</ele>
        <time>2013-09-29T11:59:45Z</time>
      </trkpt>
      <trkpt lat="43.07384" lon="1.92072">
        <ele>372</ele>
        <time>2013-09-29T11:59:50Z</time>
      </trkpt>
      <trkpt lat="43.07397" lon="1.9209">
        <ele>372</ele>
        <time>2013-09-29T11:59:55Z</time>
      </trkpt>
      <trkpt lat="43.07412" lon="1.92107">
        <ele>373</ele>
        <time>2013-09-29T12:00:00Z</time>
      </trkpt>
      <trkpt lat="43.07424" lon="1.92121">
        <ele>374</ele>
        <time>2013-09-29T12:00:05Z</time>
      </trkpt>
      <trkpt lat="43.07432" lon="1.92103">
        <ele>379</ele>
        <time>2013-09-29T12:00:10Z</time>
      </trkpt>
      <trkpt lat="43.07435" lon="1.92069">
        <ele>380</ele>
        <time>2013-09-29T12:00:15Z</time>
      </trkpt>
      <trkpt lat="43.07449" lon="1.9203">
        <ele>381</ele>
        <time>2013-09-29T12:00:20Z</time>
      </trkpt>
      <trkpt lat="43.07452" lon="1.9199">
        <ele>382</ele>
        <time>2013-09-29T12:00:25Z</time>
      </trkpt>
      <trkpt lat="43.07454" lon="1.91947">
        <ele>385</ele>
        <time>2013-09-29T12:00:30Z</time>
      </trkpt>
      <trkpt lat="43.0746" lon="1.91904">
        <ele>386</ele>
        <time>2013-09-29T12:00:35Z</time>
      </trkpt>
      <trkpt lat="43.07475" lon="1.91869">
        <ele>388</ele>
        <time>2013-09-29T12:00:40Z</time>
      </trkpt>
      <trkpt lat="43.07484" lon="1.91833">
        <ele>392</ele>
        <time>2013-09-29T12:00:45Z</time>
      </trkpt>
      <trkpt lat="43.0748" lon="1.91803">
        <ele>392</ele>
        <time>2013-09-29T12:00:51Z</time>
      </trkpt>
      <trkpt lat="43.07467" lon="1.91779">
        <ele>392</ele>
        <time>2013-09-29T12:00:56Z</time>
      </trkpt>
      <trkpt lat="43.07453" lon="1.91753">
        <ele>392</ele>
        <time>2013-09-29T12:01:01Z</time>
      </trkpt>
      <trkpt lat="43.07438" lon="1.91729">
        <ele>392</ele>
        <time>2013-09-29T12:01:06Z</time>
      </trkpt>
      <trkpt lat="43.07427" lon="1.91709">
        <ele>392</ele>
        <time>2013-09-29T12:01:11Z</time>
      </trkpt>
      <trkpt lat="43.07415" lon="1.91692">
        <ele>393</ele>
        <time>2013-09-29T12:01:16Z</time>
      </trkpt>
      <trkpt lat="43.07405" lon="1.91667">
        <ele>395</ele>
        <time>2013-09-29T12:01:21Z</time>
      </trkpt>
      <trkpt lat="43.07394" lon="1.9162">
        <ele>395</ele>
        <time>2013-09-29T12:01:27Z</time>
      </trkpt>
      <trkpt lat="43.0738" lon="1.91577">
        <ele>395</ele>
        <time>2013-09-29T12:01:32Z</time>
      </trkpt>
      <trkpt lat="43.07362" lon="1.91535">
        <ele>393</ele>
        <time>2013-09-29T12:01:37Z</time>
      </trkpt>
      <trkpt lat="43.07346" lon="1.91511">
        <ele>390</ele>
        <time>2013-09-29T12:01:43Z</time>
      </trkpt>
      <trkpt lat="43.07336" lon="1.91495">
        <ele>388</ele>
        <time>2013-09-29T12:01:48Z</time>
      </trkpt>
      <trkpt lat="43.07341" lon="1.91486">
        <ele>388</ele>
        <time>2013-09-29T12:01:53Z</time>
      </trkpt>
      <trkpt lat="43.07344" lon="1.91487">
        <ele>388</ele>
        <time>2013-09-29T12:01:58Z</time>
      </trkpt>
      <trkpt lat="43.07352" lon="1.91486">
        <ele>388</ele>
        <time>2013-09-29T12:02:04Z</time>
      </trkpt>
      <trkpt lat="43.0736" lon="1.91453">
        <ele>388</ele>
        <time>2013-09-29T12:02:09Z</time>
      </trkpt>
      <trkpt lat="43.07367" lon="1.914">
        <ele>388</ele>
        <time>2013-09-29T12:02:14Z</time>
      </trkpt>
      <trkpt lat="43.07364" lon="1.91353">
        <ele>388</ele>
        <time>2013-09-29T12:02:19Z</time>
      </trkpt>
      <trkpt lat="43.07358" lon="1.91314">
        <ele>388</ele>
        <time>2013-09-29T12:02:24Z</time>
      </trkpt>
      <trkpt lat="43.07357" lon="1.91279">
        <ele>388</ele>
        <time>2013-09-29T12:02:29Z</time>
      </trkpt>
      <trkpt lat="43.07383" lon="1.91238">
        <ele>388</ele>
        <time>2013-09-29T12:02:35Z</time>
      </trkpt>
      <trkpt lat="43.0742" lon="1.91196">
        <ele>386</ele>
        <time>2013-09-29T12:02:41Z</time>
      </trkpt>
      <trkpt lat="43.07441" lon="1.91195">
        <ele>385</ele>
        <time>2013-09-29T12:02:46Z</time>
      </trkpt>
      <trkpt lat="43.07445" lon="1.91197">
        <ele>384</ele>
        <time>2013-09-29T12:02:51Z</time>
      </trkpt>
      <trkpt lat="43.07449" lon="1.912">
        <ele>384</ele>
        <time>2013-09-29T12:02:57Z</time>
      </trkpt>
      <trkpt lat="43.07457" lon="1.91221">
        <ele>384</ele>
        <time>2013-09-29T12:03:02Z</time>
      </trkpt>
      <trkpt lat="43.07479" lon="1.91238">
        <ele>382</ele>
        <time>2013-09-29T12:03:07Z</time>
      </trkpt>
      <trkpt lat="43.07499" lon="1.91194">
        <ele>378</ele>
        <time>2013-09-29T12:03:12Z</time>
      </trkpt>
      <trkpt lat="43.07538" lon="1.91124">
        <ele>373</ele>
        <time>2013-09-29T12:03:17Z</time>
      </trkpt>
      <trkpt lat="43.07534" lon="1.91068">
        <ele>368</ele>
        <time>2013-09-29T12:03:22Z</time>
      </trkpt>
      <trkpt lat="43.0754" lon="1.91022">
        <ele>365</ele>
        <time>2013-09-29T12:03:27Z</time>
      </trkpt>
      <trkpt lat="43.07538" lon="1.90962">
        <ele>360</ele>
        <time>2013-09-29T12:03:32Z</time>
      </trkpt>
      <trkpt lat="43.07534" lon="1.90898">
        <ele>355</ele>
        <time>2013-09-29T12:03:37Z</time>
      </trkpt>
      <trkpt lat="43.07528" lon="1.90829">
        <ele>350</ele>
        <time>2013-09-29T12:03:42Z</time>
      </trkpt>
      <trkpt lat="43.07521" lon="1.90764">
        <ele>345</ele>
        <time>2013-09-29T12:03:47Z</time>
      </trkpt>
      <trkpt lat="43.07542" lon="1.9073">
        <ele>340</ele>
        <time>2013-09-29T12:03:52Z</time>
      </trkpt>
      <trkpt lat="43.07578" lon="1.90701">
        <ele>335</ele>
        <time>2013-09-29T12:03:57Z</time>
      </trkpt>
      <trkpt lat="43.07616" lon="1.90669">
        <ele>332</ele>
        <time>2013-09-29T12:04:02Z</time>
      </trkpt>
      <trkpt lat="43.07658" lon="1.90635">
        <ele>331</ele>
        <time>2013-09-29T12:04:07Z</time>
      </trkpt>
      <trkpt lat="43.077" lon="1.906">
        <ele>331</ele>
        <time>2013-09-29T12:04:12Z</time>
      </trkpt>
      <trkpt lat="43.07738" lon="1.90566">
        <ele>331</ele>
        <time>2013-09-29T12:04:17Z</time>
      </trkpt>
      <trkpt lat="43.07775" lon="1.90526">
        <ele>330</ele>
        <time>2013-09-29T12:04:22Z</time>
      </trkpt>
      <trkpt lat="43.07805" lon="1.9047">
        <ele>329</ele>
        <time>2013-09-29T12:04:27Z</time>
      </trkpt>
      <trkpt lat="43.07841" lon="1.90398">
        <ele>326</ele>
        <time>2013-09-29T12:04:33Z</time>
      </trkpt>
      <trkpt lat="43.07879" lon="1.90323">
        <ele>323</ele>
        <time>2013-09-29T12:04:39Z</time>
      </trkpt>
      <trkpt lat="43.07914" lon="1.90271">
        <ele>322</ele>
        <time>2013-09-29T12:04:44Z</time>
      </trkpt>
      <trkpt lat="43.07961" lon="1.90238">
        <ele>321</ele>
        <time>2013-09-29T12:04:50Z</time>
      </trkpt>
      <trkpt lat="43.07978" lon="1.90189">
        <ele>321</ele>
        <time>2013-09-29T12:04:55Z</time>
      </trkpt>
      <trkpt lat="43.07996" lon="1.90133">
        <ele>321</ele>
        <time>2013-09-29T12:05:01Z</time>
      </trkpt>
      <trkpt lat="43.0803" lon="1.90116">
        <ele>321</ele>
        <time>2013-09-29T12:05:06Z</time>
      </trkpt>
      <trkpt lat="43.08069" lon="1.90105">
        <ele>321</ele>
        <time>2013-09-29T12:05:11Z</time>
      </trkpt>
      <trkpt lat="43.0811" lon="1.90093">
        <ele>321</ele>
        <time>2013-09-29T12:05:16Z</time>
      </trkpt>
      <trkpt lat="43.08158" lon="1.90066">
        <ele>321</ele>
        <time>2013-09-29T12:05:22Z</time>
      </trkpt>
      <trkpt lat="43.08198" lon="1.9004">
        <ele>321</ele>
        <time>2013-09-29T12:05:27Z</time>
      </trkpt>
      <trkpt lat="43.08237" lon="1.90014">
        <ele>318</ele>
        <time>2013-09-29T12:05:32Z</time>
      </trkpt>
      <trkpt lat="43.08278" lon="1.89994">
        <ele>317</ele>
        <time>2013-09-29T12:05:37Z</time>
      </trkpt>
      <trkpt lat="43.08321" lon="1.89977">
        <ele>315</ele>
        <time>2013-09-29T12:05:42Z</time>
      </trkpt>
      <trkpt lat="43.08365" lon="1.8996">
        <ele>315</ele>
        <time>2013-09-29T12:05:47Z</time>
      </trkpt>
      <trkpt lat="43.08406" lon="1.89943">
        <ele>314</ele>
        <time>2013-09-29T12:05:52Z</time>
      </trkpt>
      <trkpt lat="43.08431" lon="1.89888">
        <ele>312</ele>
        <time>2013-09-29T12:05:58Z</time>
      </trkpt>
      <trkpt lat="43.08441" lon="1.89831">
        <ele>312</ele>
        <time>2013-09-29T12:06:03Z</time>
      </trkpt>
      <trkpt lat="43.08453" lon="1.89762">
        <ele>312</ele>
        <time>2013-09-29T12:06:09Z</time>
      </trkpt>
      <trkpt lat="43.08461" lon="1.89708">
        <ele>312</ele>
        <time>2013-09-29T12:06:14Z</time>
      </trkpt>
      <trkpt lat="43.08469" lon="1.89659">
        <ele>312</ele>
        <time>2013-09-29T12:06:19Z</time>
      </trkpt>
      <trkpt lat="43.08477" lon="1.89621">
        <ele>312</ele>
        <time>2013-09-29T12:06:24Z</time>
      </trkpt>
      <trkpt lat="43.08487" lon="1.8961">
        <ele>312</ele>
        <time>2013-09-29T12:06:30Z</time>
      </trkpt>
      <trkpt lat="43.08506" lon="1.89612">
        <ele>312</ele>
        <time>2013-09-29T12:06:35Z</time>
      </trkpt>
      <trkpt lat="43.08536" lon="1.89606">
        <ele>312</ele>
        <time>2013-09-29T12:06:40Z</time>
      </trkpt>
      <trkpt lat="43.0856" lon="1.89602">
        <ele>311</ele>
        <time>2013-09-29T12:06:45Z</time>
      </trkpt>
      <trkpt lat="43.08572" lon="1.896">
        <ele>310</ele>
        <time>2013-09-29T12:06:52Z</time>
      </trkpt>
      <trkpt lat="43.08585" lon="1.89598">
        <ele>309</ele>
        <time>2013-09-29T12:06:57Z</time>
      </trkpt>
      <trkpt lat="43.08597" lon="1.89596">
        <ele>308</ele>
        <time>2013-09-29T12:07:02Z</time>
      </trkpt>
      <trkpt lat="43.08599" lon="1.89598">
        <ele>307</ele>
        <time>2013-09-29T12:07:13Z</time>
      </trkpt>
      <trkpt lat="43.08588" lon="1.896">
        <ele>307</ele>
        <time>2013-09-29T12:07:18Z</time>
      </trkpt>
      <trkpt lat="43.08566" lon="1.89604">
        <ele>307</ele>
        <time>2013-09-29T12:07:23Z</time>
      </trkpt>
      <trkpt lat="43.08538" lon="1.8961">
        <ele>307</ele>
        <time>2013-09-29T12:07:28Z</time>
      </trkpt>
      <trkpt lat="43.08514" lon="1.89616">
        <ele>307</ele>
        <time>2013-09-29T12:07:33Z</time>
      </trkpt>
      <trkpt lat="43.08495" lon="1.8962">
        <ele>307</ele>
        <time>2013-09-29T12:07:38Z</time>
      </trkpt>
      <trkpt lat="43.08485" lon="1.89604">
        <ele>307</ele>
        <time>2013-09-29T12:07:43Z</time>
      </trkpt>
      <trkpt lat="43.08492" lon="1.89569">
        <ele>307</ele>
        <time>2013-09-29T12:07:48Z</time>
      </trkpt>
      <trkpt lat="43.08497" lon="1.89536">
        <ele>307</ele>
        <time>2013-09-29T12:07:53Z</time>
      </trkpt>
      <trkpt lat="43.08503" lon="1.89504">
        <ele>307</ele>
        <time>2013-09-29T12:07:58Z</time>
      </trkpt>
      <trkpt lat="43.08509" lon="1.89471">
        <ele>308</ele>
        <time>2013-09-29T12:08:03Z</time>
      </trkpt>
      <trkpt lat="43.08515" lon="1.89439">
        <ele>309</ele>
        <time>2013-09-29T12:08:08Z</time>
      </trkpt>
      <trkpt lat="43.08521" lon="1.89407">
        <ele>310</ele>
        <time>2013-09-29T12:08:13Z</time>
      </trkpt>
      <trkpt lat="43.08533" lon="1.89385">
        <ele>310</ele>
        <time>2013-09-29T12:08:18Z</time>
      </trkpt>
      <trkpt lat="43.08559" lon="1.89385">
        <ele>310</ele>
        <time>2013-09-29T12:08:23Z</time>
      </trkpt>
      <trkpt lat="43.08585" lon="1.89385">
        <ele>310</ele>
        <time>2013-09-29T12:08:28Z</time>
      </trkpt>
      <trkpt lat="43.08615" lon="1.89385">
        <ele>310</ele>
        <time>2013-09-29T12:08:33Z</time>
      </trkpt>
      <trkpt lat="43.08647" lon="1.89385">
        <ele>310</ele>
        <time>2013-09-29T12:08:38Z</time>
      </trkpt>
      <trkpt lat="43.08678" lon="1.89384">
        <ele>310</ele>
        <time>2013-09-29T12:08:43Z</time>
      </trkpt>
      <trkpt lat="43.0871" lon="1.89383">
        <ele>310</ele>
        <time>2013-09-29T12:08:48Z</time>
      </trkpt>
      <trkpt lat="43.08745" lon="1.89382">
        <ele>310</ele>
        <time>2013-09-29T12:08:53Z</time>
      </trkpt>
      <trkpt lat="43.08777" lon="1.89382">
        <ele>308</ele>
        <time>2013-09-29T12:08:58Z</time>
      </trkpt>
      <trkpt lat="43.08783" lon="1.89385">
        <ele>307</ele>
        <time>2013-09-29T12:09:05Z</time>
      </trkpt>
      <trkpt lat="43.0878" lon="1.89388">
        <ele>307</ele>
        <time>2013-09-29T12:09:10Z</time>
      </trkpt>
      <trkpt lat="43.08768" lon="1.89404">
        <ele>306</ele>
        <time>2013-09-29T12:09:15Z</time>
      </trkpt>
      <trkpt lat="43.0875" lon="1.89427">
        <ele>306</ele>
        <time>2013-09-29T12:09:20Z</time>
      </trkpt>
      <trkpt lat="43.08734" lon="1.89451">
        <ele>306</ele>
        <time>2013-09-29T12:09:25Z</time>
      </trkpt>
      <trkpt lat="43.08716" lon="1.89474">
        <ele>306</ele>
        <time>2013-09-29T12:09:30Z</time>
      </trkpt>
      <trkpt lat="43.08696" lon="1.89488">
        <ele>306</ele>
        <time>2013-09-29T12:09:35Z</time>
      </trkpt>
      <trkpt lat="43.08676" lon="1.89503">
        <ele>306</ele>
        <time>2013-09-29T12:09:40Z</time>
      </trkpt>
      <trkpt lat="43.08655" lon="1.8952">
        <ele>306</ele>
        <time>2013-09-29T12:09:45Z</time>
      </trkpt>
      <trkpt lat="43.08634" lon="1.89541">
        <ele>306</ele>
        <time>2013-09-29T12:09:50Z</time>
      </trkpt>
      <trkpt lat="43.08615" lon="1.89562">
        <ele>306</ele>
        <time>2013-09-29T12:09:55Z</time>
      </trkpt>
      <trkpt lat="43.08598" lon="1.89586">
        <ele>306</ele>
        <time>2013-09-29T12:10:00Z</time>
      </trkpt>
      <trkpt lat="43.08602" lon="1.89601">
        <ele>304</ele>
        <time>2013-09-29T12:10:05Z</time>
      </trkpt>
      <trkpt lat="43.08633" lon="1.89605">
        <ele>303</ele>
        <time>2013-09-29T12:10:10Z</time>
      </trkpt>
      <trkpt lat="43.0867" lon="1.89625">
        <ele>301</ele>
        <time>2013-09-29T12:10:15Z</time>
      </trkpt>
      <trkpt lat="43.08706" lon="1.89644">
        <ele>300</ele>
        <time>2013-09-29T12:10:20Z</time>
      </trkpt>
      <trkpt lat="43.08739" lon="1.89665">
        <ele>300</ele>
        <time>2013-09-29T12:10:25Z</time>
      </trkpt>
      <trkpt lat="43.08771" lon="1.89685">
        <ele>300</ele>
        <time>2013-09-29T12:10:30Z</time>
      </trkpt>
      <trkpt lat="43.08795" lon="1.89667">
        <ele>300</ele>
        <time>2013-09-29T12:10:35Z</time>
      </trkpt>
      <trkpt lat="43.08811" lon="1.89625">
        <ele>300</ele>
        <time>2013-09-29T12:10:40Z</time>
      </trkpt>
      <trkpt lat="43.08829" lon="1.89585">
        <ele>299</ele>
        <time>2013-09-29T12:10:45Z</time>
      </trkpt>
      <trkpt lat="43.08845" lon="1.89541">
        <ele>297</ele>
        <time>2013-09-29T12:10:50Z</time>
      </trkpt>
      <trkpt lat="43.08861" lon="1.89501">
        <ele>296</ele>
        <time>2013-09-29T12:10:55Z</time>
      </trkpt>
      <trkpt lat="43.08876" lon="1.89464">
        <ele>294</ele>
        <time>2013-09-29T12:11:00Z</time>
      </trkpt>
      <trkpt lat="43.0889" lon="1.8943">
        <ele>293</ele>
        <time>2013-09-29T12:11:05Z</time>
      </trkpt>
      <trkpt lat="43.08904" lon="1.89397">
        <ele>292</ele>
        <time>2013-09-29T12:11:10Z</time>
      </trkpt>
      <trkpt lat="43.08913" lon="1.89356">
        <ele>291</ele>
        <time>2013-09-29T12:11:15Z</time>
      </trkpt>
      <trkpt lat="43.08924" lon="1.89322">
        <ele>291</ele>
        <time>2013-09-29T12:11:20Z</time>
      </trkpt>
      <trkpt lat="43.08938" lon="1.89289">
        <ele>291</ele>
        <time>2013-09-29T12:11:25Z</time>
      </trkpt>
      <trkpt lat="43.08947" lon="1.89257">
        <ele>291</ele>
        <time>2013-09-29T12:11:30Z</time>
      </trkpt>
      <trkpt lat="43.08938" lon="1.89223">
        <ele>293</ele>
        <time>2013-09-29T12:11:35Z</time>
      </trkpt>
      <trkpt lat="43.08928" lon="1.89192">
        <ele>295</ele>
        <time>2013-09-29T12:11:40Z</time>
      </trkpt>
      <trkpt lat="43.08914" lon="1.89166">
        <ele>297</ele>
        <time>2013-09-29T12:11:45Z</time>
      </trkpt>
      <trkpt lat="43.08902" lon="1.8914">
        <ele>298</ele>
        <time>2013-09-29T12:11:50Z</time>
      </trkpt>
      <trkpt lat="43.08897" lon="1.8911">
        <ele>300</ele>
        <time>2013-09-29T12:11:55Z</time>
      </trkpt>
      <trkpt lat="43.08892" lon="1.89078">
        <ele>301</ele>
        <time>2013-09-29T12:12:00Z</time>
      </trkpt>
      <trkpt lat="43.0889" lon="1.89042">
        <ele>301</ele>
        <time>2013-09-29T12:12:05Z</time>
      </trkpt>
      <trkpt lat="43.08891" lon="1.89004">
        <ele>301</ele>
        <time>2013-09-29T12:12:10Z</time>
      </trkpt>
      <trkpt lat="43.08892" lon="1.88966">
        <ele>302</ele>
        <time>2013-09-29T12:12:15Z</time>
      </trkpt>
      <trkpt lat="43.089" lon="1.88927">
        <ele>302</ele>
        <time>2013-09-29T12:12:20Z</time>
      </trkpt>
      <trkpt lat="43.0891" lon="1.88886">
        <ele>302</ele>
        <time>2013-09-29T12:12:25Z</time>
      </trkpt>
      <trkpt lat="43.08922" lon="1.88845">
        <ele>302</ele>
        <time>2013-09-29T12:12:30Z</time>
      </trkpt>
      <trkpt lat="43.08938" lon="1.88803">
        <ele>303</ele>
        <time>2013-09-29T12:12:35Z</time>
      </trkpt>
      <trkpt lat="43.08954" lon="1.88771">
        <ele>304</ele>
        <time>2013-09-29T12:12:40Z</time>
      </trkpt>
      <trkpt lat="43.08952" lon="1.88765">
        <ele>304</ele>
        <time>2013-09-29T12:12:48Z</time>
      </trkpt>
      <trkpt lat="43.08947" lon="1.8876">
        <ele>304</ele>
        <time>2013-09-29T12:12:53Z</time>
      </trkpt>
      <trkpt lat="43.08942" lon="1.8874">
        <ele>304</ele>
        <time>2013-09-29T12:12:58Z</time>
      </trkpt>
      <trkpt lat="43.0894" lon="1.88715">
        <ele>304</ele>
        <time>2013-09-29T12:13:03Z</time>
      </trkpt>
      <trkpt lat="43.08939" lon="1.88686">
        <ele>304</ele>
        <time>2013-09-29T12:13:09Z</time>
      </trkpt>
      <trkpt lat="43.08937" lon="1.88658">
        <ele>304</ele>
        <time>2013-09-29T12:13:14Z</time>
      </trkpt>
      <trkpt lat="43.08934" lon="1.88628">
        <ele>304</ele>
        <time>2013-09-29T12:13:19Z</time>
      </trkpt>
      <trkpt lat="43.08928" lon="1.88596">
        <ele>304</ele>
        <time>2013-09-29T12:13:24Z</time>
      </trkpt>
      <trkpt lat="43.08923" lon="1.88566">
        <ele>304</ele>
        <time>2013-09-29T12:13:29Z</time>
      </trkpt>
      <trkpt lat="43.08917" lon="1.88536">
        <ele>304</ele>
        <time>2013-09-29T12:13:34Z</time>
      </trkpt>
      <trkpt lat="43.08911" lon="1.88505">
        <ele>304</ele>
        <time>2013-09-29T12:13:39Z</time>
      </trkpt>
      <trkpt lat="43.08905" lon="1.88475">
        <ele>304</ele>
        <time>2013-09-29T12:13:44Z</time>
      </trkpt>
      <trkpt lat="43.08898" lon="1.88444">
        <ele>304</ele>
        <time>2013-09-29T12:13:49Z</time>
      </trkpt>
      <trkpt lat="43.08898" lon="1.88431">
        <ele>304</ele>
        <time>2013-09-29T12:13:57Z</time>
      </trkpt>
      <trkpt lat="43.08904" lon="1.8843">
        <ele>303</ele>
        <time>2013-09-29T12:14:02Z</time>
      </trkpt>
      <trkpt lat="43.08929" lon="1.88428">
        <ele>302</ele>
        <time>2013-09-29T12:14:07Z</time>
      </trkpt>
      <trkpt lat="43.08962" lon="1.88417">
        <ele>300</ele>
        <time>2013-09-29T12:14:12Z</time>
      </trkpt>
      <trkpt lat="43.08984" lon="1.88399">
        <ele>299</ele>
        <time>2013-09-29T12:14:17Z</time>
      </trkpt>
      <trkpt lat="43.08972" lon="1.88364">
        <ele>298</ele>
        <time>2013-09-29T12:14:22Z</time>
      </trkpt>
      <trkpt lat="43.0896" lon="1.88316">
        <ele>298</ele>
        <time>2013-09-29T12:14:27Z</time>
      </trkpt>
      <trkpt lat="43.08955" lon="1.8827">
        <ele>298</ele>
        <time>2013-09-29T12:14:32Z</time>
      </trkpt>
      <trkpt lat="43.0895" lon="1.88228">
        <ele>298</ele>
        <time>2013-09-29T12:14:37Z</time>
      </trkpt>
      <trkpt lat="43.08946" lon="1.88188">
        <ele>298</ele>
        <time>2013-09-29T12:14:42Z</time>
      </trkpt>
      <trkpt lat="43.08945" lon="1.88144">
        <ele>298</ele>
        <time>2013-09-29T12:14:47Z</time>
      </trkpt>
      <trkpt lat="43.08953" lon="1.88102">
        <ele>298</ele>
        <time>2013-09-29T12:14:52Z</time>
      </trkpt>
      <trkpt lat="43.08969" lon="1.88065">
        <ele>298</ele>
        <time>2013-09-29T12:14:57Z</time>
      </trkpt>
      <trkpt lat="43.08982" lon="1.88027">
        <ele>298</ele>
        <time>2013-09-29T12:15:02Z</time>
      </trkpt>
      <trkpt lat="43.08992" lon="1.87991">
        <ele>298</ele>
        <time>2013-09-29T12:15:07Z</time>
      </trkpt>
      <trkpt lat="43.08997" lon="1.87963">
        <ele>298</ele>
        <time>2013-09-29T12:15:12Z</time>
      </trkpt>
      <trkpt lat="43.09" lon="1.87943">
        <ele>298</ele>
        <time>2013-09-29T12:15:17Z</time>
      </trkpt>
      <trkpt lat="43.09001" lon="1.87927">
        <ele>299</ele>
        <time>2013-09-29T12:15:22Z</time>
      </trkpt>
      <trkpt lat="43.09002" lon="1.87905">
        <ele>300</ele>
        <time>2013-09-29T12:15:27Z</time>
      </trkpt>
      <trkpt lat="43.09003" lon="1.87888">
        <ele>300</ele>
        <time>2013-09-29T12:15:32Z</time>
      </trkpt>
      <trkpt lat="43.09004" lon="1.87858">
        <ele>300</ele>
        <time>2013-09-29T12:15:37Z</time>
      </trkpt>
      <trkpt lat="43.09005" lon="1.87822">
        <ele>300</ele>
        <time>2013-09-29T12:15:42Z</time>
      </trkpt>
      <trkpt lat="43.09003" lon="1.878">
        <ele>301</ele>
        <time>2013-09-29T12:15:47Z</time>
      </trkpt>
      <trkpt lat="43.08996" lon="1.8779">
        <ele>301</ele>
        <time>2013-09-29T12:15:52Z</time>
      </trkpt>
      <trkpt lat="43.08982" lon="1.87792">
        <ele>301</ele>
        <time>2013-09-29T12:15:57Z</time>
      </trkpt>
      <trkpt lat="43.08968" lon="1.8779">
        <ele>301</ele>
        <time>2013-09-29T12:16:02Z</time>
      </trkpt>
      <trkpt lat="43.08973" lon="1.87786">
        <ele>301</ele>
        <time>2013-09-29T12:16:07Z</time>
      </trkpt>
      <trkpt lat="43.08992" lon="1.87787">
        <ele>303</ele>
        <time>2013-09-29T12:16:12Z</time>
      </trkpt>
      <trkpt lat="43.09007" lon="1.87782">
        <ele>303</ele>
        <time>2013-09-29T12:16:17Z</time>
      </trkpt>
      <trkpt lat="43.0901" lon="1.87757">
        <ele>303</ele>
        <time>2013-09-29T12:16:22Z</time>
      </trkpt>
      <trkpt lat="43.09008" lon="1.87734">
        <ele>303</ele>
        <time>2013-09-29T12:16:27Z</time>
      </trkpt>
      <trkpt lat="43.0899" lon="1.87727">
        <ele>303</ele>
        <time>2013-09-29T12:16:32Z</time>
      </trkpt>
      <trkpt lat="43.08967" lon="1.87727">
        <ele>306</ele>
        <time>2013-09-29T12:16:37Z</time>
      </trkpt>
      <trkpt lat="43.08941" lon="1.87725">
        <ele>307</ele>
        <time>2013-09-29T12:16:42Z</time>
      </trkpt>
      <trkpt lat="43.08916" lon="1.87726">
        <ele>307</ele>
        <time>2013-09-29T12:16:47Z</time>
      </trkpt>
      <trkpt lat="43.0889" lon="1.87725">
        <ele>307</ele>
        <time>2013-09-29T12:16:52Z</time>
      </trkpt>
      <trkpt lat="43.08867" lon="1.87728">
        <ele>307</ele>
        <time>2013-09-29T12:16:57Z</time>
      </trkpt>
      <trkpt lat="43.08843" lon="1.87726">
        <ele>307</ele>
        <time>2013-09-29T12:17:02Z</time>
      </trkpt>
      <trkpt lat="43.08818" lon="1.87725">
        <ele>307</ele>
        <time>2013-09-29T12:17:07Z</time>
      </trkpt>
      <trkpt lat="43.08797" lon="1.87724">
        <ele>307</ele>
        <time>2013-09-29T12:17:12Z</time>
      </trkpt>
      <trkpt lat="43.08797" lon="1.87692">
        <ele>307</ele>
        <time>2013-09-29T12:17:17Z</time>
      </trkpt>
      <trkpt lat="43.08798" lon="1.8765">
        <ele>307</ele>
        <time>2013-09-29T12:17:22Z</time>
      </trkpt>
      <trkpt lat="43.08799" lon="1.87612">
        <ele>307</ele>
        <time>2013-09-29T12:17:27Z</time>
      </trkpt>
      <trkpt lat="43.08799" lon="1.87576">
        <ele>307</ele>
        <time>2013-09-29T12:17:32Z</time>
      </trkpt>
      <trkpt lat="43.08799" lon="1.8755">
        <ele>307</ele>
        <time>2013-09-29T12:17:37Z</time>
      </trkpt>
      <trkpt lat="43.08798" lon="1.87515">
        <ele>308</ele>
        <time>2013-09-29T12:17:42Z</time>
      </trkpt>
      <trkpt lat="43.08796" lon="1.87488">
        <ele>308</ele>
        <time>2013-09-29T12:17:47Z</time>
      </trkpt>
      <trkpt lat="43.08782" lon="1.87484">
        <ele>308</ele>
        <time>2013-09-29T12:17:52Z</time>
      </trkpt>
      <trkpt lat="43.08776" lon="1.87479">
        <ele>310</ele>
        <time>2013-09-29T12:17:57Z</time>
      </trkpt>
      <trkpt lat="43.08775" lon="1.87472">
        <ele>312</ele>
        <time>2013-09-29T12:18:02Z</time>
      </trkpt>
      <trkpt lat="43.08786" lon="1.87457">
        <ele>312</ele>
        <time>2013-09-29T12:18:07Z</time>
      </trkpt>
      <trkpt lat="43.08799" lon="1.87443">
        <ele>312</ele>
        <time>2013-09-29T12:18:12Z</time>
      </trkpt>
      <trkpt lat="43.08813" lon="1.87439">
        <ele>312</ele>
        <time>2013-09-29T12:18:17Z</time>
      </trkpt>
      <trkpt lat="43.08827" lon="1.87438">
        <ele>312</ele>
        <time>2013-09-29T12:18:22Z</time>
      </trkpt>
      <trkpt lat="43.08828" lon="1.87422">
        <ele>312</ele>
        <time>2013-09-29T12:18:27Z</time>
      </trkpt>
      <trkpt lat="43.08826" lon="1.87422">
        <ele>311</ele>
        <time>2013-09-29T12:18:34Z</time>
      </trkpt>
      <trkpt lat="43.08825" lon="1.87421">
        <ele>308</ele>
        <time>2013-09-29T12:18:56Z</time>
      </trkpt>
      <trkpt lat="43.08822" lon="1.87422">
        <ele>308</ele>
        <time>2013-09-29T12:19:02Z</time>
      </trkpt>
      <trkpt lat="43.08822" lon="1.87424">
        <ele>306</ele>
        <time>2013-09-29T12:19:16Z</time>
      </trkpt>
      <trkpt lat="43.08821" lon="1.87423">
        <ele>307</ele>
        <time>2013-09-29T12:19:31Z</time>
      </trkpt>
      <trkpt lat="43.08822" lon="1.87422">
        <ele>309</ele>
        <time>2013-09-29T12:19:40Z</time>
      </trkpt>
      <trkpt lat="43.08823" lon="1.87423">
        <ele>309</ele>
        <time>2013-09-29T12:19:48Z</time>
      </trkpt>
      <trkpt lat="43.08826" lon="1.87423">
        <ele>309</ele>
        <time>2013-09-29T12:19:55Z</time>
      </trkpt>
      <trkpt lat="43.08825" lon="1.87424">
        <ele>314</ele>
        <time>2013-09-29T12:20:05Z</time>
      </trkpt>
      <trkpt lat="43.08823" lon="1.87425">
        <ele>317</ele>
        <time>2013-09-29T12:20:10Z</time>
      </trkpt>
      <trkpt lat="43.08821" lon="1.87426">
        <ele>309</ele>
        <time>2013-09-29T12:20:45Z</time>
      </trkpt>
      <trkpt lat="43.0882" lon="1.87427">
        <ele>307</ele>
        <time>2013-09-29T12:20:51Z</time>
      </trkpt>
      <trkpt lat="43.08818" lon="1.87425">
        <ele>305</ele>
        <time>2013-09-29T12:21:04Z</time>
      </trkpt>
      <trkpt lat="43.0882" lon="1.87424">
        <ele>305</ele>
        <time>2013-09-29T12:21:10Z</time>
      </trkpt>
      <trkpt lat="43.08821" lon="1.87425">
        <ele>305</ele>
        <time>2013-09-29T12:21:15Z</time>
      </trkpt>
      <trkpt lat="43.08819" lon="1.87426">
        <ele>311</ele>
        <time>2013-09-29T12:21:39Z</time>
      </trkpt>
      <trkpt lat="43.08816" lon="1.87428">
        <ele>311</ele>
        <time>2013-09-29T12:21:44Z</time>
      </trkpt>
      <trkpt lat="43.08816" lon="1.87429">
        <ele>311</ele>
        <time>2013-09-29T12:21:49Z</time>
      </trkpt>
      <trkpt lat="43.08815" lon="1.8743">
        <ele>306</ele>
        <time>2013-09-29T12:22:30Z</time>
      </trkpt>
      <trkpt lat="43.08816" lon="1.87431">
        <ele>308</ele>
        <time>2013-09-29T12:22:47Z</time>
      </trkpt>
      <trkpt lat="43.08817" lon="1.87431">
        <ele>308</ele>
        <time>2013-09-29T12:22:53Z</time>
      </trkpt>
      <trkpt lat="43.08817" lon="1.87429">
        <ele>303</ele>
        <time>2013-09-29T12:23:06Z</time>
      </trkpt>
      <trkpt lat="43.08815" lon="1.87429">
        <ele>303</ele>
        <time>2013-09-29T12:23:13Z</time>
      </trkpt>
      <trkpt lat="43.08814" lon="1.87428">
        <ele>305</ele>
        <time>2013-09-29T12:23:26Z</time>
      </trkpt>
      <trkpt lat="43.08815" lon="1.8743">
        <ele>309</ele>
        <time>2013-09-29T12:23:40Z</time>
      </trkpt>
      <trkpt lat="43.08817" lon="1.87431">
        <ele>311</ele>
        <time>2013-09-29T12:23:48Z</time>
      </trkpt>
      <trkpt lat="43.08816" lon="1.87429">
        <ele>311</ele>
        <time>2013-09-29T12:24:01Z</time>
      </trkpt>
      <trkpt lat="43.08815" lon="1.87427">
        <ele>311</ele>
        <time>2013-09-29T12:24:07Z</time>
      </trkpt>
      <trkpt lat="43.08814" lon="1.87425">
        <ele>311</ele>
        <time>2013-09-29T12:24:18Z</time>
      </trkpt>
      <trkpt lat="43.08813" lon="1.87423">
        <ele>311</ele>
        <time>2013-09-29T12:24:24Z</time>
      </trkpt>
      <trkpt lat="43.08812" lon="1.87424">
        <ele>311</ele>
        <time>2013-09-29T12:24:30Z</time>
      </trkpt>
      <trkpt lat="43.08816" lon="1.87425">
        <ele>311</ele>
        <time>2013-09-29T12:24:38Z</time>
      </trkpt>
      <trkpt lat="43.08817" lon="1.87425">
        <ele>312</ele>
        <time>2013-09-29T12:24:47Z</time>
      </trkpt>
      <trkpt lat="43.08819" lon="1.87426">
        <ele>312</ele>
        <time>2013-09-29T12:24:53Z</time>
      </trkpt>
      <trkpt lat="43.08818" lon="1.87426">
        <ele>312</ele>
        <time>2013-09-29T12:24:58Z</time>
      </trkpt>
      <trkpt lat="43.08816" lon="1.87426">
        <ele>311</ele>
        <time>2013-09-29T12:25:04Z</time>
      </trkpt>
      <trkpt lat="43.08816" lon="1.87426">
        <ele>309</ele>
        <time>2013-09-29T12:25:08Z</time>
      </trkpt>
    </trkseg>
  </trk>
</gpx>